<?xml version="1.0" encoding="UTF-8" standalone="no" ?>
<gpx xmlns="http://www.topografix.com/GPX/1/1" xmlns:xsi="http://www.w3.org/2001/XMLSchema-instance" xsi:schemaLocation="http://www.topografix.com/GPX/1/1 http://www.topografix.com/GPX/1/1/gpx.xsd" version="1.1" creator="VisuGPX - https://www.visugpx.com">
  <metadata>
    <name>Transmaurienne 2014 Jeudi</name>
    <desc><![CDATA[Transmaurienne 2014 Jeudi
 Etape 1
Albiez Montron]]></desc>
  </metadata>
  <trk>
    <name><![CDATA[Transmaurienne 2014 Jeudi_1]]></name>
    <trkseg>
      <trkpt lat="45.24811" lon="6.35422">
        <ele>1350</ele>
        <time>2014-08-07T08:38:30Z</time>
      </trkpt>
      <trkpt lat="45.24802" lon="6.35429">
        <ele>1350</ele>
        <time>2014-08-07T08:38:39Z</time>
      </trkpt>
      <trkpt lat="45.24798" lon="6.35415">
        <ele>1354</ele>
        <time>2014-08-07T08:39:14Z</time>
      </trkpt>
      <trkpt lat="45.24802" lon="6.35401">
        <ele>1354</ele>
        <time>2014-08-07T08:39:18Z</time>
      </trkpt>
      <trkpt lat="45.24805" lon="6.35388">
        <ele>1355</ele>
        <time>2014-08-07T08:39:21Z</time>
      </trkpt>
      <trkpt lat="45.24805" lon="6.35375">
        <ele>1356</ele>
        <time>2014-08-07T08:39:25Z</time>
      </trkpt>
      <trkpt lat="45.24798" lon="6.35365">
        <ele>1356</ele>
        <time>2014-08-07T08:39:31Z</time>
      </trkpt>
      <trkpt lat="45.24788" lon="6.3536">
        <ele>1357</ele>
        <time>2014-08-07T08:39:35Z</time>
      </trkpt>
      <trkpt lat="45.24778" lon="6.35352">
        <ele>1357</ele>
        <time>2014-08-07T08:39:39Z</time>
      </trkpt>
      <trkpt lat="45.24767" lon="6.35348">
        <ele>1357</ele>
        <time>2014-08-07T08:39:43Z</time>
      </trkpt>
      <trkpt lat="45.24755" lon="6.35344">
        <ele>1358</ele>
        <time>2014-08-07T08:39:47Z</time>
      </trkpt>
      <trkpt lat="45.24746" lon="6.3534">
        <ele>1358</ele>
        <time>2014-08-07T08:39:49Z</time>
      </trkpt>
      <trkpt lat="45.24737" lon="6.35334">
        <ele>1358</ele>
        <time>2014-08-07T08:39:51Z</time>
      </trkpt>
      <trkpt lat="45.24726" lon="6.35322">
        <ele>1363</ele>
        <time>2014-08-07T08:39:54Z</time>
      </trkpt>
      <trkpt lat="45.24717" lon="6.35311">
        <ele>1363</ele>
        <time>2014-08-07T08:39:57Z</time>
      </trkpt>
      <trkpt lat="45.24705" lon="6.35302">
        <ele>1364</ele>
        <time>2014-08-07T08:40:00Z</time>
      </trkpt>
      <trkpt lat="45.24696" lon="6.35295">
        <ele>1364</ele>
        <time>2014-08-07T08:40:04Z</time>
      </trkpt>
      <trkpt lat="45.24684" lon="6.35289">
        <ele>1364</ele>
        <time>2014-08-07T08:40:08Z</time>
      </trkpt>
      <trkpt lat="45.24674" lon="6.35281">
        <ele>1364</ele>
        <time>2014-08-07T08:40:11Z</time>
      </trkpt>
      <trkpt lat="45.24663" lon="6.35276">
        <ele>1364</ele>
        <time>2014-08-07T08:40:16Z</time>
      </trkpt>
      <trkpt lat="45.24653" lon="6.35272">
        <ele>1364</ele>
        <time>2014-08-07T08:40:20Z</time>
      </trkpt>
      <trkpt lat="45.24642" lon="6.35265">
        <ele>1364</ele>
        <time>2014-08-07T08:40:23Z</time>
      </trkpt>
      <trkpt lat="45.24632" lon="6.35257">
        <ele>1364</ele>
        <time>2014-08-07T08:40:26Z</time>
      </trkpt>
      <trkpt lat="45.2462" lon="6.35249">
        <ele>1367</ele>
        <time>2014-08-07T08:40:29Z</time>
      </trkpt>
      <trkpt lat="45.2461" lon="6.35239">
        <ele>1366</ele>
        <time>2014-08-07T08:40:32Z</time>
      </trkpt>
      <trkpt lat="45.24602" lon="6.35228">
        <ele>1366</ele>
        <time>2014-08-07T08:40:35Z</time>
      </trkpt>
      <trkpt lat="45.24594" lon="6.3522">
        <ele>1367</ele>
        <time>2014-08-07T08:40:38Z</time>
      </trkpt>
      <trkpt lat="45.24585" lon="6.3521">
        <ele>1367</ele>
        <time>2014-08-07T08:40:41Z</time>
      </trkpt>
      <trkpt lat="45.24575" lon="6.352">
        <ele>1367</ele>
        <time>2014-08-07T08:40:44Z</time>
      </trkpt>
      <trkpt lat="45.24564" lon="6.3519">
        <ele>1367</ele>
        <time>2014-08-07T08:40:47Z</time>
      </trkpt>
      <trkpt lat="45.24552" lon="6.3518">
        <ele>1367</ele>
        <time>2014-08-07T08:40:50Z</time>
      </trkpt>
      <trkpt lat="45.24542" lon="6.35171">
        <ele>1367</ele>
        <time>2014-08-07T08:40:52Z</time>
      </trkpt>
      <trkpt lat="45.24533" lon="6.35163">
        <ele>1367</ele>
        <time>2014-08-07T08:40:54Z</time>
      </trkpt>
      <trkpt lat="45.24522" lon="6.35156">
        <ele>1367</ele>
        <time>2014-08-07T08:40:56Z</time>
      </trkpt>
      <trkpt lat="45.24512" lon="6.35148">
        <ele>1367</ele>
        <time>2014-08-07T08:40:58Z</time>
      </trkpt>
      <trkpt lat="45.24503" lon="6.35137">
        <ele>1367</ele>
        <time>2014-08-07T08:41:00Z</time>
      </trkpt>
      <trkpt lat="45.24496" lon="6.35122">
        <ele>1362</ele>
        <time>2014-08-07T08:41:02Z</time>
      </trkpt>
      <trkpt lat="45.24499" lon="6.35107">
        <ele>1363</ele>
        <time>2014-08-07T08:41:04Z</time>
      </trkpt>
      <trkpt lat="45.24507" lon="6.35095">
        <ele>1366</ele>
        <time>2014-08-07T08:41:06Z</time>
      </trkpt>
      <trkpt lat="45.24516" lon="6.35087">
        <ele>1366</ele>
        <time>2014-08-07T08:41:08Z</time>
      </trkpt>
      <trkpt lat="45.24523" lon="6.35078">
        <ele>1365</ele>
        <time>2014-08-07T08:41:10Z</time>
      </trkpt>
      <trkpt lat="45.24526" lon="6.35064">
        <ele>1365</ele>
        <time>2014-08-07T08:41:12Z</time>
      </trkpt>
      <trkpt lat="45.24532" lon="6.35051">
        <ele>1365</ele>
        <time>2014-08-07T08:41:14Z</time>
      </trkpt>
      <trkpt lat="45.24539" lon="6.3504">
        <ele>1365</ele>
        <time>2014-08-07T08:41:16Z</time>
      </trkpt>
      <trkpt lat="45.24548" lon="6.3503">
        <ele>1364</ele>
        <time>2014-08-07T08:41:18Z</time>
      </trkpt>
      <trkpt lat="45.24555" lon="6.35021">
        <ele>1364</ele>
        <time>2014-08-07T08:41:20Z</time>
      </trkpt>
      <trkpt lat="45.24568" lon="6.35011">
        <ele>1364</ele>
        <time>2014-08-07T08:41:22Z</time>
      </trkpt>
      <trkpt lat="45.2458" lon="6.35001">
        <ele>1364</ele>
        <time>2014-08-07T08:41:24Z</time>
      </trkpt>
      <trkpt lat="45.24595" lon="6.34992">
        <ele>1363</ele>
        <time>2014-08-07T08:41:26Z</time>
      </trkpt>
      <trkpt lat="45.24603" lon="6.34986">
        <ele>1363</ele>
        <time>2014-08-07T08:41:27Z</time>
      </trkpt>
      <trkpt lat="45.24612" lon="6.3498">
        <ele>1363</ele>
        <time>2014-08-07T08:41:28Z</time>
      </trkpt>
      <trkpt lat="45.24627" lon="6.34964">
        <ele>1363</ele>
        <time>2014-08-07T08:41:30Z</time>
      </trkpt>
      <trkpt lat="45.2464" lon="6.34947">
        <ele>1363</ele>
        <time>2014-08-07T08:41:32Z</time>
      </trkpt>
      <trkpt lat="45.24654" lon="6.34932">
        <ele>1363</ele>
        <time>2014-08-07T08:41:34Z</time>
      </trkpt>
      <trkpt lat="45.24668" lon="6.34919">
        <ele>1364</ele>
        <time>2014-08-07T08:41:36Z</time>
      </trkpt>
      <trkpt lat="45.2468" lon="6.34903">
        <ele>1365</ele>
        <time>2014-08-07T08:41:38Z</time>
      </trkpt>
      <trkpt lat="45.24692" lon="6.3489">
        <ele>1365</ele>
        <time>2014-08-07T08:41:40Z</time>
      </trkpt>
      <trkpt lat="45.24703" lon="6.34874">
        <ele>1365</ele>
        <time>2014-08-07T08:41:42Z</time>
      </trkpt>
      <trkpt lat="45.24714" lon="6.34857">
        <ele>1365</ele>
        <time>2014-08-07T08:41:44Z</time>
      </trkpt>
      <trkpt lat="45.24724" lon="6.3484">
        <ele>1366</ele>
        <time>2014-08-07T08:41:46Z</time>
      </trkpt>
      <trkpt lat="45.24732" lon="6.34824">
        <ele>1361</ele>
        <time>2014-08-07T08:41:48Z</time>
      </trkpt>
      <trkpt lat="45.24743" lon="6.34807">
        <ele>1359</ele>
        <time>2014-08-07T08:41:50Z</time>
      </trkpt>
      <trkpt lat="45.24753" lon="6.34792">
        <ele>1367</ele>
        <time>2014-08-07T08:41:52Z</time>
      </trkpt>
      <trkpt lat="45.24764" lon="6.3478">
        <ele>1366</ele>
        <time>2014-08-07T08:41:54Z</time>
      </trkpt>
      <trkpt lat="45.24775" lon="6.34772">
        <ele>1366</ele>
        <time>2014-08-07T08:41:56Z</time>
      </trkpt>
      <trkpt lat="45.24787" lon="6.34764">
        <ele>1367</ele>
        <time>2014-08-07T08:41:58Z</time>
      </trkpt>
      <trkpt lat="45.24798" lon="6.34756">
        <ele>1368</ele>
        <time>2014-08-07T08:42:00Z</time>
      </trkpt>
      <trkpt lat="45.24809" lon="6.34748">
        <ele>1359</ele>
        <time>2014-08-07T08:42:02Z</time>
      </trkpt>
      <trkpt lat="45.24821" lon="6.3474">
        <ele>1360</ele>
        <time>2014-08-07T08:42:04Z</time>
      </trkpt>
      <trkpt lat="45.24833" lon="6.34733">
        <ele>1360</ele>
        <time>2014-08-07T08:42:06Z</time>
      </trkpt>
      <trkpt lat="45.24844" lon="6.34724">
        <ele>1364</ele>
        <time>2014-08-07T08:42:08Z</time>
      </trkpt>
      <trkpt lat="45.24856" lon="6.34716">
        <ele>1364</ele>
        <time>2014-08-07T08:42:10Z</time>
      </trkpt>
      <trkpt lat="45.24867" lon="6.34708">
        <ele>1363</ele>
        <time>2014-08-07T08:42:12Z</time>
      </trkpt>
      <trkpt lat="45.24878" lon="6.34701">
        <ele>1363</ele>
        <time>2014-08-07T08:42:14Z</time>
      </trkpt>
      <trkpt lat="45.24889" lon="6.34693">
        <ele>1363</ele>
        <time>2014-08-07T08:42:16Z</time>
      </trkpt>
      <trkpt lat="45.24901" lon="6.34686">
        <ele>1362</ele>
        <time>2014-08-07T08:42:18Z</time>
      </trkpt>
      <trkpt lat="45.24914" lon="6.34681">
        <ele>1361</ele>
        <time>2014-08-07T08:42:20Z</time>
      </trkpt>
      <trkpt lat="45.24927" lon="6.34678">
        <ele>1365</ele>
        <time>2014-08-07T08:42:22Z</time>
      </trkpt>
      <trkpt lat="45.24943" lon="6.34674">
        <ele>1367</ele>
        <time>2014-08-07T08:42:24Z</time>
      </trkpt>
      <trkpt lat="45.24957" lon="6.34671">
        <ele>1369</ele>
        <time>2014-08-07T08:42:26Z</time>
      </trkpt>
      <trkpt lat="45.24987" lon="6.34663">
        <ele>1360</ele>
        <time>2014-08-07T08:42:30Z</time>
      </trkpt>
      <trkpt lat="45.24996" lon="6.34662">
        <ele>1362</ele>
        <time>2014-08-07T08:42:31Z</time>
      </trkpt>
      <trkpt lat="45.25005" lon="6.34658">
        <ele>1362</ele>
        <time>2014-08-07T08:42:32Z</time>
      </trkpt>
      <trkpt lat="45.25015" lon="6.34654">
        <ele>1360</ele>
        <time>2014-08-07T08:42:33Z</time>
      </trkpt>
      <trkpt lat="45.25025" lon="6.34653">
        <ele>1358</ele>
        <time>2014-08-07T08:42:34Z</time>
      </trkpt>
      <trkpt lat="45.25037" lon="6.34653">
        <ele>1358</ele>
        <time>2014-08-07T08:42:35Z</time>
      </trkpt>
      <trkpt lat="45.25048" lon="6.34654">
        <ele>1357</ele>
        <time>2014-08-07T08:42:36Z</time>
      </trkpt>
      <trkpt lat="45.2506" lon="6.34654">
        <ele>1358</ele>
        <time>2014-08-07T08:42:37Z</time>
      </trkpt>
      <trkpt lat="45.25072" lon="6.34654">
        <ele>1358</ele>
        <time>2014-08-07T08:42:38Z</time>
      </trkpt>
      <trkpt lat="45.25081" lon="6.34651">
        <ele>1358</ele>
        <time>2014-08-07T08:42:39Z</time>
      </trkpt>
      <trkpt lat="45.25094" lon="6.34636">
        <ele>1360</ele>
        <time>2014-08-07T08:42:41Z</time>
      </trkpt>
      <trkpt lat="45.25097" lon="6.34612">
        <ele>1358</ele>
        <time>2014-08-07T08:42:43Z</time>
      </trkpt>
      <trkpt lat="45.25096" lon="6.34599">
        <ele>1357</ele>
        <time>2014-08-07T08:42:44Z</time>
      </trkpt>
      <trkpt lat="45.25094" lon="6.34586">
        <ele>1355</ele>
        <time>2014-08-07T08:42:45Z</time>
      </trkpt>
      <trkpt lat="45.25088" lon="6.34564">
        <ele>1356</ele>
        <time>2014-08-07T08:42:47Z</time>
      </trkpt>
      <trkpt lat="45.25083" lon="6.34546">
        <ele>1350</ele>
        <time>2014-08-07T08:42:49Z</time>
      </trkpt>
      <trkpt lat="45.2508" lon="6.34529">
        <ele>1351</ele>
        <time>2014-08-07T08:42:51Z</time>
      </trkpt>
      <trkpt lat="45.25079" lon="6.34512">
        <ele>1352</ele>
        <time>2014-08-07T08:42:53Z</time>
      </trkpt>
      <trkpt lat="45.2508" lon="6.34496">
        <ele>1354</ele>
        <time>2014-08-07T08:42:55Z</time>
      </trkpt>
      <trkpt lat="45.25085" lon="6.34482">
        <ele>1357</ele>
        <time>2014-08-07T08:42:57Z</time>
      </trkpt>
      <trkpt lat="45.25092" lon="6.34469">
        <ele>1358</ele>
        <time>2014-08-07T08:42:59Z</time>
      </trkpt>
      <trkpt lat="45.25103" lon="6.34458">
        <ele>1358</ele>
        <time>2014-08-07T08:43:01Z</time>
      </trkpt>
      <trkpt lat="45.25113" lon="6.34448">
        <ele>1359</ele>
        <time>2014-08-07T08:43:03Z</time>
      </trkpt>
      <trkpt lat="45.25123" lon="6.34436">
        <ele>1359</ele>
        <time>2014-08-07T08:43:05Z</time>
      </trkpt>
      <trkpt lat="45.25133" lon="6.34424">
        <ele>1359</ele>
        <time>2014-08-07T08:43:07Z</time>
      </trkpt>
      <trkpt lat="45.25146" lon="6.34416">
        <ele>1357</ele>
        <time>2014-08-07T08:43:09Z</time>
      </trkpt>
      <trkpt lat="45.2516" lon="6.34413">
        <ele>1359</ele>
        <time>2014-08-07T08:43:11Z</time>
      </trkpt>
      <trkpt lat="45.2517" lon="6.34411">
        <ele>1361</ele>
        <time>2014-08-07T08:43:13Z</time>
      </trkpt>
      <trkpt lat="45.25181" lon="6.34405">
        <ele>1362</ele>
        <time>2014-08-07T08:43:16Z</time>
      </trkpt>
      <trkpt lat="45.2519" lon="6.34397">
        <ele>1362</ele>
        <time>2014-08-07T08:43:20Z</time>
      </trkpt>
      <trkpt lat="45.25195" lon="6.34383">
        <ele>1362</ele>
        <time>2014-08-07T08:43:23Z</time>
      </trkpt>
      <trkpt lat="45.25199" lon="6.34369">
        <ele>1362</ele>
        <time>2014-08-07T08:43:25Z</time>
      </trkpt>
      <trkpt lat="45.252" lon="6.34353">
        <ele>1362</ele>
        <time>2014-08-07T08:43:27Z</time>
      </trkpt>
      <trkpt lat="45.25203" lon="6.34334">
        <ele>1362</ele>
        <time>2014-08-07T08:43:29Z</time>
      </trkpt>
      <trkpt lat="45.25208" lon="6.34316">
        <ele>1361</ele>
        <time>2014-08-07T08:43:31Z</time>
      </trkpt>
      <trkpt lat="45.25215" lon="6.34302">
        <ele>1362</ele>
        <time>2014-08-07T08:43:33Z</time>
      </trkpt>
      <trkpt lat="45.25223" lon="6.34294">
        <ele>1362</ele>
        <time>2014-08-07T08:43:35Z</time>
      </trkpt>
      <trkpt lat="45.25232" lon="6.34283">
        <ele>1363</ele>
        <time>2014-08-07T08:43:38Z</time>
      </trkpt>
      <trkpt lat="45.25236" lon="6.34269">
        <ele>1365</ele>
        <time>2014-08-07T08:43:42Z</time>
      </trkpt>
      <trkpt lat="45.25238" lon="6.34253">
        <ele>1366</ele>
        <time>2014-08-07T08:43:46Z</time>
      </trkpt>
      <trkpt lat="45.25244" lon="6.34238">
        <ele>1365</ele>
        <time>2014-08-07T08:43:51Z</time>
      </trkpt>
      <trkpt lat="45.25255" lon="6.34238">
        <ele>1370</ele>
        <time>2014-08-07T08:43:57Z</time>
      </trkpt>
      <trkpt lat="45.25259" lon="6.34251">
        <ele>1371</ele>
        <time>2014-08-07T08:44:05Z</time>
      </trkpt>
      <trkpt lat="45.25266" lon="6.34262">
        <ele>1372</ele>
        <time>2014-08-07T08:44:10Z</time>
      </trkpt>
      <trkpt lat="45.25274" lon="6.34272">
        <ele>1372</ele>
        <time>2014-08-07T08:44:16Z</time>
      </trkpt>
      <trkpt lat="45.25282" lon="6.34278">
        <ele>1373</ele>
        <time>2014-08-07T08:44:21Z</time>
      </trkpt>
      <trkpt lat="45.25291" lon="6.34287">
        <ele>1373</ele>
        <time>2014-08-07T08:44:27Z</time>
      </trkpt>
      <trkpt lat="45.25301" lon="6.34291">
        <ele>1373</ele>
        <time>2014-08-07T08:44:32Z</time>
      </trkpt>
      <trkpt lat="45.25311" lon="6.34298">
        <ele>1373</ele>
        <time>2014-08-07T08:44:36Z</time>
      </trkpt>
      <trkpt lat="45.2532" lon="6.343">
        <ele>1373</ele>
        <time>2014-08-07T08:44:39Z</time>
      </trkpt>
      <trkpt lat="45.25331" lon="6.34303">
        <ele>1373</ele>
        <time>2014-08-07T08:44:43Z</time>
      </trkpt>
      <trkpt lat="45.25341" lon="6.34303">
        <ele>1370</ele>
        <time>2014-08-07T08:44:46Z</time>
      </trkpt>
      <trkpt lat="45.25351" lon="6.343">
        <ele>1370</ele>
        <time>2014-08-07T08:44:49Z</time>
      </trkpt>
      <trkpt lat="45.25362" lon="6.34295">
        <ele>1369</ele>
        <time>2014-08-07T08:44:52Z</time>
      </trkpt>
      <trkpt lat="45.25374" lon="6.34287">
        <ele>1367</ele>
        <time>2014-08-07T08:44:55Z</time>
      </trkpt>
      <trkpt lat="45.25387" lon="6.34289">
        <ele>1366</ele>
        <time>2014-08-07T08:44:58Z</time>
      </trkpt>
      <trkpt lat="45.25395" lon="6.34295">
        <ele>1365</ele>
        <time>2014-08-07T08:45:00Z</time>
      </trkpt>
      <trkpt lat="45.25405" lon="6.34307">
        <ele>1365</ele>
        <time>2014-08-07T08:45:03Z</time>
      </trkpt>
      <trkpt lat="45.25412" lon="6.34316">
        <ele>1366</ele>
        <time>2014-08-07T08:45:05Z</time>
      </trkpt>
      <trkpt lat="45.25423" lon="6.3433">
        <ele>1358</ele>
        <time>2014-08-07T08:45:08Z</time>
      </trkpt>
      <trkpt lat="45.25429" lon="6.34341">
        <ele>1360</ele>
        <time>2014-08-07T08:45:10Z</time>
      </trkpt>
      <trkpt lat="45.25437" lon="6.34355">
        <ele>1357</ele>
        <time>2014-08-07T08:45:13Z</time>
      </trkpt>
      <trkpt lat="45.25443" lon="6.3437">
        <ele>1356</ele>
        <time>2014-08-07T08:45:16Z</time>
      </trkpt>
      <trkpt lat="45.25448" lon="6.34384">
        <ele>1357</ele>
        <time>2014-08-07T08:45:19Z</time>
      </trkpt>
      <trkpt lat="45.25453" lon="6.34396">
        <ele>1357</ele>
        <time>2014-08-07T08:45:22Z</time>
      </trkpt>
      <trkpt lat="45.25456" lon="6.34409">
        <ele>1358</ele>
        <time>2014-08-07T08:45:25Z</time>
      </trkpt>
      <trkpt lat="45.25457" lon="6.34424">
        <ele>1367</ele>
        <time>2014-08-07T08:45:29Z</time>
      </trkpt>
      <trkpt lat="45.25459" lon="6.3444">
        <ele>1367</ele>
        <time>2014-08-07T08:45:32Z</time>
      </trkpt>
      <trkpt lat="45.25462" lon="6.34455">
        <ele>1368</ele>
        <time>2014-08-07T08:45:35Z</time>
      </trkpt>
      <trkpt lat="45.25467" lon="6.34471">
        <ele>1369</ele>
        <time>2014-08-07T08:45:38Z</time>
      </trkpt>
      <trkpt lat="45.25472" lon="6.34485">
        <ele>1370</ele>
        <time>2014-08-07T08:45:40Z</time>
      </trkpt>
      <trkpt lat="45.25478" lon="6.34499">
        <ele>1370</ele>
        <time>2014-08-07T08:45:42Z</time>
      </trkpt>
      <trkpt lat="45.25488" lon="6.34512">
        <ele>1376</ele>
        <time>2014-08-07T08:45:44Z</time>
      </trkpt>
      <trkpt lat="45.25496" lon="6.34524">
        <ele>1377</ele>
        <time>2014-08-07T08:45:46Z</time>
      </trkpt>
      <trkpt lat="45.25505" lon="6.34535">
        <ele>1373</ele>
        <time>2014-08-07T08:45:48Z</time>
      </trkpt>
      <trkpt lat="45.25513" lon="6.34543">
        <ele>1373</ele>
        <time>2014-08-07T08:45:51Z</time>
      </trkpt>
      <trkpt lat="45.25522" lon="6.3455">
        <ele>1374</ele>
        <time>2014-08-07T08:45:54Z</time>
      </trkpt>
      <trkpt lat="45.2553" lon="6.34557">
        <ele>1374</ele>
        <time>2014-08-07T08:45:58Z</time>
      </trkpt>
      <trkpt lat="45.25537" lon="6.34566">
        <ele>1374</ele>
        <time>2014-08-07T08:46:03Z</time>
      </trkpt>
      <trkpt lat="45.25546" lon="6.34577">
        <ele>1374</ele>
        <time>2014-08-07T08:46:07Z</time>
      </trkpt>
      <trkpt lat="45.25554" lon="6.34588">
        <ele>1387</ele>
        <time>2014-08-07T08:46:13Z</time>
      </trkpt>
      <trkpt lat="45.25561" lon="6.34599">
        <ele>1387</ele>
        <time>2014-08-07T08:46:22Z</time>
      </trkpt>
      <trkpt lat="45.25571" lon="6.34603">
        <ele>1387</ele>
        <time>2014-08-07T08:46:26Z</time>
      </trkpt>
      <trkpt lat="45.25578" lon="6.34613">
        <ele>1389</ele>
        <time>2014-08-07T08:46:32Z</time>
      </trkpt>
      <trkpt lat="45.25585" lon="6.34623">
        <ele>1382</ele>
        <time>2014-08-07T08:46:37Z</time>
      </trkpt>
      <trkpt lat="45.25592" lon="6.34633">
        <ele>1384</ele>
        <time>2014-08-07T08:46:42Z</time>
      </trkpt>
      <trkpt lat="45.25601" lon="6.34645">
        <ele>1386</ele>
        <time>2014-08-07T08:46:47Z</time>
      </trkpt>
      <trkpt lat="45.25607" lon="6.34658">
        <ele>1387</ele>
        <time>2014-08-07T08:46:50Z</time>
      </trkpt>
      <trkpt lat="45.25615" lon="6.34669">
        <ele>1397</ele>
        <time>2014-08-07T08:46:53Z</time>
      </trkpt>
      <trkpt lat="45.25625" lon="6.34676">
        <ele>1395</ele>
        <time>2014-08-07T08:46:56Z</time>
      </trkpt>
      <trkpt lat="45.2564" lon="6.34682">
        <ele>1393</ele>
        <time>2014-08-07T08:46:59Z</time>
      </trkpt>
      <trkpt lat="45.2565" lon="6.34689">
        <ele>1392</ele>
        <time>2014-08-07T08:47:01Z</time>
      </trkpt>
      <trkpt lat="45.25661" lon="6.34703">
        <ele>1393</ele>
        <time>2014-08-07T08:47:04Z</time>
      </trkpt>
      <trkpt lat="45.2567" lon="6.34719">
        <ele>1378</ele>
        <time>2014-08-07T08:47:06Z</time>
      </trkpt>
      <trkpt lat="45.25678" lon="6.34737">
        <ele>1382</ele>
        <time>2014-08-07T08:47:08Z</time>
      </trkpt>
      <trkpt lat="45.25688" lon="6.34754">
        <ele>1388</ele>
        <time>2014-08-07T08:47:10Z</time>
      </trkpt>
      <trkpt lat="45.257" lon="6.3477">
        <ele>1384</ele>
        <time>2014-08-07T08:47:12Z</time>
      </trkpt>
      <trkpt lat="45.25713" lon="6.34786">
        <ele>1382</ele>
        <time>2014-08-07T08:47:14Z</time>
      </trkpt>
      <trkpt lat="45.25723" lon="6.34804">
        <ele>1381</ele>
        <time>2014-08-07T08:47:16Z</time>
      </trkpt>
      <trkpt lat="45.25731" lon="6.34825">
        <ele>1379</ele>
        <time>2014-08-07T08:47:18Z</time>
      </trkpt>
      <trkpt lat="45.25737" lon="6.34846">
        <ele>1380</ele>
        <time>2014-08-07T08:47:20Z</time>
      </trkpt>
      <trkpt lat="45.25741" lon="6.34866">
        <ele>1382</ele>
        <time>2014-08-07T08:47:22Z</time>
      </trkpt>
      <trkpt lat="45.25744" lon="6.34887">
        <ele>1381</ele>
        <time>2014-08-07T08:47:24Z</time>
      </trkpt>
      <trkpt lat="45.25743" lon="6.3491">
        <ele>1377</ele>
        <time>2014-08-07T08:47:26Z</time>
      </trkpt>
      <trkpt lat="45.25744" lon="6.34928">
        <ele>1375</ele>
        <time>2014-08-07T08:47:28Z</time>
      </trkpt>
      <trkpt lat="45.25745" lon="6.34944">
        <ele>1375</ele>
        <time>2014-08-07T08:47:30Z</time>
      </trkpt>
      <trkpt lat="45.25739" lon="6.34954">
        <ele>1375</ele>
        <time>2014-08-07T08:47:32Z</time>
      </trkpt>
      <trkpt lat="45.25735" lon="6.34968">
        <ele>1373</ele>
        <time>2014-08-07T08:47:34Z</time>
      </trkpt>
      <trkpt lat="45.25726" lon="6.34979">
        <ele>1373</ele>
        <time>2014-08-07T08:47:36Z</time>
      </trkpt>
      <trkpt lat="45.25713" lon="6.34994">
        <ele>1374</ele>
        <time>2014-08-07T08:47:38Z</time>
      </trkpt>
      <trkpt lat="45.25703" lon="6.35012">
        <ele>1363</ele>
        <time>2014-08-07T08:47:40Z</time>
      </trkpt>
      <trkpt lat="45.25695" lon="6.35029">
        <ele>1362</ele>
        <time>2014-08-07T08:47:42Z</time>
      </trkpt>
      <trkpt lat="45.25681" lon="6.35051">
        <ele>1361</ele>
        <time>2014-08-07T08:47:45Z</time>
      </trkpt>
      <trkpt lat="45.25679" lon="6.35069">
        <ele>1360</ele>
        <time>2014-08-07T08:47:47Z</time>
      </trkpt>
      <trkpt lat="45.2567" lon="6.35084">
        <ele>1358</ele>
        <time>2014-08-07T08:47:49Z</time>
      </trkpt>
      <trkpt lat="45.25659" lon="6.351">
        <ele>1356</ele>
        <time>2014-08-07T08:47:51Z</time>
      </trkpt>
      <trkpt lat="45.25647" lon="6.35111">
        <ele>1354</ele>
        <time>2014-08-07T08:47:53Z</time>
      </trkpt>
      <trkpt lat="45.25632" lon="6.35123">
        <ele>1352</ele>
        <time>2014-08-07T08:47:55Z</time>
      </trkpt>
      <trkpt lat="45.25622" lon="6.35126">
        <ele>1352</ele>
        <time>2014-08-07T08:47:56Z</time>
      </trkpt>
      <trkpt lat="45.25613" lon="6.35129">
        <ele>1352</ele>
        <time>2014-08-07T08:47:57Z</time>
      </trkpt>
      <trkpt lat="45.25604" lon="6.35132">
        <ele>1352</ele>
        <time>2014-08-07T08:47:58Z</time>
      </trkpt>
      <trkpt lat="45.25593" lon="6.35135">
        <ele>1351</ele>
        <time>2014-08-07T08:47:59Z</time>
      </trkpt>
      <trkpt lat="45.25583" lon="6.35137">
        <ele>1356</ele>
        <time>2014-08-07T08:48:00Z</time>
      </trkpt>
      <trkpt lat="45.25569" lon="6.3514">
        <ele>1355</ele>
        <time>2014-08-07T08:48:02Z</time>
      </trkpt>
      <trkpt lat="45.25556" lon="6.35146">
        <ele>1356</ele>
        <time>2014-08-07T08:48:04Z</time>
      </trkpt>
      <trkpt lat="45.25544" lon="6.35153">
        <ele>1356</ele>
        <time>2014-08-07T08:48:06Z</time>
      </trkpt>
      <trkpt lat="45.25528" lon="6.35157">
        <ele>1355</ele>
        <time>2014-08-07T08:48:08Z</time>
      </trkpt>
      <trkpt lat="45.25504" lon="6.35164">
        <ele>1350</ele>
        <time>2014-08-07T08:48:12Z</time>
      </trkpt>
      <trkpt lat="45.25486" lon="6.35154">
        <ele>1360</ele>
        <time>2014-08-07T08:48:14Z</time>
      </trkpt>
      <trkpt lat="45.25473" lon="6.35148">
        <ele>1365</ele>
        <time>2014-08-07T08:48:16Z</time>
      </trkpt>
      <trkpt lat="45.25463" lon="6.35151">
        <ele>1366</ele>
        <time>2014-08-07T08:48:19Z</time>
      </trkpt>
      <trkpt lat="45.25459" lon="6.35167">
        <ele>1348</ele>
        <time>2014-08-07T08:48:27Z</time>
      </trkpt>
      <trkpt lat="45.2545" lon="6.35191">
        <ele>1347</ele>
        <time>2014-08-07T08:48:29Z</time>
      </trkpt>
      <trkpt lat="45.25448" lon="6.3521">
        <ele>1345</ele>
        <time>2014-08-07T08:48:31Z</time>
      </trkpt>
      <trkpt lat="45.25445" lon="6.35227">
        <ele>1344</ele>
        <time>2014-08-07T08:48:33Z</time>
      </trkpt>
      <trkpt lat="45.25434" lon="6.35242">
        <ele>1343</ele>
        <time>2014-08-07T08:48:35Z</time>
      </trkpt>
      <trkpt lat="45.25426" lon="6.35248">
        <ele>1343</ele>
        <time>2014-08-07T08:48:36Z</time>
      </trkpt>
      <trkpt lat="45.25411" lon="6.35258">
        <ele>1340</ele>
        <time>2014-08-07T08:48:38Z</time>
      </trkpt>
      <trkpt lat="45.25402" lon="6.35264">
        <ele>1338</ele>
        <time>2014-08-07T08:48:39Z</time>
      </trkpt>
      <trkpt lat="45.25392" lon="6.3527">
        <ele>1337</ele>
        <time>2014-08-07T08:48:40Z</time>
      </trkpt>
      <trkpt lat="45.25384" lon="6.35274">
        <ele>1337</ele>
        <time>2014-08-07T08:48:41Z</time>
      </trkpt>
      <trkpt lat="45.25375" lon="6.35278">
        <ele>1337</ele>
        <time>2014-08-07T08:48:42Z</time>
      </trkpt>
      <trkpt lat="45.25361" lon="6.35285">
        <ele>1337</ele>
        <time>2014-08-07T08:48:44Z</time>
      </trkpt>
      <trkpt lat="45.25352" lon="6.35289">
        <ele>1337</ele>
        <time>2014-08-07T08:48:45Z</time>
      </trkpt>
      <trkpt lat="45.25336" lon="6.3529">
        <ele>1338</ele>
        <time>2014-08-07T08:48:47Z</time>
      </trkpt>
      <trkpt lat="45.25325" lon="6.35287">
        <ele>1345</ele>
        <time>2014-08-07T08:48:48Z</time>
      </trkpt>
      <trkpt lat="45.25311" lon="6.35283">
        <ele>1346</ele>
        <time>2014-08-07T08:48:50Z</time>
      </trkpt>
      <trkpt lat="45.25301" lon="6.3528">
        <ele>1347</ele>
        <time>2014-08-07T08:48:52Z</time>
      </trkpt>
      <trkpt lat="45.2529" lon="6.3528">
        <ele>1347</ele>
        <time>2014-08-07T08:48:54Z</time>
      </trkpt>
      <trkpt lat="45.25276" lon="6.35284">
        <ele>1348</ele>
        <time>2014-08-07T08:48:56Z</time>
      </trkpt>
      <trkpt lat="45.25268" lon="6.35298">
        <ele>1346</ele>
        <time>2014-08-07T08:48:59Z</time>
      </trkpt>
      <trkpt lat="45.25255" lon="6.35308">
        <ele>1345</ele>
        <time>2014-08-07T08:49:01Z</time>
      </trkpt>
      <trkpt lat="45.25254" lon="6.35326">
        <ele>1343</ele>
        <time>2014-08-07T08:49:04Z</time>
      </trkpt>
      <trkpt lat="45.25245" lon="6.35339">
        <ele>1341</ele>
        <time>2014-08-07T08:49:07Z</time>
      </trkpt>
      <trkpt lat="45.25236" lon="6.35347">
        <ele>1340</ele>
        <time>2014-08-07T08:49:09Z</time>
      </trkpt>
      <trkpt lat="45.25227" lon="6.35354">
        <ele>1340</ele>
        <time>2014-08-07T08:49:11Z</time>
      </trkpt>
      <trkpt lat="45.25215" lon="6.35361">
        <ele>1340</ele>
        <time>2014-08-07T08:49:13Z</time>
      </trkpt>
      <trkpt lat="45.25205" lon="6.35369">
        <ele>1339</ele>
        <time>2014-08-07T08:49:15Z</time>
      </trkpt>
      <trkpt lat="45.25194" lon="6.35374">
        <ele>1339</ele>
        <time>2014-08-07T08:49:17Z</time>
      </trkpt>
      <trkpt lat="45.25184" lon="6.35379">
        <ele>1339</ele>
        <time>2014-08-07T08:49:19Z</time>
      </trkpt>
      <trkpt lat="45.25175" lon="6.35385">
        <ele>1338</ele>
        <time>2014-08-07T08:49:21Z</time>
      </trkpt>
      <trkpt lat="45.25161" lon="6.3539">
        <ele>1342</ele>
        <time>2014-08-07T08:49:23Z</time>
      </trkpt>
      <trkpt lat="45.25147" lon="6.35394">
        <ele>1342</ele>
        <time>2014-08-07T08:49:25Z</time>
      </trkpt>
      <trkpt lat="45.25134" lon="6.35396">
        <ele>1342</ele>
        <time>2014-08-07T08:49:27Z</time>
      </trkpt>
      <trkpt lat="45.25124" lon="6.35398">
        <ele>1342</ele>
        <time>2014-08-07T08:49:29Z</time>
      </trkpt>
      <trkpt lat="45.25111" lon="6.35399">
        <ele>1342</ele>
        <time>2014-08-07T08:49:32Z</time>
      </trkpt>
      <trkpt lat="45.251" lon="6.35402">
        <ele>1341</ele>
        <time>2014-08-07T08:49:34Z</time>
      </trkpt>
      <trkpt lat="45.2509" lon="6.35401">
        <ele>1340</ele>
        <time>2014-08-07T08:49:36Z</time>
      </trkpt>
      <trkpt lat="45.25078" lon="6.35401">
        <ele>1342</ele>
        <time>2014-08-07T08:49:39Z</time>
      </trkpt>
      <trkpt lat="45.25064" lon="6.35402">
        <ele>1343</ele>
        <time>2014-08-07T08:49:43Z</time>
      </trkpt>
      <trkpt lat="45.25054" lon="6.35402">
        <ele>1344</ele>
        <time>2014-08-07T08:49:46Z</time>
      </trkpt>
      <trkpt lat="45.25044" lon="6.35401">
        <ele>1345</ele>
        <time>2014-08-07T08:49:49Z</time>
      </trkpt>
      <trkpt lat="45.25031" lon="6.35399">
        <ele>1346</ele>
        <time>2014-08-07T08:49:53Z</time>
      </trkpt>
      <trkpt lat="45.25022" lon="6.35397">
        <ele>1346</ele>
        <time>2014-08-07T08:49:56Z</time>
      </trkpt>
      <trkpt lat="45.25012" lon="6.35393">
        <ele>1346</ele>
        <time>2014-08-07T08:50:01Z</time>
      </trkpt>
      <trkpt lat="45.25002" lon="6.35389">
        <ele>1346</ele>
        <time>2014-08-07T08:50:05Z</time>
      </trkpt>
      <trkpt lat="45.24991" lon="6.35386">
        <ele>1349</ele>
        <time>2014-08-07T08:50:08Z</time>
      </trkpt>
      <trkpt lat="45.2498" lon="6.35384">
        <ele>1350</ele>
        <time>2014-08-07T08:50:12Z</time>
      </trkpt>
      <trkpt lat="45.24968" lon="6.35387">
        <ele>1350</ele>
        <time>2014-08-07T08:50:18Z</time>
      </trkpt>
      <trkpt lat="45.24956" lon="6.35387">
        <ele>1350</ele>
        <time>2014-08-07T08:50:22Z</time>
      </trkpt>
      <trkpt lat="45.24944" lon="6.35386">
        <ele>1350</ele>
        <time>2014-08-07T08:50:25Z</time>
      </trkpt>
      <trkpt lat="45.24934" lon="6.35383">
        <ele>1351</ele>
        <time>2014-08-07T08:50:28Z</time>
      </trkpt>
      <trkpt lat="45.24923" lon="6.35376">
        <ele>1352</ele>
        <time>2014-08-07T08:50:33Z</time>
      </trkpt>
      <trkpt lat="45.24912" lon="6.35372">
        <ele>1354</ele>
        <time>2014-08-07T08:50:37Z</time>
      </trkpt>
      <trkpt lat="45.24901" lon="6.35369">
        <ele>1355</ele>
        <time>2014-08-07T08:50:42Z</time>
      </trkpt>
      <trkpt lat="45.2489" lon="6.35368">
        <ele>1355</ele>
        <time>2014-08-07T08:50:44Z</time>
      </trkpt>
      <trkpt lat="45.24879" lon="6.35369">
        <ele>1355</ele>
        <time>2014-08-07T08:50:48Z</time>
      </trkpt>
      <trkpt lat="45.2487" lon="6.35367">
        <ele>1355</ele>
        <time>2014-08-07T08:50:53Z</time>
      </trkpt>
      <trkpt lat="45.24859" lon="6.35369">
        <ele>1355</ele>
        <time>2014-08-07T08:50:57Z</time>
      </trkpt>
      <trkpt lat="45.24846" lon="6.35369">
        <ele>1356</ele>
        <time>2014-08-07T08:51:02Z</time>
      </trkpt>
      <trkpt lat="45.24832" lon="6.35369">
        <ele>1357</ele>
        <time>2014-08-07T08:51:05Z</time>
      </trkpt>
      <trkpt lat="45.24821" lon="6.35374">
        <ele>1356</ele>
        <time>2014-08-07T08:51:07Z</time>
      </trkpt>
      <trkpt lat="45.24814" lon="6.35383">
        <ele>1355</ele>
        <time>2014-08-07T08:51:09Z</time>
      </trkpt>
      <trkpt lat="45.24807" lon="6.35396">
        <ele>1354</ele>
        <time>2014-08-07T08:51:11Z</time>
      </trkpt>
      <trkpt lat="45.24803" lon="6.35411">
        <ele>1354</ele>
        <time>2014-08-07T08:51:13Z</time>
      </trkpt>
      <trkpt lat="45.248" lon="6.35424">
        <ele>1350</ele>
        <time>2014-08-07T08:51:15Z</time>
      </trkpt>
      <trkpt lat="45.24797" lon="6.35438">
        <ele>1350</ele>
        <time>2014-08-07T08:51:17Z</time>
      </trkpt>
      <trkpt lat="45.2479" lon="6.35447">
        <ele>1350</ele>
        <time>2014-08-07T08:51:20Z</time>
      </trkpt>
      <trkpt lat="45.24778" lon="6.35444">
        <ele>1350</ele>
        <time>2014-08-07T08:51:23Z</time>
      </trkpt>
      <trkpt lat="45.24767" lon="6.35434">
        <ele>1351</ele>
        <time>2014-08-07T08:51:26Z</time>
      </trkpt>
      <trkpt lat="45.24757" lon="6.35437">
        <ele>1351</ele>
        <time>2014-08-07T08:51:30Z</time>
      </trkpt>
      <trkpt lat="45.2475" lon="6.35446">
        <ele>1351</ele>
        <time>2014-08-07T08:51:34Z</time>
      </trkpt>
      <trkpt lat="45.24741" lon="6.35452">
        <ele>1355</ele>
        <time>2014-08-07T08:51:39Z</time>
      </trkpt>
      <trkpt lat="45.24731" lon="6.35458">
        <ele>1355</ele>
        <time>2014-08-07T08:51:44Z</time>
      </trkpt>
      <trkpt lat="45.24722" lon="6.35466">
        <ele>1356</ele>
        <time>2014-08-07T08:51:50Z</time>
      </trkpt>
      <trkpt lat="45.24713" lon="6.35471">
        <ele>1356</ele>
        <time>2014-08-07T08:51:56Z</time>
      </trkpt>
      <trkpt lat="45.24701" lon="6.35472">
        <ele>1357</ele>
        <time>2014-08-07T08:52:09Z</time>
      </trkpt>
      <trkpt lat="45.24693" lon="6.35461">
        <ele>1357</ele>
        <time>2014-08-07T08:52:14Z</time>
      </trkpt>
      <trkpt lat="45.24684" lon="6.3545">
        <ele>1357</ele>
        <time>2014-08-07T08:52:17Z</time>
      </trkpt>
      <trkpt lat="45.24675" lon="6.35443">
        <ele>1358</ele>
        <time>2014-08-07T08:52:20Z</time>
      </trkpt>
      <trkpt lat="45.24668" lon="6.35432">
        <ele>1358</ele>
        <time>2014-08-07T08:52:23Z</time>
      </trkpt>
      <trkpt lat="45.24661" lon="6.35419">
        <ele>1360</ele>
        <time>2014-08-07T08:52:26Z</time>
      </trkpt>
      <trkpt lat="45.24658" lon="6.35405">
        <ele>1359</ele>
        <time>2014-08-07T08:52:29Z</time>
      </trkpt>
      <trkpt lat="45.24658" lon="6.35387">
        <ele>1360</ele>
        <time>2014-08-07T08:52:32Z</time>
      </trkpt>
      <trkpt lat="45.2466" lon="6.3537">
        <ele>1360</ele>
        <time>2014-08-07T08:52:35Z</time>
      </trkpt>
      <trkpt lat="45.24658" lon="6.35354">
        <ele>1360</ele>
        <time>2014-08-07T08:52:38Z</time>
      </trkpt>
      <trkpt lat="45.24659" lon="6.35336">
        <ele>1360</ele>
        <time>2014-08-07T08:52:41Z</time>
      </trkpt>
      <trkpt lat="45.24663" lon="6.35321">
        <ele>1361</ele>
        <time>2014-08-07T08:52:44Z</time>
      </trkpt>
      <trkpt lat="45.24669" lon="6.35307">
        <ele>1363</ele>
        <time>2014-08-07T08:52:48Z</time>
      </trkpt>
      <trkpt lat="45.2467" lon="6.35294">
        <ele>1364</ele>
        <time>2014-08-07T08:52:52Z</time>
      </trkpt>
      <trkpt lat="45.2467" lon="6.35277">
        <ele>1365</ele>
        <time>2014-08-07T08:52:56Z</time>
      </trkpt>
      <trkpt lat="45.24662" lon="6.35267">
        <ele>1364</ele>
        <time>2014-08-07T08:53:00Z</time>
      </trkpt>
      <trkpt lat="45.24653" lon="6.35263">
        <ele>1364</ele>
        <time>2014-08-07T08:53:04Z</time>
      </trkpt>
      <trkpt lat="45.24644" lon="6.35259">
        <ele>1364</ele>
        <time>2014-08-07T08:53:07Z</time>
      </trkpt>
      <trkpt lat="45.24635" lon="6.35254">
        <ele>1364</ele>
        <time>2014-08-07T08:53:10Z</time>
      </trkpt>
      <trkpt lat="45.24625" lon="6.35249">
        <ele>1367</ele>
        <time>2014-08-07T08:53:13Z</time>
      </trkpt>
      <trkpt lat="45.24617" lon="6.35242">
        <ele>1367</ele>
        <time>2014-08-07T08:53:16Z</time>
      </trkpt>
      <trkpt lat="45.24608" lon="6.35235">
        <ele>1366</ele>
        <time>2014-08-07T08:53:19Z</time>
      </trkpt>
      <trkpt lat="45.246" lon="6.35228">
        <ele>1366</ele>
        <time>2014-08-07T08:53:22Z</time>
      </trkpt>
      <trkpt lat="45.2459" lon="6.35217">
        <ele>1367</ele>
        <time>2014-08-07T08:53:26Z</time>
      </trkpt>
      <trkpt lat="45.24582" lon="6.35209">
        <ele>1367</ele>
        <time>2014-08-07T08:53:30Z</time>
      </trkpt>
      <trkpt lat="45.24576" lon="6.35221">
        <ele>1367</ele>
        <time>2014-08-07T08:53:34Z</time>
      </trkpt>
      <trkpt lat="45.24573" lon="6.35234">
        <ele>1366</ele>
        <time>2014-08-07T08:53:37Z</time>
      </trkpt>
      <trkpt lat="45.24566" lon="6.35249">
        <ele>1366</ele>
        <time>2014-08-07T08:53:41Z</time>
      </trkpt>
      <trkpt lat="45.24561" lon="6.35263">
        <ele>1367</ele>
        <time>2014-08-07T08:53:45Z</time>
      </trkpt>
      <trkpt lat="45.24554" lon="6.35277">
        <ele>1367</ele>
        <time>2014-08-07T08:53:49Z</time>
      </trkpt>
      <trkpt lat="45.24548" lon="6.3529">
        <ele>1367</ele>
        <time>2014-08-07T08:53:53Z</time>
      </trkpt>
      <trkpt lat="45.24543" lon="6.35302">
        <ele>1368</ele>
        <time>2014-08-07T08:53:58Z</time>
      </trkpt>
      <trkpt lat="45.24534" lon="6.35311">
        <ele>1368</ele>
        <time>2014-08-07T08:54:03Z</time>
      </trkpt>
      <trkpt lat="45.24524" lon="6.35318">
        <ele>1369</ele>
        <time>2014-08-07T08:54:07Z</time>
      </trkpt>
      <trkpt lat="45.24516" lon="6.35326">
        <ele>1370</ele>
        <time>2014-08-07T08:54:10Z</time>
      </trkpt>
      <trkpt lat="45.2451" lon="6.35337">
        <ele>1371</ele>
        <time>2014-08-07T08:54:14Z</time>
      </trkpt>
      <trkpt lat="45.24503" lon="6.3535">
        <ele>1371</ele>
        <time>2014-08-07T08:54:18Z</time>
      </trkpt>
      <trkpt lat="45.24496" lon="6.35362">
        <ele>1375</ele>
        <time>2014-08-07T08:54:22Z</time>
      </trkpt>
      <trkpt lat="45.24488" lon="6.35374">
        <ele>1375</ele>
        <time>2014-08-07T08:54:28Z</time>
      </trkpt>
      <trkpt lat="45.24478" lon="6.35378">
        <ele>1376</ele>
        <time>2014-08-07T08:54:32Z</time>
      </trkpt>
      <trkpt lat="45.24467" lon="6.35383">
        <ele>1376</ele>
        <time>2014-08-07T08:54:36Z</time>
      </trkpt>
      <trkpt lat="45.24456" lon="6.35389">
        <ele>1377</ele>
        <time>2014-08-07T08:54:40Z</time>
      </trkpt>
      <trkpt lat="45.24447" lon="6.35394">
        <ele>1378</ele>
        <time>2014-08-07T08:54:44Z</time>
      </trkpt>
      <trkpt lat="45.24439" lon="6.35401">
        <ele>1380</ele>
        <time>2014-08-07T08:54:50Z</time>
      </trkpt>
      <trkpt lat="45.24428" lon="6.35403">
        <ele>1381</ele>
        <time>2014-08-07T08:54:55Z</time>
      </trkpt>
      <trkpt lat="45.2442" lon="6.35409">
        <ele>1383</ele>
        <time>2014-08-07T08:55:02Z</time>
      </trkpt>
      <trkpt lat="45.24411" lon="6.35413">
        <ele>1386</ele>
        <time>2014-08-07T08:55:09Z</time>
      </trkpt>
      <trkpt lat="45.24402" lon="6.35409">
        <ele>1386</ele>
        <time>2014-08-07T08:55:17Z</time>
      </trkpt>
      <trkpt lat="45.24392" lon="6.35404">
        <ele>1386</ele>
        <time>2014-08-07T08:55:27Z</time>
      </trkpt>
      <trkpt lat="45.24382" lon="6.35405">
        <ele>1387</ele>
        <time>2014-08-07T08:55:32Z</time>
      </trkpt>
      <trkpt lat="45.24371" lon="6.35405">
        <ele>1387</ele>
        <time>2014-08-07T08:55:39Z</time>
      </trkpt>
      <trkpt lat="45.2436" lon="6.35407">
        <ele>1389</ele>
        <time>2014-08-07T08:55:49Z</time>
      </trkpt>
      <trkpt lat="45.24351" lon="6.35411">
        <ele>1391</ele>
        <time>2014-08-07T08:55:54Z</time>
      </trkpt>
      <trkpt lat="45.24343" lon="6.35417">
        <ele>1397</ele>
        <time>2014-08-07T08:55:59Z</time>
      </trkpt>
      <trkpt lat="45.24333" lon="6.35425">
        <ele>1399</ele>
        <time>2014-08-07T08:56:04Z</time>
      </trkpt>
      <trkpt lat="45.24324" lon="6.35434">
        <ele>1401</ele>
        <time>2014-08-07T08:56:08Z</time>
      </trkpt>
      <trkpt lat="45.24317" lon="6.35442">
        <ele>1402</ele>
        <time>2014-08-07T08:56:14Z</time>
      </trkpt>
      <trkpt lat="45.24307" lon="6.35449">
        <ele>1403</ele>
        <time>2014-08-07T08:56:19Z</time>
      </trkpt>
      <trkpt lat="45.24296" lon="6.35452">
        <ele>1404</ele>
        <time>2014-08-07T08:56:26Z</time>
      </trkpt>
      <trkpt lat="45.24286" lon="6.35455">
        <ele>1404</ele>
        <time>2014-08-07T08:56:31Z</time>
      </trkpt>
      <trkpt lat="45.24276" lon="6.35454">
        <ele>1404</ele>
        <time>2014-08-07T08:56:35Z</time>
      </trkpt>
      <trkpt lat="45.24264" lon="6.35455">
        <ele>1405</ele>
        <time>2014-08-07T08:56:40Z</time>
      </trkpt>
      <trkpt lat="45.24252" lon="6.35457">
        <ele>1405</ele>
        <time>2014-08-07T08:56:45Z</time>
      </trkpt>
      <trkpt lat="45.24243" lon="6.3546">
        <ele>1408</ele>
        <time>2014-08-07T08:56:51Z</time>
      </trkpt>
      <trkpt lat="45.24232" lon="6.35457">
        <ele>1408</ele>
        <time>2014-08-07T08:56:57Z</time>
      </trkpt>
      <trkpt lat="45.24222" lon="6.35447">
        <ele>1408</ele>
        <time>2014-08-07T08:57:01Z</time>
      </trkpt>
      <trkpt lat="45.24214" lon="6.3544">
        <ele>1407</ele>
        <time>2014-08-07T08:57:03Z</time>
      </trkpt>
      <trkpt lat="45.24205" lon="6.35437">
        <ele>1407</ele>
        <time>2014-08-07T08:57:05Z</time>
      </trkpt>
      <trkpt lat="45.24194" lon="6.35435">
        <ele>1407</ele>
        <time>2014-08-07T08:57:08Z</time>
      </trkpt>
      <trkpt lat="45.24184" lon="6.35438">
        <ele>1407</ele>
        <time>2014-08-07T08:57:11Z</time>
      </trkpt>
      <trkpt lat="45.24173" lon="6.35445">
        <ele>1408</ele>
        <time>2014-08-07T08:57:14Z</time>
      </trkpt>
      <trkpt lat="45.24164" lon="6.35449">
        <ele>1413</ele>
        <time>2014-08-07T08:57:16Z</time>
      </trkpt>
      <trkpt lat="45.24151" lon="6.35453">
        <ele>1415</ele>
        <time>2014-08-07T08:57:19Z</time>
      </trkpt>
      <trkpt lat="45.2414" lon="6.35453">
        <ele>1415</ele>
        <time>2014-08-07T08:57:22Z</time>
      </trkpt>
      <trkpt lat="45.24128" lon="6.35452">
        <ele>1416</ele>
        <time>2014-08-07T08:57:25Z</time>
      </trkpt>
      <trkpt lat="45.24118" lon="6.3545">
        <ele>1416</ele>
        <time>2014-08-07T08:57:28Z</time>
      </trkpt>
      <trkpt lat="45.24107" lon="6.35449">
        <ele>1416</ele>
        <time>2014-08-07T08:57:33Z</time>
      </trkpt>
      <trkpt lat="45.24099" lon="6.35441">
        <ele>1416</ele>
        <time>2014-08-07T08:57:40Z</time>
      </trkpt>
      <trkpt lat="45.24087" lon="6.35436">
        <ele>1416</ele>
        <time>2014-08-07T08:57:46Z</time>
      </trkpt>
      <trkpt lat="45.24077" lon="6.35435">
        <ele>1421</ele>
        <time>2014-08-07T08:57:52Z</time>
      </trkpt>
      <trkpt lat="45.24068" lon="6.35431">
        <ele>1421</ele>
        <time>2014-08-07T08:57:59Z</time>
      </trkpt>
      <trkpt lat="45.24058" lon="6.35425">
        <ele>1422</ele>
        <time>2014-08-07T08:58:05Z</time>
      </trkpt>
      <trkpt lat="45.24048" lon="6.3542">
        <ele>1423</ele>
        <time>2014-08-07T08:58:11Z</time>
      </trkpt>
      <trkpt lat="45.24043" lon="6.35408">
        <ele>1415</ele>
        <time>2014-08-07T08:58:18Z</time>
      </trkpt>
      <trkpt lat="45.24034" lon="6.35402">
        <ele>1416</ele>
        <time>2014-08-07T08:58:23Z</time>
      </trkpt>
      <trkpt lat="45.24026" lon="6.35393">
        <ele>1416</ele>
        <time>2014-08-07T08:58:29Z</time>
      </trkpt>
      <trkpt lat="45.24017" lon="6.35385">
        <ele>1416</ele>
        <time>2014-08-07T08:58:35Z</time>
      </trkpt>
      <trkpt lat="45.24009" lon="6.35374">
        <ele>1415</ele>
        <time>2014-08-07T08:58:40Z</time>
      </trkpt>
      <trkpt lat="45.23999" lon="6.35367">
        <ele>1420</ele>
        <time>2014-08-07T08:58:45Z</time>
      </trkpt>
      <trkpt lat="45.23988" lon="6.35371">
        <ele>1421</ele>
        <time>2014-08-07T08:58:51Z</time>
      </trkpt>
      <trkpt lat="45.23989" lon="6.35387">
        <ele>1423</ele>
        <time>2014-08-07T08:58:57Z</time>
      </trkpt>
      <trkpt lat="45.23992" lon="6.35401">
        <ele>1424</ele>
        <time>2014-08-07T08:59:04Z</time>
      </trkpt>
      <trkpt lat="45.23996" lon="6.35414">
        <ele>1426</ele>
        <time>2014-08-07T08:59:12Z</time>
      </trkpt>
      <trkpt lat="45.24" lon="6.35428">
        <ele>1430</ele>
        <time>2014-08-07T08:59:18Z</time>
      </trkpt>
      <trkpt lat="45.24001" lon="6.35442">
        <ele>1428</ele>
        <time>2014-08-07T08:59:25Z</time>
      </trkpt>
      <trkpt lat="45.24002" lon="6.35458">
        <ele>1429</ele>
        <time>2014-08-07T08:59:31Z</time>
      </trkpt>
      <trkpt lat="45.24007" lon="6.35472">
        <ele>1430</ele>
        <time>2014-08-07T08:59:36Z</time>
      </trkpt>
      <trkpt lat="45.24016" lon="6.35477">
        <ele>1430</ele>
        <time>2014-08-07T08:59:40Z</time>
      </trkpt>
      <trkpt lat="45.24022" lon="6.35489">
        <ele>1431</ele>
        <time>2014-08-07T08:59:47Z</time>
      </trkpt>
      <trkpt lat="45.2402" lon="6.35502">
        <ele>1439</ele>
        <time>2014-08-07T08:59:54Z</time>
      </trkpt>
      <trkpt lat="45.2402" lon="6.35516">
        <ele>1439</ele>
        <time>2014-08-07T09:00:00Z</time>
      </trkpt>
      <trkpt lat="45.24015" lon="6.35527">
        <ele>1440</ele>
        <time>2014-08-07T09:00:06Z</time>
      </trkpt>
      <trkpt lat="45.24006" lon="6.35534">
        <ele>1441</ele>
        <time>2014-08-07T09:00:16Z</time>
      </trkpt>
      <trkpt lat="45.23996" lon="6.35536">
        <ele>1446</ele>
        <time>2014-08-07T09:00:21Z</time>
      </trkpt>
      <trkpt lat="45.23986" lon="6.35535">
        <ele>1446</ele>
        <time>2014-08-07T09:00:27Z</time>
      </trkpt>
      <trkpt lat="45.23977" lon="6.35531">
        <ele>1446</ele>
        <time>2014-08-07T09:00:38Z</time>
      </trkpt>
      <trkpt lat="45.23967" lon="6.35533">
        <ele>1447</ele>
        <time>2014-08-07T09:00:43Z</time>
      </trkpt>
      <trkpt lat="45.23958" lon="6.35529">
        <ele>1447</ele>
        <time>2014-08-07T09:00:48Z</time>
      </trkpt>
      <trkpt lat="45.23949" lon="6.35528">
        <ele>1448</ele>
        <time>2014-08-07T09:00:53Z</time>
      </trkpt>
      <trkpt lat="45.23939" lon="6.35528">
        <ele>1448</ele>
        <time>2014-08-07T09:00:57Z</time>
      </trkpt>
      <trkpt lat="45.23928" lon="6.35528">
        <ele>1448</ele>
        <time>2014-08-07T09:01:03Z</time>
      </trkpt>
      <trkpt lat="45.23918" lon="6.35528">
        <ele>1449</ele>
        <time>2014-08-07T09:01:10Z</time>
      </trkpt>
      <trkpt lat="45.23908" lon="6.35527">
        <ele>1452</ele>
        <time>2014-08-07T09:01:17Z</time>
      </trkpt>
      <trkpt lat="45.23897" lon="6.3553">
        <ele>1453</ele>
        <time>2014-08-07T09:01:23Z</time>
      </trkpt>
      <trkpt lat="45.23889" lon="6.35539">
        <ele>1454</ele>
        <time>2014-08-07T09:01:29Z</time>
      </trkpt>
      <trkpt lat="45.2388" lon="6.35546">
        <ele>1455</ele>
        <time>2014-08-07T09:01:35Z</time>
      </trkpt>
      <trkpt lat="45.23869" lon="6.35549">
        <ele>1455</ele>
        <time>2014-08-07T09:01:46Z</time>
      </trkpt>
      <trkpt lat="45.23861" lon="6.35556">
        <ele>1456</ele>
        <time>2014-08-07T09:01:53Z</time>
      </trkpt>
      <trkpt lat="45.23853" lon="6.35564">
        <ele>1457</ele>
        <time>2014-08-07T09:01:58Z</time>
      </trkpt>
      <trkpt lat="45.23841" lon="6.35567">
        <ele>1459</ele>
        <time>2014-08-07T09:02:03Z</time>
      </trkpt>
      <trkpt lat="45.23831" lon="6.35572">
        <ele>1462</ele>
        <time>2014-08-07T09:02:11Z</time>
      </trkpt>
      <trkpt lat="45.23822" lon="6.35578">
        <ele>1462</ele>
        <time>2014-08-07T09:02:16Z</time>
      </trkpt>
      <trkpt lat="45.23815" lon="6.35589">
        <ele>1467</ele>
        <time>2014-08-07T09:02:24Z</time>
      </trkpt>
      <trkpt lat="45.23811" lon="6.35602">
        <ele>1469</ele>
        <time>2014-08-07T09:02:33Z</time>
      </trkpt>
      <trkpt lat="45.23803" lon="6.35609">
        <ele>1470</ele>
        <time>2014-08-07T09:02:38Z</time>
      </trkpt>
      <trkpt lat="45.23795" lon="6.35618">
        <ele>1471</ele>
        <time>2014-08-07T09:02:46Z</time>
      </trkpt>
      <trkpt lat="45.23789" lon="6.35628">
        <ele>1472</ele>
        <time>2014-08-07T09:02:51Z</time>
      </trkpt>
      <trkpt lat="45.23782" lon="6.35637">
        <ele>1473</ele>
        <time>2014-08-07T09:02:59Z</time>
      </trkpt>
      <trkpt lat="45.23773" lon="6.35642">
        <ele>1473</ele>
        <time>2014-08-07T09:03:05Z</time>
      </trkpt>
      <trkpt lat="45.23762" lon="6.35647">
        <ele>1474</ele>
        <time>2014-08-07T09:03:13Z</time>
      </trkpt>
      <trkpt lat="45.23753" lon="6.35655">
        <ele>1476</ele>
        <time>2014-08-07T09:03:19Z</time>
      </trkpt>
      <trkpt lat="45.23744" lon="6.35662">
        <ele>1477</ele>
        <time>2014-08-07T09:03:26Z</time>
      </trkpt>
      <trkpt lat="45.23736" lon="6.3567">
        <ele>1482</ele>
        <time>2014-08-07T09:03:35Z</time>
      </trkpt>
      <trkpt lat="45.23725" lon="6.35674">
        <ele>1483</ele>
        <time>2014-08-07T09:03:40Z</time>
      </trkpt>
      <trkpt lat="45.23716" lon="6.35676">
        <ele>1483</ele>
        <time>2014-08-07T09:03:44Z</time>
      </trkpt>
      <trkpt lat="45.23708" lon="6.35682">
        <ele>1484</ele>
        <time>2014-08-07T09:03:49Z</time>
      </trkpt>
      <trkpt lat="45.23696" lon="6.35686">
        <ele>1484</ele>
        <time>2014-08-07T09:03:56Z</time>
      </trkpt>
      <trkpt lat="45.23685" lon="6.35685">
        <ele>1483</ele>
        <time>2014-08-07T09:04:01Z</time>
      </trkpt>
      <trkpt lat="45.23675" lon="6.35687">
        <ele>1483</ele>
        <time>2014-08-07T09:04:06Z</time>
      </trkpt>
      <trkpt lat="45.23661" lon="6.35692">
        <ele>1483</ele>
        <time>2014-08-07T09:04:10Z</time>
      </trkpt>
      <trkpt lat="45.2365" lon="6.35695">
        <ele>1484</ele>
        <time>2014-08-07T09:04:14Z</time>
      </trkpt>
      <trkpt lat="45.2364" lon="6.35699">
        <ele>1484</ele>
        <time>2014-08-07T09:04:17Z</time>
      </trkpt>
      <trkpt lat="45.23629" lon="6.35704">
        <ele>1485</ele>
        <time>2014-08-07T09:04:20Z</time>
      </trkpt>
      <trkpt lat="45.2362" lon="6.35705">
        <ele>1485</ele>
        <time>2014-08-07T09:04:25Z</time>
      </trkpt>
      <trkpt lat="45.23609" lon="6.35707">
        <ele>1485</ele>
        <time>2014-08-07T09:04:29Z</time>
      </trkpt>
      <trkpt lat="45.23599" lon="6.3571">
        <ele>1485</ele>
        <time>2014-08-07T09:04:33Z</time>
      </trkpt>
      <trkpt lat="45.23586" lon="6.35713">
        <ele>1486</ele>
        <time>2014-08-07T09:04:39Z</time>
      </trkpt>
      <trkpt lat="45.23573" lon="6.35715">
        <ele>1485</ele>
        <time>2014-08-07T09:04:45Z</time>
      </trkpt>
      <trkpt lat="45.23563" lon="6.35726">
        <ele>1487</ele>
        <time>2014-08-07T09:04:48Z</time>
      </trkpt>
      <trkpt lat="45.23553" lon="6.35731">
        <ele>1487</ele>
        <time>2014-08-07T09:04:53Z</time>
      </trkpt>
      <trkpt lat="45.23548" lon="6.35746">
        <ele>1488</ele>
        <time>2014-08-07T09:05:09Z</time>
      </trkpt>
      <trkpt lat="45.23539" lon="6.35752">
        <ele>1500</ele>
        <time>2014-08-07T09:05:13Z</time>
      </trkpt>
      <trkpt lat="45.23529" lon="6.35752">
        <ele>1500</ele>
        <time>2014-08-07T09:05:16Z</time>
      </trkpt>
      <trkpt lat="45.23518" lon="6.35752">
        <ele>1499</ele>
        <time>2014-08-07T09:05:19Z</time>
      </trkpt>
      <trkpt lat="45.23506" lon="6.35753">
        <ele>1496</ele>
        <time>2014-08-07T09:05:23Z</time>
      </trkpt>
      <trkpt lat="45.23496" lon="6.35751">
        <ele>1495</ele>
        <time>2014-08-07T09:05:26Z</time>
      </trkpt>
      <trkpt lat="45.23485" lon="6.35754">
        <ele>1496</ele>
        <time>2014-08-07T09:05:31Z</time>
      </trkpt>
      <trkpt lat="45.23468" lon="6.35756">
        <ele>1497</ele>
        <time>2014-08-07T09:05:36Z</time>
      </trkpt>
      <trkpt lat="45.23452" lon="6.35759">
        <ele>1496</ele>
        <time>2014-08-07T09:05:38Z</time>
      </trkpt>
      <trkpt lat="45.2344" lon="6.35762">
        <ele>1495</ele>
        <time>2014-08-07T09:05:40Z</time>
      </trkpt>
      <trkpt lat="45.23426" lon="6.35764">
        <ele>1494</ele>
        <time>2014-08-07T09:05:42Z</time>
      </trkpt>
      <trkpt lat="45.23412" lon="6.35764">
        <ele>1487</ele>
        <time>2014-08-07T09:05:44Z</time>
      </trkpt>
      <trkpt lat="45.23401" lon="6.35766">
        <ele>1486</ele>
        <time>2014-08-07T09:05:46Z</time>
      </trkpt>
      <trkpt lat="45.2339" lon="6.35768">
        <ele>1485</ele>
        <time>2014-08-07T09:05:48Z</time>
      </trkpt>
      <trkpt lat="45.23379" lon="6.35775">
        <ele>1484</ele>
        <time>2014-08-07T09:05:52Z</time>
      </trkpt>
      <trkpt lat="45.23368" lon="6.35777">
        <ele>1483</ele>
        <time>2014-08-07T09:05:55Z</time>
      </trkpt>
      <trkpt lat="45.23357" lon="6.35777">
        <ele>1481</ele>
        <time>2014-08-07T09:05:58Z</time>
      </trkpt>
      <trkpt lat="45.23357" lon="6.35762">
        <ele>1479</ele>
        <time>2014-08-07T09:06:01Z</time>
      </trkpt>
      <trkpt lat="45.23365" lon="6.35749">
        <ele>1469</ele>
        <time>2014-08-07T09:06:03Z</time>
      </trkpt>
      <trkpt lat="45.23373" lon="6.3574">
        <ele>1470</ele>
        <time>2014-08-07T09:06:05Z</time>
      </trkpt>
      <trkpt lat="45.23381" lon="6.35729">
        <ele>1470</ele>
        <time>2014-08-07T09:06:07Z</time>
      </trkpt>
      <trkpt lat="45.23388" lon="6.35714">
        <ele>1469</ele>
        <time>2014-08-07T09:06:09Z</time>
      </trkpt>
      <trkpt lat="45.23395" lon="6.35696">
        <ele>1468</ele>
        <time>2014-08-07T09:06:11Z</time>
      </trkpt>
      <trkpt lat="45.23404" lon="6.3568">
        <ele>1468</ele>
        <time>2014-08-07T09:06:13Z</time>
      </trkpt>
      <trkpt lat="45.23416" lon="6.35672">
        <ele>1469</ele>
        <time>2014-08-07T09:06:15Z</time>
      </trkpt>
      <trkpt lat="45.2343" lon="6.35662">
        <ele>1467</ele>
        <time>2014-08-07T09:06:17Z</time>
      </trkpt>
      <trkpt lat="45.23445" lon="6.35652">
        <ele>1466</ele>
        <time>2014-08-07T09:06:19Z</time>
      </trkpt>
      <trkpt lat="45.23459" lon="6.35641">
        <ele>1465</ele>
        <time>2014-08-07T09:06:21Z</time>
      </trkpt>
      <trkpt lat="45.23472" lon="6.35631">
        <ele>1465</ele>
        <time>2014-08-07T09:06:23Z</time>
      </trkpt>
      <trkpt lat="45.23485" lon="6.3562">
        <ele>1464</ele>
        <time>2014-08-07T09:06:25Z</time>
      </trkpt>
      <trkpt lat="45.23496" lon="6.35609">
        <ele>1463</ele>
        <time>2014-08-07T09:06:27Z</time>
      </trkpt>
      <trkpt lat="45.23504" lon="6.35597">
        <ele>1463</ele>
        <time>2014-08-07T09:06:29Z</time>
      </trkpt>
      <trkpt lat="45.23511" lon="6.35581">
        <ele>1458</ele>
        <time>2014-08-07T09:06:31Z</time>
      </trkpt>
      <trkpt lat="45.23517" lon="6.35562">
        <ele>1456</ele>
        <time>2014-08-07T09:06:33Z</time>
      </trkpt>
      <trkpt lat="45.23524" lon="6.35543">
        <ele>1454</ele>
        <time>2014-08-07T09:06:35Z</time>
      </trkpt>
      <trkpt lat="45.23532" lon="6.35527">
        <ele>1453</ele>
        <time>2014-08-07T09:06:37Z</time>
      </trkpt>
      <trkpt lat="45.23541" lon="6.3551">
        <ele>1452</ele>
        <time>2014-08-07T09:06:39Z</time>
      </trkpt>
      <trkpt lat="45.23551" lon="6.35492">
        <ele>1443</ele>
        <time>2014-08-07T09:06:41Z</time>
      </trkpt>
      <trkpt lat="45.23558" lon="6.35483">
        <ele>1443</ele>
        <time>2014-08-07T09:06:42Z</time>
      </trkpt>
      <trkpt lat="45.23572" lon="6.35467">
        <ele>1442</ele>
        <time>2014-08-07T09:06:44Z</time>
      </trkpt>
      <trkpt lat="45.23583" lon="6.35453">
        <ele>1441</ele>
        <time>2014-08-07T09:06:46Z</time>
      </trkpt>
      <trkpt lat="45.23594" lon="6.35442">
        <ele>1443</ele>
        <time>2014-08-07T09:06:48Z</time>
      </trkpt>
      <trkpt lat="45.23607" lon="6.35441">
        <ele>1443</ele>
        <time>2014-08-07T09:06:50Z</time>
      </trkpt>
      <trkpt lat="45.23619" lon="6.35443">
        <ele>1443</ele>
        <time>2014-08-07T09:06:52Z</time>
      </trkpt>
      <trkpt lat="45.2363" lon="6.3544">
        <ele>1442</ele>
        <time>2014-08-07T09:06:54Z</time>
      </trkpt>
      <trkpt lat="45.23642" lon="6.35435">
        <ele>1441</ele>
        <time>2014-08-07T09:06:56Z</time>
      </trkpt>
      <trkpt lat="45.23651" lon="6.35431">
        <ele>1440</ele>
        <time>2014-08-07T09:06:58Z</time>
      </trkpt>
      <trkpt lat="45.23662" lon="6.35425">
        <ele>1438</ele>
        <time>2014-08-07T09:07:00Z</time>
      </trkpt>
      <trkpt lat="45.23674" lon="6.35413">
        <ele>1433</ele>
        <time>2014-08-07T09:07:03Z</time>
      </trkpt>
      <trkpt lat="45.23679" lon="6.35396">
        <ele>1431</ele>
        <time>2014-08-07T09:07:05Z</time>
      </trkpt>
      <trkpt lat="45.2368" lon="6.35377">
        <ele>1429</ele>
        <time>2014-08-07T09:07:07Z</time>
      </trkpt>
      <trkpt lat="45.2368" lon="6.35362">
        <ele>1428</ele>
        <time>2014-08-07T09:07:09Z</time>
      </trkpt>
      <trkpt lat="45.23685" lon="6.35351">
        <ele>1427</ele>
        <time>2014-08-07T09:07:11Z</time>
      </trkpt>
      <trkpt lat="45.23702" lon="6.35344">
        <ele>1426</ele>
        <time>2014-08-07T09:07:13Z</time>
      </trkpt>
      <trkpt lat="45.23718" lon="6.35343">
        <ele>1425</ele>
        <time>2014-08-07T09:07:15Z</time>
      </trkpt>
      <trkpt lat="45.23733" lon="6.35344">
        <ele>1423</ele>
        <time>2014-08-07T09:07:17Z</time>
      </trkpt>
      <trkpt lat="45.23745" lon="6.35336">
        <ele>1419</ele>
        <time>2014-08-07T09:07:20Z</time>
      </trkpt>
      <trkpt lat="45.23755" lon="6.35324">
        <ele>1414</ele>
        <time>2014-08-07T09:07:23Z</time>
      </trkpt>
      <trkpt lat="45.23768" lon="6.3531">
        <ele>1411</ele>
        <time>2014-08-07T09:07:25Z</time>
      </trkpt>
      <trkpt lat="45.23779" lon="6.35306">
        <ele>1410</ele>
        <time>2014-08-07T09:07:27Z</time>
      </trkpt>
      <trkpt lat="45.23792" lon="6.35299">
        <ele>1409</ele>
        <time>2014-08-07T09:07:29Z</time>
      </trkpt>
      <trkpt lat="45.23813" lon="6.35281">
        <ele>1407</ele>
        <time>2014-08-07T09:07:33Z</time>
      </trkpt>
      <trkpt lat="45.23822" lon="6.35274">
        <ele>1405</ele>
        <time>2014-08-07T09:07:34Z</time>
      </trkpt>
      <trkpt lat="45.23837" lon="6.3526">
        <ele>1401</ele>
        <time>2014-08-07T09:07:36Z</time>
      </trkpt>
      <trkpt lat="45.2385" lon="6.35247">
        <ele>1394</ele>
        <time>2014-08-07T09:07:38Z</time>
      </trkpt>
      <trkpt lat="45.23866" lon="6.35236">
        <ele>1393</ele>
        <time>2014-08-07T09:07:40Z</time>
      </trkpt>
      <trkpt lat="45.23878" lon="6.35229">
        <ele>1392</ele>
        <time>2014-08-07T09:07:42Z</time>
      </trkpt>
      <trkpt lat="45.23895" lon="6.35223">
        <ele>1391</ele>
        <time>2014-08-07T09:07:45Z</time>
      </trkpt>
      <trkpt lat="45.23918" lon="6.35218">
        <ele>1389</ele>
        <time>2014-08-07T09:07:48Z</time>
      </trkpt>
      <trkpt lat="45.23928" lon="6.35214">
        <ele>1388</ele>
        <time>2014-08-07T09:07:49Z</time>
      </trkpt>
      <trkpt lat="45.23946" lon="6.35211">
        <ele>1387</ele>
        <time>2014-08-07T09:07:51Z</time>
      </trkpt>
      <trkpt lat="45.23961" lon="6.3521">
        <ele>1387</ele>
        <time>2014-08-07T09:07:53Z</time>
      </trkpt>
      <trkpt lat="45.23973" lon="6.35211">
        <ele>1387</ele>
        <time>2014-08-07T09:07:55Z</time>
      </trkpt>
      <trkpt lat="45.23985" lon="6.35208">
        <ele>1386</ele>
        <time>2014-08-07T09:07:57Z</time>
      </trkpt>
      <trkpt lat="45.23991" lon="6.35196">
        <ele>1384</ele>
        <time>2014-08-07T09:07:59Z</time>
      </trkpt>
      <trkpt lat="45.23994" lon="6.35182">
        <ele>1381</ele>
        <time>2014-08-07T09:08:01Z</time>
      </trkpt>
      <trkpt lat="45.24" lon="6.35166">
        <ele>1375</ele>
        <time>2014-08-07T09:08:03Z</time>
      </trkpt>
      <trkpt lat="45.24005" lon="6.35148">
        <ele>1369</ele>
        <time>2014-08-07T09:08:05Z</time>
      </trkpt>
      <trkpt lat="45.24006" lon="6.35134">
        <ele>1367</ele>
        <time>2014-08-07T09:08:07Z</time>
      </trkpt>
      <trkpt lat="45.24013" lon="6.35119">
        <ele>1364</ele>
        <time>2014-08-07T09:08:10Z</time>
      </trkpt>
      <trkpt lat="45.24024" lon="6.35111">
        <ele>1363</ele>
        <time>2014-08-07T09:08:13Z</time>
      </trkpt>
      <trkpt lat="45.24013" lon="6.35104">
        <ele>1363</ele>
        <time>2014-08-07T09:08:20Z</time>
      </trkpt>
      <trkpt lat="45.24003" lon="6.35108">
        <ele>1363</ele>
        <time>2014-08-07T09:08:22Z</time>
      </trkpt>
      <trkpt lat="45.2399" lon="6.3511">
        <ele>1366</ele>
        <time>2014-08-07T09:08:25Z</time>
      </trkpt>
      <trkpt lat="45.2398" lon="6.35111">
        <ele>1366</ele>
        <time>2014-08-07T09:08:27Z</time>
      </trkpt>
      <trkpt lat="45.2397" lon="6.35114">
        <ele>1367</ele>
        <time>2014-08-07T09:08:30Z</time>
      </trkpt>
      <trkpt lat="45.23961" lon="6.35118">
        <ele>1368</ele>
        <time>2014-08-07T09:08:32Z</time>
      </trkpt>
      <trkpt lat="45.23951" lon="6.35122">
        <ele>1369</ele>
        <time>2014-08-07T09:08:34Z</time>
      </trkpt>
      <trkpt lat="45.23941" lon="6.35129">
        <ele>1370</ele>
        <time>2014-08-07T09:08:37Z</time>
      </trkpt>
      <trkpt lat="45.23927" lon="6.3513">
        <ele>1370</ele>
        <time>2014-08-07T09:08:40Z</time>
      </trkpt>
      <trkpt lat="45.23917" lon="6.35131">
        <ele>1371</ele>
        <time>2014-08-07T09:08:43Z</time>
      </trkpt>
      <trkpt lat="45.23907" lon="6.35132">
        <ele>1376</ele>
        <time>2014-08-07T09:08:46Z</time>
      </trkpt>
      <trkpt lat="45.23895" lon="6.35132">
        <ele>1376</ele>
        <time>2014-08-07T09:08:49Z</time>
      </trkpt>
      <trkpt lat="45.23884" lon="6.3513">
        <ele>1376</ele>
        <time>2014-08-07T09:08:52Z</time>
      </trkpt>
      <trkpt lat="45.23871" lon="6.35123">
        <ele>1376</ele>
        <time>2014-08-07T09:08:57Z</time>
      </trkpt>
      <trkpt lat="45.23858" lon="6.35121">
        <ele>1377</ele>
        <time>2014-08-07T09:09:00Z</time>
      </trkpt>
      <trkpt lat="45.23847" lon="6.35117">
        <ele>1377</ele>
        <time>2014-08-07T09:09:03Z</time>
      </trkpt>
      <trkpt lat="45.23836" lon="6.35113">
        <ele>1377</ele>
        <time>2014-08-07T09:09:07Z</time>
      </trkpt>
      <trkpt lat="45.23828" lon="6.35104">
        <ele>1383</ele>
        <time>2014-08-07T09:09:13Z</time>
      </trkpt>
      <trkpt lat="45.2382" lon="6.35095">
        <ele>1382</ele>
        <time>2014-08-07T09:09:19Z</time>
      </trkpt>
      <trkpt lat="45.2381" lon="6.35089">
        <ele>1383</ele>
        <time>2014-08-07T09:09:24Z</time>
      </trkpt>
      <trkpt lat="45.23801" lon="6.35083">
        <ele>1376</ele>
        <time>2014-08-07T09:09:27Z</time>
      </trkpt>
      <trkpt lat="45.23792" lon="6.35075">
        <ele>1377</ele>
        <time>2014-08-07T09:09:33Z</time>
      </trkpt>
      <trkpt lat="45.23782" lon="6.35072">
        <ele>1378</ele>
        <time>2014-08-07T09:09:39Z</time>
      </trkpt>
      <trkpt lat="45.23773" lon="6.35067">
        <ele>1378</ele>
        <time>2014-08-07T09:09:44Z</time>
      </trkpt>
      <trkpt lat="45.23762" lon="6.35061">
        <ele>1379</ele>
        <time>2014-08-07T09:09:51Z</time>
      </trkpt>
      <trkpt lat="45.23751" lon="6.3506">
        <ele>1379</ele>
        <time>2014-08-07T09:09:54Z</time>
      </trkpt>
      <trkpt lat="45.2374" lon="6.35059">
        <ele>1379</ele>
        <time>2014-08-07T09:09:57Z</time>
      </trkpt>
      <trkpt lat="45.2373" lon="6.35062">
        <ele>1378</ele>
        <time>2014-08-07T09:10:01Z</time>
      </trkpt>
      <trkpt lat="45.2372" lon="6.35069">
        <ele>1378</ele>
        <time>2014-08-07T09:10:05Z</time>
      </trkpt>
      <trkpt lat="45.23711" lon="6.35075">
        <ele>1377</ele>
        <time>2014-08-07T09:10:09Z</time>
      </trkpt>
      <trkpt lat="45.23703" lon="6.35081">
        <ele>1377</ele>
        <time>2014-08-07T09:10:13Z</time>
      </trkpt>
      <trkpt lat="45.23694" lon="6.35086">
        <ele>1387</ele>
        <time>2014-08-07T09:10:17Z</time>
      </trkpt>
      <trkpt lat="45.23684" lon="6.35088">
        <ele>1386</ele>
        <time>2014-08-07T09:10:19Z</time>
      </trkpt>
      <trkpt lat="45.23674" lon="6.35096">
        <ele>1385</ele>
        <time>2014-08-07T09:10:22Z</time>
      </trkpt>
      <trkpt lat="45.23664" lon="6.35104">
        <ele>1379</ele>
        <time>2014-08-07T09:10:25Z</time>
      </trkpt>
      <trkpt lat="45.23656" lon="6.35112">
        <ele>1379</ele>
        <time>2014-08-07T09:10:27Z</time>
      </trkpt>
      <trkpt lat="45.23643" lon="6.35115">
        <ele>1379</ele>
        <time>2014-08-07T09:10:30Z</time>
      </trkpt>
      <trkpt lat="45.2363" lon="6.35121">
        <ele>1378</ele>
        <time>2014-08-07T09:10:33Z</time>
      </trkpt>
      <trkpt lat="45.23619" lon="6.35126">
        <ele>1377</ele>
        <time>2014-08-07T09:10:36Z</time>
      </trkpt>
      <trkpt lat="45.2361" lon="6.35131">
        <ele>1376</ele>
        <time>2014-08-07T09:10:38Z</time>
      </trkpt>
      <trkpt lat="45.236" lon="6.35136">
        <ele>1376</ele>
        <time>2014-08-07T09:10:40Z</time>
      </trkpt>
      <trkpt lat="45.23588" lon="6.35147">
        <ele>1377</ele>
        <time>2014-08-07T09:10:43Z</time>
      </trkpt>
      <trkpt lat="45.23579" lon="6.35154">
        <ele>1366</ele>
        <time>2014-08-07T09:10:45Z</time>
      </trkpt>
      <trkpt lat="45.23565" lon="6.35169">
        <ele>1376</ele>
        <time>2014-08-07T09:10:48Z</time>
      </trkpt>
      <trkpt lat="45.23553" lon="6.35181">
        <ele>1374</ele>
        <time>2014-08-07T09:10:50Z</time>
      </trkpt>
      <trkpt lat="45.23541" lon="6.35186">
        <ele>1372</ele>
        <time>2014-08-07T09:10:52Z</time>
      </trkpt>
      <trkpt lat="45.23528" lon="6.35188">
        <ele>1369</ele>
        <time>2014-08-07T09:10:54Z</time>
      </trkpt>
      <trkpt lat="45.23516" lon="6.35192">
        <ele>1367</ele>
        <time>2014-08-07T09:10:56Z</time>
      </trkpt>
      <trkpt lat="45.2351" lon="6.35211">
        <ele>1370</ele>
        <time>2014-08-07T09:10:58Z</time>
      </trkpt>
      <trkpt lat="45.23507" lon="6.35224">
        <ele>1372</ele>
        <time>2014-08-07T09:10:59Z</time>
      </trkpt>
      <trkpt lat="45.23498" lon="6.35248">
        <ele>1367</ele>
        <time>2014-08-07T09:11:01Z</time>
      </trkpt>
      <trkpt lat="45.23493" lon="6.3526">
        <ele>1368</ele>
        <time>2014-08-07T09:11:02Z</time>
      </trkpt>
      <trkpt lat="45.23487" lon="6.35272">
        <ele>1368</ele>
        <time>2014-08-07T09:11:03Z</time>
      </trkpt>
      <trkpt lat="45.23482" lon="6.35284">
        <ele>1369</ele>
        <time>2014-08-07T09:11:04Z</time>
      </trkpt>
      <trkpt lat="45.23476" lon="6.35294">
        <ele>1369</ele>
        <time>2014-08-07T09:11:05Z</time>
      </trkpt>
      <trkpt lat="45.2347" lon="6.35305">
        <ele>1370</ele>
        <time>2014-08-07T09:11:06Z</time>
      </trkpt>
      <trkpt lat="45.23457" lon="6.35322">
        <ele>1369</ele>
        <time>2014-08-07T09:11:08Z</time>
      </trkpt>
      <trkpt lat="45.23442" lon="6.35335">
        <ele>1381</ele>
        <time>2014-08-07T09:11:10Z</time>
      </trkpt>
      <trkpt lat="45.23427" lon="6.35344">
        <ele>1375</ele>
        <time>2014-08-07T09:11:12Z</time>
      </trkpt>
      <trkpt lat="45.23412" lon="6.35347">
        <ele>1363</ele>
        <time>2014-08-07T09:11:14Z</time>
      </trkpt>
      <trkpt lat="45.23397" lon="6.35354">
        <ele>1363</ele>
        <time>2014-08-07T09:11:16Z</time>
      </trkpt>
      <trkpt lat="45.23388" lon="6.35371">
        <ele>1364</ele>
        <time>2014-08-07T09:11:18Z</time>
      </trkpt>
      <trkpt lat="45.23379" lon="6.35389">
        <ele>1366</ele>
        <time>2014-08-07T09:11:20Z</time>
      </trkpt>
      <trkpt lat="45.23371" lon="6.35403">
        <ele>1366</ele>
        <time>2014-08-07T09:11:22Z</time>
      </trkpt>
      <trkpt lat="45.23362" lon="6.3541">
        <ele>1365</ele>
        <time>2014-08-07T09:11:23Z</time>
      </trkpt>
      <trkpt lat="45.23349" lon="6.35422">
        <ele>1375</ele>
        <time>2014-08-07T09:11:25Z</time>
      </trkpt>
      <trkpt lat="45.23336" lon="6.35436">
        <ele>1377</ele>
        <time>2014-08-07T09:11:27Z</time>
      </trkpt>
      <trkpt lat="45.23325" lon="6.35448">
        <ele>1374</ele>
        <time>2014-08-07T09:11:29Z</time>
      </trkpt>
      <trkpt lat="45.23317" lon="6.35459">
        <ele>1377</ele>
        <time>2014-08-07T09:11:31Z</time>
      </trkpt>
      <trkpt lat="45.23308" lon="6.35466">
        <ele>1378</ele>
        <time>2014-08-07T09:11:33Z</time>
      </trkpt>
      <trkpt lat="45.23297" lon="6.35472">
        <ele>1379</ele>
        <time>2014-08-07T09:11:35Z</time>
      </trkpt>
      <trkpt lat="45.23282" lon="6.35474">
        <ele>1378</ele>
        <time>2014-08-07T09:11:37Z</time>
      </trkpt>
      <trkpt lat="45.23268" lon="6.3548">
        <ele>1379</ele>
        <time>2014-08-07T09:11:39Z</time>
      </trkpt>
      <trkpt lat="45.23261" lon="6.35494">
        <ele>1380</ele>
        <time>2014-08-07T09:11:42Z</time>
      </trkpt>
      <trkpt lat="45.23251" lon="6.35497">
        <ele>1381</ele>
        <time>2014-08-07T09:11:47Z</time>
      </trkpt>
      <trkpt lat="45.23249" lon="6.35482">
        <ele>1386</ele>
        <time>2014-08-07T09:11:52Z</time>
      </trkpt>
      <trkpt lat="45.23249" lon="6.35468">
        <ele>1387</ele>
        <time>2014-08-07T09:11:53Z</time>
      </trkpt>
      <trkpt lat="45.23249" lon="6.3545">
        <ele>1385</ele>
        <time>2014-08-07T09:11:55Z</time>
      </trkpt>
      <trkpt lat="45.23247" lon="6.35436">
        <ele>1382</ele>
        <time>2014-08-07T09:11:57Z</time>
      </trkpt>
      <trkpt lat="45.23241" lon="6.35414">
        <ele>1375</ele>
        <time>2014-08-07T09:11:59Z</time>
      </trkpt>
      <trkpt lat="45.23235" lon="6.35394">
        <ele>1379</ele>
        <time>2014-08-07T09:12:01Z</time>
      </trkpt>
      <trkpt lat="45.23234" lon="6.35375">
        <ele>1379</ele>
        <time>2014-08-07T09:12:03Z</time>
      </trkpt>
      <trkpt lat="45.23235" lon="6.35354">
        <ele>1376</ele>
        <time>2014-08-07T09:12:05Z</time>
      </trkpt>
      <trkpt lat="45.23234" lon="6.35336">
        <ele>1374</ele>
        <time>2014-08-07T09:12:07Z</time>
      </trkpt>
      <trkpt lat="45.23232" lon="6.35298">
        <ele>1372</ele>
        <time>2014-08-07T09:12:11Z</time>
      </trkpt>
      <trkpt lat="45.23232" lon="6.35279">
        <ele>1370</ele>
        <time>2014-08-07T09:12:13Z</time>
      </trkpt>
      <trkpt lat="45.23232" lon="6.35253">
        <ele>1366</ele>
        <time>2014-08-07T09:12:15Z</time>
      </trkpt>
      <trkpt lat="45.23232" lon="6.35228">
        <ele>1363</ele>
        <time>2014-08-07T09:12:17Z</time>
      </trkpt>
      <trkpt lat="45.23232" lon="6.35201">
        <ele>1363</ele>
        <time>2014-08-07T09:12:19Z</time>
      </trkpt>
      <trkpt lat="45.23229" lon="6.35185">
        <ele>1361</ele>
        <time>2014-08-07T09:12:20Z</time>
      </trkpt>
      <trkpt lat="45.23226" lon="6.35173">
        <ele>1361</ele>
        <time>2014-08-07T09:12:21Z</time>
      </trkpt>
      <trkpt lat="45.23218" lon="6.35151">
        <ele>1356</ele>
        <time>2014-08-07T09:12:23Z</time>
      </trkpt>
      <trkpt lat="45.2321" lon="6.35133">
        <ele>1356</ele>
        <time>2014-08-07T09:12:25Z</time>
      </trkpt>
      <trkpt lat="45.23198" lon="6.35127">
        <ele>1356</ele>
        <time>2014-08-07T09:12:27Z</time>
      </trkpt>
      <trkpt lat="45.23197" lon="6.35113">
        <ele>1355</ele>
        <time>2014-08-07T09:12:31Z</time>
      </trkpt>
      <trkpt lat="45.23202" lon="6.35095">
        <ele>1354</ele>
        <time>2014-08-07T09:12:34Z</time>
      </trkpt>
      <trkpt lat="45.23206" lon="6.35082">
        <ele>1347</ele>
        <time>2014-08-07T09:12:37Z</time>
      </trkpt>
      <trkpt lat="45.23201" lon="6.35069">
        <ele>1347</ele>
        <time>2014-08-07T09:12:43Z</time>
      </trkpt>
      <trkpt lat="45.2319" lon="6.35067">
        <ele>1348</ele>
        <time>2014-08-07T09:12:46Z</time>
      </trkpt>
      <trkpt lat="45.23178" lon="6.3506">
        <ele>1348</ele>
        <time>2014-08-07T09:12:49Z</time>
      </trkpt>
      <trkpt lat="45.23169" lon="6.3505">
        <ele>1347</ele>
        <time>2014-08-07T09:12:52Z</time>
      </trkpt>
      <trkpt lat="45.2316" lon="6.35041">
        <ele>1342</ele>
        <time>2014-08-07T09:12:55Z</time>
      </trkpt>
      <trkpt lat="45.23152" lon="6.35036">
        <ele>1342</ele>
        <time>2014-08-07T09:12:59Z</time>
      </trkpt>
      <trkpt lat="45.23155" lon="6.35024">
        <ele>1341</ele>
        <time>2014-08-07T09:13:02Z</time>
      </trkpt>
      <trkpt lat="45.2316" lon="6.35011">
        <ele>1340</ele>
        <time>2014-08-07T09:13:06Z</time>
      </trkpt>
      <trkpt lat="45.23149" lon="6.35009">
        <ele>1340</ele>
        <time>2014-08-07T09:13:12Z</time>
      </trkpt>
      <trkpt lat="45.23139" lon="6.35014">
        <ele>1339</ele>
        <time>2014-08-07T09:13:16Z</time>
      </trkpt>
      <trkpt lat="45.23129" lon="6.35016">
        <ele>1339</ele>
        <time>2014-08-07T09:13:19Z</time>
      </trkpt>
      <trkpt lat="45.23117" lon="6.35022">
        <ele>1338</ele>
        <time>2014-08-07T09:13:22Z</time>
      </trkpt>
      <trkpt lat="45.23107" lon="6.35027">
        <ele>1337</ele>
        <time>2014-08-07T09:13:25Z</time>
      </trkpt>
      <trkpt lat="45.23094" lon="6.35044">
        <ele>1338</ele>
        <time>2014-08-07T09:13:31Z</time>
      </trkpt>
      <trkpt lat="45.23087" lon="6.35054">
        <ele>1338</ele>
        <time>2014-08-07T09:13:35Z</time>
      </trkpt>
      <trkpt lat="45.23078" lon="6.3506">
        <ele>1333</ele>
        <time>2014-08-07T09:13:37Z</time>
      </trkpt>
      <trkpt lat="45.23071" lon="6.3507">
        <ele>1333</ele>
        <time>2014-08-07T09:13:41Z</time>
      </trkpt>
      <trkpt lat="45.23066" lon="6.35085">
        <ele>1339</ele>
        <time>2014-08-07T09:13:47Z</time>
      </trkpt>
      <trkpt lat="45.23058" lon="6.35091">
        <ele>1339</ele>
        <time>2014-08-07T09:13:53Z</time>
      </trkpt>
      <trkpt lat="45.23046" lon="6.3509">
        <ele>1339</ele>
        <time>2014-08-07T09:13:57Z</time>
      </trkpt>
      <trkpt lat="45.23035" lon="6.35087">
        <ele>1339</ele>
        <time>2014-08-07T09:14:00Z</time>
      </trkpt>
      <trkpt lat="45.23025" lon="6.35085">
        <ele>1338</ele>
        <time>2014-08-07T09:14:04Z</time>
      </trkpt>
      <trkpt lat="45.23016" lon="6.35081">
        <ele>1332</ele>
        <time>2014-08-07T09:14:09Z</time>
      </trkpt>
      <trkpt lat="45.23007" lon="6.35075">
        <ele>1332</ele>
        <time>2014-08-07T09:14:14Z</time>
      </trkpt>
      <trkpt lat="45.22997" lon="6.3507">
        <ele>1330</ele>
        <time>2014-08-07T09:14:18Z</time>
      </trkpt>
      <trkpt lat="45.22987" lon="6.35069">
        <ele>1328</ele>
        <time>2014-08-07T09:14:22Z</time>
      </trkpt>
      <trkpt lat="45.22974" lon="6.35071">
        <ele>1327</ele>
        <time>2014-08-07T09:14:26Z</time>
      </trkpt>
      <trkpt lat="45.22964" lon="6.35077">
        <ele>1327</ele>
        <time>2014-08-07T09:14:28Z</time>
      </trkpt>
      <trkpt lat="45.22954" lon="6.35078">
        <ele>1326</ele>
        <time>2014-08-07T09:14:30Z</time>
      </trkpt>
      <trkpt lat="45.22945" lon="6.35082">
        <ele>1326</ele>
        <time>2014-08-07T09:14:35Z</time>
      </trkpt>
      <trkpt lat="45.22936" lon="6.35088">
        <ele>1334</ele>
        <time>2014-08-07T09:14:52Z</time>
      </trkpt>
      <trkpt lat="45.22927" lon="6.35095">
        <ele>1333</ele>
        <time>2014-08-07T09:15:05Z</time>
      </trkpt>
      <trkpt lat="45.22917" lon="6.35099">
        <ele>1333</ele>
        <time>2014-08-07T09:15:16Z</time>
      </trkpt>
      <trkpt lat="45.22908" lon="6.35098">
        <ele>1331</ele>
        <time>2014-08-07T09:15:33Z</time>
      </trkpt>
      <trkpt lat="45.22901" lon="6.35109">
        <ele>1333</ele>
        <time>2014-08-07T09:15:48Z</time>
      </trkpt>
      <trkpt lat="45.22896" lon="6.35123">
        <ele>1334</ele>
        <time>2014-08-07T09:15:57Z</time>
      </trkpt>
      <trkpt lat="45.22891" lon="6.35134">
        <ele>1335</ele>
        <time>2014-08-07T09:16:03Z</time>
      </trkpt>
      <trkpt lat="45.22883" lon="6.35144">
        <ele>1336</ele>
        <time>2014-08-07T09:16:08Z</time>
      </trkpt>
      <trkpt lat="45.22877" lon="6.35157">
        <ele>1336</ele>
        <time>2014-08-07T09:16:14Z</time>
      </trkpt>
      <trkpt lat="45.22873" lon="6.35169">
        <ele>1344</ele>
        <time>2014-08-07T09:16:19Z</time>
      </trkpt>
      <trkpt lat="45.22868" lon="6.35183">
        <ele>1345</ele>
        <time>2014-08-07T09:16:24Z</time>
      </trkpt>
      <trkpt lat="45.22861" lon="6.35192">
        <ele>1345</ele>
        <time>2014-08-07T09:16:29Z</time>
      </trkpt>
      <trkpt lat="45.22853" lon="6.35197">
        <ele>1345</ele>
        <time>2014-08-07T09:16:34Z</time>
      </trkpt>
      <trkpt lat="45.22843" lon="6.35204">
        <ele>1345</ele>
        <time>2014-08-07T09:16:38Z</time>
      </trkpt>
      <trkpt lat="45.22832" lon="6.3521">
        <ele>1348</ele>
        <time>2014-08-07T09:16:42Z</time>
      </trkpt>
      <trkpt lat="45.22823" lon="6.35219">
        <ele>1350</ele>
        <time>2014-08-07T09:16:48Z</time>
      </trkpt>
      <trkpt lat="45.22814" lon="6.35224">
        <ele>1351</ele>
        <time>2014-08-07T09:16:51Z</time>
      </trkpt>
      <trkpt lat="45.22803" lon="6.35234">
        <ele>1352</ele>
        <time>2014-08-07T09:16:55Z</time>
      </trkpt>
      <trkpt lat="45.22794" lon="6.35245">
        <ele>1354</ele>
        <time>2014-08-07T09:16:59Z</time>
      </trkpt>
      <trkpt lat="45.22791" lon="6.35259">
        <ele>1364</ele>
        <time>2014-08-07T09:17:03Z</time>
      </trkpt>
      <trkpt lat="45.22789" lon="6.35272">
        <ele>1365</ele>
        <time>2014-08-07T09:17:26Z</time>
      </trkpt>
      <trkpt lat="45.22801" lon="6.35277">
        <ele>1364</ele>
        <time>2014-08-07T09:17:37Z</time>
      </trkpt>
      <trkpt lat="45.22794" lon="6.35288">
        <ele>1366</ele>
        <time>2014-08-07T09:17:52Z</time>
      </trkpt>
      <trkpt lat="45.22785" lon="6.3529">
        <ele>1367</ele>
        <time>2014-08-07T09:18:10Z</time>
      </trkpt>
      <trkpt lat="45.22788" lon="6.35303">
        <ele>1368</ele>
        <time>2014-08-07T09:18:27Z</time>
      </trkpt>
      <trkpt lat="45.22791" lon="6.35289">
        <ele>1366</ele>
        <time>2014-08-07T09:18:50Z</time>
      </trkpt>
      <trkpt lat="45.22799" lon="6.3528">
        <ele>1365</ele>
        <time>2014-08-07T09:18:57Z</time>
      </trkpt>
      <trkpt lat="45.22802" lon="6.35267">
        <ele>1363</ele>
        <time>2014-08-07T09:19:05Z</time>
      </trkpt>
      <trkpt lat="45.22809" lon="6.35258">
        <ele>1361</ele>
        <time>2014-08-07T09:19:10Z</time>
      </trkpt>
      <trkpt lat="45.22812" lon="6.35245">
        <ele>1352</ele>
        <time>2014-08-07T09:19:16Z</time>
      </trkpt>
      <trkpt lat="45.22813" lon="6.35229">
        <ele>1351</ele>
        <time>2014-08-07T09:19:21Z</time>
      </trkpt>
      <trkpt lat="45.22814" lon="6.35213">
        <ele>1350</ele>
        <time>2014-08-07T09:19:25Z</time>
      </trkpt>
      <trkpt lat="45.22815" lon="6.35199">
        <ele>1348</ele>
        <time>2014-08-07T09:19:28Z</time>
      </trkpt>
      <trkpt lat="45.22809" lon="6.35187">
        <ele>1347</ele>
        <time>2014-08-07T09:19:35Z</time>
      </trkpt>
      <trkpt lat="45.22803" lon="6.35177">
        <ele>1347</ele>
        <time>2014-08-07T09:19:48Z</time>
      </trkpt>
      <trkpt lat="45.22793" lon="6.35177">
        <ele>1349</ele>
        <time>2014-08-07T09:19:57Z</time>
      </trkpt>
      <trkpt lat="45.22783" lon="6.35181">
        <ele>1350</ele>
        <time>2014-08-07T09:20:04Z</time>
      </trkpt>
      <trkpt lat="45.22774" lon="6.35178">
        <ele>1350</ele>
        <time>2014-08-07T09:20:11Z</time>
      </trkpt>
      <trkpt lat="45.22764" lon="6.35179">
        <ele>1351</ele>
        <time>2014-08-07T09:20:21Z</time>
      </trkpt>
      <trkpt lat="45.22754" lon="6.35174">
        <ele>1350</ele>
        <time>2014-08-07T09:20:26Z</time>
      </trkpt>
      <trkpt lat="45.22744" lon="6.35175">
        <ele>1355</ele>
        <time>2014-08-07T09:20:31Z</time>
      </trkpt>
      <trkpt lat="45.2274" lon="6.35188">
        <ele>1359</ele>
        <time>2014-08-07T09:20:38Z</time>
      </trkpt>
      <trkpt lat="45.22732" lon="6.35196">
        <ele>1361</ele>
        <time>2014-08-07T09:20:53Z</time>
      </trkpt>
      <trkpt lat="45.22722" lon="6.35201">
        <ele>1362</ele>
        <time>2014-08-07T09:21:02Z</time>
      </trkpt>
      <trkpt lat="45.22712" lon="6.35207">
        <ele>1364</ele>
        <time>2014-08-07T09:21:15Z</time>
      </trkpt>
      <trkpt lat="45.22702" lon="6.3521">
        <ele>1364</ele>
        <time>2014-08-07T09:21:21Z</time>
      </trkpt>
      <trkpt lat="45.22693" lon="6.35213">
        <ele>1365</ele>
        <time>2014-08-07T09:21:28Z</time>
      </trkpt>
      <trkpt lat="45.22682" lon="6.35211">
        <ele>1366</ele>
        <time>2014-08-07T09:21:36Z</time>
      </trkpt>
      <trkpt lat="45.22673" lon="6.35207">
        <ele>1366</ele>
        <time>2014-08-07T09:21:47Z</time>
      </trkpt>
      <trkpt lat="45.22666" lon="6.35216">
        <ele>1373</ele>
        <time>2014-08-07T09:22:11Z</time>
      </trkpt>
      <trkpt lat="45.22665" lon="6.3523">
        <ele>1375</ele>
        <time>2014-08-07T09:22:19Z</time>
      </trkpt>
      <trkpt lat="45.22656" lon="6.35233">
        <ele>1375</ele>
        <time>2014-08-07T09:22:38Z</time>
      </trkpt>
      <trkpt lat="45.22665" lon="6.35227">
        <ele>1374</ele>
        <time>2014-08-07T09:22:51Z</time>
      </trkpt>
      <trkpt lat="45.22662" lon="6.3524">
        <ele>1375</ele>
        <time>2014-08-07T09:23:11Z</time>
      </trkpt>
      <trkpt lat="45.22653" lon="6.35247">
        <ele>1376</ele>
        <time>2014-08-07T09:23:18Z</time>
      </trkpt>
      <trkpt lat="45.22644" lon="6.35252">
        <ele>1386</ele>
        <time>2014-08-07T09:23:29Z</time>
      </trkpt>
      <trkpt lat="45.22635" lon="6.35246">
        <ele>1376</ele>
        <time>2014-08-07T09:23:35Z</time>
      </trkpt>
      <trkpt lat="45.22628" lon="6.35256">
        <ele>1389</ele>
        <time>2014-08-07T09:23:40Z</time>
      </trkpt>
      <trkpt lat="45.22618" lon="6.35255">
        <ele>1389</ele>
        <time>2014-08-07T09:23:52Z</time>
      </trkpt>
      <trkpt lat="45.22609" lon="6.35249">
        <ele>1379</ele>
        <time>2014-08-07T09:24:15Z</time>
      </trkpt>
      <trkpt lat="45.22601" lon="6.35256">
        <ele>1389</ele>
        <time>2014-08-07T09:24:27Z</time>
      </trkpt>
      <trkpt lat="45.2259" lon="6.35261">
        <ele>1389</ele>
        <time>2014-08-07T09:24:33Z</time>
      </trkpt>
      <trkpt lat="45.22581" lon="6.35269">
        <ele>1396</ele>
        <time>2014-08-07T09:24:48Z</time>
      </trkpt>
      <trkpt lat="45.22572" lon="6.35273">
        <ele>1399</ele>
        <time>2014-08-07T09:24:55Z</time>
      </trkpt>
      <trkpt lat="45.22563" lon="6.3528">
        <ele>1401</ele>
        <time>2014-08-07T09:25:03Z</time>
      </trkpt>
      <trkpt lat="45.22554" lon="6.35283">
        <ele>1403</ele>
        <time>2014-08-07T09:25:15Z</time>
      </trkpt>
      <trkpt lat="45.22547" lon="6.3527">
        <ele>1402</ele>
        <time>2014-08-07T09:25:25Z</time>
      </trkpt>
      <trkpt lat="45.22552" lon="6.35256">
        <ele>1400</ele>
        <time>2014-08-07T09:25:36Z</time>
      </trkpt>
      <trkpt lat="45.22547" lon="6.35244">
        <ele>1390</ele>
        <time>2014-08-07T09:25:43Z</time>
      </trkpt>
      <trkpt lat="45.22538" lon="6.35237">
        <ele>1391</ele>
        <time>2014-08-07T09:25:49Z</time>
      </trkpt>
      <trkpt lat="45.2253" lon="6.35229">
        <ele>1391</ele>
        <time>2014-08-07T09:25:54Z</time>
      </trkpt>
      <trkpt lat="45.22522" lon="6.35223">
        <ele>1392</ele>
        <time>2014-08-07T09:26:01Z</time>
      </trkpt>
      <trkpt lat="45.22514" lon="6.35215">
        <ele>1392</ele>
        <time>2014-08-07T09:26:08Z</time>
      </trkpt>
      <trkpt lat="45.22505" lon="6.3521">
        <ele>1392</ele>
        <time>2014-08-07T09:26:14Z</time>
      </trkpt>
      <trkpt lat="45.22503" lon="6.35197">
        <ele>1391</ele>
        <time>2014-08-07T09:26:21Z</time>
      </trkpt>
      <trkpt lat="45.22495" lon="6.35188">
        <ele>1399</ele>
        <time>2014-08-07T09:26:26Z</time>
      </trkpt>
      <trkpt lat="45.22489" lon="6.35177">
        <ele>1397</ele>
        <time>2014-08-07T09:26:36Z</time>
      </trkpt>
      <trkpt lat="45.2248" lon="6.35172">
        <ele>1399</ele>
        <time>2014-08-07T09:26:44Z</time>
      </trkpt>
      <trkpt lat="45.2247" lon="6.35174">
        <ele>1400</ele>
        <time>2014-08-07T09:26:51Z</time>
      </trkpt>
      <trkpt lat="45.2246" lon="6.35167">
        <ele>1402</ele>
        <time>2014-08-07T09:26:57Z</time>
      </trkpt>
      <trkpt lat="45.22453" lon="6.35156">
        <ele>1398</ele>
        <time>2014-08-07T09:27:06Z</time>
      </trkpt>
      <trkpt lat="45.22444" lon="6.3515">
        <ele>1398</ele>
        <time>2014-08-07T09:27:16Z</time>
      </trkpt>
      <trkpt lat="45.22434" lon="6.35153">
        <ele>1400</ele>
        <time>2014-08-07T09:27:22Z</time>
      </trkpt>
      <trkpt lat="45.22423" lon="6.35157">
        <ele>1402</ele>
        <time>2014-08-07T09:27:30Z</time>
      </trkpt>
      <trkpt lat="45.22414" lon="6.35156">
        <ele>1406</ele>
        <time>2014-08-07T09:27:37Z</time>
      </trkpt>
      <trkpt lat="45.22409" lon="6.35141">
        <ele>1407</ele>
        <time>2014-08-07T09:27:44Z</time>
      </trkpt>
      <trkpt lat="45.22412" lon="6.35128">
        <ele>1407</ele>
        <time>2014-08-07T09:27:50Z</time>
      </trkpt>
      <trkpt lat="45.22413" lon="6.35112">
        <ele>1405</ele>
        <time>2014-08-07T09:27:54Z</time>
      </trkpt>
      <trkpt lat="45.22411" lon="6.35099">
        <ele>1404</ele>
        <time>2014-08-07T09:28:00Z</time>
      </trkpt>
      <trkpt lat="45.22401" lon="6.35096">
        <ele>1405</ele>
        <time>2014-08-07T09:28:12Z</time>
      </trkpt>
      <trkpt lat="45.22391" lon="6.35097">
        <ele>1406</ele>
        <time>2014-08-07T09:28:20Z</time>
      </trkpt>
      <trkpt lat="45.22382" lon="6.351">
        <ele>1407</ele>
        <time>2014-08-07T09:28:30Z</time>
      </trkpt>
      <trkpt lat="45.22371" lon="6.35101">
        <ele>1409</ele>
        <time>2014-08-07T09:28:44Z</time>
      </trkpt>
      <trkpt lat="45.22363" lon="6.35104">
        <ele>1410</ele>
        <time>2014-08-07T09:28:50Z</time>
      </trkpt>
      <trkpt lat="45.22352" lon="6.35104">
        <ele>1410</ele>
        <time>2014-08-07T09:29:04Z</time>
      </trkpt>
      <trkpt lat="45.22343" lon="6.35107">
        <ele>1411</ele>
        <time>2014-08-07T09:29:09Z</time>
      </trkpt>
      <trkpt lat="45.22333" lon="6.35106">
        <ele>1416</ele>
        <time>2014-08-07T09:29:17Z</time>
      </trkpt>
      <trkpt lat="45.22323" lon="6.35104">
        <ele>1416</ele>
        <time>2014-08-07T09:29:34Z</time>
      </trkpt>
      <trkpt lat="45.22313" lon="6.35106">
        <ele>1416</ele>
        <time>2014-08-07T09:29:40Z</time>
      </trkpt>
      <trkpt lat="45.22303" lon="6.35107">
        <ele>1416</ele>
        <time>2014-08-07T09:29:47Z</time>
      </trkpt>
      <trkpt lat="45.22293" lon="6.35109">
        <ele>1417</ele>
        <time>2014-08-07T09:29:52Z</time>
      </trkpt>
      <trkpt lat="45.22283" lon="6.35112">
        <ele>1417</ele>
        <time>2014-08-07T09:29:58Z</time>
      </trkpt>
      <trkpt lat="45.22275" lon="6.35121">
        <ele>1417</ele>
        <time>2014-08-07T09:30:08Z</time>
      </trkpt>
      <trkpt lat="45.22268" lon="6.3513">
        <ele>1418</ele>
        <time>2014-08-07T09:30:14Z</time>
      </trkpt>
      <trkpt lat="45.22265" lon="6.35144">
        <ele>1420</ele>
        <time>2014-08-07T09:30:21Z</time>
      </trkpt>
      <trkpt lat="45.22265" lon="6.35157">
        <ele>1421</ele>
        <time>2014-08-07T09:30:30Z</time>
      </trkpt>
      <trkpt lat="45.22267" lon="6.3517">
        <ele>1425</ele>
        <time>2014-08-07T09:30:38Z</time>
      </trkpt>
      <trkpt lat="45.22271" lon="6.35184">
        <ele>1426</ele>
        <time>2014-08-07T09:30:46Z</time>
      </trkpt>
      <trkpt lat="45.22276" lon="6.35195">
        <ele>1426</ele>
        <time>2014-08-07T09:30:56Z</time>
      </trkpt>
      <trkpt lat="45.22282" lon="6.35206">
        <ele>1426</ele>
        <time>2014-08-07T09:31:06Z</time>
      </trkpt>
      <trkpt lat="45.22286" lon="6.35218">
        <ele>1427</ele>
        <time>2014-08-07T09:31:16Z</time>
      </trkpt>
      <trkpt lat="45.22292" lon="6.35228">
        <ele>1427</ele>
        <time>2014-08-07T09:31:29Z</time>
      </trkpt>
      <trkpt lat="45.22293" lon="6.35243">
        <ele>1427</ele>
        <time>2014-08-07T09:31:43Z</time>
      </trkpt>
      <trkpt lat="45.22298" lon="6.35256">
        <ele>1434</ele>
        <time>2014-08-07T09:31:54Z</time>
      </trkpt>
      <trkpt lat="45.22303" lon="6.35268">
        <ele>1434</ele>
        <time>2014-08-07T09:32:09Z</time>
      </trkpt>
      <trkpt lat="45.22293" lon="6.35273">
        <ele>1436</ele>
        <time>2014-08-07T09:32:30Z</time>
      </trkpt>
      <trkpt lat="45.22284" lon="6.35277">
        <ele>1437</ele>
        <time>2014-08-07T09:32:42Z</time>
      </trkpt>
      <trkpt lat="45.22274" lon="6.35277">
        <ele>1437</ele>
        <time>2014-08-07T09:33:04Z</time>
      </trkpt>
      <trkpt lat="45.22266" lon="6.35283">
        <ele>1438</ele>
        <time>2014-08-07T09:33:27Z</time>
      </trkpt>
      <trkpt lat="45.22256" lon="6.35289">
        <ele>1439</ele>
        <time>2014-08-07T09:33:36Z</time>
      </trkpt>
      <trkpt lat="45.2225" lon="6.35299">
        <ele>1441</ele>
        <time>2014-08-07T09:34:09Z</time>
      </trkpt>
      <trkpt lat="45.22242" lon="6.35306">
        <ele>1449</ele>
        <time>2014-08-07T09:34:31Z</time>
      </trkpt>
      <trkpt lat="45.22237" lon="6.35318">
        <ele>1450</ele>
        <time>2014-08-07T09:34:45Z</time>
      </trkpt>
      <trkpt lat="45.22227" lon="6.35324">
        <ele>1450</ele>
        <time>2014-08-07T09:34:55Z</time>
      </trkpt>
      <trkpt lat="45.22218" lon="6.35325">
        <ele>1451</ele>
        <time>2014-08-07T09:35:06Z</time>
      </trkpt>
      <trkpt lat="45.22208" lon="6.35326">
        <ele>1452</ele>
        <time>2014-08-07T09:35:16Z</time>
      </trkpt>
      <trkpt lat="45.22203" lon="6.35338">
        <ele>1460</ele>
        <time>2014-08-07T09:35:31Z</time>
      </trkpt>
      <trkpt lat="45.22194" lon="6.35337">
        <ele>1461</ele>
        <time>2014-08-07T09:35:39Z</time>
      </trkpt>
      <trkpt lat="45.22183" lon="6.3534">
        <ele>1461</ele>
        <time>2014-08-07T09:35:47Z</time>
      </trkpt>
      <trkpt lat="45.22173" lon="6.35334">
        <ele>1462</ele>
        <time>2014-08-07T09:35:59Z</time>
      </trkpt>
      <trkpt lat="45.22164" lon="6.35327">
        <ele>1463</ele>
        <time>2014-08-07T09:36:05Z</time>
      </trkpt>
      <trkpt lat="45.22156" lon="6.35333">
        <ele>1463</ele>
        <time>2014-08-07T09:36:27Z</time>
      </trkpt>
      <trkpt lat="45.22147" lon="6.35337">
        <ele>1471</ele>
        <time>2014-08-07T09:36:36Z</time>
      </trkpt>
      <trkpt lat="45.22137" lon="6.35336">
        <ele>1474</ele>
        <time>2014-08-07T09:36:48Z</time>
      </trkpt>
      <trkpt lat="45.22127" lon="6.35332">
        <ele>1467</ele>
        <time>2014-08-07T09:37:05Z</time>
      </trkpt>
      <trkpt lat="45.22118" lon="6.35327">
        <ele>1469</ele>
        <time>2014-08-07T09:37:12Z</time>
      </trkpt>
      <trkpt lat="45.22109" lon="6.35324">
        <ele>1470</ele>
        <time>2014-08-07T09:37:18Z</time>
      </trkpt>
      <trkpt lat="45.22099" lon="6.35321">
        <ele>1472</ele>
        <time>2014-08-07T09:37:29Z</time>
      </trkpt>
      <trkpt lat="45.22088" lon="6.35321">
        <ele>1475</ele>
        <time>2014-08-07T09:37:42Z</time>
      </trkpt>
      <trkpt lat="45.22079" lon="6.35318">
        <ele>1480</ele>
        <time>2014-08-07T09:37:47Z</time>
      </trkpt>
      <trkpt lat="45.22071" lon="6.35308">
        <ele>1479</ele>
        <time>2014-08-07T09:37:58Z</time>
      </trkpt>
      <trkpt lat="45.22062" lon="6.35304">
        <ele>1479</ele>
        <time>2014-08-07T09:38:06Z</time>
      </trkpt>
      <trkpt lat="45.22051" lon="6.35304">
        <ele>1480</ele>
        <time>2014-08-07T09:38:23Z</time>
      </trkpt>
      <trkpt lat="45.22042" lon="6.35299">
        <ele>1480</ele>
        <time>2014-08-07T09:38:28Z</time>
      </trkpt>
      <trkpt lat="45.22034" lon="6.35291">
        <ele>1480</ele>
        <time>2014-08-07T09:38:45Z</time>
      </trkpt>
      <trkpt lat="45.22036" lon="6.35305">
        <ele>1481</ele>
        <time>2014-08-07T09:39:12Z</time>
      </trkpt>
      <trkpt lat="45.22033" lon="6.35317">
        <ele>1482</ele>
        <time>2014-08-07T09:39:35Z</time>
      </trkpt>
      <trkpt lat="45.22036" lon="6.3533">
        <ele>1483</ele>
        <time>2014-08-07T09:40:05Z</time>
      </trkpt>
      <trkpt lat="45.22041" lon="6.35342">
        <ele>1493</ele>
        <time>2014-08-07T09:40:12Z</time>
      </trkpt>
      <trkpt lat="45.22032" lon="6.35344">
        <ele>1494</ele>
        <time>2014-08-07T09:40:27Z</time>
      </trkpt>
      <trkpt lat="45.22022" lon="6.35345">
        <ele>1494</ele>
        <time>2014-08-07T09:40:35Z</time>
      </trkpt>
      <trkpt lat="45.22011" lon="6.35344">
        <ele>1494</ele>
        <time>2014-08-07T09:40:41Z</time>
      </trkpt>
      <trkpt lat="45.22001" lon="6.35343">
        <ele>1494</ele>
        <time>2014-08-07T09:40:47Z</time>
      </trkpt>
      <trkpt lat="45.21991" lon="6.35343">
        <ele>1498</ele>
        <time>2014-08-07T09:40:52Z</time>
      </trkpt>
      <trkpt lat="45.21981" lon="6.35342">
        <ele>1500</ele>
        <time>2014-08-07T09:40:57Z</time>
      </trkpt>
      <trkpt lat="45.21971" lon="6.35341">
        <ele>1501</ele>
        <time>2014-08-07T09:41:02Z</time>
      </trkpt>
      <trkpt lat="45.21961" lon="6.35339">
        <ele>1502</ele>
        <time>2014-08-07T09:41:08Z</time>
      </trkpt>
      <trkpt lat="45.21951" lon="6.35338">
        <ele>1503</ele>
        <time>2014-08-07T09:41:13Z</time>
      </trkpt>
      <trkpt lat="45.21941" lon="6.3534">
        <ele>1503</ele>
        <time>2014-08-07T09:41:18Z</time>
      </trkpt>
      <trkpt lat="45.21931" lon="6.35343">
        <ele>1503</ele>
        <time>2014-08-07T09:41:23Z</time>
      </trkpt>
      <trkpt lat="45.21921" lon="6.35347">
        <ele>1503</ele>
        <time>2014-08-07T09:41:28Z</time>
      </trkpt>
      <trkpt lat="45.2191" lon="6.35349">
        <ele>1508</ele>
        <time>2014-08-07T09:41:33Z</time>
      </trkpt>
      <trkpt lat="45.219" lon="6.35347">
        <ele>1509</ele>
        <time>2014-08-07T09:41:37Z</time>
      </trkpt>
      <trkpt lat="45.21891" lon="6.35339">
        <ele>1510</ele>
        <time>2014-08-07T09:41:40Z</time>
      </trkpt>
      <trkpt lat="45.21881" lon="6.3533">
        <ele>1501</ele>
        <time>2014-08-07T09:41:42Z</time>
      </trkpt>
      <trkpt lat="45.21867" lon="6.35319">
        <ele>1502</ele>
        <time>2014-08-07T09:41:44Z</time>
      </trkpt>
      <trkpt lat="45.21852" lon="6.35308">
        <ele>1502</ele>
        <time>2014-08-07T09:41:46Z</time>
      </trkpt>
      <trkpt lat="45.21838" lon="6.35299">
        <ele>1502</ele>
        <time>2014-08-07T09:41:48Z</time>
      </trkpt>
      <trkpt lat="45.21825" lon="6.35286">
        <ele>1507</ele>
        <time>2014-08-07T09:41:50Z</time>
      </trkpt>
      <trkpt lat="45.21815" lon="6.35269">
        <ele>1506</ele>
        <time>2014-08-07T09:41:52Z</time>
      </trkpt>
      <trkpt lat="45.21811" lon="6.35246">
        <ele>1500</ele>
        <time>2014-08-07T09:41:54Z</time>
      </trkpt>
      <trkpt lat="45.21812" lon="6.35222">
        <ele>1501</ele>
        <time>2014-08-07T09:41:56Z</time>
      </trkpt>
      <trkpt lat="45.21815" lon="6.35198">
        <ele>1500</ele>
        <time>2014-08-07T09:41:58Z</time>
      </trkpt>
      <trkpt lat="45.21817" lon="6.35175">
        <ele>1497</ele>
        <time>2014-08-07T09:42:00Z</time>
      </trkpt>
      <trkpt lat="45.2182" lon="6.35152">
        <ele>1498</ele>
        <time>2014-08-07T09:42:02Z</time>
      </trkpt>
      <trkpt lat="45.21824" lon="6.35132">
        <ele>1500</ele>
        <time>2014-08-07T09:42:04Z</time>
      </trkpt>
      <trkpt lat="45.2183" lon="6.35115">
        <ele>1501</ele>
        <time>2014-08-07T09:42:06Z</time>
      </trkpt>
      <trkpt lat="45.21836" lon="6.35102">
        <ele>1493</ele>
        <time>2014-08-07T09:42:08Z</time>
      </trkpt>
      <trkpt lat="45.21844" lon="6.35092">
        <ele>1494</ele>
        <time>2014-08-07T09:42:10Z</time>
      </trkpt>
      <trkpt lat="45.21853" lon="6.35084">
        <ele>1492</ele>
        <time>2014-08-07T09:42:12Z</time>
      </trkpt>
      <trkpt lat="45.21861" lon="6.35075">
        <ele>1493</ele>
        <time>2014-08-07T09:42:14Z</time>
      </trkpt>
      <trkpt lat="45.21868" lon="6.35066">
        <ele>1492</ele>
        <time>2014-08-07T09:42:16Z</time>
      </trkpt>
      <trkpt lat="45.21877" lon="6.35053">
        <ele>1491</ele>
        <time>2014-08-07T09:42:19Z</time>
      </trkpt>
      <trkpt lat="45.21883" lon="6.35041">
        <ele>1491</ele>
        <time>2014-08-07T09:42:23Z</time>
      </trkpt>
      <trkpt lat="45.21888" lon="6.35028">
        <ele>1490</ele>
        <time>2014-08-07T09:42:29Z</time>
      </trkpt>
      <trkpt lat="45.2189" lon="6.35012">
        <ele>1490</ele>
        <time>2014-08-07T09:42:34Z</time>
      </trkpt>
      <trkpt lat="45.21887" lon="6.34998">
        <ele>1489</ele>
        <time>2014-08-07T09:42:38Z</time>
      </trkpt>
      <trkpt lat="45.21881" lon="6.34988">
        <ele>1490</ele>
        <time>2014-08-07T09:42:42Z</time>
      </trkpt>
      <trkpt lat="45.21872" lon="6.3498">
        <ele>1491</ele>
        <time>2014-08-07T09:42:45Z</time>
      </trkpt>
      <trkpt lat="45.21864" lon="6.34971">
        <ele>1491</ele>
        <time>2014-08-07T09:42:48Z</time>
      </trkpt>
      <trkpt lat="45.21855" lon="6.34962">
        <ele>1492</ele>
        <time>2014-08-07T09:42:51Z</time>
      </trkpt>
      <trkpt lat="45.21844" lon="6.34953">
        <ele>1492</ele>
        <time>2014-08-07T09:42:54Z</time>
      </trkpt>
      <trkpt lat="45.21834" lon="6.3494">
        <ele>1493</ele>
        <time>2014-08-07T09:42:57Z</time>
      </trkpt>
      <trkpt lat="45.21827" lon="6.34929">
        <ele>1500</ele>
        <time>2014-08-07T09:42:59Z</time>
      </trkpt>
      <trkpt lat="45.21822" lon="6.34919">
        <ele>1499</ele>
        <time>2014-08-07T09:43:01Z</time>
      </trkpt>
      <trkpt lat="45.21815" lon="6.34906">
        <ele>1498</ele>
        <time>2014-08-07T09:43:03Z</time>
      </trkpt>
      <trkpt lat="45.2181" lon="6.34894">
        <ele>1499</ele>
        <time>2014-08-07T09:43:05Z</time>
      </trkpt>
      <trkpt lat="45.21803" lon="6.34881">
        <ele>1499</ele>
        <time>2014-08-07T09:43:07Z</time>
      </trkpt>
      <trkpt lat="45.21796" lon="6.34867">
        <ele>1499</ele>
        <time>2014-08-07T09:43:09Z</time>
      </trkpt>
      <trkpt lat="45.21791" lon="6.34854">
        <ele>1499</ele>
        <time>2014-08-07T09:43:11Z</time>
      </trkpt>
      <trkpt lat="45.21787" lon="6.34839">
        <ele>1500</ele>
        <time>2014-08-07T09:43:13Z</time>
      </trkpt>
      <trkpt lat="45.21783" lon="6.34825">
        <ele>1499</ele>
        <time>2014-08-07T09:43:15Z</time>
      </trkpt>
      <trkpt lat="45.21781" lon="6.34811">
        <ele>1499</ele>
        <time>2014-08-07T09:43:17Z</time>
      </trkpt>
      <trkpt lat="45.21779" lon="6.34791">
        <ele>1499</ele>
        <time>2014-08-07T09:43:20Z</time>
      </trkpt>
      <trkpt lat="45.21778" lon="6.34773">
        <ele>1500</ele>
        <time>2014-08-07T09:43:23Z</time>
      </trkpt>
      <trkpt lat="45.2178" lon="6.34757">
        <ele>1501</ele>
        <time>2014-08-07T09:43:26Z</time>
      </trkpt>
      <trkpt lat="45.2178" lon="6.34742">
        <ele>1504</ele>
        <time>2014-08-07T09:43:29Z</time>
      </trkpt>
      <trkpt lat="45.21781" lon="6.34726">
        <ele>1503</ele>
        <time>2014-08-07T09:43:33Z</time>
      </trkpt>
      <trkpt lat="45.21783" lon="6.34713">
        <ele>1504</ele>
        <time>2014-08-07T09:43:36Z</time>
      </trkpt>
      <trkpt lat="45.21785" lon="6.347">
        <ele>1504</ele>
        <time>2014-08-07T09:43:39Z</time>
      </trkpt>
      <trkpt lat="45.21788" lon="6.34685">
        <ele>1504</ele>
        <time>2014-08-07T09:43:42Z</time>
      </trkpt>
      <trkpt lat="45.2179" lon="6.34671">
        <ele>1504</ele>
        <time>2014-08-07T09:43:45Z</time>
      </trkpt>
      <trkpt lat="45.21793" lon="6.34659">
        <ele>1510</ele>
        <time>2014-08-07T09:43:48Z</time>
      </trkpt>
      <trkpt lat="45.21796" lon="6.34646">
        <ele>1510</ele>
        <time>2014-08-07T09:43:51Z</time>
      </trkpt>
      <trkpt lat="45.21798" lon="6.34629">
        <ele>1511</ele>
        <time>2014-08-07T09:43:55Z</time>
      </trkpt>
      <trkpt lat="45.21801" lon="6.34617">
        <ele>1511</ele>
        <time>2014-08-07T09:43:58Z</time>
      </trkpt>
      <trkpt lat="45.21806" lon="6.34605">
        <ele>1511</ele>
        <time>2014-08-07T09:44:01Z</time>
      </trkpt>
      <trkpt lat="45.21811" lon="6.34593">
        <ele>1509</ele>
        <time>2014-08-07T09:44:04Z</time>
      </trkpt>
      <trkpt lat="45.21818" lon="6.3458">
        <ele>1512</ele>
        <time>2014-08-07T09:44:08Z</time>
      </trkpt>
      <trkpt lat="45.21824" lon="6.34567">
        <ele>1513</ele>
        <time>2014-08-07T09:44:11Z</time>
      </trkpt>
      <trkpt lat="45.21832" lon="6.34553">
        <ele>1516</ele>
        <time>2014-08-07T09:44:15Z</time>
      </trkpt>
      <trkpt lat="45.21837" lon="6.34542">
        <ele>1507</ele>
        <time>2014-08-07T09:44:18Z</time>
      </trkpt>
      <trkpt lat="45.21844" lon="6.34529">
        <ele>1509</ele>
        <time>2014-08-07T09:44:21Z</time>
      </trkpt>
      <trkpt lat="45.21849" lon="6.34514">
        <ele>1510</ele>
        <time>2014-08-07T09:44:24Z</time>
      </trkpt>
      <trkpt lat="45.21855" lon="6.34503">
        <ele>1510</ele>
        <time>2014-08-07T09:44:27Z</time>
      </trkpt>
      <trkpt lat="45.21864" lon="6.34492">
        <ele>1515</ele>
        <time>2014-08-07T09:44:31Z</time>
      </trkpt>
      <trkpt lat="45.21872" lon="6.34483">
        <ele>1515</ele>
        <time>2014-08-07T09:44:36Z</time>
      </trkpt>
      <trkpt lat="45.21879" lon="6.34474">
        <ele>1515</ele>
        <time>2014-08-07T09:44:40Z</time>
      </trkpt>
      <trkpt lat="45.21886" lon="6.34464">
        <ele>1515</ele>
        <time>2014-08-07T09:44:44Z</time>
      </trkpt>
      <trkpt lat="45.21892" lon="6.3445">
        <ele>1515</ele>
        <time>2014-08-07T09:44:49Z</time>
      </trkpt>
      <trkpt lat="45.21895" lon="6.34438">
        <ele>1516</ele>
        <time>2014-08-07T09:44:54Z</time>
      </trkpt>
      <trkpt lat="45.21895" lon="6.34424">
        <ele>1516</ele>
        <time>2014-08-07T09:44:59Z</time>
      </trkpt>
      <trkpt lat="45.21895" lon="6.3441">
        <ele>1518</ele>
        <time>2014-08-07T09:45:04Z</time>
      </trkpt>
      <trkpt lat="45.21891" lon="6.34397">
        <ele>1519</ele>
        <time>2014-08-07T09:45:09Z</time>
      </trkpt>
      <trkpt lat="45.21888" lon="6.34383">
        <ele>1519</ele>
        <time>2014-08-07T09:45:14Z</time>
      </trkpt>
      <trkpt lat="45.21886" lon="6.34366">
        <ele>1520</ele>
        <time>2014-08-07T09:45:18Z</time>
      </trkpt>
      <trkpt lat="45.21884" lon="6.3435">
        <ele>1520</ele>
        <time>2014-08-07T09:45:22Z</time>
      </trkpt>
      <trkpt lat="45.21883" lon="6.34335">
        <ele>1520</ele>
        <time>2014-08-07T09:45:25Z</time>
      </trkpt>
      <trkpt lat="45.21882" lon="6.3432">
        <ele>1520</ele>
        <time>2014-08-07T09:45:28Z</time>
      </trkpt>
      <trkpt lat="45.21879" lon="6.34305">
        <ele>1520</ele>
        <time>2014-08-07T09:45:31Z</time>
      </trkpt>
      <trkpt lat="45.21877" lon="6.3429">
        <ele>1520</ele>
        <time>2014-08-07T09:45:34Z</time>
      </trkpt>
      <trkpt lat="45.21875" lon="6.34275">
        <ele>1520</ele>
        <time>2014-08-07T09:45:37Z</time>
      </trkpt>
      <trkpt lat="45.21873" lon="6.34261">
        <ele>1520</ele>
        <time>2014-08-07T09:45:40Z</time>
      </trkpt>
      <trkpt lat="45.21883" lon="6.34254">
        <ele>1520</ele>
        <time>2014-08-07T09:45:44Z</time>
      </trkpt>
      <trkpt lat="45.2189" lon="6.3427">
        <ele>1520</ele>
        <time>2014-08-07T09:45:47Z</time>
      </trkpt>
      <trkpt lat="45.21894" lon="6.34283">
        <ele>1520</ele>
        <time>2014-08-07T09:45:49Z</time>
      </trkpt>
      <trkpt lat="45.219" lon="6.34295">
        <ele>1520</ele>
        <time>2014-08-07T09:45:51Z</time>
      </trkpt>
      <trkpt lat="45.21905" lon="6.34308">
        <ele>1520</ele>
        <time>2014-08-07T09:45:53Z</time>
      </trkpt>
      <trkpt lat="45.21909" lon="6.3432">
        <ele>1519</ele>
        <time>2014-08-07T09:45:55Z</time>
      </trkpt>
      <trkpt lat="45.21914" lon="6.34335">
        <ele>1518</ele>
        <time>2014-08-07T09:45:57Z</time>
      </trkpt>
      <trkpt lat="45.21918" lon="6.34349">
        <ele>1516</ele>
        <time>2014-08-07T09:45:59Z</time>
      </trkpt>
      <trkpt lat="45.21923" lon="6.34364">
        <ele>1516</ele>
        <time>2014-08-07T09:46:01Z</time>
      </trkpt>
      <trkpt lat="45.21928" lon="6.3438">
        <ele>1515</ele>
        <time>2014-08-07T09:46:03Z</time>
      </trkpt>
      <trkpt lat="45.21933" lon="6.34398">
        <ele>1515</ele>
        <time>2014-08-07T09:46:05Z</time>
      </trkpt>
      <trkpt lat="45.21938" lon="6.34417">
        <ele>1511</ele>
        <time>2014-08-07T09:46:07Z</time>
      </trkpt>
      <trkpt lat="45.21943" lon="6.34437">
        <ele>1509</ele>
        <time>2014-08-07T09:46:09Z</time>
      </trkpt>
      <trkpt lat="45.21947" lon="6.34457">
        <ele>1508</ele>
        <time>2014-08-07T09:46:11Z</time>
      </trkpt>
      <trkpt lat="45.21953" lon="6.34475">
        <ele>1507</ele>
        <time>2014-08-07T09:46:13Z</time>
      </trkpt>
      <trkpt lat="45.21966" lon="6.34488">
        <ele>1505</ele>
        <time>2014-08-07T09:46:15Z</time>
      </trkpt>
      <trkpt lat="45.21979" lon="6.34499">
        <ele>1503</ele>
        <time>2014-08-07T09:46:17Z</time>
      </trkpt>
      <trkpt lat="45.21992" lon="6.34508">
        <ele>1497</ele>
        <time>2014-08-07T09:46:19Z</time>
      </trkpt>
      <trkpt lat="45.22002" lon="6.34515">
        <ele>1491</ele>
        <time>2014-08-07T09:46:21Z</time>
      </trkpt>
      <trkpt lat="45.22011" lon="6.34518">
        <ele>1489</ele>
        <time>2014-08-07T09:46:23Z</time>
      </trkpt>
      <trkpt lat="45.22022" lon="6.34507">
        <ele>1489</ele>
        <time>2014-08-07T09:46:26Z</time>
      </trkpt>
      <trkpt lat="45.2203" lon="6.34493">
        <ele>1495</ele>
        <time>2014-08-07T09:46:28Z</time>
      </trkpt>
      <trkpt lat="45.22037" lon="6.34476">
        <ele>1495</ele>
        <time>2014-08-07T09:46:30Z</time>
      </trkpt>
      <trkpt lat="45.22048" lon="6.34463">
        <ele>1495</ele>
        <time>2014-08-07T09:46:32Z</time>
      </trkpt>
      <trkpt lat="45.22059" lon="6.34451">
        <ele>1495</ele>
        <time>2014-08-07T09:46:34Z</time>
      </trkpt>
      <trkpt lat="45.22071" lon="6.34442">
        <ele>1495</ele>
        <time>2014-08-07T09:46:36Z</time>
      </trkpt>
      <trkpt lat="45.22084" lon="6.34432">
        <ele>1488</ele>
        <time>2014-08-07T09:46:38Z</time>
      </trkpt>
      <trkpt lat="45.22097" lon="6.34423">
        <ele>1488</ele>
        <time>2014-08-07T09:46:40Z</time>
      </trkpt>
      <trkpt lat="45.2211" lon="6.34415">
        <ele>1494</ele>
        <time>2014-08-07T09:46:42Z</time>
      </trkpt>
      <trkpt lat="45.22123" lon="6.34407">
        <ele>1493</ele>
        <time>2014-08-07T09:46:44Z</time>
      </trkpt>
      <trkpt lat="45.22136" lon="6.34399">
        <ele>1492</ele>
        <time>2014-08-07T09:46:46Z</time>
      </trkpt>
      <trkpt lat="45.2215" lon="6.34392">
        <ele>1491</ele>
        <time>2014-08-07T09:46:48Z</time>
      </trkpt>
      <trkpt lat="45.22163" lon="6.34384">
        <ele>1492</ele>
        <time>2014-08-07T09:46:50Z</time>
      </trkpt>
      <trkpt lat="45.22175" lon="6.34373">
        <ele>1480</ele>
        <time>2014-08-07T09:46:52Z</time>
      </trkpt>
      <trkpt lat="45.22185" lon="6.34361">
        <ele>1481</ele>
        <time>2014-08-07T09:46:54Z</time>
      </trkpt>
      <trkpt lat="45.22194" lon="6.3435">
        <ele>1480</ele>
        <time>2014-08-07T09:46:56Z</time>
      </trkpt>
      <trkpt lat="45.22203" lon="6.34337">
        <ele>1479</ele>
        <time>2014-08-07T09:46:58Z</time>
      </trkpt>
      <trkpt lat="45.22213" lon="6.34326">
        <ele>1488</ele>
        <time>2014-08-07T09:47:00Z</time>
      </trkpt>
      <trkpt lat="45.22224" lon="6.34315">
        <ele>1487</ele>
        <time>2014-08-07T09:47:02Z</time>
      </trkpt>
      <trkpt lat="45.22236" lon="6.34306">
        <ele>1486</ele>
        <time>2014-08-07T09:47:04Z</time>
      </trkpt>
      <trkpt lat="45.22248" lon="6.34298">
        <ele>1487</ele>
        <time>2014-08-07T09:47:06Z</time>
      </trkpt>
      <trkpt lat="45.22262" lon="6.34289">
        <ele>1478</ele>
        <time>2014-08-07T09:47:08Z</time>
      </trkpt>
      <trkpt lat="45.22275" lon="6.3428">
        <ele>1478</ele>
        <time>2014-08-07T09:47:10Z</time>
      </trkpt>
      <trkpt lat="45.22289" lon="6.34269">
        <ele>1477</ele>
        <time>2014-08-07T09:47:12Z</time>
      </trkpt>
      <trkpt lat="45.22304" lon="6.3426">
        <ele>1476</ele>
        <time>2014-08-07T09:47:14Z</time>
      </trkpt>
      <trkpt lat="45.22319" lon="6.34251">
        <ele>1476</ele>
        <time>2014-08-07T09:47:16Z</time>
      </trkpt>
      <trkpt lat="45.22336" lon="6.34241">
        <ele>1475</ele>
        <time>2014-08-07T09:47:18Z</time>
      </trkpt>
      <trkpt lat="45.22345" lon="6.34236">
        <ele>1475</ele>
        <time>2014-08-07T09:47:19Z</time>
      </trkpt>
      <trkpt lat="45.22353" lon="6.3423">
        <ele>1474</ele>
        <time>2014-08-07T09:47:20Z</time>
      </trkpt>
      <trkpt lat="45.22361" lon="6.34222">
        <ele>1474</ele>
        <time>2014-08-07T09:47:21Z</time>
      </trkpt>
      <trkpt lat="45.22369" lon="6.34215">
        <ele>1473</ele>
        <time>2014-08-07T09:47:22Z</time>
      </trkpt>
      <trkpt lat="45.22378" lon="6.34208">
        <ele>1473</ele>
        <time>2014-08-07T09:47:23Z</time>
      </trkpt>
      <trkpt lat="45.22387" lon="6.34201">
        <ele>1472</ele>
        <time>2014-08-07T09:47:24Z</time>
      </trkpt>
      <trkpt lat="45.22396" lon="6.34193">
        <ele>1472</ele>
        <time>2014-08-07T09:47:25Z</time>
      </trkpt>
      <trkpt lat="45.22404" lon="6.34185">
        <ele>1471</ele>
        <time>2014-08-07T09:47:26Z</time>
      </trkpt>
      <trkpt lat="45.22413" lon="6.34176">
        <ele>1470</ele>
        <time>2014-08-07T09:47:27Z</time>
      </trkpt>
      <trkpt lat="45.22423" lon="6.34167">
        <ele>1469</ele>
        <time>2014-08-07T09:47:28Z</time>
      </trkpt>
      <trkpt lat="45.22431" lon="6.34158">
        <ele>1468</ele>
        <time>2014-08-07T09:47:29Z</time>
      </trkpt>
      <trkpt lat="45.2244" lon="6.34148">
        <ele>1468</ele>
        <time>2014-08-07T09:47:30Z</time>
      </trkpt>
      <trkpt lat="45.22449" lon="6.34139">
        <ele>1467</ele>
        <time>2014-08-07T09:47:31Z</time>
      </trkpt>
      <trkpt lat="45.22458" lon="6.34132">
        <ele>1467</ele>
        <time>2014-08-07T09:47:32Z</time>
      </trkpt>
      <trkpt lat="45.22467" lon="6.34124">
        <ele>1467</ele>
        <time>2014-08-07T09:47:33Z</time>
      </trkpt>
      <trkpt lat="45.22476" lon="6.34118">
        <ele>1466</ele>
        <time>2014-08-07T09:47:34Z</time>
      </trkpt>
      <trkpt lat="45.22492" lon="6.3411">
        <ele>1466</ele>
        <time>2014-08-07T09:47:36Z</time>
      </trkpt>
      <trkpt lat="45.22507" lon="6.34098">
        <ele>1457</ele>
        <time>2014-08-07T09:47:38Z</time>
      </trkpt>
      <trkpt lat="45.2252" lon="6.34082">
        <ele>1461</ele>
        <time>2014-08-07T09:47:40Z</time>
      </trkpt>
      <trkpt lat="45.22532" lon="6.34062">
        <ele>1459</ele>
        <time>2014-08-07T09:47:42Z</time>
      </trkpt>
      <trkpt lat="45.22544" lon="6.34042">
        <ele>1458</ele>
        <time>2014-08-07T09:47:44Z</time>
      </trkpt>
      <trkpt lat="45.2255" lon="6.34032">
        <ele>1458</ele>
        <time>2014-08-07T09:47:45Z</time>
      </trkpt>
      <trkpt lat="45.22557" lon="6.34021">
        <ele>1457</ele>
        <time>2014-08-07T09:47:46Z</time>
      </trkpt>
      <trkpt lat="45.22564" lon="6.34011">
        <ele>1456</ele>
        <time>2014-08-07T09:47:47Z</time>
      </trkpt>
      <trkpt lat="45.22571" lon="6.34002">
        <ele>1454</ele>
        <time>2014-08-07T09:47:48Z</time>
      </trkpt>
      <trkpt lat="45.22583" lon="6.33988">
        <ele>1450</ele>
        <time>2014-08-07T09:47:50Z</time>
      </trkpt>
      <trkpt lat="45.22593" lon="6.33979">
        <ele>1450</ele>
        <time>2014-08-07T09:47:52Z</time>
      </trkpt>
      <trkpt lat="45.22604" lon="6.33978">
        <ele>1449</ele>
        <time>2014-08-07T09:47:55Z</time>
      </trkpt>
      <trkpt lat="45.22607" lon="6.33994">
        <ele>1449</ele>
        <time>2014-08-07T09:47:58Z</time>
      </trkpt>
      <trkpt lat="45.22604" lon="6.34009">
        <ele>1443</ele>
        <time>2014-08-07T09:48:00Z</time>
      </trkpt>
      <trkpt lat="45.22602" lon="6.34026">
        <ele>1441</ele>
        <time>2014-08-07T09:48:02Z</time>
      </trkpt>
      <trkpt lat="45.22601" lon="6.34047">
        <ele>1440</ele>
        <time>2014-08-07T09:48:04Z</time>
      </trkpt>
      <trkpt lat="45.22601" lon="6.34071">
        <ele>1439</ele>
        <time>2014-08-07T09:48:06Z</time>
      </trkpt>
      <trkpt lat="45.22599" lon="6.34096">
        <ele>1434</ele>
        <time>2014-08-07T09:48:08Z</time>
      </trkpt>
      <trkpt lat="45.22598" lon="6.34116">
        <ele>1431</ele>
        <time>2014-08-07T09:48:10Z</time>
      </trkpt>
      <trkpt lat="45.22597" lon="6.34134">
        <ele>1430</ele>
        <time>2014-08-07T09:48:12Z</time>
      </trkpt>
      <trkpt lat="45.22596" lon="6.34151">
        <ele>1431</ele>
        <time>2014-08-07T09:48:15Z</time>
      </trkpt>
      <trkpt lat="45.22606" lon="6.34154">
        <ele>1429</ele>
        <time>2014-08-07T09:48:18Z</time>
      </trkpt>
      <trkpt lat="45.22611" lon="6.34143">
        <ele>1428</ele>
        <time>2014-08-07T09:48:20Z</time>
      </trkpt>
      <trkpt lat="45.22619" lon="6.34128">
        <ele>1428</ele>
        <time>2014-08-07T09:48:22Z</time>
      </trkpt>
      <trkpt lat="45.22629" lon="6.34113">
        <ele>1427</ele>
        <time>2014-08-07T09:48:24Z</time>
      </trkpt>
      <trkpt lat="45.2264" lon="6.34096">
        <ele>1426</ele>
        <time>2014-08-07T09:48:26Z</time>
      </trkpt>
      <trkpt lat="45.22652" lon="6.34079">
        <ele>1429</ele>
        <time>2014-08-07T09:48:28Z</time>
      </trkpt>
      <trkpt lat="45.2266" lon="6.34071">
        <ele>1428</ele>
        <time>2014-08-07T09:48:29Z</time>
      </trkpt>
      <trkpt lat="45.22667" lon="6.34063">
        <ele>1420</ele>
        <time>2014-08-07T09:48:30Z</time>
      </trkpt>
      <trkpt lat="45.22683" lon="6.34049">
        <ele>1420</ele>
        <time>2014-08-07T09:48:32Z</time>
      </trkpt>
      <trkpt lat="45.22691" lon="6.34041">
        <ele>1420</ele>
        <time>2014-08-07T09:48:33Z</time>
      </trkpt>
      <trkpt lat="45.22701" lon="6.34032">
        <ele>1419</ele>
        <time>2014-08-07T09:48:34Z</time>
      </trkpt>
      <trkpt lat="45.22709" lon="6.34023">
        <ele>1419</ele>
        <time>2014-08-07T09:48:35Z</time>
      </trkpt>
      <trkpt lat="45.22717" lon="6.34014">
        <ele>1418</ele>
        <time>2014-08-07T09:48:36Z</time>
      </trkpt>
      <trkpt lat="45.22725" lon="6.34005">
        <ele>1417</ele>
        <time>2014-08-07T09:48:37Z</time>
      </trkpt>
      <trkpt lat="45.22733" lon="6.33996">
        <ele>1422</ele>
        <time>2014-08-07T09:48:38Z</time>
      </trkpt>
      <trkpt lat="45.2274" lon="6.33987">
        <ele>1421</ele>
        <time>2014-08-07T09:48:39Z</time>
      </trkpt>
      <trkpt lat="45.22748" lon="6.33977">
        <ele>1423</ele>
        <time>2014-08-07T09:48:40Z</time>
      </trkpt>
      <trkpt lat="45.22755" lon="6.33967">
        <ele>1410</ele>
        <time>2014-08-07T09:48:41Z</time>
      </trkpt>
      <trkpt lat="45.22766" lon="6.33947">
        <ele>1410</ele>
        <time>2014-08-07T09:48:43Z</time>
      </trkpt>
      <trkpt lat="45.22772" lon="6.33936">
        <ele>1411</ele>
        <time>2014-08-07T09:48:44Z</time>
      </trkpt>
      <trkpt lat="45.22778" lon="6.33925">
        <ele>1411</ele>
        <time>2014-08-07T09:48:45Z</time>
      </trkpt>
      <trkpt lat="45.2279" lon="6.33906">
        <ele>1415</ele>
        <time>2014-08-07T09:48:47Z</time>
      </trkpt>
      <trkpt lat="45.22797" lon="6.33897">
        <ele>1414</ele>
        <time>2014-08-07T09:48:48Z</time>
      </trkpt>
      <trkpt lat="45.22812" lon="6.33881">
        <ele>1413</ele>
        <time>2014-08-07T09:48:50Z</time>
      </trkpt>
      <trkpt lat="45.22828" lon="6.33867">
        <ele>1413</ele>
        <time>2014-08-07T09:48:52Z</time>
      </trkpt>
      <trkpt lat="45.22837" lon="6.33859">
        <ele>1396</ele>
        <time>2014-08-07T09:48:53Z</time>
      </trkpt>
      <trkpt lat="45.22846" lon="6.3385">
        <ele>1397</ele>
        <time>2014-08-07T09:48:54Z</time>
      </trkpt>
      <trkpt lat="45.22856" lon="6.33843">
        <ele>1396</ele>
        <time>2014-08-07T09:48:55Z</time>
      </trkpt>
      <trkpt lat="45.22866" lon="6.33836">
        <ele>1393</ele>
        <time>2014-08-07T09:48:56Z</time>
      </trkpt>
      <trkpt lat="45.22876" lon="6.33829">
        <ele>1399</ele>
        <time>2014-08-07T09:48:57Z</time>
      </trkpt>
      <trkpt lat="45.22886" lon="6.33823">
        <ele>1396</ele>
        <time>2014-08-07T09:48:58Z</time>
      </trkpt>
      <trkpt lat="45.22896" lon="6.33816">
        <ele>1394</ele>
        <time>2014-08-07T09:48:59Z</time>
      </trkpt>
      <trkpt lat="45.22905" lon="6.3381">
        <ele>1393</ele>
        <time>2014-08-07T09:49:00Z</time>
      </trkpt>
      <trkpt lat="45.22915" lon="6.33803">
        <ele>1394</ele>
        <time>2014-08-07T09:49:01Z</time>
      </trkpt>
      <trkpt lat="45.22924" lon="6.33795">
        <ele>1379</ele>
        <time>2014-08-07T09:49:02Z</time>
      </trkpt>
      <trkpt lat="45.22933" lon="6.33786">
        <ele>1380</ele>
        <time>2014-08-07T09:49:03Z</time>
      </trkpt>
      <trkpt lat="45.22941" lon="6.33777">
        <ele>1380</ele>
        <time>2014-08-07T09:49:04Z</time>
      </trkpt>
      <trkpt lat="45.22951" lon="6.33768">
        <ele>1379</ele>
        <time>2014-08-07T09:49:05Z</time>
      </trkpt>
      <trkpt lat="45.2296" lon="6.33759">
        <ele>1378</ele>
        <time>2014-08-07T09:49:06Z</time>
      </trkpt>
      <trkpt lat="45.22969" lon="6.33751">
        <ele>1377</ele>
        <time>2014-08-07T09:49:07Z</time>
      </trkpt>
      <trkpt lat="45.22979" lon="6.33743">
        <ele>1380</ele>
        <time>2014-08-07T09:49:08Z</time>
      </trkpt>
      <trkpt lat="45.22988" lon="6.33735">
        <ele>1379</ele>
        <time>2014-08-07T09:49:09Z</time>
      </trkpt>
      <trkpt lat="45.22997" lon="6.33728">
        <ele>1379</ele>
        <time>2014-08-07T09:49:10Z</time>
      </trkpt>
      <trkpt lat="45.23012" lon="6.33717">
        <ele>1369</ele>
        <time>2014-08-07T09:49:12Z</time>
      </trkpt>
      <trkpt lat="45.23025" lon="6.33706">
        <ele>1368</ele>
        <time>2014-08-07T09:49:14Z</time>
      </trkpt>
      <trkpt lat="45.23035" lon="6.33693">
        <ele>1368</ele>
        <time>2014-08-07T09:49:16Z</time>
      </trkpt>
      <trkpt lat="45.23042" lon="6.33679">
        <ele>1367</ele>
        <time>2014-08-07T09:49:18Z</time>
      </trkpt>
      <trkpt lat="45.23042" lon="6.33664">
        <ele>1367</ele>
        <time>2014-08-07T09:49:21Z</time>
      </trkpt>
      <trkpt lat="45.23034" lon="6.33656">
        <ele>1368</ele>
        <time>2014-08-07T09:49:26Z</time>
      </trkpt>
      <trkpt lat="45.23025" lon="6.33663">
        <ele>1369</ele>
        <time>2014-08-07T09:49:32Z</time>
      </trkpt>
      <trkpt lat="45.23016" lon="6.33666">
        <ele>1371</ele>
        <time>2014-08-07T09:49:41Z</time>
      </trkpt>
      <trkpt lat="45.23008" lon="6.33673">
        <ele>1373</ele>
        <time>2014-08-07T09:49:51Z</time>
      </trkpt>
      <trkpt lat="45.22999" lon="6.33676">
        <ele>1379</ele>
        <time>2014-08-07T09:50:07Z</time>
      </trkpt>
      <trkpt lat="45.2299" lon="6.33681">
        <ele>1381</ele>
        <time>2014-08-07T09:50:25Z</time>
      </trkpt>
      <trkpt lat="45.2298" lon="6.33682">
        <ele>1382</ele>
        <time>2014-08-07T09:50:42Z</time>
      </trkpt>
      <trkpt lat="45.2297" lon="6.33683">
        <ele>1383</ele>
        <time>2014-08-07T09:51:02Z</time>
      </trkpt>
      <trkpt lat="45.22961" lon="6.33688">
        <ele>1385</ele>
        <time>2014-08-07T09:51:18Z</time>
      </trkpt>
      <trkpt lat="45.22951" lon="6.33688">
        <ele>1386</ele>
        <time>2014-08-07T09:51:34Z</time>
      </trkpt>
      <trkpt lat="45.22941" lon="6.33688">
        <ele>1387</ele>
        <time>2014-08-07T09:51:48Z</time>
      </trkpt>
      <trkpt lat="45.22931" lon="6.33689">
        <ele>1389</ele>
        <time>2014-08-07T09:52:02Z</time>
      </trkpt>
      <trkpt lat="45.22922" lon="6.33691">
        <ele>1389</ele>
        <time>2014-08-07T09:52:13Z</time>
      </trkpt>
      <trkpt lat="45.22915" lon="6.33701">
        <ele>1404</ele>
        <time>2014-08-07T09:52:29Z</time>
      </trkpt>
      <trkpt lat="45.22905" lon="6.33704">
        <ele>1405</ele>
        <time>2014-08-07T09:52:43Z</time>
      </trkpt>
      <trkpt lat="45.22896" lon="6.33708">
        <ele>1406</ele>
        <time>2014-08-07T09:52:55Z</time>
      </trkpt>
      <trkpt lat="45.22887" lon="6.33713">
        <ele>1407</ele>
        <time>2014-08-07T09:53:14Z</time>
      </trkpt>
      <trkpt lat="45.22879" lon="6.33717">
        <ele>1409</ele>
        <time>2014-08-07T09:53:31Z</time>
      </trkpt>
      <trkpt lat="45.2287" lon="6.33721">
        <ele>1410</ele>
        <time>2014-08-07T09:53:45Z</time>
      </trkpt>
      <trkpt lat="45.22861" lon="6.33717">
        <ele>1412</ele>
        <time>2014-08-07T09:54:02Z</time>
      </trkpt>
      <trkpt lat="45.22851" lon="6.33717">
        <ele>1414</ele>
        <time>2014-08-07T09:54:51Z</time>
      </trkpt>
      <trkpt lat="45.22841" lon="6.33714">
        <ele>1415</ele>
        <time>2014-08-07T09:55:22Z</time>
      </trkpt>
      <trkpt lat="45.22832" lon="6.33718">
        <ele>1433</ele>
        <time>2014-08-07T09:55:46Z</time>
      </trkpt>
      <trkpt lat="45.22823" lon="6.33723">
        <ele>1433</ele>
        <time>2014-08-07T09:56:00Z</time>
      </trkpt>
      <trkpt lat="45.22813" lon="6.33724">
        <ele>1435</ele>
        <time>2014-08-07T09:56:19Z</time>
      </trkpt>
      <trkpt lat="45.22804" lon="6.3373">
        <ele>1436</ele>
        <time>2014-08-07T09:56:38Z</time>
      </trkpt>
      <trkpt lat="45.22798" lon="6.33741">
        <ele>1437</ele>
        <time>2014-08-07T09:57:04Z</time>
      </trkpt>
      <trkpt lat="45.22788" lon="6.33745">
        <ele>1439</ele>
        <time>2014-08-07T09:57:27Z</time>
      </trkpt>
      <trkpt lat="45.22778" lon="6.33745">
        <ele>1442</ele>
        <time>2014-08-07T09:57:40Z</time>
      </trkpt>
      <trkpt lat="45.22768" lon="6.33753">
        <ele>1442</ele>
        <time>2014-08-07T09:57:55Z</time>
      </trkpt>
      <trkpt lat="45.22758" lon="6.33754">
        <ele>1446</ele>
        <time>2014-08-07T09:58:13Z</time>
      </trkpt>
      <trkpt lat="45.22749" lon="6.3375">
        <ele>1452</ele>
        <time>2014-08-07T09:58:32Z</time>
      </trkpt>
      <trkpt lat="45.2274" lon="6.33755">
        <ele>1453</ele>
        <time>2014-08-07T09:58:45Z</time>
      </trkpt>
      <trkpt lat="45.22732" lon="6.33764">
        <ele>1454</ele>
        <time>2014-08-07T09:58:58Z</time>
      </trkpt>
      <trkpt lat="45.22725" lon="6.33773">
        <ele>1454</ele>
        <time>2014-08-07T09:59:13Z</time>
      </trkpt>
      <trkpt lat="45.22715" lon="6.33773">
        <ele>1455</ele>
        <time>2014-08-07T09:59:33Z</time>
      </trkpt>
      <trkpt lat="45.22705" lon="6.33773">
        <ele>1456</ele>
        <time>2014-08-07T09:59:43Z</time>
      </trkpt>
      <trkpt lat="45.22695" lon="6.33771">
        <ele>1457</ele>
        <time>2014-08-07T09:59:54Z</time>
      </trkpt>
      <trkpt lat="45.22686" lon="6.33768">
        <ele>1459</ele>
        <time>2014-08-07T10:00:07Z</time>
      </trkpt>
      <trkpt lat="45.22679" lon="6.33757">
        <ele>1461</ele>
        <time>2014-08-07T10:00:18Z</time>
      </trkpt>
      <trkpt lat="45.2267" lon="6.33758">
        <ele>1463</ele>
        <time>2014-08-07T10:00:37Z</time>
      </trkpt>
      <trkpt lat="45.2266" lon="6.33761">
        <ele>1469</ele>
        <time>2014-08-07T10:00:46Z</time>
      </trkpt>
      <trkpt lat="45.22651" lon="6.33764">
        <ele>1470</ele>
        <time>2014-08-07T10:00:56Z</time>
      </trkpt>
      <trkpt lat="45.22642" lon="6.33767">
        <ele>1471</ele>
        <time>2014-08-07T10:01:06Z</time>
      </trkpt>
      <trkpt lat="45.22632" lon="6.3377">
        <ele>1472</ele>
        <time>2014-08-07T10:01:15Z</time>
      </trkpt>
      <trkpt lat="45.22623" lon="6.33774">
        <ele>1473</ele>
        <time>2014-08-07T10:01:25Z</time>
      </trkpt>
      <trkpt lat="45.22613" lon="6.33777">
        <ele>1474</ele>
        <time>2014-08-07T10:01:37Z</time>
      </trkpt>
      <trkpt lat="45.22603" lon="6.3378">
        <ele>1475</ele>
        <time>2014-08-07T10:01:49Z</time>
      </trkpt>
      <trkpt lat="45.22594" lon="6.33784">
        <ele>1476</ele>
        <time>2014-08-07T10:02:00Z</time>
      </trkpt>
      <trkpt lat="45.22584" lon="6.33786">
        <ele>1477</ele>
        <time>2014-08-07T10:02:13Z</time>
      </trkpt>
      <trkpt lat="45.22576" lon="6.33793">
        <ele>1490</ele>
        <time>2014-08-07T10:02:25Z</time>
      </trkpt>
      <trkpt lat="45.22566" lon="6.33796">
        <ele>1491</ele>
        <time>2014-08-07T10:02:35Z</time>
      </trkpt>
      <trkpt lat="45.22555" lon="6.33787">
        <ele>1492</ele>
        <time>2014-08-07T10:02:44Z</time>
      </trkpt>
      <trkpt lat="45.22546" lon="6.33777">
        <ele>1493</ele>
        <time>2014-08-07T10:02:47Z</time>
      </trkpt>
      <trkpt lat="45.22537" lon="6.3377">
        <ele>1494</ele>
        <time>2014-08-07T10:02:49Z</time>
      </trkpt>
      <trkpt lat="45.22529" lon="6.3376">
        <ele>1496</ele>
        <time>2014-08-07T10:02:51Z</time>
      </trkpt>
      <trkpt lat="45.22521" lon="6.3375">
        <ele>1492</ele>
        <time>2014-08-07T10:02:54Z</time>
      </trkpt>
      <trkpt lat="45.22513" lon="6.33742">
        <ele>1494</ele>
        <time>2014-08-07T10:02:59Z</time>
      </trkpt>
      <trkpt lat="45.22503" lon="6.33738">
        <ele>1495</ele>
        <time>2014-08-07T10:03:07Z</time>
      </trkpt>
      <trkpt lat="45.22493" lon="6.33735">
        <ele>1504</ele>
        <time>2014-08-07T10:03:15Z</time>
      </trkpt>
      <trkpt lat="45.22486" lon="6.33726">
        <ele>1504</ele>
        <time>2014-08-07T10:03:21Z</time>
      </trkpt>
      <trkpt lat="45.22479" lon="6.33715">
        <ele>1503</ele>
        <time>2014-08-07T10:03:27Z</time>
      </trkpt>
      <trkpt lat="45.2247" lon="6.33708">
        <ele>1503</ele>
        <time>2014-08-07T10:03:31Z</time>
      </trkpt>
      <trkpt lat="45.22462" lon="6.33702">
        <ele>1504</ele>
        <time>2014-08-07T10:03:35Z</time>
      </trkpt>
      <trkpt lat="45.22451" lon="6.33694">
        <ele>1505</ele>
        <time>2014-08-07T10:03:39Z</time>
      </trkpt>
      <trkpt lat="45.2244" lon="6.33689">
        <ele>1506</ele>
        <time>2014-08-07T10:03:42Z</time>
      </trkpt>
      <trkpt lat="45.2243" lon="6.33682">
        <ele>1506</ele>
        <time>2014-08-07T10:03:45Z</time>
      </trkpt>
      <trkpt lat="45.22421" lon="6.33678">
        <ele>1507</ele>
        <time>2014-08-07T10:03:47Z</time>
      </trkpt>
      <trkpt lat="45.22411" lon="6.33673">
        <ele>1515</ele>
        <time>2014-08-07T10:03:49Z</time>
      </trkpt>
      <trkpt lat="45.22403" lon="6.33658">
        <ele>1511</ele>
        <time>2014-08-07T10:03:53Z</time>
      </trkpt>
      <trkpt lat="45.22399" lon="6.33644">
        <ele>1511</ele>
        <time>2014-08-07T10:03:56Z</time>
      </trkpt>
      <trkpt lat="45.22396" lon="6.33629">
        <ele>1509</ele>
        <time>2014-08-07T10:03:59Z</time>
      </trkpt>
      <trkpt lat="45.2239" lon="6.33617">
        <ele>1508</ele>
        <time>2014-08-07T10:04:02Z</time>
      </trkpt>
      <trkpt lat="45.22383" lon="6.33606">
        <ele>1508</ele>
        <time>2014-08-07T10:04:05Z</time>
      </trkpt>
      <trkpt lat="45.22375" lon="6.33599">
        <ele>1509</ele>
        <time>2014-08-07T10:04:08Z</time>
      </trkpt>
      <trkpt lat="45.22366" lon="6.33593">
        <ele>1511</ele>
        <time>2014-08-07T10:04:11Z</time>
      </trkpt>
      <trkpt lat="45.22356" lon="6.33589">
        <ele>1513</ele>
        <time>2014-08-07T10:04:14Z</time>
      </trkpt>
      <trkpt lat="45.22345" lon="6.3358">
        <ele>1507</ele>
        <time>2014-08-07T10:04:18Z</time>
      </trkpt>
      <trkpt lat="45.22337" lon="6.33567">
        <ele>1504</ele>
        <time>2014-08-07T10:04:23Z</time>
      </trkpt>
      <trkpt lat="45.22331" lon="6.33555">
        <ele>1516</ele>
        <time>2014-08-07T10:04:27Z</time>
      </trkpt>
      <trkpt lat="45.22324" lon="6.33543">
        <ele>1515</ele>
        <time>2014-08-07T10:04:30Z</time>
      </trkpt>
      <trkpt lat="45.22319" lon="6.33531">
        <ele>1513</ele>
        <time>2014-08-07T10:04:33Z</time>
      </trkpt>
      <trkpt lat="45.22314" lon="6.33517">
        <ele>1510</ele>
        <time>2014-08-07T10:04:36Z</time>
      </trkpt>
      <trkpt lat="45.22308" lon="6.33505">
        <ele>1511</ele>
        <time>2014-08-07T10:04:40Z</time>
      </trkpt>
      <trkpt lat="45.223" lon="6.33492">
        <ele>1503</ele>
        <time>2014-08-07T10:04:43Z</time>
      </trkpt>
      <trkpt lat="45.22294" lon="6.33481">
        <ele>1504</ele>
        <time>2014-08-07T10:04:45Z</time>
      </trkpt>
      <trkpt lat="45.22288" lon="6.33469">
        <ele>1504</ele>
        <time>2014-08-07T10:04:47Z</time>
      </trkpt>
      <trkpt lat="45.22281" lon="6.33454">
        <ele>1504</ele>
        <time>2014-08-07T10:04:49Z</time>
      </trkpt>
      <trkpt lat="45.22272" lon="6.33437">
        <ele>1504</ele>
        <time>2014-08-07T10:04:51Z</time>
      </trkpt>
      <trkpt lat="45.22264" lon="6.33416">
        <ele>1499</ele>
        <time>2014-08-07T10:04:53Z</time>
      </trkpt>
      <trkpt lat="45.22256" lon="6.33396">
        <ele>1496</ele>
        <time>2014-08-07T10:04:55Z</time>
      </trkpt>
      <trkpt lat="45.22247" lon="6.3338">
        <ele>1505</ele>
        <time>2014-08-07T10:04:57Z</time>
      </trkpt>
      <trkpt lat="45.22242" lon="6.33366">
        <ele>1503</ele>
        <time>2014-08-07T10:05:00Z</time>
      </trkpt>
      <trkpt lat="45.22234" lon="6.33355">
        <ele>1502</ele>
        <time>2014-08-07T10:05:03Z</time>
      </trkpt>
      <trkpt lat="45.22225" lon="6.33349">
        <ele>1502</ele>
        <time>2014-08-07T10:05:05Z</time>
      </trkpt>
      <trkpt lat="45.22217" lon="6.33343">
        <ele>1502</ele>
        <time>2014-08-07T10:05:07Z</time>
      </trkpt>
      <trkpt lat="45.22208" lon="6.33339">
        <ele>1503</ele>
        <time>2014-08-07T10:05:09Z</time>
      </trkpt>
      <trkpt lat="45.22194" lon="6.33345">
        <ele>1503</ele>
        <time>2014-08-07T10:05:12Z</time>
      </trkpt>
      <trkpt lat="45.22183" lon="6.33355">
        <ele>1504</ele>
        <time>2014-08-07T10:05:15Z</time>
      </trkpt>
      <trkpt lat="45.22175" lon="6.33363">
        <ele>1504</ele>
        <time>2014-08-07T10:05:17Z</time>
      </trkpt>
      <trkpt lat="45.22167" lon="6.33372">
        <ele>1505</ele>
        <time>2014-08-07T10:05:19Z</time>
      </trkpt>
      <trkpt lat="45.22158" lon="6.3338">
        <ele>1504</ele>
        <time>2014-08-07T10:05:21Z</time>
      </trkpt>
      <trkpt lat="45.22149" lon="6.3339">
        <ele>1504</ele>
        <time>2014-08-07T10:05:23Z</time>
      </trkpt>
      <trkpt lat="45.22141" lon="6.334">
        <ele>1504</ele>
        <time>2014-08-07T10:05:25Z</time>
      </trkpt>
      <trkpt lat="45.22133" lon="6.33413">
        <ele>1504</ele>
        <time>2014-08-07T10:05:27Z</time>
      </trkpt>
      <trkpt lat="45.22126" lon="6.33426">
        <ele>1507</ele>
        <time>2014-08-07T10:05:29Z</time>
      </trkpt>
      <trkpt lat="45.2212" lon="6.33439">
        <ele>1507</ele>
        <time>2014-08-07T10:05:31Z</time>
      </trkpt>
      <trkpt lat="45.22115" lon="6.33452">
        <ele>1507</ele>
        <time>2014-08-07T10:05:33Z</time>
      </trkpt>
      <trkpt lat="45.2211" lon="6.33463">
        <ele>1507</ele>
        <time>2014-08-07T10:05:35Z</time>
      </trkpt>
      <trkpt lat="45.22105" lon="6.33475">
        <ele>1507</ele>
        <time>2014-08-07T10:05:37Z</time>
      </trkpt>
      <trkpt lat="45.22099" lon="6.3349">
        <ele>1507</ele>
        <time>2014-08-07T10:05:40Z</time>
      </trkpt>
      <trkpt lat="45.22093" lon="6.33506">
        <ele>1508</ele>
        <time>2014-08-07T10:05:43Z</time>
      </trkpt>
      <trkpt lat="45.22087" lon="6.33522">
        <ele>1510</ele>
        <time>2014-08-07T10:05:46Z</time>
      </trkpt>
      <trkpt lat="45.2208" lon="6.33536">
        <ele>1504</ele>
        <time>2014-08-07T10:05:49Z</time>
      </trkpt>
      <trkpt lat="45.22076" lon="6.33552">
        <ele>1505</ele>
        <time>2014-08-07T10:05:52Z</time>
      </trkpt>
      <trkpt lat="45.22074" lon="6.3357">
        <ele>1506</ele>
        <time>2014-08-07T10:05:55Z</time>
      </trkpt>
      <trkpt lat="45.22072" lon="6.33587">
        <ele>1508</ele>
        <time>2014-08-07T10:05:58Z</time>
      </trkpt>
      <trkpt lat="45.22071" lon="6.33604">
        <ele>1508</ele>
        <time>2014-08-07T10:06:01Z</time>
      </trkpt>
      <trkpt lat="45.2207" lon="6.33623">
        <ele>1508</ele>
        <time>2014-08-07T10:06:04Z</time>
      </trkpt>
      <trkpt lat="45.2207" lon="6.33641">
        <ele>1508</ele>
        <time>2014-08-07T10:06:07Z</time>
      </trkpt>
      <trkpt lat="45.2207" lon="6.33657">
        <ele>1508</ele>
        <time>2014-08-07T10:06:10Z</time>
      </trkpt>
      <trkpt lat="45.22071" lon="6.33676">
        <ele>1509</ele>
        <time>2014-08-07T10:06:13Z</time>
      </trkpt>
      <trkpt lat="45.22073" lon="6.33695">
        <ele>1508</ele>
        <time>2014-08-07T10:06:16Z</time>
      </trkpt>
      <trkpt lat="45.22074" lon="6.33708">
        <ele>1508</ele>
        <time>2014-08-07T10:06:18Z</time>
      </trkpt>
      <trkpt lat="45.22074" lon="6.33723">
        <ele>1508</ele>
        <time>2014-08-07T10:06:20Z</time>
      </trkpt>
      <trkpt lat="45.22074" lon="6.33737">
        <ele>1508</ele>
        <time>2014-08-07T10:06:22Z</time>
      </trkpt>
      <trkpt lat="45.22076" lon="6.33752">
        <ele>1508</ele>
        <time>2014-08-07T10:06:24Z</time>
      </trkpt>
      <trkpt lat="45.22077" lon="6.33769">
        <ele>1508</ele>
        <time>2014-08-07T10:06:26Z</time>
      </trkpt>
      <trkpt lat="45.22077" lon="6.33784">
        <ele>1508</ele>
        <time>2014-08-07T10:06:28Z</time>
      </trkpt>
      <trkpt lat="45.22078" lon="6.33799">
        <ele>1508</ele>
        <time>2014-08-07T10:06:30Z</time>
      </trkpt>
      <trkpt lat="45.22079" lon="6.33813">
        <ele>1508</ele>
        <time>2014-08-07T10:06:32Z</time>
      </trkpt>
      <trkpt lat="45.22079" lon="6.33826">
        <ele>1509</ele>
        <time>2014-08-07T10:06:34Z</time>
      </trkpt>
      <trkpt lat="45.2208" lon="6.3384">
        <ele>1509</ele>
        <time>2014-08-07T10:06:36Z</time>
      </trkpt>
      <trkpt lat="45.22081" lon="6.33858">
        <ele>1509</ele>
        <time>2014-08-07T10:06:39Z</time>
      </trkpt>
      <trkpt lat="45.22081" lon="6.33875">
        <ele>1508</ele>
        <time>2014-08-07T10:06:42Z</time>
      </trkpt>
      <trkpt lat="45.22081" lon="6.33891">
        <ele>1508</ele>
        <time>2014-08-07T10:06:45Z</time>
      </trkpt>
      <trkpt lat="45.22083" lon="6.33908">
        <ele>1509</ele>
        <time>2014-08-07T10:06:48Z</time>
      </trkpt>
      <trkpt lat="45.22084" lon="6.33924">
        <ele>1511</ele>
        <time>2014-08-07T10:06:51Z</time>
      </trkpt>
      <trkpt lat="45.22084" lon="6.33942">
        <ele>1513</ele>
        <time>2014-08-07T10:06:54Z</time>
      </trkpt>
      <trkpt lat="45.22085" lon="6.33959">
        <ele>1514</ele>
        <time>2014-08-07T10:06:57Z</time>
      </trkpt>
      <trkpt lat="45.22085" lon="6.33975">
        <ele>1514</ele>
        <time>2014-08-07T10:07:00Z</time>
      </trkpt>
      <trkpt lat="45.22086" lon="6.33991">
        <ele>1514</ele>
        <time>2014-08-07T10:07:03Z</time>
      </trkpt>
      <trkpt lat="45.22086" lon="6.34008">
        <ele>1514</ele>
        <time>2014-08-07T10:07:07Z</time>
      </trkpt>
      <trkpt lat="45.22081" lon="6.34021">
        <ele>1515</ele>
        <time>2014-08-07T10:07:11Z</time>
      </trkpt>
      <trkpt lat="45.2207" lon="6.34022">
        <ele>1515</ele>
        <time>2014-08-07T10:07:14Z</time>
      </trkpt>
      <trkpt lat="45.22057" lon="6.3402">
        <ele>1516</ele>
        <time>2014-08-07T10:07:17Z</time>
      </trkpt>
      <trkpt lat="45.22044" lon="6.34017">
        <ele>1516</ele>
        <time>2014-08-07T10:07:20Z</time>
      </trkpt>
      <trkpt lat="45.2203" lon="6.34016">
        <ele>1516</ele>
        <time>2014-08-07T10:07:23Z</time>
      </trkpt>
      <trkpt lat="45.22018" lon="6.34018">
        <ele>1516</ele>
        <time>2014-08-07T10:07:26Z</time>
      </trkpt>
      <trkpt lat="45.22009" lon="6.3402">
        <ele>1516</ele>
        <time>2014-08-07T10:07:28Z</time>
      </trkpt>
      <trkpt lat="45.21999" lon="6.34023">
        <ele>1517</ele>
        <time>2014-08-07T10:07:30Z</time>
      </trkpt>
      <trkpt lat="45.2199" lon="6.34025">
        <ele>1517</ele>
        <time>2014-08-07T10:07:32Z</time>
      </trkpt>
      <trkpt lat="45.21977" lon="6.3403">
        <ele>1518</ele>
        <time>2014-08-07T10:07:35Z</time>
      </trkpt>
      <trkpt lat="45.21963" lon="6.34035">
        <ele>1518</ele>
        <time>2014-08-07T10:07:38Z</time>
      </trkpt>
      <trkpt lat="45.21954" lon="6.3404">
        <ele>1519</ele>
        <time>2014-08-07T10:07:40Z</time>
      </trkpt>
      <trkpt lat="45.21942" lon="6.34048">
        <ele>1519</ele>
        <time>2014-08-07T10:07:43Z</time>
      </trkpt>
      <trkpt lat="45.21933" lon="6.34056">
        <ele>1520</ele>
        <time>2014-08-07T10:07:46Z</time>
      </trkpt>
      <trkpt lat="45.21924" lon="6.34065">
        <ele>1520</ele>
        <time>2014-08-07T10:07:49Z</time>
      </trkpt>
      <trkpt lat="45.21914" lon="6.34072">
        <ele>1521</ele>
        <time>2014-08-07T10:07:53Z</time>
      </trkpt>
      <trkpt lat="45.21905" lon="6.34076">
        <ele>1520</ele>
        <time>2014-08-07T10:07:56Z</time>
      </trkpt>
      <trkpt lat="45.21901" lon="6.34088">
        <ele>1521</ele>
        <time>2014-08-07T10:07:59Z</time>
      </trkpt>
      <trkpt lat="45.21892" lon="6.34097">
        <ele>1521</ele>
        <time>2014-08-07T10:08:03Z</time>
      </trkpt>
      <trkpt lat="45.21882" lon="6.34094">
        <ele>1521</ele>
        <time>2014-08-07T10:08:08Z</time>
      </trkpt>
      <trkpt lat="45.21873" lon="6.34102">
        <ele>1521</ele>
        <time>2014-08-07T10:08:14Z</time>
      </trkpt>
      <trkpt lat="45.21864" lon="6.34104">
        <ele>1520</ele>
        <time>2014-08-07T10:09:44Z</time>
      </trkpt>
      <trkpt lat="45.2187" lon="6.34094">
        <ele>1521</ele>
        <time>2014-08-07T10:11:21Z</time>
      </trkpt>
      <trkpt lat="45.21868" lon="6.34081">
        <ele>1519</ele>
        <time>2014-08-07T10:11:27Z</time>
      </trkpt>
      <trkpt lat="45.21858" lon="6.34074">
        <ele>1519</ele>
        <time>2014-08-07T10:11:34Z</time>
      </trkpt>
      <trkpt lat="45.21853" lon="6.34062">
        <ele>1519</ele>
        <time>2014-08-07T10:11:41Z</time>
      </trkpt>
      <trkpt lat="45.21849" lon="6.34047">
        <ele>1519</ele>
        <time>2014-08-07T10:11:45Z</time>
      </trkpt>
      <trkpt lat="45.21843" lon="6.34031">
        <ele>1518</ele>
        <time>2014-08-07T10:11:48Z</time>
      </trkpt>
      <trkpt lat="45.21839" lon="6.34015">
        <ele>1518</ele>
        <time>2014-08-07T10:11:51Z</time>
      </trkpt>
      <trkpt lat="45.21836" lon="6.33998">
        <ele>1517</ele>
        <time>2014-08-07T10:11:54Z</time>
      </trkpt>
      <trkpt lat="45.21838" lon="6.3398">
        <ele>1515</ele>
        <time>2014-08-07T10:11:57Z</time>
      </trkpt>
      <trkpt lat="45.21839" lon="6.33966">
        <ele>1514</ele>
        <time>2014-08-07T10:11:59Z</time>
      </trkpt>
      <trkpt lat="45.21837" lon="6.33946">
        <ele>1514</ele>
        <time>2014-08-07T10:12:02Z</time>
      </trkpt>
      <trkpt lat="45.21836" lon="6.33931">
        <ele>1513</ele>
        <time>2014-08-07T10:12:04Z</time>
      </trkpt>
      <trkpt lat="45.21834" lon="6.33915">
        <ele>1513</ele>
        <time>2014-08-07T10:12:06Z</time>
      </trkpt>
      <trkpt lat="45.21834" lon="6.339">
        <ele>1511</ele>
        <time>2014-08-07T10:12:08Z</time>
      </trkpt>
      <trkpt lat="45.2183" lon="6.33878">
        <ele>1514</ele>
        <time>2014-08-07T10:12:11Z</time>
      </trkpt>
      <trkpt lat="45.2183" lon="6.3386">
        <ele>1513</ele>
        <time>2014-08-07T10:12:13Z</time>
      </trkpt>
      <trkpt lat="45.21829" lon="6.33841">
        <ele>1511</ele>
        <time>2014-08-07T10:12:15Z</time>
      </trkpt>
      <trkpt lat="45.21828" lon="6.3382">
        <ele>1511</ele>
        <time>2014-08-07T10:12:17Z</time>
      </trkpt>
      <trkpt lat="45.21825" lon="6.33796">
        <ele>1512</ele>
        <time>2014-08-07T10:12:19Z</time>
      </trkpt>
      <trkpt lat="45.21822" lon="6.33771">
        <ele>1511</ele>
        <time>2014-08-07T10:12:21Z</time>
      </trkpt>
      <trkpt lat="45.2182" lon="6.3375">
        <ele>1508</ele>
        <time>2014-08-07T10:12:23Z</time>
      </trkpt>
      <trkpt lat="45.2182" lon="6.33726">
        <ele>1509</ele>
        <time>2014-08-07T10:12:25Z</time>
      </trkpt>
      <trkpt lat="45.21824" lon="6.33701">
        <ele>1508</ele>
        <time>2014-08-07T10:12:27Z</time>
      </trkpt>
      <trkpt lat="45.21822" lon="6.33678">
        <ele>1506</ele>
        <time>2014-08-07T10:12:29Z</time>
      </trkpt>
      <trkpt lat="45.2182" lon="6.33655">
        <ele>1503</ele>
        <time>2014-08-07T10:12:31Z</time>
      </trkpt>
      <trkpt lat="45.21817" lon="6.33632">
        <ele>1503</ele>
        <time>2014-08-07T10:12:33Z</time>
      </trkpt>
      <trkpt lat="45.21813" lon="6.3361">
        <ele>1502</ele>
        <time>2014-08-07T10:12:35Z</time>
      </trkpt>
      <trkpt lat="45.21806" lon="6.33593">
        <ele>1501</ele>
        <time>2014-08-07T10:12:37Z</time>
      </trkpt>
      <trkpt lat="45.21799" lon="6.33583">
        <ele>1497</ele>
        <time>2014-08-07T10:12:39Z</time>
      </trkpt>
      <trkpt lat="45.21797" lon="6.33567">
        <ele>1497</ele>
        <time>2014-08-07T10:12:42Z</time>
      </trkpt>
      <trkpt lat="45.21805" lon="6.33554">
        <ele>1497</ele>
        <time>2014-08-07T10:12:44Z</time>
      </trkpt>
      <trkpt lat="45.21813" lon="6.33537">
        <ele>1496</ele>
        <time>2014-08-07T10:12:46Z</time>
      </trkpt>
      <trkpt lat="45.21824" lon="6.33509">
        <ele>1494</ele>
        <time>2014-08-07T10:12:49Z</time>
      </trkpt>
      <trkpt lat="45.21829" lon="6.33492">
        <ele>1491</ele>
        <time>2014-08-07T10:12:51Z</time>
      </trkpt>
      <trkpt lat="45.21825" lon="6.33478">
        <ele>1491</ele>
        <time>2014-08-07T10:12:53Z</time>
      </trkpt>
      <trkpt lat="45.21824" lon="6.33464">
        <ele>1490</ele>
        <time>2014-08-07T10:12:55Z</time>
      </trkpt>
      <trkpt lat="45.21815" lon="6.3345">
        <ele>1490</ele>
        <time>2014-08-07T10:12:57Z</time>
      </trkpt>
      <trkpt lat="45.218" lon="6.33435">
        <ele>1489</ele>
        <time>2014-08-07T10:12:59Z</time>
      </trkpt>
      <trkpt lat="45.21792" lon="6.33418">
        <ele>1489</ele>
        <time>2014-08-07T10:13:01Z</time>
      </trkpt>
      <trkpt lat="45.2179" lon="6.33406">
        <ele>1485</ele>
        <time>2014-08-07T10:13:03Z</time>
      </trkpt>
      <trkpt lat="45.21793" lon="6.33389">
        <ele>1484</ele>
        <time>2014-08-07T10:13:05Z</time>
      </trkpt>
      <trkpt lat="45.21797" lon="6.33363">
        <ele>1483</ele>
        <time>2014-08-07T10:13:07Z</time>
      </trkpt>
      <trkpt lat="45.21797" lon="6.33337">
        <ele>1482</ele>
        <time>2014-08-07T10:13:09Z</time>
      </trkpt>
      <trkpt lat="45.21797" lon="6.33323">
        <ele>1475</ele>
        <time>2014-08-07T10:13:10Z</time>
      </trkpt>
      <trkpt lat="45.21797" lon="6.33308">
        <ele>1475</ele>
        <time>2014-08-07T10:13:11Z</time>
      </trkpt>
      <trkpt lat="45.21795" lon="6.33293">
        <ele>1474</ele>
        <time>2014-08-07T10:13:12Z</time>
      </trkpt>
      <trkpt lat="45.21791" lon="6.33279">
        <ele>1473</ele>
        <time>2014-08-07T10:13:13Z</time>
      </trkpt>
      <trkpt lat="45.21786" lon="6.33264">
        <ele>1472</ele>
        <time>2014-08-07T10:13:14Z</time>
      </trkpt>
      <trkpt lat="45.21782" lon="6.33249">
        <ele>1464</ele>
        <time>2014-08-07T10:13:15Z</time>
      </trkpt>
      <trkpt lat="45.21778" lon="6.33235">
        <ele>1464</ele>
        <time>2014-08-07T10:13:16Z</time>
      </trkpt>
      <trkpt lat="45.21774" lon="6.33222">
        <ele>1463</ele>
        <time>2014-08-07T10:13:17Z</time>
      </trkpt>
      <trkpt lat="45.2177" lon="6.33209">
        <ele>1461</ele>
        <time>2014-08-07T10:13:18Z</time>
      </trkpt>
      <trkpt lat="45.21766" lon="6.33196">
        <ele>1460</ele>
        <time>2014-08-07T10:13:19Z</time>
      </trkpt>
      <trkpt lat="45.21763" lon="6.33184">
        <ele>1458</ele>
        <time>2014-08-07T10:13:20Z</time>
      </trkpt>
      <trkpt lat="45.21758" lon="6.33165">
        <ele>1452</ele>
        <time>2014-08-07T10:13:22Z</time>
      </trkpt>
      <trkpt lat="45.21757" lon="6.33148">
        <ele>1451</ele>
        <time>2014-08-07T10:13:24Z</time>
      </trkpt>
      <trkpt lat="45.21755" lon="6.33131">
        <ele>1449</ele>
        <time>2014-08-07T10:13:27Z</time>
      </trkpt>
      <trkpt lat="45.21753" lon="6.33116">
        <ele>1448</ele>
        <time>2014-08-07T10:13:31Z</time>
      </trkpt>
      <trkpt lat="45.21744" lon="6.33111">
        <ele>1447</ele>
        <time>2014-08-07T10:13:52Z</time>
      </trkpt>
      <trkpt lat="45.21733" lon="6.33102">
        <ele>1446</ele>
        <time>2014-08-07T10:14:00Z</time>
      </trkpt>
      <trkpt lat="45.21724" lon="6.33096">
        <ele>1446</ele>
        <time>2014-08-07T10:14:02Z</time>
      </trkpt>
      <trkpt lat="45.21718" lon="6.33086">
        <ele>1446</ele>
        <time>2014-08-07T10:14:06Z</time>
      </trkpt>
      <trkpt lat="45.21713" lon="6.33074">
        <ele>1433</ele>
        <time>2014-08-07T10:14:14Z</time>
      </trkpt>
      <trkpt lat="45.21706" lon="6.33064">
        <ele>1432</ele>
        <time>2014-08-07T10:14:18Z</time>
      </trkpt>
      <trkpt lat="45.21697" lon="6.33058">
        <ele>1431</ele>
        <time>2014-08-07T10:14:21Z</time>
      </trkpt>
      <trkpt lat="45.21691" lon="6.33046">
        <ele>1429</ele>
        <time>2014-08-07T10:14:27Z</time>
      </trkpt>
      <trkpt lat="45.21683" lon="6.33035">
        <ele>1426</ele>
        <time>2014-08-07T10:14:34Z</time>
      </trkpt>
      <trkpt lat="45.21675" lon="6.33025">
        <ele>1423</ele>
        <time>2014-08-07T10:14:38Z</time>
      </trkpt>
      <trkpt lat="45.21666" lon="6.33019">
        <ele>1416</ele>
        <time>2014-08-07T10:14:46Z</time>
      </trkpt>
      <trkpt lat="45.21653" lon="6.33022">
        <ele>1417</ele>
        <time>2014-08-07T10:14:52Z</time>
      </trkpt>
      <trkpt lat="45.21643" lon="6.33019">
        <ele>1416</ele>
        <time>2014-08-07T10:14:58Z</time>
      </trkpt>
      <trkpt lat="45.21634" lon="6.33016">
        <ele>1416</ele>
        <time>2014-08-07T10:15:03Z</time>
      </trkpt>
      <trkpt lat="45.21624" lon="6.33015">
        <ele>1415</ele>
        <time>2014-08-07T10:15:06Z</time>
      </trkpt>
      <trkpt lat="45.21615" lon="6.33017">
        <ele>1414</ele>
        <time>2014-08-07T10:15:09Z</time>
      </trkpt>
      <trkpt lat="45.21604" lon="6.33016">
        <ele>1412</ele>
        <time>2014-08-07T10:15:13Z</time>
      </trkpt>
      <trkpt lat="45.21595" lon="6.33016">
        <ele>1410</ele>
        <time>2014-08-07T10:15:17Z</time>
      </trkpt>
      <trkpt lat="45.21584" lon="6.33014">
        <ele>1407</ele>
        <time>2014-08-07T10:15:23Z</time>
      </trkpt>
      <trkpt lat="45.21575" lon="6.3301">
        <ele>1408</ele>
        <time>2014-08-07T10:15:26Z</time>
      </trkpt>
      <trkpt lat="45.21565" lon="6.33009">
        <ele>1412</ele>
        <time>2014-08-07T10:15:30Z</time>
      </trkpt>
      <trkpt lat="45.21556" lon="6.33007">
        <ele>1415</ele>
        <time>2014-08-07T10:15:36Z</time>
      </trkpt>
      <trkpt lat="45.21548" lon="6.32995">
        <ele>1401</ele>
        <time>2014-08-07T10:15:40Z</time>
      </trkpt>
      <trkpt lat="45.21539" lon="6.32989">
        <ele>1403</ele>
        <time>2014-08-07T10:15:44Z</time>
      </trkpt>
      <trkpt lat="45.21533" lon="6.32976">
        <ele>1403</ele>
        <time>2014-08-07T10:15:51Z</time>
      </trkpt>
      <trkpt lat="45.2153" lon="6.32964">
        <ele>1402</ele>
        <time>2014-08-07T10:16:07Z</time>
      </trkpt>
      <trkpt lat="45.21529" lon="6.3295">
        <ele>1401</ele>
        <time>2014-08-07T10:16:21Z</time>
      </trkpt>
      <trkpt lat="45.21538" lon="6.32946">
        <ele>1399</ele>
        <time>2014-08-07T10:16:26Z</time>
      </trkpt>
      <trkpt lat="45.21541" lon="6.32933">
        <ele>1397</ele>
        <time>2014-08-07T10:16:30Z</time>
      </trkpt>
      <trkpt lat="45.21535" lon="6.32919">
        <ele>1398</ele>
        <time>2014-08-07T10:16:34Z</time>
      </trkpt>
      <trkpt lat="45.21538" lon="6.32906">
        <ele>1387</ele>
        <time>2014-08-07T10:16:36Z</time>
      </trkpt>
      <trkpt lat="45.21542" lon="6.3289">
        <ele>1385</ele>
        <time>2014-08-07T10:16:39Z</time>
      </trkpt>
      <trkpt lat="45.21551" lon="6.32875">
        <ele>1382</ele>
        <time>2014-08-07T10:16:42Z</time>
      </trkpt>
      <trkpt lat="45.21557" lon="6.32859">
        <ele>1377</ele>
        <time>2014-08-07T10:16:45Z</time>
      </trkpt>
      <trkpt lat="45.2156" lon="6.32846">
        <ele>1374</ele>
        <time>2014-08-07T10:16:47Z</time>
      </trkpt>
      <trkpt lat="45.21556" lon="6.32833">
        <ele>1366</ele>
        <time>2014-08-07T10:16:49Z</time>
      </trkpt>
      <trkpt lat="45.21556" lon="6.32819">
        <ele>1366</ele>
        <time>2014-08-07T10:16:51Z</time>
      </trkpt>
      <trkpt lat="45.21559" lon="6.32804">
        <ele>1365</ele>
        <time>2014-08-07T10:16:54Z</time>
      </trkpt>
      <trkpt lat="45.21564" lon="6.32792">
        <ele>1363</ele>
        <time>2014-08-07T10:16:56Z</time>
      </trkpt>
      <trkpt lat="45.21566" lon="6.32778">
        <ele>1359</ele>
        <time>2014-08-07T10:16:59Z</time>
      </trkpt>
      <trkpt lat="45.21564" lon="6.3276">
        <ele>1355</ele>
        <time>2014-08-07T10:17:02Z</time>
      </trkpt>
      <trkpt lat="45.21563" lon="6.32745">
        <ele>1346</ele>
        <time>2014-08-07T10:17:05Z</time>
      </trkpt>
      <trkpt lat="45.21559" lon="6.3273">
        <ele>1349</ele>
        <time>2014-08-07T10:17:08Z</time>
      </trkpt>
      <trkpt lat="45.21562" lon="6.32712">
        <ele>1348</ele>
        <time>2014-08-07T10:17:11Z</time>
      </trkpt>
      <trkpt lat="45.21563" lon="6.32696">
        <ele>1345</ele>
        <time>2014-08-07T10:17:13Z</time>
      </trkpt>
      <trkpt lat="45.21563" lon="6.3268">
        <ele>1341</ele>
        <time>2014-08-07T10:17:16Z</time>
      </trkpt>
      <trkpt lat="45.21561" lon="6.32666">
        <ele>1334</ele>
        <time>2014-08-07T10:17:20Z</time>
      </trkpt>
      <trkpt lat="45.21566" lon="6.32655">
        <ele>1332</ele>
        <time>2014-08-07T10:17:23Z</time>
      </trkpt>
      <trkpt lat="45.2157" lon="6.32636">
        <ele>1334</ele>
        <time>2014-08-07T10:17:26Z</time>
      </trkpt>
      <trkpt lat="45.21567" lon="6.3262">
        <ele>1334</ele>
        <time>2014-08-07T10:17:29Z</time>
      </trkpt>
      <trkpt lat="45.21559" lon="6.32607">
        <ele>1335</ele>
        <time>2014-08-07T10:17:32Z</time>
      </trkpt>
      <trkpt lat="45.2155" lon="6.32593">
        <ele>1337</ele>
        <time>2014-08-07T10:17:35Z</time>
      </trkpt>
      <trkpt lat="45.21556" lon="6.32578">
        <ele>1329</ele>
        <time>2014-08-07T10:17:38Z</time>
      </trkpt>
      <trkpt lat="45.21562" lon="6.32559">
        <ele>1328</ele>
        <time>2014-08-07T10:17:41Z</time>
      </trkpt>
      <trkpt lat="45.21564" lon="6.32543">
        <ele>1328</ele>
        <time>2014-08-07T10:17:44Z</time>
      </trkpt>
      <trkpt lat="45.21563" lon="6.32527">
        <ele>1327</ele>
        <time>2014-08-07T10:17:47Z</time>
      </trkpt>
      <trkpt lat="45.21567" lon="6.3251">
        <ele>1322</ele>
        <time>2014-08-07T10:17:50Z</time>
      </trkpt>
      <trkpt lat="45.21567" lon="6.32497">
        <ele>1317</ele>
        <time>2014-08-07T10:17:53Z</time>
      </trkpt>
      <trkpt lat="45.21563" lon="6.32479">
        <ele>1320</ele>
        <time>2014-08-07T10:17:56Z</time>
      </trkpt>
      <trkpt lat="45.21559" lon="6.32465">
        <ele>1321</ele>
        <time>2014-08-07T10:17:58Z</time>
      </trkpt>
      <trkpt lat="45.2155" lon="6.32441">
        <ele>1321</ele>
        <time>2014-08-07T10:18:02Z</time>
      </trkpt>
      <trkpt lat="45.21542" lon="6.32423">
        <ele>1323</ele>
        <time>2014-08-07T10:18:04Z</time>
      </trkpt>
      <trkpt lat="45.21531" lon="6.3241">
        <ele>1316</ele>
        <time>2014-08-07T10:18:06Z</time>
      </trkpt>
      <trkpt lat="45.21518" lon="6.32397">
        <ele>1319</ele>
        <time>2014-08-07T10:18:08Z</time>
      </trkpt>
      <trkpt lat="45.21505" lon="6.32385">
        <ele>1318</ele>
        <time>2014-08-07T10:18:10Z</time>
      </trkpt>
      <trkpt lat="45.21493" lon="6.32373">
        <ele>1337</ele>
        <time>2014-08-07T10:18:12Z</time>
      </trkpt>
      <trkpt lat="45.21485" lon="6.32366">
        <ele>1337</ele>
        <time>2014-08-07T10:18:13Z</time>
      </trkpt>
      <trkpt lat="45.21476" lon="6.32357">
        <ele>1336</ele>
        <time>2014-08-07T10:18:15Z</time>
      </trkpt>
      <trkpt lat="45.2147" lon="6.32342">
        <ele>1335</ele>
        <time>2014-08-07T10:18:17Z</time>
      </trkpt>
      <trkpt lat="45.21464" lon="6.32327">
        <ele>1317</ele>
        <time>2014-08-07T10:18:19Z</time>
      </trkpt>
      <trkpt lat="45.21453" lon="6.32317">
        <ele>1318</ele>
        <time>2014-08-07T10:18:21Z</time>
      </trkpt>
      <trkpt lat="45.21442" lon="6.32312">
        <ele>1320</ele>
        <time>2014-08-07T10:18:23Z</time>
      </trkpt>
      <trkpt lat="45.2143" lon="6.32307">
        <ele>1321</ele>
        <time>2014-08-07T10:18:25Z</time>
      </trkpt>
      <trkpt lat="45.21416" lon="6.32303">
        <ele>1335</ele>
        <time>2014-08-07T10:18:27Z</time>
      </trkpt>
      <trkpt lat="45.21401" lon="6.32296">
        <ele>1334</ele>
        <time>2014-08-07T10:18:29Z</time>
      </trkpt>
      <trkpt lat="45.21388" lon="6.32288">
        <ele>1332</ele>
        <time>2014-08-07T10:18:31Z</time>
      </trkpt>
      <trkpt lat="45.21374" lon="6.32284">
        <ele>1333</ele>
        <time>2014-08-07T10:18:33Z</time>
      </trkpt>
      <trkpt lat="45.21359" lon="6.32278">
        <ele>1333</ele>
        <time>2014-08-07T10:18:35Z</time>
      </trkpt>
      <trkpt lat="45.21349" lon="6.32276">
        <ele>1332</ele>
        <time>2014-08-07T10:18:36Z</time>
      </trkpt>
      <trkpt lat="45.2134" lon="6.32268">
        <ele>1329</ele>
        <time>2014-08-07T10:18:38Z</time>
      </trkpt>
      <trkpt lat="45.21328" lon="6.32263">
        <ele>1333</ele>
        <time>2014-08-07T10:18:40Z</time>
      </trkpt>
      <trkpt lat="45.21319" lon="6.3226">
        <ele>1335</ele>
        <time>2014-08-07T10:18:41Z</time>
      </trkpt>
      <trkpt lat="45.21307" lon="6.32258">
        <ele>1339</ele>
        <time>2014-08-07T10:18:42Z</time>
      </trkpt>
      <trkpt lat="45.21292" lon="6.32253">
        <ele>1341</ele>
        <time>2014-08-07T10:18:44Z</time>
      </trkpt>
      <trkpt lat="45.21277" lon="6.32248">
        <ele>1315</ele>
        <time>2014-08-07T10:18:46Z</time>
      </trkpt>
      <trkpt lat="45.21267" lon="6.32242">
        <ele>1317</ele>
        <time>2014-08-07T10:18:48Z</time>
      </trkpt>
      <trkpt lat="45.21255" lon="6.32237">
        <ele>1320</ele>
        <time>2014-08-07T10:18:50Z</time>
      </trkpt>
      <trkpt lat="45.21246" lon="6.3223">
        <ele>1322</ele>
        <time>2014-08-07T10:18:52Z</time>
      </trkpt>
      <trkpt lat="45.21237" lon="6.32224">
        <ele>1320</ele>
        <time>2014-08-07T10:18:54Z</time>
      </trkpt>
      <trkpt lat="45.21227" lon="6.32215">
        <ele>1317</ele>
        <time>2014-08-07T10:18:56Z</time>
      </trkpt>
      <trkpt lat="45.21217" lon="6.32207">
        <ele>1316</ele>
        <time>2014-08-07T10:18:58Z</time>
      </trkpt>
      <trkpt lat="45.21208" lon="6.3219">
        <ele>1313</ele>
        <time>2014-08-07T10:19:02Z</time>
      </trkpt>
      <trkpt lat="45.21194" lon="6.3218">
        <ele>1311</ele>
        <time>2014-08-07T10:19:05Z</time>
      </trkpt>
      <trkpt lat="45.21177" lon="6.32172">
        <ele>1307</ele>
        <time>2014-08-07T10:19:07Z</time>
      </trkpt>
      <trkpt lat="45.21166" lon="6.32169">
        <ele>1303</ele>
        <time>2014-08-07T10:19:08Z</time>
      </trkpt>
      <trkpt lat="45.21157" lon="6.32165">
        <ele>1294</ele>
        <time>2014-08-07T10:19:09Z</time>
      </trkpt>
      <trkpt lat="45.21145" lon="6.32162">
        <ele>1287</ele>
        <time>2014-08-07T10:19:11Z</time>
      </trkpt>
      <trkpt lat="45.21118" lon="6.32168">
        <ele>1303</ele>
        <time>2014-08-07T10:19:15Z</time>
      </trkpt>
      <trkpt lat="45.21095" lon="6.3218">
        <ele>1297</ele>
        <time>2014-08-07T10:19:19Z</time>
      </trkpt>
      <trkpt lat="45.21084" lon="6.32181">
        <ele>1295</ele>
        <time>2014-08-07T10:19:22Z</time>
      </trkpt>
      <trkpt lat="45.21073" lon="6.32187">
        <ele>1286</ele>
        <time>2014-08-07T10:19:28Z</time>
      </trkpt>
      <trkpt lat="45.21063" lon="6.32193">
        <ele>1287</ele>
        <time>2014-08-07T10:19:31Z</time>
      </trkpt>
      <trkpt lat="45.21056" lon="6.32203">
        <ele>1288</ele>
        <time>2014-08-07T10:19:35Z</time>
      </trkpt>
      <trkpt lat="45.21053" lon="6.32215">
        <ele>1290</ele>
        <time>2014-08-07T10:19:39Z</time>
      </trkpt>
      <trkpt lat="45.21051" lon="6.32231">
        <ele>1293</ele>
        <time>2014-08-07T10:19:44Z</time>
      </trkpt>
      <trkpt lat="45.21048" lon="6.32245">
        <ele>1294</ele>
        <time>2014-08-07T10:19:52Z</time>
      </trkpt>
      <trkpt lat="45.21045" lon="6.32259">
        <ele>1313</ele>
        <time>2014-08-07T10:19:56Z</time>
      </trkpt>
      <trkpt lat="45.21041" lon="6.32271">
        <ele>1313</ele>
        <time>2014-08-07T10:20:03Z</time>
      </trkpt>
      <trkpt lat="45.21035" lon="6.32283">
        <ele>1314</ele>
        <time>2014-08-07T10:20:08Z</time>
      </trkpt>
      <trkpt lat="45.21037" lon="6.32295">
        <ele>1317</ele>
        <time>2014-08-07T10:20:17Z</time>
      </trkpt>
      <trkpt lat="45.21027" lon="6.32297">
        <ele>1316</ele>
        <time>2014-08-07T10:20:26Z</time>
      </trkpt>
      <trkpt lat="45.21016" lon="6.32293">
        <ele>1313</ele>
        <time>2014-08-07T10:20:32Z</time>
      </trkpt>
      <trkpt lat="45.21006" lon="6.32289">
        <ele>1311</ele>
        <time>2014-08-07T10:20:37Z</time>
      </trkpt>
      <trkpt lat="45.20996" lon="6.32288">
        <ele>1312</ele>
        <time>2014-08-07T10:20:42Z</time>
      </trkpt>
      <trkpt lat="45.20984" lon="6.32286">
        <ele>1313</ele>
        <time>2014-08-07T10:20:45Z</time>
      </trkpt>
      <trkpt lat="45.20974" lon="6.32286">
        <ele>1315</ele>
        <time>2014-08-07T10:20:48Z</time>
      </trkpt>
      <trkpt lat="45.20964" lon="6.32285">
        <ele>1316</ele>
        <time>2014-08-07T10:20:52Z</time>
      </trkpt>
      <trkpt lat="45.20954" lon="6.32284">
        <ele>1318</ele>
        <time>2014-08-07T10:20:55Z</time>
      </trkpt>
      <trkpt lat="45.20946" lon="6.32274">
        <ele>1318</ele>
        <time>2014-08-07T10:20:58Z</time>
      </trkpt>
      <trkpt lat="45.20939" lon="6.32262">
        <ele>1318</ele>
        <time>2014-08-07T10:21:02Z</time>
      </trkpt>
      <trkpt lat="45.20935" lon="6.3225">
        <ele>1304</ele>
        <time>2014-08-07T10:21:06Z</time>
      </trkpt>
      <trkpt lat="45.2094" lon="6.32236">
        <ele>1299</ele>
        <time>2014-08-07T10:21:11Z</time>
      </trkpt>
      <trkpt lat="45.20931" lon="6.32228">
        <ele>1300</ele>
        <time>2014-08-07T10:21:17Z</time>
      </trkpt>
      <trkpt lat="45.20922" lon="6.32224">
        <ele>1300</ele>
        <time>2014-08-07T10:21:23Z</time>
      </trkpt>
      <trkpt lat="45.20912" lon="6.32221">
        <ele>1320</ele>
        <time>2014-08-07T10:21:30Z</time>
      </trkpt>
      <trkpt lat="45.20903" lon="6.32215">
        <ele>1320</ele>
        <time>2014-08-07T10:21:38Z</time>
      </trkpt>
      <trkpt lat="45.20898" lon="6.32204">
        <ele>1319</ele>
        <time>2014-08-07T10:21:45Z</time>
      </trkpt>
      <trkpt lat="45.20888" lon="6.32196">
        <ele>1319</ele>
        <time>2014-08-07T10:21:50Z</time>
      </trkpt>
      <trkpt lat="45.20881" lon="6.32185">
        <ele>1319</ele>
        <time>2014-08-07T10:21:54Z</time>
      </trkpt>
      <trkpt lat="45.20872" lon="6.32179">
        <ele>1321</ele>
        <time>2014-08-07T10:21:57Z</time>
      </trkpt>
      <trkpt lat="45.20864" lon="6.32171">
        <ele>1322</ele>
        <time>2014-08-07T10:22:02Z</time>
      </trkpt>
      <trkpt lat="45.20856" lon="6.32164">
        <ele>1309</ele>
        <time>2014-08-07T10:22:06Z</time>
      </trkpt>
      <trkpt lat="45.20846" lon="6.32158">
        <ele>1313</ele>
        <time>2014-08-07T10:22:10Z</time>
      </trkpt>
      <trkpt lat="45.20838" lon="6.32149">
        <ele>1311</ele>
        <time>2014-08-07T10:22:15Z</time>
      </trkpt>
      <trkpt lat="45.20829" lon="6.32139">
        <ele>1320</ele>
        <time>2014-08-07T10:22:20Z</time>
      </trkpt>
      <trkpt lat="45.2082" lon="6.32133">
        <ele>1319</ele>
        <time>2014-08-07T10:22:25Z</time>
      </trkpt>
      <trkpt lat="45.20816" lon="6.32121">
        <ele>1316</ele>
        <time>2014-08-07T10:22:31Z</time>
      </trkpt>
      <trkpt lat="45.20808" lon="6.32115">
        <ele>1315</ele>
        <time>2014-08-07T10:22:34Z</time>
      </trkpt>
      <trkpt lat="45.20796" lon="6.32114">
        <ele>1317</ele>
        <time>2014-08-07T10:22:39Z</time>
      </trkpt>
      <trkpt lat="45.20786" lon="6.32113">
        <ele>1317</ele>
        <time>2014-08-07T10:22:43Z</time>
      </trkpt>
      <trkpt lat="45.20775" lon="6.32113">
        <ele>1318</ele>
        <time>2014-08-07T10:22:47Z</time>
      </trkpt>
      <trkpt lat="45.20764" lon="6.32112">
        <ele>1318</ele>
        <time>2014-08-07T10:22:50Z</time>
      </trkpt>
      <trkpt lat="45.20751" lon="6.32109">
        <ele>1318</ele>
        <time>2014-08-07T10:22:53Z</time>
      </trkpt>
      <trkpt lat="45.20739" lon="6.32109">
        <ele>1322</ele>
        <time>2014-08-07T10:22:56Z</time>
      </trkpt>
      <trkpt lat="45.20728" lon="6.32109">
        <ele>1323</ele>
        <time>2014-08-07T10:23:00Z</time>
      </trkpt>
      <trkpt lat="45.20716" lon="6.32108">
        <ele>1323</ele>
        <time>2014-08-07T10:23:04Z</time>
      </trkpt>
      <trkpt lat="45.20706" lon="6.32103">
        <ele>1322</ele>
        <time>2014-08-07T10:23:08Z</time>
      </trkpt>
      <trkpt lat="45.20696" lon="6.32102">
        <ele>1321</ele>
        <time>2014-08-07T10:23:12Z</time>
      </trkpt>
      <trkpt lat="45.20685" lon="6.32104">
        <ele>1320</ele>
        <time>2014-08-07T10:23:17Z</time>
      </trkpt>
      <trkpt lat="45.20675" lon="6.32102">
        <ele>1317</ele>
        <time>2014-08-07T10:23:22Z</time>
      </trkpt>
      <trkpt lat="45.20664" lon="6.32103">
        <ele>1311</ele>
        <time>2014-08-07T10:23:27Z</time>
      </trkpt>
      <trkpt lat="45.20654" lon="6.32105">
        <ele>1311</ele>
        <time>2014-08-07T10:23:31Z</time>
      </trkpt>
      <trkpt lat="45.20643" lon="6.32109">
        <ele>1312</ele>
        <time>2014-08-07T10:23:35Z</time>
      </trkpt>
      <trkpt lat="45.20634" lon="6.32117">
        <ele>1313</ele>
        <time>2014-08-07T10:23:39Z</time>
      </trkpt>
      <trkpt lat="45.20624" lon="6.32125">
        <ele>1313</ele>
        <time>2014-08-07T10:23:43Z</time>
      </trkpt>
      <trkpt lat="45.20618" lon="6.32135">
        <ele>1314</ele>
        <time>2014-08-07T10:23:47Z</time>
      </trkpt>
      <trkpt lat="45.2061" lon="6.32144">
        <ele>1314</ele>
        <time>2014-08-07T10:23:52Z</time>
      </trkpt>
      <trkpt lat="45.20603" lon="6.32155">
        <ele>1315</ele>
        <time>2014-08-07T10:23:56Z</time>
      </trkpt>
      <trkpt lat="45.20594" lon="6.32161">
        <ele>1315</ele>
        <time>2014-08-07T10:24:00Z</time>
      </trkpt>
      <trkpt lat="45.20588" lon="6.32171">
        <ele>1323</ele>
        <time>2014-08-07T10:24:04Z</time>
      </trkpt>
      <trkpt lat="45.20585" lon="6.32185">
        <ele>1332</ele>
        <time>2014-08-07T10:24:08Z</time>
      </trkpt>
      <trkpt lat="45.20582" lon="6.32198">
        <ele>1317</ele>
        <time>2014-08-07T10:24:13Z</time>
      </trkpt>
      <trkpt lat="45.20575" lon="6.32208">
        <ele>1319</ele>
        <time>2014-08-07T10:24:22Z</time>
      </trkpt>
      <trkpt lat="45.20568" lon="6.32216">
        <ele>1320</ele>
        <time>2014-08-07T10:24:32Z</time>
      </trkpt>
      <trkpt lat="45.20561" lon="6.32227">
        <ele>1322</ele>
        <time>2014-08-07T10:24:42Z</time>
      </trkpt>
      <trkpt lat="45.20551" lon="6.32233">
        <ele>1320</ele>
        <time>2014-08-07T10:24:49Z</time>
      </trkpt>
      <trkpt lat="45.20542" lon="6.32239">
        <ele>1318</ele>
        <time>2014-08-07T10:24:53Z</time>
      </trkpt>
      <trkpt lat="45.20535" lon="6.32248">
        <ele>1316</ele>
        <time>2014-08-07T10:24:58Z</time>
      </trkpt>
      <trkpt lat="45.20526" lon="6.32255">
        <ele>1334</ele>
        <time>2014-08-07T10:25:03Z</time>
      </trkpt>
      <trkpt lat="45.20519" lon="6.32265">
        <ele>1332</ele>
        <time>2014-08-07T10:25:08Z</time>
      </trkpt>
      <trkpt lat="45.20512" lon="6.32275">
        <ele>1334</ele>
        <time>2014-08-07T10:25:12Z</time>
      </trkpt>
      <trkpt lat="45.20505" lon="6.32285">
        <ele>1337</ele>
        <time>2014-08-07T10:25:17Z</time>
      </trkpt>
      <trkpt lat="45.20501" lon="6.32296">
        <ele>1340</ele>
        <time>2014-08-07T10:25:20Z</time>
      </trkpt>
      <trkpt lat="45.20495" lon="6.32309">
        <ele>1316</ele>
        <time>2014-08-07T10:25:24Z</time>
      </trkpt>
      <trkpt lat="45.20489" lon="6.3232">
        <ele>1320</ele>
        <time>2014-08-07T10:25:29Z</time>
      </trkpt>
      <trkpt lat="45.20486" lon="6.32333">
        <ele>1323</ele>
        <time>2014-08-07T10:25:33Z</time>
      </trkpt>
      <trkpt lat="45.20481" lon="6.32345">
        <ele>1333</ele>
        <time>2014-08-07T10:25:37Z</time>
      </trkpt>
      <trkpt lat="45.20477" lon="6.3236">
        <ele>1332</ele>
        <time>2014-08-07T10:25:41Z</time>
      </trkpt>
      <trkpt lat="45.20472" lon="6.32375">
        <ele>1332</ele>
        <time>2014-08-07T10:25:45Z</time>
      </trkpt>
      <trkpt lat="45.20468" lon="6.3239">
        <ele>1333</ele>
        <time>2014-08-07T10:25:49Z</time>
      </trkpt>
      <trkpt lat="45.20464" lon="6.32402">
        <ele>1334</ele>
        <time>2014-08-07T10:25:52Z</time>
      </trkpt>
      <trkpt lat="45.2046" lon="6.32414">
        <ele>1333</ele>
        <time>2014-08-07T10:25:57Z</time>
      </trkpt>
      <trkpt lat="45.20456" lon="6.32428">
        <ele>1347</ele>
        <time>2014-08-07T10:26:01Z</time>
      </trkpt>
      <trkpt lat="45.2045" lon="6.32441">
        <ele>1346</ele>
        <time>2014-08-07T10:26:04Z</time>
      </trkpt>
      <trkpt lat="45.20445" lon="6.32455">
        <ele>1347</ele>
        <time>2014-08-07T10:26:08Z</time>
      </trkpt>
      <trkpt lat="45.20441" lon="6.3247">
        <ele>1348</ele>
        <time>2014-08-07T10:26:15Z</time>
      </trkpt>
      <trkpt lat="45.20436" lon="6.32483">
        <ele>1346</ele>
        <time>2014-08-07T10:26:21Z</time>
      </trkpt>
      <trkpt lat="45.20432" lon="6.32498">
        <ele>1344</ele>
        <time>2014-08-07T10:26:26Z</time>
      </trkpt>
      <trkpt lat="45.20428" lon="6.3251">
        <ele>1352</ele>
        <time>2014-08-07T10:26:30Z</time>
      </trkpt>
      <trkpt lat="45.20425" lon="6.32526">
        <ele>1358</ele>
        <time>2014-08-07T10:26:35Z</time>
      </trkpt>
      <trkpt lat="45.20421" lon="6.32539">
        <ele>1361</ele>
        <time>2014-08-07T10:26:38Z</time>
      </trkpt>
      <trkpt lat="45.2042" lon="6.32553">
        <ele>1361</ele>
        <time>2014-08-07T10:26:42Z</time>
      </trkpt>
      <trkpt lat="45.20418" lon="6.32569">
        <ele>1358</ele>
        <time>2014-08-07T10:26:47Z</time>
      </trkpt>
      <trkpt lat="45.20418" lon="6.32587">
        <ele>1355</ele>
        <time>2014-08-07T10:26:51Z</time>
      </trkpt>
      <trkpt lat="45.20418" lon="6.32601">
        <ele>1366</ele>
        <time>2014-08-07T10:26:54Z</time>
      </trkpt>
      <trkpt lat="45.20417" lon="6.32614">
        <ele>1371</ele>
        <time>2014-08-07T10:26:57Z</time>
      </trkpt>
      <trkpt lat="45.20418" lon="6.32629">
        <ele>1373</ele>
        <time>2014-08-07T10:27:03Z</time>
      </trkpt>
      <trkpt lat="45.20418" lon="6.32644">
        <ele>1371</ele>
        <time>2014-08-07T10:27:09Z</time>
      </trkpt>
      <trkpt lat="45.20418" lon="6.32658">
        <ele>1365</ele>
        <time>2014-08-07T10:27:17Z</time>
      </trkpt>
      <trkpt lat="45.2042" lon="6.32673">
        <ele>1366</ele>
        <time>2014-08-07T10:27:23Z</time>
      </trkpt>
      <trkpt lat="45.20413" lon="6.32686">
        <ele>1354</ele>
        <time>2014-08-07T10:27:27Z</time>
      </trkpt>
      <trkpt lat="45.20411" lon="6.32701">
        <ele>1353</ele>
        <time>2014-08-07T10:27:33Z</time>
      </trkpt>
      <trkpt lat="45.20417" lon="6.32712">
        <ele>1380</ele>
        <time>2014-08-07T10:27:41Z</time>
      </trkpt>
      <trkpt lat="45.2042" lon="6.32725">
        <ele>1379</ele>
        <time>2014-08-07T10:27:46Z</time>
      </trkpt>
      <trkpt lat="45.2042" lon="6.32741">
        <ele>1374</ele>
        <time>2014-08-07T10:27:51Z</time>
      </trkpt>
      <trkpt lat="45.20423" lon="6.32755">
        <ele>1375</ele>
        <time>2014-08-07T10:27:56Z</time>
      </trkpt>
      <trkpt lat="45.20423" lon="6.32772">
        <ele>1382</ele>
        <time>2014-08-07T10:28:00Z</time>
      </trkpt>
      <trkpt lat="45.20425" lon="6.32786">
        <ele>1385</ele>
        <time>2014-08-07T10:28:05Z</time>
      </trkpt>
      <trkpt lat="45.20425" lon="6.32801">
        <ele>1386</ele>
        <time>2014-08-07T10:28:11Z</time>
      </trkpt>
      <trkpt lat="45.2042" lon="6.32816">
        <ele>1383</ele>
        <time>2014-08-07T10:28:15Z</time>
      </trkpt>
      <trkpt lat="45.20416" lon="6.32831">
        <ele>1372</ele>
        <time>2014-08-07T10:28:20Z</time>
      </trkpt>
      <trkpt lat="45.20411" lon="6.32843">
        <ele>1373</ele>
        <time>2014-08-07T10:28:27Z</time>
      </trkpt>
      <trkpt lat="45.20406" lon="6.32857">
        <ele>1374</ele>
        <time>2014-08-07T10:28:33Z</time>
      </trkpt>
      <trkpt lat="45.20401" lon="6.32869">
        <ele>1375</ele>
        <time>2014-08-07T10:28:38Z</time>
      </trkpt>
      <trkpt lat="45.20395" lon="6.32883">
        <ele>1376</ele>
        <time>2014-08-07T10:28:44Z</time>
      </trkpt>
      <trkpt lat="45.20391" lon="6.32896">
        <ele>1377</ele>
        <time>2014-08-07T10:28:49Z</time>
      </trkpt>
      <trkpt lat="45.20381" lon="6.32906">
        <ele>1377</ele>
        <time>2014-08-07T10:28:56Z</time>
      </trkpt>
      <trkpt lat="45.20374" lon="6.32916">
        <ele>1376</ele>
        <time>2014-08-07T10:29:04Z</time>
      </trkpt>
      <trkpt lat="45.20365" lon="6.32925">
        <ele>1389</ele>
        <time>2014-08-07T10:29:10Z</time>
      </trkpt>
      <trkpt lat="45.20357" lon="6.32932">
        <ele>1388</ele>
        <time>2014-08-07T10:29:14Z</time>
      </trkpt>
      <trkpt lat="45.20347" lon="6.32936">
        <ele>1387</ele>
        <time>2014-08-07T10:29:19Z</time>
      </trkpt>
      <trkpt lat="45.20336" lon="6.32936">
        <ele>1386</ele>
        <time>2014-08-07T10:29:27Z</time>
      </trkpt>
      <trkpt lat="45.20326" lon="6.32937">
        <ele>1383</ele>
        <time>2014-08-07T10:29:32Z</time>
      </trkpt>
      <trkpt lat="45.20315" lon="6.3294">
        <ele>1384</ele>
        <time>2014-08-07T10:29:36Z</time>
      </trkpt>
      <trkpt lat="45.20305" lon="6.3294">
        <ele>1385</ele>
        <time>2014-08-07T10:29:40Z</time>
      </trkpt>
      <trkpt lat="45.20294" lon="6.32944">
        <ele>1386</ele>
        <time>2014-08-07T10:29:44Z</time>
      </trkpt>
      <trkpt lat="45.20285" lon="6.32948">
        <ele>1386</ele>
        <time>2014-08-07T10:29:48Z</time>
      </trkpt>
      <trkpt lat="45.20277" lon="6.32957">
        <ele>1388</ele>
        <time>2014-08-07T10:29:56Z</time>
      </trkpt>
      <trkpt lat="45.20267" lon="6.32964">
        <ele>1389</ele>
        <time>2014-08-07T10:30:02Z</time>
      </trkpt>
      <trkpt lat="45.20258" lon="6.32968">
        <ele>1390</ele>
        <time>2014-08-07T10:30:08Z</time>
      </trkpt>
      <trkpt lat="45.20248" lon="6.32973">
        <ele>1396</ele>
        <time>2014-08-07T10:30:17Z</time>
      </trkpt>
      <trkpt lat="45.20237" lon="6.32974">
        <ele>1396</ele>
        <time>2014-08-07T10:30:24Z</time>
      </trkpt>
      <trkpt lat="45.20228" lon="6.32973">
        <ele>1396</ele>
        <time>2014-08-07T10:30:29Z</time>
      </trkpt>
      <trkpt lat="45.20218" lon="6.32965">
        <ele>1395</ele>
        <time>2014-08-07T10:30:34Z</time>
      </trkpt>
      <trkpt lat="45.20205" lon="6.32964">
        <ele>1396</ele>
        <time>2014-08-07T10:30:37Z</time>
      </trkpt>
      <trkpt lat="45.20197" lon="6.32953">
        <ele>1395</ele>
        <time>2014-08-07T10:30:41Z</time>
      </trkpt>
      <trkpt lat="45.2019" lon="6.32941">
        <ele>1394</ele>
        <time>2014-08-07T10:30:45Z</time>
      </trkpt>
      <trkpt lat="45.20185" lon="6.32929">
        <ele>1393</ele>
        <time>2014-08-07T10:30:50Z</time>
      </trkpt>
      <trkpt lat="45.20179" lon="6.32917">
        <ele>1392</ele>
        <time>2014-08-07T10:30:55Z</time>
      </trkpt>
      <trkpt lat="45.20171" lon="6.32905">
        <ele>1384</ele>
        <time>2014-08-07T10:30:59Z</time>
      </trkpt>
      <trkpt lat="45.2016" lon="6.32901">
        <ele>1385</ele>
        <time>2014-08-07T10:31:02Z</time>
      </trkpt>
      <trkpt lat="45.2015" lon="6.32903">
        <ele>1384</ele>
        <time>2014-08-07T10:31:05Z</time>
      </trkpt>
      <trkpt lat="45.20137" lon="6.32908">
        <ele>1383</ele>
        <time>2014-08-07T10:31:09Z</time>
      </trkpt>
      <trkpt lat="45.20128" lon="6.32915">
        <ele>1383</ele>
        <time>2014-08-07T10:31:13Z</time>
      </trkpt>
      <trkpt lat="45.20118" lon="6.32921">
        <ele>1395</ele>
        <time>2014-08-07T10:31:17Z</time>
      </trkpt>
      <trkpt lat="45.2011" lon="6.32927">
        <ele>1395</ele>
        <time>2014-08-07T10:31:21Z</time>
      </trkpt>
      <trkpt lat="45.20101" lon="6.32933">
        <ele>1394</ele>
        <time>2014-08-07T10:31:26Z</time>
      </trkpt>
      <trkpt lat="45.20093" lon="6.32942">
        <ele>1396</ele>
        <time>2014-08-07T10:31:31Z</time>
      </trkpt>
      <trkpt lat="45.20083" lon="6.32949">
        <ele>1396</ele>
        <time>2014-08-07T10:31:36Z</time>
      </trkpt>
      <trkpt lat="45.20073" lon="6.32956">
        <ele>1397</ele>
        <time>2014-08-07T10:31:41Z</time>
      </trkpt>
      <trkpt lat="45.20065" lon="6.32965">
        <ele>1398</ele>
        <time>2014-08-07T10:31:46Z</time>
      </trkpt>
      <trkpt lat="45.20059" lon="6.32975">
        <ele>1399</ele>
        <time>2014-08-07T10:31:51Z</time>
      </trkpt>
      <trkpt lat="45.20051" lon="6.32985">
        <ele>1400</ele>
        <time>2014-08-07T10:31:56Z</time>
      </trkpt>
      <trkpt lat="45.20044" lon="6.32998">
        <ele>1401</ele>
        <time>2014-08-07T10:32:01Z</time>
      </trkpt>
      <trkpt lat="45.20036" lon="6.33004">
        <ele>1410</ele>
        <time>2014-08-07T10:32:05Z</time>
      </trkpt>
      <trkpt lat="45.20029" lon="6.33014">
        <ele>1411</ele>
        <time>2014-08-07T10:32:10Z</time>
      </trkpt>
      <trkpt lat="45.20021" lon="6.33024">
        <ele>1411</ele>
        <time>2014-08-07T10:32:15Z</time>
      </trkpt>
      <trkpt lat="45.20013" lon="6.33031">
        <ele>1411</ele>
        <time>2014-08-07T10:32:19Z</time>
      </trkpt>
      <trkpt lat="45.20005" lon="6.33038">
        <ele>1412</ele>
        <time>2014-08-07T10:32:27Z</time>
      </trkpt>
      <trkpt lat="45.19997" lon="6.33047">
        <ele>1412</ele>
        <time>2014-08-07T10:32:34Z</time>
      </trkpt>
      <trkpt lat="45.19988" lon="6.33054">
        <ele>1412</ele>
        <time>2014-08-07T10:32:40Z</time>
      </trkpt>
      <trkpt lat="45.19977" lon="6.3306">
        <ele>1413</ele>
        <time>2014-08-07T10:32:46Z</time>
      </trkpt>
      <trkpt lat="45.19967" lon="6.33065">
        <ele>1413</ele>
        <time>2014-08-07T10:32:52Z</time>
      </trkpt>
      <trkpt lat="45.19957" lon="6.33068">
        <ele>1413</ele>
        <time>2014-08-07T10:32:58Z</time>
      </trkpt>
      <trkpt lat="45.19947" lon="6.33069">
        <ele>1414</ele>
        <time>2014-08-07T10:33:04Z</time>
      </trkpt>
      <trkpt lat="45.19937" lon="6.33067">
        <ele>1414</ele>
        <time>2014-08-07T10:33:16Z</time>
      </trkpt>
      <trkpt lat="45.19928" lon="6.33073">
        <ele>1416</ele>
        <time>2014-08-07T10:33:26Z</time>
      </trkpt>
      <trkpt lat="45.1992" lon="6.3308">
        <ele>1418</ele>
        <time>2014-08-07T10:33:33Z</time>
      </trkpt>
      <trkpt lat="45.1991" lon="6.33082">
        <ele>1418</ele>
        <time>2014-08-07T10:33:41Z</time>
      </trkpt>
      <trkpt lat="45.19898" lon="6.3308">
        <ele>1416</ele>
        <time>2014-08-07T10:33:47Z</time>
      </trkpt>
      <trkpt lat="45.19889" lon="6.3308">
        <ele>1416</ele>
        <time>2014-08-07T10:33:54Z</time>
      </trkpt>
      <trkpt lat="45.19878" lon="6.33082">
        <ele>1416</ele>
        <time>2014-08-07T10:34:00Z</time>
      </trkpt>
      <trkpt lat="45.19868" lon="6.33087">
        <ele>1423</ele>
        <time>2014-08-07T10:34:06Z</time>
      </trkpt>
      <trkpt lat="45.19856" lon="6.33086">
        <ele>1422</ele>
        <time>2014-08-07T10:34:11Z</time>
      </trkpt>
      <trkpt lat="45.19845" lon="6.3309">
        <ele>1422</ele>
        <time>2014-08-07T10:34:16Z</time>
      </trkpt>
      <trkpt lat="45.19839" lon="6.33103">
        <ele>1423</ele>
        <time>2014-08-07T10:34:22Z</time>
      </trkpt>
      <trkpt lat="45.19837" lon="6.33117">
        <ele>1424</ele>
        <time>2014-08-07T10:34:25Z</time>
      </trkpt>
      <trkpt lat="45.19832" lon="6.33134">
        <ele>1425</ele>
        <time>2014-08-07T10:34:29Z</time>
      </trkpt>
      <trkpt lat="45.19824" lon="6.33142">
        <ele>1426</ele>
        <time>2014-08-07T10:34:32Z</time>
      </trkpt>
      <trkpt lat="45.19813" lon="6.33146">
        <ele>1426</ele>
        <time>2014-08-07T10:34:37Z</time>
      </trkpt>
      <trkpt lat="45.19804" lon="6.33155">
        <ele>1426</ele>
        <time>2014-08-07T10:34:43Z</time>
      </trkpt>
      <trkpt lat="45.19795" lon="6.33159">
        <ele>1426</ele>
        <time>2014-08-07T10:34:48Z</time>
      </trkpt>
      <trkpt lat="45.19785" lon="6.33166">
        <ele>1426</ele>
        <time>2014-08-07T10:34:54Z</time>
      </trkpt>
      <trkpt lat="45.19776" lon="6.33171">
        <ele>1433</ele>
        <time>2014-08-07T10:35:00Z</time>
      </trkpt>
      <trkpt lat="45.19767" lon="6.33177">
        <ele>1432</ele>
        <time>2014-08-07T10:35:07Z</time>
      </trkpt>
      <trkpt lat="45.19758" lon="6.33181">
        <ele>1432</ele>
        <time>2014-08-07T10:35:13Z</time>
      </trkpt>
      <trkpt lat="45.19748" lon="6.33185">
        <ele>1434</ele>
        <time>2014-08-07T10:35:19Z</time>
      </trkpt>
      <trkpt lat="45.19739" lon="6.33188">
        <ele>1435</ele>
        <time>2014-08-07T10:35:24Z</time>
      </trkpt>
      <trkpt lat="45.1973" lon="6.33189">
        <ele>1436</ele>
        <time>2014-08-07T10:35:31Z</time>
      </trkpt>
      <trkpt lat="45.19724" lon="6.33178">
        <ele>1435</ele>
        <time>2014-08-07T10:35:42Z</time>
      </trkpt>
      <trkpt lat="45.19713" lon="6.33174">
        <ele>1436</ele>
        <time>2014-08-07T10:35:46Z</time>
      </trkpt>
      <trkpt lat="45.19703" lon="6.33176">
        <ele>1437</ele>
        <time>2014-08-07T10:35:51Z</time>
      </trkpt>
      <trkpt lat="45.19692" lon="6.33179">
        <ele>1437</ele>
        <time>2014-08-07T10:35:57Z</time>
      </trkpt>
      <trkpt lat="45.19682" lon="6.33185">
        <ele>1437</ele>
        <time>2014-08-07T10:36:02Z</time>
      </trkpt>
      <trkpt lat="45.19673" lon="6.33193">
        <ele>1438</ele>
        <time>2014-08-07T10:36:08Z</time>
      </trkpt>
      <trkpt lat="45.19664" lon="6.33198">
        <ele>1444</ele>
        <time>2014-08-07T10:36:14Z</time>
      </trkpt>
      <trkpt lat="45.19654" lon="6.33199">
        <ele>1444</ele>
        <time>2014-08-07T10:36:20Z</time>
      </trkpt>
      <trkpt lat="45.19643" lon="6.33196">
        <ele>1445</ele>
        <time>2014-08-07T10:36:25Z</time>
      </trkpt>
      <trkpt lat="45.19635" lon="6.33193">
        <ele>1446</ele>
        <time>2014-08-07T10:36:31Z</time>
      </trkpt>
      <trkpt lat="45.19628" lon="6.33182">
        <ele>1446</ele>
        <time>2014-08-07T10:36:36Z</time>
      </trkpt>
      <trkpt lat="45.19621" lon="6.33171">
        <ele>1446</ele>
        <time>2014-08-07T10:36:41Z</time>
      </trkpt>
      <trkpt lat="45.19612" lon="6.33166">
        <ele>1444</ele>
        <time>2014-08-07T10:36:44Z</time>
      </trkpt>
      <trkpt lat="45.19603" lon="6.33158">
        <ele>1446</ele>
        <time>2014-08-07T10:36:49Z</time>
      </trkpt>
      <trkpt lat="45.19598" lon="6.33145">
        <ele>1445</ele>
        <time>2014-08-07T10:36:53Z</time>
      </trkpt>
      <trkpt lat="45.19595" lon="6.3313">
        <ele>1445</ele>
        <time>2014-08-07T10:36:58Z</time>
      </trkpt>
      <trkpt lat="45.19591" lon="6.33116">
        <ele>1445</ele>
        <time>2014-08-07T10:37:02Z</time>
      </trkpt>
      <trkpt lat="45.19589" lon="6.33101">
        <ele>1446</ele>
        <time>2014-08-07T10:37:06Z</time>
      </trkpt>
      <trkpt lat="45.19589" lon="6.33084">
        <ele>1448</ele>
        <time>2014-08-07T10:37:10Z</time>
      </trkpt>
      <trkpt lat="45.19588" lon="6.33066">
        <ele>1446</ele>
        <time>2014-08-07T10:37:14Z</time>
      </trkpt>
      <trkpt lat="45.19593" lon="6.33051">
        <ele>1445</ele>
        <time>2014-08-07T10:37:17Z</time>
      </trkpt>
      <trkpt lat="45.19592" lon="6.33037">
        <ele>1445</ele>
        <time>2014-08-07T10:37:20Z</time>
      </trkpt>
      <trkpt lat="45.19593" lon="6.33023">
        <ele>1446</ele>
        <time>2014-08-07T10:37:23Z</time>
      </trkpt>
      <trkpt lat="45.19597" lon="6.33005">
        <ele>1448</ele>
        <time>2014-08-07T10:37:26Z</time>
      </trkpt>
      <trkpt lat="45.196" lon="6.3299">
        <ele>1447</ele>
        <time>2014-08-07T10:37:29Z</time>
      </trkpt>
      <trkpt lat="45.19598" lon="6.32974">
        <ele>1446</ele>
        <time>2014-08-07T10:37:32Z</time>
      </trkpt>
      <trkpt lat="45.19592" lon="6.32957">
        <ele>1446</ele>
        <time>2014-08-07T10:37:35Z</time>
      </trkpt>
      <trkpt lat="45.19587" lon="6.3294">
        <ele>1447</ele>
        <time>2014-08-07T10:37:38Z</time>
      </trkpt>
      <trkpt lat="45.19583" lon="6.32927">
        <ele>1457</ele>
        <time>2014-08-07T10:37:41Z</time>
      </trkpt>
      <trkpt lat="45.19586" lon="6.32913">
        <ele>1450</ele>
        <time>2014-08-07T10:37:43Z</time>
      </trkpt>
      <trkpt lat="45.19591" lon="6.32895">
        <ele>1446</ele>
        <time>2014-08-07T10:37:46Z</time>
      </trkpt>
      <trkpt lat="45.19595" lon="6.32882">
        <ele>1445</ele>
        <time>2014-08-07T10:37:48Z</time>
      </trkpt>
      <trkpt lat="45.19593" lon="6.32867">
        <ele>1444</ele>
        <time>2014-08-07T10:37:51Z</time>
      </trkpt>
      <trkpt lat="45.19584" lon="6.32862">
        <ele>1445</ele>
        <time>2014-08-07T10:37:55Z</time>
      </trkpt>
      <trkpt lat="45.19577" lon="6.32851">
        <ele>1456</ele>
        <time>2014-08-07T10:38:00Z</time>
      </trkpt>
      <trkpt lat="45.19576" lon="6.32834">
        <ele>1453</ele>
        <time>2014-08-07T10:38:05Z</time>
      </trkpt>
      <trkpt lat="45.19575" lon="6.32821">
        <ele>1454</ele>
        <time>2014-08-07T10:38:08Z</time>
      </trkpt>
      <trkpt lat="45.19568" lon="6.32811">
        <ele>1456</ele>
        <time>2014-08-07T10:38:12Z</time>
      </trkpt>
      <trkpt lat="45.19562" lon="6.32798">
        <ele>1456</ele>
        <time>2014-08-07T10:38:18Z</time>
      </trkpt>
      <trkpt lat="45.19558" lon="6.32786">
        <ele>1457</ele>
        <time>2014-08-07T10:38:26Z</time>
      </trkpt>
      <trkpt lat="45.19557" lon="6.32772">
        <ele>1456</ele>
        <time>2014-08-07T10:38:35Z</time>
      </trkpt>
      <trkpt lat="45.19551" lon="6.32762">
        <ele>1457</ele>
        <time>2014-08-07T10:38:46Z</time>
      </trkpt>
      <trkpt lat="45.19541" lon="6.3276">
        <ele>1458</ele>
        <time>2014-08-07T10:38:54Z</time>
      </trkpt>
      <trkpt lat="45.19532" lon="6.32757">
        <ele>1460</ele>
        <time>2014-08-07T10:38:58Z</time>
      </trkpt>
      <trkpt lat="45.19526" lon="6.32745">
        <ele>1460</ele>
        <time>2014-08-07T10:39:09Z</time>
      </trkpt>
      <trkpt lat="45.19518" lon="6.32736">
        <ele>1461</ele>
        <time>2014-08-07T10:39:16Z</time>
      </trkpt>
      <trkpt lat="45.19516" lon="6.32723">
        <ele>1461</ele>
        <time>2014-08-07T10:39:29Z</time>
      </trkpt>
      <trkpt lat="45.19514" lon="6.32708">
        <ele>1461</ele>
        <time>2014-08-07T10:39:39Z</time>
      </trkpt>
      <trkpt lat="45.19512" lon="6.32694">
        <ele>1462</ele>
        <time>2014-08-07T10:39:49Z</time>
      </trkpt>
      <trkpt lat="45.19509" lon="6.32681">
        <ele>1464</ele>
        <time>2014-08-07T10:39:59Z</time>
      </trkpt>
      <trkpt lat="45.19506" lon="6.32668">
        <ele>1467</ele>
        <time>2014-08-07T10:40:11Z</time>
      </trkpt>
      <trkpt lat="45.19494" lon="6.32667">
        <ele>1474</ele>
        <time>2014-08-07T10:40:23Z</time>
      </trkpt>
      <trkpt lat="45.19487" lon="6.32676">
        <ele>1479</ele>
        <time>2014-08-07T10:40:33Z</time>
      </trkpt>
      <trkpt lat="45.19485" lon="6.32691">
        <ele>1481</ele>
        <time>2014-08-07T10:40:43Z</time>
      </trkpt>
      <trkpt lat="45.19486" lon="6.32704">
        <ele>1482</ele>
        <time>2014-08-07T10:40:53Z</time>
      </trkpt>
      <trkpt lat="45.19483" lon="6.32717">
        <ele>1482</ele>
        <time>2014-08-07T10:41:03Z</time>
      </trkpt>
      <trkpt lat="45.19476" lon="6.32727">
        <ele>1483</ele>
        <time>2014-08-07T10:41:11Z</time>
      </trkpt>
      <trkpt lat="45.1947" lon="6.32737">
        <ele>1483</ele>
        <time>2014-08-07T10:41:21Z</time>
      </trkpt>
      <trkpt lat="45.19469" lon="6.32751">
        <ele>1484</ele>
        <time>2014-08-07T10:41:37Z</time>
      </trkpt>
      <trkpt lat="45.19468" lon="6.32765">
        <ele>1485</ele>
        <time>2014-08-07T10:41:52Z</time>
      </trkpt>
      <trkpt lat="45.19461" lon="6.32776">
        <ele>1487</ele>
        <time>2014-08-07T10:42:01Z</time>
      </trkpt>
      <trkpt lat="45.19455" lon="6.32788">
        <ele>1489</ele>
        <time>2014-08-07T10:42:12Z</time>
      </trkpt>
      <trkpt lat="45.19451" lon="6.328">
        <ele>1490</ele>
        <time>2014-08-07T10:42:25Z</time>
      </trkpt>
      <trkpt lat="45.19452" lon="6.32815">
        <ele>1490</ele>
        <time>2014-08-07T10:42:38Z</time>
      </trkpt>
      <trkpt lat="45.19447" lon="6.32826">
        <ele>1492</ele>
        <time>2014-08-07T10:42:49Z</time>
      </trkpt>
      <trkpt lat="45.19442" lon="6.32838">
        <ele>1496</ele>
        <time>2014-08-07T10:42:59Z</time>
      </trkpt>
      <trkpt lat="45.19435" lon="6.32849">
        <ele>1497</ele>
        <time>2014-08-07T10:43:08Z</time>
      </trkpt>
      <trkpt lat="45.19428" lon="6.32857">
        <ele>1498</ele>
        <time>2014-08-07T10:43:15Z</time>
      </trkpt>
      <trkpt lat="45.19428" lon="6.3287">
        <ele>1497</ele>
        <time>2014-08-07T10:43:25Z</time>
      </trkpt>
      <trkpt lat="45.1943" lon="6.32883">
        <ele>1496</ele>
        <time>2014-08-07T10:43:36Z</time>
      </trkpt>
      <trkpt lat="45.19427" lon="6.32896">
        <ele>1498</ele>
        <time>2014-08-07T10:43:46Z</time>
      </trkpt>
      <trkpt lat="45.19424" lon="6.32911">
        <ele>1502</ele>
        <time>2014-08-07T10:43:55Z</time>
      </trkpt>
      <trkpt lat="45.19421" lon="6.32924">
        <ele>1504</ele>
        <time>2014-08-07T10:44:04Z</time>
      </trkpt>
      <trkpt lat="45.19418" lon="6.32937">
        <ele>1502</ele>
        <time>2014-08-07T10:44:13Z</time>
      </trkpt>
      <trkpt lat="45.19414" lon="6.32949">
        <ele>1520</ele>
        <time>2014-08-07T10:44:22Z</time>
      </trkpt>
      <trkpt lat="45.19411" lon="6.32962">
        <ele>1521</ele>
        <time>2014-08-07T10:44:30Z</time>
      </trkpt>
      <trkpt lat="45.19408" lon="6.32975">
        <ele>1521</ele>
        <time>2014-08-07T10:44:37Z</time>
      </trkpt>
      <trkpt lat="45.19407" lon="6.32988">
        <ele>1519</ele>
        <time>2014-08-07T10:44:45Z</time>
      </trkpt>
      <trkpt lat="45.19405" lon="6.33002">
        <ele>1517</ele>
        <time>2014-08-07T10:44:54Z</time>
      </trkpt>
      <trkpt lat="45.19403" lon="6.33014">
        <ele>1520</ele>
        <time>2014-08-07T10:45:03Z</time>
      </trkpt>
      <trkpt lat="45.19404" lon="6.33028">
        <ele>1521</ele>
        <time>2014-08-07T10:45:18Z</time>
      </trkpt>
      <trkpt lat="45.194" lon="6.3304">
        <ele>1521</ele>
        <time>2014-08-07T10:45:26Z</time>
      </trkpt>
      <trkpt lat="45.19391" lon="6.33046">
        <ele>1522</ele>
        <time>2014-08-07T10:45:36Z</time>
      </trkpt>
      <trkpt lat="45.19383" lon="6.33054">
        <ele>1524</ele>
        <time>2014-08-07T10:45:44Z</time>
      </trkpt>
      <trkpt lat="45.19374" lon="6.33058">
        <ele>1525</ele>
        <time>2014-08-07T10:45:54Z</time>
      </trkpt>
      <trkpt lat="45.19367" lon="6.33066">
        <ele>1526</ele>
        <time>2014-08-07T10:46:18Z</time>
      </trkpt>
      <trkpt lat="45.19358" lon="6.3307">
        <ele>1528</ele>
        <time>2014-08-07T10:46:31Z</time>
      </trkpt>
      <trkpt lat="45.19348" lon="6.33072">
        <ele>1530</ele>
        <time>2014-08-07T10:46:51Z</time>
      </trkpt>
      <trkpt lat="45.19339" lon="6.33068">
        <ele>1531</ele>
        <time>2014-08-07T10:47:01Z</time>
      </trkpt>
      <trkpt lat="45.19329" lon="6.3307">
        <ele>1544</ele>
        <time>2014-08-07T10:47:20Z</time>
      </trkpt>
      <trkpt lat="45.1932" lon="6.33072">
        <ele>1546</ele>
        <time>2014-08-07T10:47:30Z</time>
      </trkpt>
      <trkpt lat="45.19311" lon="6.33069">
        <ele>1550</ele>
        <time>2014-08-07T10:47:40Z</time>
      </trkpt>
      <trkpt lat="45.19318" lon="6.3306">
        <ele>1550</ele>
        <time>2014-08-07T10:47:52Z</time>
      </trkpt>
      <trkpt lat="45.19327" lon="6.33053">
        <ele>1550</ele>
        <time>2014-08-07T10:48:07Z</time>
      </trkpt>
      <trkpt lat="45.1933" lon="6.3304">
        <ele>1551</ele>
        <time>2014-08-07T10:48:18Z</time>
      </trkpt>
      <trkpt lat="45.19332" lon="6.33028">
        <ele>1551</ele>
        <time>2014-08-07T10:48:31Z</time>
      </trkpt>
      <trkpt lat="45.19334" lon="6.33014">
        <ele>1538</ele>
        <time>2014-08-07T10:48:41Z</time>
      </trkpt>
      <trkpt lat="45.1933" lon="6.33002">
        <ele>1547</ele>
        <time>2014-08-07T10:48:52Z</time>
      </trkpt>
      <trkpt lat="45.19323" lon="6.32993">
        <ele>1551</ele>
        <time>2014-08-07T10:49:15Z</time>
      </trkpt>
      <trkpt lat="45.19319" lon="6.3298">
        <ele>1554</ele>
        <time>2014-08-07T10:49:32Z</time>
      </trkpt>
      <trkpt lat="45.19314" lon="6.32968">
        <ele>1555</ele>
        <time>2014-08-07T10:49:48Z</time>
      </trkpt>
      <trkpt lat="45.19305" lon="6.32968">
        <ele>1557</ele>
        <time>2014-08-07T10:49:59Z</time>
      </trkpt>
      <trkpt lat="45.19297" lon="6.32976">
        <ele>1558</ele>
        <time>2014-08-07T10:50:30Z</time>
      </trkpt>
      <trkpt lat="45.19288" lon="6.32981">
        <ele>1560</ele>
        <time>2014-08-07T10:50:52Z</time>
      </trkpt>
      <trkpt lat="45.19279" lon="6.32983">
        <ele>1562</ele>
        <time>2014-08-07T10:51:06Z</time>
      </trkpt>
      <trkpt lat="45.19269" lon="6.32985">
        <ele>1564</ele>
        <time>2014-08-07T10:51:24Z</time>
      </trkpt>
      <trkpt lat="45.19259" lon="6.32986">
        <ele>1567</ele>
        <time>2014-08-07T10:51:39Z</time>
      </trkpt>
      <trkpt lat="45.1925" lon="6.32987">
        <ele>1579</ele>
        <time>2014-08-07T10:51:51Z</time>
      </trkpt>
      <trkpt lat="45.19241" lon="6.32984">
        <ele>1581</ele>
        <time>2014-08-07T10:52:04Z</time>
      </trkpt>
      <trkpt lat="45.19235" lon="6.32971">
        <ele>1584</ele>
        <time>2014-08-07T10:52:15Z</time>
      </trkpt>
      <trkpt lat="45.19231" lon="6.32958">
        <ele>1585</ele>
        <time>2014-08-07T10:52:25Z</time>
      </trkpt>
      <trkpt lat="45.19226" lon="6.32946">
        <ele>1585</ele>
        <time>2014-08-07T10:52:36Z</time>
      </trkpt>
      <trkpt lat="45.19225" lon="6.32931">
        <ele>1584</ele>
        <time>2014-08-07T10:52:44Z</time>
      </trkpt>
      <trkpt lat="45.19217" lon="6.32923">
        <ele>1586</ele>
        <time>2014-08-07T10:52:54Z</time>
      </trkpt>
      <trkpt lat="45.19208" lon="6.32931">
        <ele>1589</ele>
        <time>2014-08-07T10:53:04Z</time>
      </trkpt>
      <trkpt lat="45.19198" lon="6.32937">
        <ele>1591</ele>
        <time>2014-08-07T10:53:13Z</time>
      </trkpt>
      <trkpt lat="45.19196" lon="6.3295">
        <ele>1591</ele>
        <time>2014-08-07T10:53:23Z</time>
      </trkpt>
      <trkpt lat="45.19193" lon="6.32963">
        <ele>1592</ele>
        <time>2014-08-07T10:53:32Z</time>
      </trkpt>
      <trkpt lat="45.19187" lon="6.32974">
        <ele>1593</ele>
        <time>2014-08-07T10:53:41Z</time>
      </trkpt>
      <trkpt lat="45.19181" lon="6.32984">
        <ele>1595</ele>
        <time>2014-08-07T10:53:50Z</time>
      </trkpt>
      <trkpt lat="45.19175" lon="6.32994">
        <ele>1599</ele>
        <time>2014-08-07T10:53:59Z</time>
      </trkpt>
      <trkpt lat="45.19173" lon="6.33008">
        <ele>1599</ele>
        <time>2014-08-07T10:54:11Z</time>
      </trkpt>
      <trkpt lat="45.19175" lon="6.33021">
        <ele>1595</ele>
        <time>2014-08-07T10:54:24Z</time>
      </trkpt>
      <trkpt lat="45.19168" lon="6.3303">
        <ele>1594</ele>
        <time>2014-08-07T10:54:41Z</time>
      </trkpt>
      <trkpt lat="45.1916" lon="6.33037">
        <ele>1616</ele>
        <time>2014-08-07T10:54:52Z</time>
      </trkpt>
      <trkpt lat="45.19165" lon="6.33049">
        <ele>1616</ele>
        <time>2014-08-07T10:55:04Z</time>
      </trkpt>
      <trkpt lat="45.19168" lon="6.33062">
        <ele>1595</ele>
        <time>2014-08-07T10:55:28Z</time>
      </trkpt>
      <trkpt lat="45.19163" lon="6.33073">
        <ele>1609</ele>
        <time>2014-08-07T10:55:42Z</time>
      </trkpt>
      <trkpt lat="45.19168" lon="6.33085">
        <ele>1600</ele>
        <time>2014-08-07T10:55:54Z</time>
      </trkpt>
      <trkpt lat="45.19166" lon="6.33099">
        <ele>1607</ele>
        <time>2014-08-07T10:56:11Z</time>
      </trkpt>
      <trkpt lat="45.1916" lon="6.33108">
        <ele>1609</ele>
        <time>2014-08-07T10:56:26Z</time>
      </trkpt>
      <trkpt lat="45.19158" lon="6.33121">
        <ele>1609</ele>
        <time>2014-08-07T10:56:39Z</time>
      </trkpt>
      <trkpt lat="45.19152" lon="6.33133">
        <ele>1609</ele>
        <time>2014-08-07T10:56:51Z</time>
      </trkpt>
      <trkpt lat="45.19143" lon="6.33134">
        <ele>1610</ele>
        <time>2014-08-07T10:57:01Z</time>
      </trkpt>
      <trkpt lat="45.19135" lon="6.33143">
        <ele>1611</ele>
        <time>2014-08-07T10:57:20Z</time>
      </trkpt>
      <trkpt lat="45.19127" lon="6.3315">
        <ele>1613</ele>
        <time>2014-08-07T10:57:35Z</time>
      </trkpt>
      <trkpt lat="45.19119" lon="6.33158">
        <ele>1615</ele>
        <time>2014-08-07T10:57:49Z</time>
      </trkpt>
      <trkpt lat="45.19109" lon="6.3316">
        <ele>1618</ele>
        <time>2014-08-07T10:58:07Z</time>
      </trkpt>
      <trkpt lat="45.19099" lon="6.33161">
        <ele>1621</ele>
        <time>2014-08-07T10:58:18Z</time>
      </trkpt>
      <trkpt lat="45.1909" lon="6.33165">
        <ele>1624</ele>
        <time>2014-08-07T10:58:29Z</time>
      </trkpt>
      <trkpt lat="45.1908" lon="6.33162">
        <ele>1630</ele>
        <time>2014-08-07T10:58:42Z</time>
      </trkpt>
      <trkpt lat="45.19073" lon="6.33152">
        <ele>1635</ele>
        <time>2014-08-07T10:58:54Z</time>
      </trkpt>
      <trkpt lat="45.19079" lon="6.33143">
        <ele>1637</ele>
        <time>2014-08-07T10:59:04Z</time>
      </trkpt>
      <trkpt lat="45.19086" lon="6.33134">
        <ele>1622</ele>
        <time>2014-08-07T10:59:14Z</time>
      </trkpt>
      <trkpt lat="45.19093" lon="6.33124">
        <ele>1622</ele>
        <time>2014-08-07T10:59:24Z</time>
      </trkpt>
      <trkpt lat="45.191" lon="6.33115">
        <ele>1622</ele>
        <time>2014-08-07T10:59:32Z</time>
      </trkpt>
      <trkpt lat="45.191" lon="6.33101">
        <ele>1625</ele>
        <time>2014-08-07T10:59:40Z</time>
      </trkpt>
      <trkpt lat="45.19102" lon="6.33088">
        <ele>1628</ele>
        <time>2014-08-07T10:59:50Z</time>
      </trkpt>
      <trkpt lat="45.191" lon="6.33074">
        <ele>1632</ele>
        <time>2014-08-07T11:00:03Z</time>
      </trkpt>
      <trkpt lat="45.19093" lon="6.33063">
        <ele>1632</ele>
        <time>2014-08-07T11:00:16Z</time>
      </trkpt>
      <trkpt lat="45.19084" lon="6.33058">
        <ele>1632</ele>
        <time>2014-08-07T11:00:27Z</time>
      </trkpt>
      <trkpt lat="45.19077" lon="6.33049">
        <ele>1649</ele>
        <time>2014-08-07T11:00:38Z</time>
      </trkpt>
      <trkpt lat="45.19085" lon="6.33037">
        <ele>1632</ele>
        <time>2014-08-07T11:00:49Z</time>
      </trkpt>
      <trkpt lat="45.19091" lon="6.33026">
        <ele>1633</ele>
        <time>2014-08-07T11:00:52Z</time>
      </trkpt>
      <trkpt lat="45.19096" lon="6.3301">
        <ele>1636</ele>
        <time>2014-08-07T11:00:55Z</time>
      </trkpt>
      <trkpt lat="45.19098" lon="6.32997">
        <ele>1638</ele>
        <time>2014-08-07T11:00:58Z</time>
      </trkpt>
      <trkpt lat="45.19099" lon="6.32983">
        <ele>1635</ele>
        <time>2014-08-07T11:01:05Z</time>
      </trkpt>
      <trkpt lat="45.19097" lon="6.32969">
        <ele>1634</ele>
        <time>2014-08-07T11:01:12Z</time>
      </trkpt>
      <trkpt lat="45.19092" lon="6.32957">
        <ele>1634</ele>
        <time>2014-08-07T11:01:19Z</time>
      </trkpt>
      <trkpt lat="45.19092" lon="6.32942">
        <ele>1636</ele>
        <time>2014-08-07T11:01:24Z</time>
      </trkpt>
      <trkpt lat="45.19092" lon="6.32928">
        <ele>1641</ele>
        <time>2014-08-07T11:01:29Z</time>
      </trkpt>
      <trkpt lat="45.19091" lon="6.32913">
        <ele>1645</ele>
        <time>2014-08-07T11:01:34Z</time>
      </trkpt>
      <trkpt lat="45.1909" lon="6.329">
        <ele>1640</ele>
        <time>2014-08-07T11:01:38Z</time>
      </trkpt>
      <trkpt lat="45.19091" lon="6.32885">
        <ele>1637</ele>
        <time>2014-08-07T11:01:43Z</time>
      </trkpt>
      <trkpt lat="45.19089" lon="6.32871">
        <ele>1637</ele>
        <time>2014-08-07T11:01:50Z</time>
      </trkpt>
      <trkpt lat="45.19087" lon="6.32857">
        <ele>1639</ele>
        <time>2014-08-07T11:01:58Z</time>
      </trkpt>
      <trkpt lat="45.19081" lon="6.32846">
        <ele>1656</ele>
        <time>2014-08-07T11:02:05Z</time>
      </trkpt>
      <trkpt lat="45.19078" lon="6.32833">
        <ele>1654</ele>
        <time>2014-08-07T11:02:15Z</time>
      </trkpt>
      <trkpt lat="45.19078" lon="6.32819">
        <ele>1657</ele>
        <time>2014-08-07T11:02:26Z</time>
      </trkpt>
      <trkpt lat="45.19087" lon="6.32814">
        <ele>1642</ele>
        <time>2014-08-07T11:02:39Z</time>
      </trkpt>
      <trkpt lat="45.19087" lon="6.328">
        <ele>1640</ele>
        <time>2014-08-07T11:02:55Z</time>
      </trkpt>
      <trkpt lat="45.19085" lon="6.32788">
        <ele>1640</ele>
        <time>2014-08-07T11:03:09Z</time>
      </trkpt>
      <trkpt lat="45.19087" lon="6.32775">
        <ele>1642</ele>
        <time>2014-08-07T11:03:20Z</time>
      </trkpt>
      <trkpt lat="45.1909" lon="6.32763">
        <ele>1645</ele>
        <time>2014-08-07T11:03:26Z</time>
      </trkpt>
      <trkpt lat="45.19092" lon="6.32747">
        <ele>1650</ele>
        <time>2014-08-07T11:03:33Z</time>
      </trkpt>
      <trkpt lat="45.19093" lon="6.32734">
        <ele>1647</ele>
        <time>2014-08-07T11:03:43Z</time>
      </trkpt>
      <trkpt lat="45.19102" lon="6.32725">
        <ele>1645</ele>
        <time>2014-08-07T11:03:52Z</time>
      </trkpt>
      <trkpt lat="45.19105" lon="6.3271">
        <ele>1644</ele>
        <time>2014-08-07T11:03:57Z</time>
      </trkpt>
      <trkpt lat="45.19114" lon="6.32703">
        <ele>1643</ele>
        <time>2014-08-07T11:04:03Z</time>
      </trkpt>
      <trkpt lat="45.19118" lon="6.32691">
        <ele>1643</ele>
        <time>2014-08-07T11:04:12Z</time>
      </trkpt>
      <trkpt lat="45.19123" lon="6.32677">
        <ele>1642</ele>
        <time>2014-08-07T11:04:19Z</time>
      </trkpt>
      <trkpt lat="45.19129" lon="6.32666">
        <ele>1650</ele>
        <time>2014-08-07T11:04:25Z</time>
      </trkpt>
      <trkpt lat="45.19127" lon="6.32651">
        <ele>1652</ele>
        <time>2014-08-07T11:04:34Z</time>
      </trkpt>
      <trkpt lat="45.19126" lon="6.32638">
        <ele>1653</ele>
        <time>2014-08-07T11:04:41Z</time>
      </trkpt>
      <trkpt lat="45.19127" lon="6.32624">
        <ele>1654</ele>
        <time>2014-08-07T11:04:47Z</time>
      </trkpt>
      <trkpt lat="45.19126" lon="6.32609">
        <ele>1656</ele>
        <time>2014-08-07T11:05:12Z</time>
      </trkpt>
      <trkpt lat="45.19127" lon="6.32595">
        <ele>1657</ele>
        <time>2014-08-07T11:05:36Z</time>
      </trkpt>
      <trkpt lat="45.19132" lon="6.32583">
        <ele>1667</ele>
        <time>2014-08-07T11:05:47Z</time>
      </trkpt>
      <trkpt lat="45.19135" lon="6.32569">
        <ele>1667</ele>
        <time>2014-08-07T11:06:05Z</time>
      </trkpt>
      <trkpt lat="45.19134" lon="6.32556">
        <ele>1669</ele>
        <time>2014-08-07T11:06:13Z</time>
      </trkpt>
      <trkpt lat="45.1913" lon="6.32544">
        <ele>1671</ele>
        <time>2014-08-07T11:06:23Z</time>
      </trkpt>
      <trkpt lat="45.19119" lon="6.32545">
        <ele>1673</ele>
        <time>2014-08-07T11:06:46Z</time>
      </trkpt>
      <trkpt lat="45.19118" lon="6.32532">
        <ele>1675</ele>
        <time>2014-08-07T11:07:30Z</time>
      </trkpt>
      <trkpt lat="45.19122" lon="6.32517">
        <ele>1676</ele>
        <time>2014-08-07T11:07:40Z</time>
      </trkpt>
      <trkpt lat="45.19125" lon="6.32505">
        <ele>1676</ele>
        <time>2014-08-07T11:07:48Z</time>
      </trkpt>
      <trkpt lat="45.19125" lon="6.32491">
        <ele>1689</ele>
        <time>2014-08-07T11:07:59Z</time>
      </trkpt>
      <trkpt lat="45.19129" lon="6.32479">
        <ele>1689</ele>
        <time>2014-08-07T11:08:08Z</time>
      </trkpt>
      <trkpt lat="45.1913" lon="6.32465">
        <ele>1691</ele>
        <time>2014-08-07T11:08:22Z</time>
      </trkpt>
      <trkpt lat="45.19127" lon="6.32452">
        <ele>1693</ele>
        <time>2014-08-07T11:08:33Z</time>
      </trkpt>
      <trkpt lat="45.19136" lon="6.32448">
        <ele>1692</ele>
        <time>2014-08-07T11:08:40Z</time>
      </trkpt>
      <trkpt lat="45.19145" lon="6.32444">
        <ele>1690</ele>
        <time>2014-08-07T11:08:47Z</time>
      </trkpt>
      <trkpt lat="45.19152" lon="6.32435">
        <ele>1690</ele>
        <time>2014-08-07T11:08:56Z</time>
      </trkpt>
      <trkpt lat="45.19161" lon="6.32429">
        <ele>1688</ele>
        <time>2014-08-07T11:09:03Z</time>
      </trkpt>
      <trkpt lat="45.1917" lon="6.32419">
        <ele>1682</ele>
        <time>2014-08-07T11:09:08Z</time>
      </trkpt>
      <trkpt lat="45.19177" lon="6.32406">
        <ele>1681</ele>
        <time>2014-08-07T11:09:12Z</time>
      </trkpt>
      <trkpt lat="45.19182" lon="6.32394">
        <ele>1679</ele>
        <time>2014-08-07T11:09:16Z</time>
      </trkpt>
      <trkpt lat="45.19186" lon="6.32382">
        <ele>1679</ele>
        <time>2014-08-07T11:09:20Z</time>
      </trkpt>
      <trkpt lat="45.19189" lon="6.32367">
        <ele>1681</ele>
        <time>2014-08-07T11:09:24Z</time>
      </trkpt>
      <trkpt lat="45.19196" lon="6.32357">
        <ele>1681</ele>
        <time>2014-08-07T11:09:32Z</time>
      </trkpt>
      <trkpt lat="45.19198" lon="6.32342">
        <ele>1683</ele>
        <time>2014-08-07T11:09:40Z</time>
      </trkpt>
      <trkpt lat="45.19198" lon="6.32328">
        <ele>1697</ele>
        <time>2014-08-07T11:09:46Z</time>
      </trkpt>
      <trkpt lat="45.19197" lon="6.32313">
        <ele>1698</ele>
        <time>2014-08-07T11:09:54Z</time>
      </trkpt>
      <trkpt lat="45.19195" lon="6.32298">
        <ele>1699</ele>
        <time>2014-08-07T11:10:03Z</time>
      </trkpt>
      <trkpt lat="45.19204" lon="6.32289">
        <ele>1698</ele>
        <time>2014-08-07T11:10:15Z</time>
      </trkpt>
      <trkpt lat="45.19213" lon="6.32283">
        <ele>1696</ele>
        <time>2014-08-07T11:10:24Z</time>
      </trkpt>
      <trkpt lat="45.19219" lon="6.32273">
        <ele>1695</ele>
        <time>2014-08-07T11:10:31Z</time>
      </trkpt>
      <trkpt lat="45.19226" lon="6.32263">
        <ele>1693</ele>
        <time>2014-08-07T11:10:40Z</time>
      </trkpt>
      <trkpt lat="45.19233" lon="6.32252">
        <ele>1690</ele>
        <time>2014-08-07T11:10:46Z</time>
      </trkpt>
      <trkpt lat="45.19236" lon="6.3224">
        <ele>1702</ele>
        <time>2014-08-07T11:10:52Z</time>
      </trkpt>
      <trkpt lat="45.19235" lon="6.32225">
        <ele>1709</ele>
        <time>2014-08-07T11:10:59Z</time>
      </trkpt>
      <trkpt lat="45.1924" lon="6.32214">
        <ele>1713</ele>
        <time>2014-08-07T11:11:07Z</time>
      </trkpt>
      <trkpt lat="45.19242" lon="6.32201">
        <ele>1716</ele>
        <time>2014-08-07T11:11:16Z</time>
      </trkpt>
      <trkpt lat="45.1925" lon="6.32194">
        <ele>1689</ele>
        <time>2014-08-07T11:11:25Z</time>
      </trkpt>
      <trkpt lat="45.19257" lon="6.32182">
        <ele>1695</ele>
        <time>2014-08-07T11:11:32Z</time>
      </trkpt>
      <trkpt lat="45.19259" lon="6.32168">
        <ele>1702</ele>
        <time>2014-08-07T11:11:45Z</time>
      </trkpt>
      <trkpt lat="45.19263" lon="6.32155">
        <ele>1708</ele>
        <time>2014-08-07T11:12:05Z</time>
      </trkpt>
      <trkpt lat="45.19267" lon="6.32143">
        <ele>1707</ele>
        <time>2014-08-07T11:12:22Z</time>
      </trkpt>
      <trkpt lat="45.19271" lon="6.3213">
        <ele>1707</ele>
        <time>2014-08-07T11:12:38Z</time>
      </trkpt>
      <trkpt lat="45.19273" lon="6.32118">
        <ele>1709</ele>
        <time>2014-08-07T11:12:53Z</time>
      </trkpt>
      <trkpt lat="45.19274" lon="6.32103">
        <ele>1712</ele>
        <time>2014-08-07T11:13:18Z</time>
      </trkpt>
      <trkpt lat="45.1928" lon="6.32092">
        <ele>1712</ele>
        <time>2014-08-07T11:13:26Z</time>
      </trkpt>
      <trkpt lat="45.19287" lon="6.32083">
        <ele>1723</ele>
        <time>2014-08-07T11:13:39Z</time>
      </trkpt>
      <trkpt lat="45.19289" lon="6.32069">
        <ele>1723</ele>
        <time>2014-08-07T11:13:52Z</time>
      </trkpt>
      <trkpt lat="45.19296" lon="6.3206">
        <ele>1722</ele>
        <time>2014-08-07T11:14:06Z</time>
      </trkpt>
      <trkpt lat="45.19301" lon="6.32048">
        <ele>1722</ele>
        <time>2014-08-07T11:14:18Z</time>
      </trkpt>
      <trkpt lat="45.19305" lon="6.32035">
        <ele>1723</ele>
        <time>2014-08-07T11:14:29Z</time>
      </trkpt>
      <trkpt lat="45.19313" lon="6.32026">
        <ele>1722</ele>
        <time>2014-08-07T11:14:44Z</time>
      </trkpt>
      <trkpt lat="45.19316" lon="6.32012">
        <ele>1722</ele>
        <time>2014-08-07T11:14:55Z</time>
      </trkpt>
      <trkpt lat="45.19318" lon="6.31999">
        <ele>1728</ele>
        <time>2014-08-07T11:15:06Z</time>
      </trkpt>
      <trkpt lat="45.19325" lon="6.3199">
        <ele>1726</ele>
        <time>2014-08-07T11:15:18Z</time>
      </trkpt>
      <trkpt lat="45.1933" lon="6.31978">
        <ele>1729</ele>
        <time>2014-08-07T11:15:29Z</time>
      </trkpt>
      <trkpt lat="45.19329" lon="6.31964">
        <ele>1733</ele>
        <time>2014-08-07T11:15:37Z</time>
      </trkpt>
      <trkpt lat="45.19332" lon="6.31949">
        <ele>1735</ele>
        <time>2014-08-07T11:15:47Z</time>
      </trkpt>
      <trkpt lat="45.19335" lon="6.31936">
        <ele>1725</ele>
        <time>2014-08-07T11:16:01Z</time>
      </trkpt>
      <trkpt lat="45.19335" lon="6.31923">
        <ele>1731</ele>
        <time>2014-08-07T11:16:10Z</time>
      </trkpt>
      <trkpt lat="45.19335" lon="6.31909">
        <ele>1735</ele>
        <time>2014-08-07T11:16:25Z</time>
      </trkpt>
      <trkpt lat="45.19333" lon="6.31896">
        <ele>1738</ele>
        <time>2014-08-07T11:16:36Z</time>
      </trkpt>
      <trkpt lat="45.19332" lon="6.31882">
        <ele>1738</ele>
        <time>2014-08-07T11:16:45Z</time>
      </trkpt>
      <trkpt lat="45.19331" lon="6.31868">
        <ele>1739</ele>
        <time>2014-08-07T11:17:02Z</time>
      </trkpt>
      <trkpt lat="45.19325" lon="6.31856">
        <ele>1739</ele>
        <time>2014-08-07T11:17:14Z</time>
      </trkpt>
      <trkpt lat="45.19321" lon="6.31843">
        <ele>1740</ele>
        <time>2014-08-07T11:17:24Z</time>
      </trkpt>
      <trkpt lat="45.19313" lon="6.31833">
        <ele>1736</ele>
        <time>2014-08-07T11:17:32Z</time>
      </trkpt>
      <trkpt lat="45.19304" lon="6.31825">
        <ele>1735</ele>
        <time>2014-08-07T11:17:39Z</time>
      </trkpt>
      <trkpt lat="45.19297" lon="6.31816">
        <ele>1733</ele>
        <time>2014-08-07T11:17:45Z</time>
      </trkpt>
      <trkpt lat="45.1929" lon="6.31806">
        <ele>1732</ele>
        <time>2014-08-07T11:17:50Z</time>
      </trkpt>
      <trkpt lat="45.19283" lon="6.31796">
        <ele>1730</ele>
        <time>2014-08-07T11:17:56Z</time>
      </trkpt>
      <trkpt lat="45.19281" lon="6.31782">
        <ele>1729</ele>
        <time>2014-08-07T11:18:02Z</time>
      </trkpt>
      <trkpt lat="45.19279" lon="6.31768">
        <ele>1727</ele>
        <time>2014-08-07T11:18:16Z</time>
      </trkpt>
      <trkpt lat="45.19278" lon="6.31753">
        <ele>1726</ele>
        <time>2014-08-07T11:18:24Z</time>
      </trkpt>
      <trkpt lat="45.19271" lon="6.3174">
        <ele>1717</ele>
        <time>2014-08-07T11:18:32Z</time>
      </trkpt>
      <trkpt lat="45.19274" lon="6.31727">
        <ele>1717</ele>
        <time>2014-08-07T11:18:39Z</time>
      </trkpt>
      <trkpt lat="45.19278" lon="6.31713">
        <ele>1717</ele>
        <time>2014-08-07T11:18:45Z</time>
      </trkpt>
      <trkpt lat="45.19279" lon="6.31699">
        <ele>1715</ele>
        <time>2014-08-07T11:18:51Z</time>
      </trkpt>
      <trkpt lat="45.19282" lon="6.31686">
        <ele>1714</ele>
        <time>2014-08-07T11:18:56Z</time>
      </trkpt>
      <trkpt lat="45.19271" lon="6.3169">
        <ele>1711</ele>
        <time>2014-08-07T11:19:23Z</time>
      </trkpt>
      <trkpt lat="45.1927" lon="6.31704">
        <ele>1714</ele>
        <time>2014-08-07T11:19:33Z</time>
      </trkpt>
      <trkpt lat="45.1926" lon="6.31712">
        <ele>1714</ele>
        <time>2014-08-07T11:19:38Z</time>
      </trkpt>
      <trkpt lat="45.19256" lon="6.31724">
        <ele>1714</ele>
        <time>2014-08-07T11:19:44Z</time>
      </trkpt>
      <trkpt lat="45.19245" lon="6.31727">
        <ele>1694</ele>
        <time>2014-08-07T11:19:47Z</time>
      </trkpt>
      <trkpt lat="45.19236" lon="6.31736">
        <ele>1695</ele>
        <time>2014-08-07T11:19:50Z</time>
      </trkpt>
      <trkpt lat="45.19226" lon="6.31746">
        <ele>1693</ele>
        <time>2014-08-07T11:19:53Z</time>
      </trkpt>
      <trkpt lat="45.19229" lon="6.31758">
        <ele>1705</ele>
        <time>2014-08-07T11:19:56Z</time>
      </trkpt>
      <trkpt lat="45.19218" lon="6.31756">
        <ele>1702</ele>
        <time>2014-08-07T11:19:58Z</time>
      </trkpt>
      <trkpt lat="45.19206" lon="6.31754">
        <ele>1699</ele>
        <time>2014-08-07T11:20:02Z</time>
      </trkpt>
      <trkpt lat="45.19196" lon="6.31756">
        <ele>1695</ele>
        <time>2014-08-07T11:20:05Z</time>
      </trkpt>
      <trkpt lat="45.19184" lon="6.31753">
        <ele>1689</ele>
        <time>2014-08-07T11:20:09Z</time>
      </trkpt>
      <trkpt lat="45.19171" lon="6.3175">
        <ele>1679</ele>
        <time>2014-08-07T11:20:14Z</time>
      </trkpt>
      <trkpt lat="45.19161" lon="6.31748">
        <ele>1671</ele>
        <time>2014-08-07T11:20:16Z</time>
      </trkpt>
      <trkpt lat="45.19166" lon="6.3176">
        <ele>1677</ele>
        <time>2014-08-07T11:20:23Z</time>
      </trkpt>
      <trkpt lat="45.18823" lon="6.32187">
        <ele>1733</ele>
        <time>2014-08-07T11:30:44Z</time>
      </trkpt>
      <trkpt lat="45.18823" lon="6.32187">
        <ele>1733</ele>
        <time>2014-08-07T11:30:44Z</time>
      </trkpt>
      <trkpt lat="45.18817" lon="6.32199">
        <ele>1732</ele>
        <time>2014-08-07T11:30:50Z</time>
      </trkpt>
      <trkpt lat="45.18814" lon="6.32213">
        <ele>1733</ele>
        <time>2014-08-07T11:30:55Z</time>
      </trkpt>
      <trkpt lat="45.18811" lon="6.32225">
        <ele>1734</ele>
        <time>2014-08-07T11:30:59Z</time>
      </trkpt>
      <trkpt lat="45.18808" lon="6.32238">
        <ele>1735</ele>
        <time>2014-08-07T11:31:04Z</time>
      </trkpt>
      <trkpt lat="45.18805" lon="6.32251">
        <ele>1740</ele>
        <time>2014-08-07T11:31:08Z</time>
      </trkpt>
      <trkpt lat="45.18801" lon="6.32262">
        <ele>1739</ele>
        <time>2014-08-07T11:31:12Z</time>
      </trkpt>
      <trkpt lat="45.18799" lon="6.32276">
        <ele>1739</ele>
        <time>2014-08-07T11:31:17Z</time>
      </trkpt>
      <trkpt lat="45.18793" lon="6.32286">
        <ele>1739</ele>
        <time>2014-08-07T11:31:21Z</time>
      </trkpt>
      <trkpt lat="45.18787" lon="6.32296">
        <ele>1738</ele>
        <time>2014-08-07T11:31:27Z</time>
      </trkpt>
      <trkpt lat="45.18781" lon="6.32311">
        <ele>1738</ele>
        <time>2014-08-07T11:31:39Z</time>
      </trkpt>
      <trkpt lat="45.18778" lon="6.32328">
        <ele>1738</ele>
        <time>2014-08-07T11:31:43Z</time>
      </trkpt>
      <trkpt lat="45.18774" lon="6.32341">
        <ele>1739</ele>
        <time>2014-08-07T11:31:46Z</time>
      </trkpt>
      <trkpt lat="45.1877" lon="6.32357">
        <ele>1739</ele>
        <time>2014-08-07T11:31:49Z</time>
      </trkpt>
      <trkpt lat="45.18764" lon="6.3237">
        <ele>1739</ele>
        <time>2014-08-07T11:31:52Z</time>
      </trkpt>
      <trkpt lat="45.18761" lon="6.32384">
        <ele>1739</ele>
        <time>2014-08-07T11:31:56Z</time>
      </trkpt>
      <trkpt lat="45.18757" lon="6.32398">
        <ele>1739</ele>
        <time>2014-08-07T11:32:00Z</time>
      </trkpt>
      <trkpt lat="45.18752" lon="6.32411">
        <ele>1738</ele>
        <time>2014-08-07T11:32:03Z</time>
      </trkpt>
      <trkpt lat="45.18747" lon="6.32423">
        <ele>1737</ele>
        <time>2014-08-07T11:32:06Z</time>
      </trkpt>
      <trkpt lat="45.18739" lon="6.32437">
        <ele>1737</ele>
        <time>2014-08-07T11:32:10Z</time>
      </trkpt>
      <trkpt lat="45.18732" lon="6.32449">
        <ele>1737</ele>
        <time>2014-08-07T11:32:14Z</time>
      </trkpt>
      <trkpt lat="45.18724" lon="6.32461">
        <ele>1737</ele>
        <time>2014-08-07T11:32:19Z</time>
      </trkpt>
      <trkpt lat="45.18714" lon="6.32464">
        <ele>1737</ele>
        <time>2014-08-07T11:32:38Z</time>
      </trkpt>
      <trkpt lat="45.1871" lon="6.32478">
        <ele>1737</ele>
        <time>2014-08-07T11:39:06Z</time>
      </trkpt>
      <trkpt lat="45.18703" lon="6.32488">
        <ele>1738</ele>
        <time>2014-08-07T11:39:14Z</time>
      </trkpt>
      <trkpt lat="45.18693" lon="6.32489">
        <ele>1738</ele>
        <time>2014-08-07T11:39:20Z</time>
      </trkpt>
      <trkpt lat="45.18685" lon="6.32477">
        <ele>1738</ele>
        <time>2014-08-07T11:39:23Z</time>
      </trkpt>
      <trkpt lat="45.1868" lon="6.32463">
        <ele>1737</ele>
        <time>2014-08-07T11:39:25Z</time>
      </trkpt>
      <trkpt lat="45.18675" lon="6.32451">
        <ele>1737</ele>
        <time>2014-08-07T11:39:27Z</time>
      </trkpt>
      <trkpt lat="45.18671" lon="6.32436">
        <ele>1735</ele>
        <time>2014-08-07T11:39:29Z</time>
      </trkpt>
      <trkpt lat="45.18665" lon="6.32425">
        <ele>1734</ele>
        <time>2014-08-07T11:39:31Z</time>
      </trkpt>
      <trkpt lat="45.18656" lon="6.32415">
        <ele>1730</ele>
        <time>2014-08-07T11:39:33Z</time>
      </trkpt>
      <trkpt lat="45.18644" lon="6.32406">
        <ele>1727</ele>
        <time>2014-08-07T11:39:35Z</time>
      </trkpt>
      <trkpt lat="45.18633" lon="6.32395">
        <ele>1725</ele>
        <time>2014-08-07T11:39:37Z</time>
      </trkpt>
      <trkpt lat="45.18622" lon="6.32384">
        <ele>1724</ele>
        <time>2014-08-07T11:39:39Z</time>
      </trkpt>
      <trkpt lat="45.18611" lon="6.32375">
        <ele>1723</ele>
        <time>2014-08-07T11:39:41Z</time>
      </trkpt>
      <trkpt lat="45.186" lon="6.3237">
        <ele>1722</ele>
        <time>2014-08-07T11:39:43Z</time>
      </trkpt>
      <trkpt lat="45.18591" lon="6.32366">
        <ele>1722</ele>
        <time>2014-08-07T11:39:45Z</time>
      </trkpt>
      <trkpt lat="45.1858" lon="6.32367">
        <ele>1717</ele>
        <time>2014-08-07T11:39:48Z</time>
      </trkpt>
      <trkpt lat="45.18574" lon="6.32377">
        <ele>1718</ele>
        <time>2014-08-07T11:39:53Z</time>
      </trkpt>
      <trkpt lat="45.18571" lon="6.3239">
        <ele>1719</ele>
        <time>2014-08-07T11:40:09Z</time>
      </trkpt>
      <trkpt lat="45.18567" lon="6.32402">
        <ele>1721</ele>
        <time>2014-08-07T11:40:18Z</time>
      </trkpt>
      <trkpt lat="45.18563" lon="6.32414">
        <ele>1721</ele>
        <time>2014-08-07T11:40:23Z</time>
      </trkpt>
      <trkpt lat="45.18559" lon="6.32427">
        <ele>1727</ele>
        <time>2014-08-07T11:40:29Z</time>
      </trkpt>
      <trkpt lat="45.18559" lon="6.32441">
        <ele>1727</ele>
        <time>2014-08-07T11:40:36Z</time>
      </trkpt>
      <trkpt lat="45.18557" lon="6.32454">
        <ele>1728</ele>
        <time>2014-08-07T11:40:44Z</time>
      </trkpt>
      <trkpt lat="45.18555" lon="6.32467">
        <ele>1729</ele>
        <time>2014-08-07T11:40:53Z</time>
      </trkpt>
      <trkpt lat="45.18552" lon="6.3248">
        <ele>1730</ele>
        <time>2014-08-07T11:40:59Z</time>
      </trkpt>
      <trkpt lat="45.18546" lon="6.32492">
        <ele>1730</ele>
        <time>2014-08-07T11:41:09Z</time>
      </trkpt>
      <trkpt lat="45.18542" lon="6.32506">
        <ele>1736</ele>
        <time>2014-08-07T11:41:16Z</time>
      </trkpt>
      <trkpt lat="45.18538" lon="6.32518">
        <ele>1736</ele>
        <time>2014-08-07T11:41:22Z</time>
      </trkpt>
      <trkpt lat="45.18536" lon="6.32532">
        <ele>1737</ele>
        <time>2014-08-07T11:41:29Z</time>
      </trkpt>
      <trkpt lat="45.18532" lon="6.32544">
        <ele>1737</ele>
        <time>2014-08-07T11:41:35Z</time>
      </trkpt>
      <trkpt lat="45.18529" lon="6.32557">
        <ele>1738</ele>
        <time>2014-08-07T11:41:41Z</time>
      </trkpt>
      <trkpt lat="45.18527" lon="6.3257">
        <ele>1738</ele>
        <time>2014-08-07T11:41:49Z</time>
      </trkpt>
      <trkpt lat="45.18527" lon="6.32586">
        <ele>1742</ele>
        <time>2014-08-07T11:41:55Z</time>
      </trkpt>
      <trkpt lat="45.18522" lon="6.32597">
        <ele>1742</ele>
        <time>2014-08-07T11:42:01Z</time>
      </trkpt>
      <trkpt lat="45.18513" lon="6.32604">
        <ele>1742</ele>
        <time>2014-08-07T11:42:07Z</time>
      </trkpt>
      <trkpt lat="45.18504" lon="6.3261">
        <ele>1742</ele>
        <time>2014-08-07T11:42:13Z</time>
      </trkpt>
      <trkpt lat="45.18496" lon="6.32617">
        <ele>1740</ele>
        <time>2014-08-07T11:42:21Z</time>
      </trkpt>
      <trkpt lat="45.18487" lon="6.32626">
        <ele>1741</ele>
        <time>2014-08-07T11:42:28Z</time>
      </trkpt>
      <trkpt lat="45.18479" lon="6.32634">
        <ele>1742</ele>
        <time>2014-08-07T11:42:35Z</time>
      </trkpt>
      <trkpt lat="45.18471" lon="6.3264">
        <ele>1742</ele>
        <time>2014-08-07T11:42:43Z</time>
      </trkpt>
      <trkpt lat="45.18463" lon="6.32649">
        <ele>1743</ele>
        <time>2014-08-07T11:42:50Z</time>
      </trkpt>
      <trkpt lat="45.18458" lon="6.32662">
        <ele>1743</ele>
        <time>2014-08-07T11:42:59Z</time>
      </trkpt>
      <trkpt lat="45.18448" lon="6.3267">
        <ele>1751</ele>
        <time>2014-08-07T11:43:06Z</time>
      </trkpt>
      <trkpt lat="45.18438" lon="6.32676">
        <ele>1751</ele>
        <time>2014-08-07T11:43:11Z</time>
      </trkpt>
      <trkpt lat="45.1843" lon="6.32684">
        <ele>1751</ele>
        <time>2014-08-07T11:43:19Z</time>
      </trkpt>
      <trkpt lat="45.18422" lon="6.32692">
        <ele>1751</ele>
        <time>2014-08-07T11:43:27Z</time>
      </trkpt>
      <trkpt lat="45.18413" lon="6.32699">
        <ele>1751</ele>
        <time>2014-08-07T11:43:33Z</time>
      </trkpt>
      <trkpt lat="45.18405" lon="6.32707">
        <ele>1751</ele>
        <time>2014-08-07T11:43:39Z</time>
      </trkpt>
      <trkpt lat="45.18399" lon="6.32718">
        <ele>1752</ele>
        <time>2014-08-07T11:43:47Z</time>
      </trkpt>
      <trkpt lat="45.18395" lon="6.32729">
        <ele>1753</ele>
        <time>2014-08-07T11:43:57Z</time>
      </trkpt>
      <trkpt lat="45.18388" lon="6.32744">
        <ele>1754</ele>
        <time>2014-08-07T11:44:08Z</time>
      </trkpt>
      <trkpt lat="45.18384" lon="6.32757">
        <ele>1761</ele>
        <time>2014-08-07T11:44:20Z</time>
      </trkpt>
      <trkpt lat="45.18383" lon="6.32772">
        <ele>1761</ele>
        <time>2014-08-07T11:44:27Z</time>
      </trkpt>
      <trkpt lat="45.18377" lon="6.32784">
        <ele>1762</ele>
        <time>2014-08-07T11:44:33Z</time>
      </trkpt>
      <trkpt lat="45.18375" lon="6.32798">
        <ele>1763</ele>
        <time>2014-08-07T11:44:40Z</time>
      </trkpt>
      <trkpt lat="45.18372" lon="6.32811">
        <ele>1763</ele>
        <time>2014-08-07T11:44:49Z</time>
      </trkpt>
      <trkpt lat="45.18362" lon="6.32813">
        <ele>1764</ele>
        <time>2014-08-07T11:44:57Z</time>
      </trkpt>
      <trkpt lat="45.18353" lon="6.32818">
        <ele>1765</ele>
        <time>2014-08-07T11:45:09Z</time>
      </trkpt>
      <trkpt lat="45.18344" lon="6.32824">
        <ele>1766</ele>
        <time>2014-08-07T11:45:17Z</time>
      </trkpt>
      <trkpt lat="45.18336" lon="6.3283">
        <ele>1769</ele>
        <time>2014-08-07T11:45:35Z</time>
      </trkpt>
      <trkpt lat="45.18327" lon="6.32837">
        <ele>1773</ele>
        <time>2014-08-07T11:45:47Z</time>
      </trkpt>
      <trkpt lat="45.18319" lon="6.32845">
        <ele>1776</ele>
        <time>2014-08-07T11:46:03Z</time>
      </trkpt>
      <trkpt lat="45.1831" lon="6.32851">
        <ele>1778</ele>
        <time>2014-08-07T11:46:33Z</time>
      </trkpt>
      <trkpt lat="45.18301" lon="6.32857">
        <ele>1779</ele>
        <time>2014-08-07T11:46:50Z</time>
      </trkpt>
      <trkpt lat="45.18291" lon="6.32854">
        <ele>1780</ele>
        <time>2014-08-07T11:47:09Z</time>
      </trkpt>
      <trkpt lat="45.18281" lon="6.32857">
        <ele>1781</ele>
        <time>2014-08-07T11:47:24Z</time>
      </trkpt>
      <trkpt lat="45.18271" lon="6.32857">
        <ele>1782</ele>
        <time>2014-08-07T11:47:37Z</time>
      </trkpt>
      <trkpt lat="45.18263" lon="6.32863">
        <ele>1783</ele>
        <time>2014-08-07T11:47:58Z</time>
      </trkpt>
      <trkpt lat="45.18255" lon="6.3287">
        <ele>1784</ele>
        <time>2014-08-07T11:48:35Z</time>
      </trkpt>
      <trkpt lat="45.18245" lon="6.32869">
        <ele>1794</ele>
        <time>2014-08-07T11:48:47Z</time>
      </trkpt>
      <trkpt lat="45.18236" lon="6.32873">
        <ele>1795</ele>
        <time>2014-08-07T11:49:05Z</time>
      </trkpt>
      <trkpt lat="45.18226" lon="6.32874">
        <ele>1796</ele>
        <time>2014-08-07T11:49:21Z</time>
      </trkpt>
      <trkpt lat="45.18217" lon="6.32876">
        <ele>1797</ele>
        <time>2014-08-07T11:49:36Z</time>
      </trkpt>
      <trkpt lat="45.18207" lon="6.32875">
        <ele>1797</ele>
        <time>2014-08-07T11:49:54Z</time>
      </trkpt>
      <trkpt lat="45.18198" lon="6.32875">
        <ele>1798</ele>
        <time>2014-08-07T11:50:17Z</time>
      </trkpt>
      <trkpt lat="45.18198" lon="6.32888">
        <ele>1799</ele>
        <time>2014-08-07T11:50:34Z</time>
      </trkpt>
      <trkpt lat="45.18196" lon="6.32902">
        <ele>1801</ele>
        <time>2014-08-07T11:50:58Z</time>
      </trkpt>
      <trkpt lat="45.18186" lon="6.32902">
        <ele>1803</ele>
        <time>2014-08-07T11:51:14Z</time>
      </trkpt>
      <trkpt lat="45.18177" lon="6.32899">
        <ele>1804</ele>
        <time>2014-08-07T11:51:28Z</time>
      </trkpt>
      <trkpt lat="45.18168" lon="6.32893">
        <ele>1803</ele>
        <time>2014-08-07T11:51:40Z</time>
      </trkpt>
      <trkpt lat="45.18158" lon="6.32895">
        <ele>1812</ele>
        <time>2014-08-07T11:51:57Z</time>
      </trkpt>
      <trkpt lat="45.18148" lon="6.32892">
        <ele>1812</ele>
        <time>2014-08-07T11:52:12Z</time>
      </trkpt>
      <trkpt lat="45.18139" lon="6.32887">
        <ele>1812</ele>
        <time>2014-08-07T11:52:26Z</time>
      </trkpt>
      <trkpt lat="45.18129" lon="6.32886">
        <ele>1813</ele>
        <time>2014-08-07T11:52:45Z</time>
      </trkpt>
      <trkpt lat="45.1812" lon="6.32883">
        <ele>1814</ele>
        <time>2014-08-07T11:52:57Z</time>
      </trkpt>
      <trkpt lat="45.1811" lon="6.32887">
        <ele>1815</ele>
        <time>2014-08-07T11:53:06Z</time>
      </trkpt>
      <trkpt lat="45.18101" lon="6.32888">
        <ele>1816</ele>
        <time>2014-08-07T11:53:18Z</time>
      </trkpt>
      <trkpt lat="45.18091" lon="6.32888">
        <ele>1817</ele>
        <time>2014-08-07T11:53:33Z</time>
      </trkpt>
      <trkpt lat="45.18081" lon="6.3289">
        <ele>1826</ele>
        <time>2014-08-07T11:53:49Z</time>
      </trkpt>
      <trkpt lat="45.18071" lon="6.32895">
        <ele>1827</ele>
        <time>2014-08-07T11:54:05Z</time>
      </trkpt>
      <trkpt lat="45.18063" lon="6.32901">
        <ele>1827</ele>
        <time>2014-08-07T11:54:23Z</time>
      </trkpt>
      <trkpt lat="45.18054" lon="6.32907">
        <ele>1828</ele>
        <time>2014-08-07T11:54:37Z</time>
      </trkpt>
      <trkpt lat="45.18048" lon="6.32918">
        <ele>1840</ele>
        <time>2014-08-07T11:55:04Z</time>
      </trkpt>
      <trkpt lat="45.1804" lon="6.32926">
        <ele>1841</ele>
        <time>2014-08-07T11:55:15Z</time>
      </trkpt>
      <trkpt lat="45.18029" lon="6.32926">
        <ele>1842</ele>
        <time>2014-08-07T11:55:30Z</time>
      </trkpt>
      <trkpt lat="45.1802" lon="6.3293">
        <ele>1842</ele>
        <time>2014-08-07T11:55:44Z</time>
      </trkpt>
      <trkpt lat="45.18012" lon="6.32936">
        <ele>1843</ele>
        <time>2014-08-07T11:56:05Z</time>
      </trkpt>
      <trkpt lat="45.18002" lon="6.32941">
        <ele>1844</ele>
        <time>2014-08-07T11:56:22Z</time>
      </trkpt>
      <trkpt lat="45.17993" lon="6.32944">
        <ele>1850</ele>
        <time>2014-08-07T11:56:33Z</time>
      </trkpt>
      <trkpt lat="45.17986" lon="6.32955">
        <ele>1852</ele>
        <time>2014-08-07T11:56:59Z</time>
      </trkpt>
      <trkpt lat="45.17977" lon="6.32958">
        <ele>1853</ele>
        <time>2014-08-07T11:57:06Z</time>
      </trkpt>
      <trkpt lat="45.17971" lon="6.32969">
        <ele>1854</ele>
        <time>2014-08-07T11:57:22Z</time>
      </trkpt>
      <trkpt lat="45.17963" lon="6.32977">
        <ele>1855</ele>
        <time>2014-08-07T11:57:32Z</time>
      </trkpt>
      <trkpt lat="45.17958" lon="6.32989">
        <ele>1856</ele>
        <time>2014-08-07T11:57:48Z</time>
      </trkpt>
      <trkpt lat="45.17949" lon="6.32997">
        <ele>1857</ele>
        <time>2014-08-07T11:57:57Z</time>
      </trkpt>
      <trkpt lat="45.17941" lon="6.33005">
        <ele>1862</ele>
        <time>2014-08-07T11:58:06Z</time>
      </trkpt>
      <trkpt lat="45.17935" lon="6.33016">
        <ele>1862</ele>
        <time>2014-08-07T11:58:19Z</time>
      </trkpt>
      <trkpt lat="45.17928" lon="6.33025">
        <ele>1863</ele>
        <time>2014-08-07T11:58:33Z</time>
      </trkpt>
      <trkpt lat="45.17918" lon="6.33028">
        <ele>1863</ele>
        <time>2014-08-07T11:58:47Z</time>
      </trkpt>
      <trkpt lat="45.17909" lon="6.33034">
        <ele>1871</ele>
        <time>2014-08-07T11:58:56Z</time>
      </trkpt>
      <trkpt lat="45.17902" lon="6.33043">
        <ele>1872</ele>
        <time>2014-08-07T11:59:13Z</time>
      </trkpt>
      <trkpt lat="45.17891" lon="6.33046">
        <ele>1873</ele>
        <time>2014-08-07T11:59:28Z</time>
      </trkpt>
      <trkpt lat="45.17883" lon="6.33054">
        <ele>1874</ele>
        <time>2014-08-07T11:59:44Z</time>
      </trkpt>
      <trkpt lat="45.17875" lon="6.33062">
        <ele>1875</ele>
        <time>2014-08-07T12:00:06Z</time>
      </trkpt>
      <trkpt lat="45.17866" lon="6.33067">
        <ele>1876</ele>
        <time>2014-08-07T12:00:15Z</time>
      </trkpt>
      <trkpt lat="45.17857" lon="6.33069">
        <ele>1878</ele>
        <time>2014-08-07T12:00:25Z</time>
      </trkpt>
      <trkpt lat="45.17846" lon="6.33069">
        <ele>1879</ele>
        <time>2014-08-07T12:00:39Z</time>
      </trkpt>
      <trkpt lat="45.17837" lon="6.33076">
        <ele>1883</ele>
        <time>2014-08-07T12:00:51Z</time>
      </trkpt>
      <trkpt lat="45.17829" lon="6.3308">
        <ele>1886</ele>
        <time>2014-08-07T12:01:16Z</time>
      </trkpt>
      <trkpt lat="45.17818" lon="6.33081">
        <ele>1887</ele>
        <time>2014-08-07T12:01:26Z</time>
      </trkpt>
      <trkpt lat="45.17808" lon="6.33082">
        <ele>1888</ele>
        <time>2014-08-07T12:01:38Z</time>
      </trkpt>
      <trkpt lat="45.178" lon="6.33089">
        <ele>1893</ele>
        <time>2014-08-07T12:01:55Z</time>
      </trkpt>
      <trkpt lat="45.1779" lon="6.33093">
        <ele>1894</ele>
        <time>2014-08-07T12:02:07Z</time>
      </trkpt>
      <trkpt lat="45.17781" lon="6.33096">
        <ele>1895</ele>
        <time>2014-08-07T12:02:17Z</time>
      </trkpt>
      <trkpt lat="45.17774" lon="6.33105">
        <ele>1895</ele>
        <time>2014-08-07T12:02:32Z</time>
      </trkpt>
      <trkpt lat="45.17767" lon="6.33115">
        <ele>1896</ele>
        <time>2014-08-07T12:02:43Z</time>
      </trkpt>
      <trkpt lat="45.17759" lon="6.33121">
        <ele>1896</ele>
        <time>2014-08-07T12:02:56Z</time>
      </trkpt>
      <trkpt lat="45.1775" lon="6.33126">
        <ele>1904</ele>
        <time>2014-08-07T12:03:08Z</time>
      </trkpt>
      <trkpt lat="45.17741" lon="6.33132">
        <ele>1904</ele>
        <time>2014-08-07T12:03:17Z</time>
      </trkpt>
      <trkpt lat="45.17738" lon="6.33145">
        <ele>1904</ele>
        <time>2014-08-07T12:03:34Z</time>
      </trkpt>
      <trkpt lat="45.17731" lon="6.33155">
        <ele>1905</ele>
        <time>2014-08-07T12:03:44Z</time>
      </trkpt>
      <trkpt lat="45.1773" lon="6.33169">
        <ele>1905</ele>
        <time>2014-08-07T12:03:56Z</time>
      </trkpt>
      <trkpt lat="45.17726" lon="6.33181">
        <ele>1906</ele>
        <time>2014-08-07T12:04:08Z</time>
      </trkpt>
      <trkpt lat="45.17717" lon="6.33187">
        <ele>1907</ele>
        <time>2014-08-07T12:04:18Z</time>
      </trkpt>
      <trkpt lat="45.17709" lon="6.33194">
        <ele>1908</ele>
        <time>2014-08-07T12:04:26Z</time>
      </trkpt>
      <trkpt lat="45.17706" lon="6.33206">
        <ele>1908</ele>
        <time>2014-08-07T12:04:39Z</time>
      </trkpt>
      <trkpt lat="45.17701" lon="6.3322">
        <ele>1908</ele>
        <time>2014-08-07T12:04:48Z</time>
      </trkpt>
      <trkpt lat="45.17696" lon="6.33232">
        <ele>1908</ele>
        <time>2014-08-07T12:04:58Z</time>
      </trkpt>
      <trkpt lat="45.17689" lon="6.33241">
        <ele>1909</ele>
        <time>2014-08-07T12:05:03Z</time>
      </trkpt>
      <trkpt lat="45.17681" lon="6.33251">
        <ele>1909</ele>
        <time>2014-08-07T12:05:09Z</time>
      </trkpt>
      <trkpt lat="45.17673" lon="6.3326">
        <ele>1910</ele>
        <time>2014-08-07T12:05:15Z</time>
      </trkpt>
      <trkpt lat="45.17665" lon="6.33268">
        <ele>1913</ele>
        <time>2014-08-07T12:05:21Z</time>
      </trkpt>
      <trkpt lat="45.17658" lon="6.33278">
        <ele>1913</ele>
        <time>2014-08-07T12:05:27Z</time>
      </trkpt>
      <trkpt lat="45.1765" lon="6.33288">
        <ele>1913</ele>
        <time>2014-08-07T12:05:33Z</time>
      </trkpt>
      <trkpt lat="45.17642" lon="6.33298">
        <ele>1914</ele>
        <time>2014-08-07T12:05:39Z</time>
      </trkpt>
      <trkpt lat="45.17635" lon="6.33307">
        <ele>1914</ele>
        <time>2014-08-07T12:05:45Z</time>
      </trkpt>
      <trkpt lat="45.17628" lon="6.33319">
        <ele>1914</ele>
        <time>2014-08-07T12:05:54Z</time>
      </trkpt>
      <trkpt lat="45.17621" lon="6.33328">
        <ele>1915</ele>
        <time>2014-08-07T12:06:02Z</time>
      </trkpt>
      <trkpt lat="45.17613" lon="6.33336">
        <ele>1918</ele>
        <time>2014-08-07T12:06:07Z</time>
      </trkpt>
      <trkpt lat="45.17606" lon="6.33345">
        <ele>1918</ele>
        <time>2014-08-07T12:06:13Z</time>
      </trkpt>
      <trkpt lat="45.17599" lon="6.33355">
        <ele>1919</ele>
        <time>2014-08-07T12:06:22Z</time>
      </trkpt>
      <trkpt lat="45.1759" lon="6.33361">
        <ele>1919</ele>
        <time>2014-08-07T12:06:28Z</time>
      </trkpt>
      <trkpt lat="45.17583" lon="6.3337">
        <ele>1919</ele>
        <time>2014-08-07T12:06:36Z</time>
      </trkpt>
      <trkpt lat="45.17574" lon="6.33377">
        <ele>1919</ele>
        <time>2014-08-07T12:06:43Z</time>
      </trkpt>
      <trkpt lat="45.17568" lon="6.33387">
        <ele>1920</ele>
        <time>2014-08-07T12:06:53Z</time>
      </trkpt>
      <trkpt lat="45.17559" lon="6.33396">
        <ele>1920</ele>
        <time>2014-08-07T12:07:02Z</time>
      </trkpt>
      <trkpt lat="45.17551" lon="6.33402">
        <ele>1921</ele>
        <time>2014-08-07T12:07:10Z</time>
      </trkpt>
      <trkpt lat="45.17542" lon="6.33409">
        <ele>1921</ele>
        <time>2014-08-07T12:07:17Z</time>
      </trkpt>
      <trkpt lat="45.17533" lon="6.33418">
        <ele>1930</ele>
        <time>2014-08-07T12:07:24Z</time>
      </trkpt>
      <trkpt lat="45.17524" lon="6.33427">
        <ele>1930</ele>
        <time>2014-08-07T12:07:34Z</time>
      </trkpt>
      <trkpt lat="45.17517" lon="6.33435">
        <ele>1930</ele>
        <time>2014-08-07T12:07:43Z</time>
      </trkpt>
      <trkpt lat="45.17513" lon="6.33449">
        <ele>1931</ele>
        <time>2014-08-07T12:07:53Z</time>
      </trkpt>
      <trkpt lat="45.17503" lon="6.33457">
        <ele>1932</ele>
        <time>2014-08-07T12:08:00Z</time>
      </trkpt>
      <trkpt lat="45.17496" lon="6.33466">
        <ele>1931</ele>
        <time>2014-08-07T12:08:09Z</time>
      </trkpt>
      <trkpt lat="45.17492" lon="6.33478">
        <ele>1933</ele>
        <time>2014-08-07T12:08:19Z</time>
      </trkpt>
      <trkpt lat="45.17483" lon="6.33483">
        <ele>1933</ele>
        <time>2014-08-07T12:08:28Z</time>
      </trkpt>
      <trkpt lat="45.17475" lon="6.33492">
        <ele>1933</ele>
        <time>2014-08-07T12:08:35Z</time>
      </trkpt>
      <trkpt lat="45.17467" lon="6.33501">
        <ele>1940</ele>
        <time>2014-08-07T12:08:43Z</time>
      </trkpt>
      <trkpt lat="45.17459" lon="6.33508">
        <ele>1940</ele>
        <time>2014-08-07T12:08:48Z</time>
      </trkpt>
      <trkpt lat="45.1745" lon="6.33514">
        <ele>1939</ele>
        <time>2014-08-07T12:08:55Z</time>
      </trkpt>
      <trkpt lat="45.17443" lon="6.33524">
        <ele>1939</ele>
        <time>2014-08-07T12:09:02Z</time>
      </trkpt>
      <trkpt lat="45.17433" lon="6.33531">
        <ele>1939</ele>
        <time>2014-08-07T12:09:07Z</time>
      </trkpt>
      <trkpt lat="45.17426" lon="6.33541">
        <ele>1940</ele>
        <time>2014-08-07T12:09:15Z</time>
      </trkpt>
      <trkpt lat="45.17422" lon="6.33554">
        <ele>1942</ele>
        <time>2014-08-07T12:09:22Z</time>
      </trkpt>
      <trkpt lat="45.17415" lon="6.33564">
        <ele>1936</ele>
        <time>2014-08-07T12:09:28Z</time>
      </trkpt>
      <trkpt lat="45.17411" lon="6.33576">
        <ele>1941</ele>
        <time>2014-08-07T12:09:34Z</time>
      </trkpt>
      <trkpt lat="45.17405" lon="6.33589">
        <ele>1945</ele>
        <time>2014-08-07T12:09:41Z</time>
      </trkpt>
      <trkpt lat="45.174" lon="6.33601">
        <ele>1944</ele>
        <time>2014-08-07T12:09:46Z</time>
      </trkpt>
      <trkpt lat="45.17394" lon="6.33613">
        <ele>1944</ele>
        <time>2014-08-07T12:09:51Z</time>
      </trkpt>
      <trkpt lat="45.17388" lon="6.33627">
        <ele>1944</ele>
        <time>2014-08-07T12:09:58Z</time>
      </trkpt>
      <trkpt lat="45.17384" lon="6.3364">
        <ele>1945</ele>
        <time>2014-08-07T12:10:05Z</time>
      </trkpt>
      <trkpt lat="45.17379" lon="6.33653">
        <ele>1946</ele>
        <time>2014-08-07T12:10:12Z</time>
      </trkpt>
      <trkpt lat="45.17369" lon="6.33659">
        <ele>1946</ele>
        <time>2014-08-07T12:10:18Z</time>
      </trkpt>
      <trkpt lat="45.17358" lon="6.33664">
        <ele>1946</ele>
        <time>2014-08-07T12:10:23Z</time>
      </trkpt>
      <trkpt lat="45.1735" lon="6.33673">
        <ele>1950</ele>
        <time>2014-08-07T12:10:29Z</time>
      </trkpt>
      <trkpt lat="45.17341" lon="6.33679">
        <ele>1950</ele>
        <time>2014-08-07T12:10:34Z</time>
      </trkpt>
      <trkpt lat="45.17331" lon="6.33685">
        <ele>1948</ele>
        <time>2014-08-07T12:10:40Z</time>
      </trkpt>
      <trkpt lat="45.17325" lon="6.33697">
        <ele>1948</ele>
        <time>2014-08-07T12:10:46Z</time>
      </trkpt>
      <trkpt lat="45.17322" lon="6.33709">
        <ele>1949</ele>
        <time>2014-08-07T12:10:50Z</time>
      </trkpt>
      <trkpt lat="45.17321" lon="6.33726">
        <ele>1950</ele>
        <time>2014-08-07T12:10:54Z</time>
      </trkpt>
      <trkpt lat="45.17322" lon="6.3374">
        <ele>1951</ele>
        <time>2014-08-07T12:10:58Z</time>
      </trkpt>
      <trkpt lat="45.17325" lon="6.33754">
        <ele>1954</ele>
        <time>2014-08-07T12:11:04Z</time>
      </trkpt>
      <trkpt lat="45.17336" lon="6.33756">
        <ele>1953</ele>
        <time>2014-08-07T12:11:09Z</time>
      </trkpt>
      <trkpt lat="45.17341" lon="6.33771">
        <ele>1952</ele>
        <time>2014-08-07T12:11:12Z</time>
      </trkpt>
      <trkpt lat="45.17348" lon="6.33788">
        <ele>1951</ele>
        <time>2014-08-07T12:11:15Z</time>
      </trkpt>
      <trkpt lat="45.17357" lon="6.33792">
        <ele>1950</ele>
        <time>2014-08-07T12:11:17Z</time>
      </trkpt>
      <trkpt lat="45.17367" lon="6.33796">
        <ele>1950</ele>
        <time>2014-08-07T12:11:19Z</time>
      </trkpt>
      <trkpt lat="45.17379" lon="6.33799">
        <ele>1949</ele>
        <time>2014-08-07T12:11:21Z</time>
      </trkpt>
      <trkpt lat="45.17393" lon="6.33801">
        <ele>1948</ele>
        <time>2014-08-07T12:11:23Z</time>
      </trkpt>
      <trkpt lat="45.17405" lon="6.33807">
        <ele>1946</ele>
        <time>2014-08-07T12:11:25Z</time>
      </trkpt>
      <trkpt lat="45.17416" lon="6.33814">
        <ele>1945</ele>
        <time>2014-08-07T12:11:27Z</time>
      </trkpt>
      <trkpt lat="45.17426" lon="6.33823">
        <ele>1939</ele>
        <time>2014-08-07T12:11:29Z</time>
      </trkpt>
      <trkpt lat="45.17434" lon="6.33832">
        <ele>1938</ele>
        <time>2014-08-07T12:11:31Z</time>
      </trkpt>
      <trkpt lat="45.17442" lon="6.33845">
        <ele>1933</ele>
        <time>2014-08-07T12:11:34Z</time>
      </trkpt>
      <trkpt lat="45.17452" lon="6.33859">
        <ele>1931</ele>
        <time>2014-08-07T12:11:37Z</time>
      </trkpt>
      <trkpt lat="45.17459" lon="6.33869">
        <ele>1930</ele>
        <time>2014-08-07T12:11:39Z</time>
      </trkpt>
      <trkpt lat="45.17466" lon="6.33883">
        <ele>1928</ele>
        <time>2014-08-07T12:11:42Z</time>
      </trkpt>
      <trkpt lat="45.17475" lon="6.33891">
        <ele>1927</ele>
        <time>2014-08-07T12:11:45Z</time>
      </trkpt>
      <trkpt lat="45.17484" lon="6.33898">
        <ele>1925</ele>
        <time>2014-08-07T12:11:47Z</time>
      </trkpt>
      <trkpt lat="45.17494" lon="6.33905">
        <ele>1922</ele>
        <time>2014-08-07T12:11:49Z</time>
      </trkpt>
      <trkpt lat="45.17504" lon="6.33914">
        <ele>1917</ele>
        <time>2014-08-07T12:11:52Z</time>
      </trkpt>
      <trkpt lat="45.17516" lon="6.33911">
        <ele>1915</ele>
        <time>2014-08-07T12:11:56Z</time>
      </trkpt>
      <trkpt lat="45.17527" lon="6.33914">
        <ele>1914</ele>
        <time>2014-08-07T12:11:59Z</time>
      </trkpt>
      <trkpt lat="45.17539" lon="6.33919">
        <ele>1901</ele>
        <time>2014-08-07T12:12:02Z</time>
      </trkpt>
      <trkpt lat="45.17547" lon="6.33912">
        <ele>1911</ele>
        <time>2014-08-07T12:12:07Z</time>
      </trkpt>
      <trkpt lat="45.17548" lon="6.33897">
        <ele>1912</ele>
        <time>2014-08-07T12:12:11Z</time>
      </trkpt>
      <trkpt lat="45.17555" lon="6.33881">
        <ele>1912</ele>
        <time>2014-08-07T12:12:15Z</time>
      </trkpt>
      <trkpt lat="45.17563" lon="6.33869">
        <ele>1912</ele>
        <time>2014-08-07T12:12:17Z</time>
      </trkpt>
      <trkpt lat="45.17569" lon="6.33859">
        <ele>1912</ele>
        <time>2014-08-07T12:12:19Z</time>
      </trkpt>
      <trkpt lat="45.17576" lon="6.33847">
        <ele>1911</ele>
        <time>2014-08-07T12:12:21Z</time>
      </trkpt>
      <trkpt lat="45.17582" lon="6.33834">
        <ele>1909</ele>
        <time>2014-08-07T12:12:23Z</time>
      </trkpt>
      <trkpt lat="45.17587" lon="6.33822">
        <ele>1907</ele>
        <time>2014-08-07T12:12:25Z</time>
      </trkpt>
      <trkpt lat="45.17589" lon="6.33803">
        <ele>1905</ele>
        <time>2014-08-07T12:12:28Z</time>
      </trkpt>
      <trkpt lat="45.17594" lon="6.33787">
        <ele>1906</ele>
        <time>2014-08-07T12:12:31Z</time>
      </trkpt>
      <trkpt lat="45.17605" lon="6.33776">
        <ele>1905</ele>
        <time>2014-08-07T12:12:34Z</time>
      </trkpt>
      <trkpt lat="45.17612" lon="6.33767">
        <ele>1905</ele>
        <time>2014-08-07T12:12:36Z</time>
      </trkpt>
      <trkpt lat="45.17621" lon="6.33758">
        <ele>1904</ele>
        <time>2014-08-07T12:12:38Z</time>
      </trkpt>
      <trkpt lat="45.1763" lon="6.33752">
        <ele>1903</ele>
        <time>2014-08-07T12:12:40Z</time>
      </trkpt>
      <trkpt lat="45.17641" lon="6.33745">
        <ele>1906</ele>
        <time>2014-08-07T12:12:43Z</time>
      </trkpt>
      <trkpt lat="45.17651" lon="6.33735">
        <ele>1905</ele>
        <time>2014-08-07T12:12:46Z</time>
      </trkpt>
      <trkpt lat="45.17658" lon="6.33726">
        <ele>1906</ele>
        <time>2014-08-07T12:12:48Z</time>
      </trkpt>
      <trkpt lat="45.17666" lon="6.33719">
        <ele>1906</ele>
        <time>2014-08-07T12:12:50Z</time>
      </trkpt>
      <trkpt lat="45.17674" lon="6.33711">
        <ele>1897</ele>
        <time>2014-08-07T12:12:52Z</time>
      </trkpt>
      <trkpt lat="45.17684" lon="6.33701">
        <ele>1897</ele>
        <time>2014-08-07T12:12:54Z</time>
      </trkpt>
      <trkpt lat="45.17694" lon="6.33688">
        <ele>1897</ele>
        <time>2014-08-07T12:12:56Z</time>
      </trkpt>
      <trkpt lat="45.17705" lon="6.33675">
        <ele>1896</ele>
        <time>2014-08-07T12:12:58Z</time>
      </trkpt>
      <trkpt lat="45.17718" lon="6.33664">
        <ele>1898</ele>
        <time>2014-08-07T12:13:00Z</time>
      </trkpt>
      <trkpt lat="45.17728" lon="6.33653">
        <ele>1897</ele>
        <time>2014-08-07T12:13:02Z</time>
      </trkpt>
      <trkpt lat="45.17736" lon="6.33638">
        <ele>1897</ele>
        <time>2014-08-07T12:13:04Z</time>
      </trkpt>
      <trkpt lat="45.17745" lon="6.33619">
        <ele>1897</ele>
        <time>2014-08-07T12:13:06Z</time>
      </trkpt>
      <trkpt lat="45.17757" lon="6.33603">
        <ele>1888</ele>
        <time>2014-08-07T12:13:08Z</time>
      </trkpt>
      <trkpt lat="45.1777" lon="6.33587">
        <ele>1887</ele>
        <time>2014-08-07T12:13:10Z</time>
      </trkpt>
      <trkpt lat="45.17782" lon="6.3357">
        <ele>1888</ele>
        <time>2014-08-07T12:13:12Z</time>
      </trkpt>
      <trkpt lat="45.17794" lon="6.33554">
        <ele>1886</ele>
        <time>2014-08-07T12:13:14Z</time>
      </trkpt>
      <trkpt lat="45.17806" lon="6.3354">
        <ele>1886</ele>
        <time>2014-08-07T12:13:16Z</time>
      </trkpt>
      <trkpt lat="45.17815" lon="6.33523">
        <ele>1885</ele>
        <time>2014-08-07T12:13:18Z</time>
      </trkpt>
      <trkpt lat="45.17826" lon="6.33504">
        <ele>1882</ele>
        <time>2014-08-07T12:13:20Z</time>
      </trkpt>
      <trkpt lat="45.17837" lon="6.33487">
        <ele>1878</ele>
        <time>2014-08-07T12:13:22Z</time>
      </trkpt>
      <trkpt lat="45.17846" lon="6.33471">
        <ele>1876</ele>
        <time>2014-08-07T12:13:24Z</time>
      </trkpt>
      <trkpt lat="45.1785" lon="6.33456">
        <ele>1875</ele>
        <time>2014-08-07T12:13:26Z</time>
      </trkpt>
      <trkpt lat="45.17852" lon="6.33441">
        <ele>1876</ele>
        <time>2014-08-07T12:13:28Z</time>
      </trkpt>
      <trkpt lat="45.17854" lon="6.33424">
        <ele>1876</ele>
        <time>2014-08-07T12:13:30Z</time>
      </trkpt>
      <trkpt lat="45.17859" lon="6.33407">
        <ele>1876</ele>
        <time>2014-08-07T12:13:32Z</time>
      </trkpt>
      <trkpt lat="45.17867" lon="6.3339">
        <ele>1875</ele>
        <time>2014-08-07T12:13:34Z</time>
      </trkpt>
      <trkpt lat="45.17876" lon="6.33376">
        <ele>1874</ele>
        <time>2014-08-07T12:13:36Z</time>
      </trkpt>
      <trkpt lat="45.17885" lon="6.33362">
        <ele>1873</ele>
        <time>2014-08-07T12:13:38Z</time>
      </trkpt>
      <trkpt lat="45.17896" lon="6.33346">
        <ele>1871</ele>
        <time>2014-08-07T12:13:40Z</time>
      </trkpt>
      <trkpt lat="45.17908" lon="6.3333">
        <ele>1869</ele>
        <time>2014-08-07T12:13:42Z</time>
      </trkpt>
      <trkpt lat="45.17921" lon="6.33319">
        <ele>1863</ele>
        <time>2014-08-07T12:13:44Z</time>
      </trkpt>
      <trkpt lat="45.17933" lon="6.33307">
        <ele>1862</ele>
        <time>2014-08-07T12:13:46Z</time>
      </trkpt>
      <trkpt lat="45.17942" lon="6.33296">
        <ele>1862</ele>
        <time>2014-08-07T12:13:48Z</time>
      </trkpt>
      <trkpt lat="45.17952" lon="6.33284">
        <ele>1861</ele>
        <time>2014-08-07T12:13:50Z</time>
      </trkpt>
      <trkpt lat="45.17965" lon="6.33271">
        <ele>1860</ele>
        <time>2014-08-07T12:13:52Z</time>
      </trkpt>
      <trkpt lat="45.1798" lon="6.33259">
        <ele>1858</ele>
        <time>2014-08-07T12:13:54Z</time>
      </trkpt>
      <trkpt lat="45.17995" lon="6.33248">
        <ele>1856</ele>
        <time>2014-08-07T12:13:56Z</time>
      </trkpt>
      <trkpt lat="45.18006" lon="6.33238">
        <ele>1851</ele>
        <time>2014-08-07T12:13:58Z</time>
      </trkpt>
      <trkpt lat="45.18013" lon="6.33223">
        <ele>1850</ele>
        <time>2014-08-07T12:14:01Z</time>
      </trkpt>
      <trkpt lat="45.1802" lon="6.33209">
        <ele>1849</ele>
        <time>2014-08-07T12:14:04Z</time>
      </trkpt>
      <trkpt lat="45.18032" lon="6.33202">
        <ele>1848</ele>
        <time>2014-08-07T12:14:07Z</time>
      </trkpt>
      <trkpt lat="45.18046" lon="6.33199">
        <ele>1847</ele>
        <time>2014-08-07T12:14:10Z</time>
      </trkpt>
      <trkpt lat="45.18058" lon="6.332">
        <ele>1846</ele>
        <time>2014-08-07T12:14:13Z</time>
      </trkpt>
      <trkpt lat="45.18067" lon="6.33198">
        <ele>1845</ele>
        <time>2014-08-07T12:14:17Z</time>
      </trkpt>
      <trkpt lat="45.18078" lon="6.33197">
        <ele>1844</ele>
        <time>2014-08-07T12:14:22Z</time>
      </trkpt>
      <trkpt lat="45.18087" lon="6.33192">
        <ele>1833</ele>
        <time>2014-08-07T12:14:28Z</time>
      </trkpt>
      <trkpt lat="45.18092" lon="6.33178">
        <ele>1835</ele>
        <time>2014-08-07T12:14:36Z</time>
      </trkpt>
      <trkpt lat="45.18099" lon="6.33161">
        <ele>1834</ele>
        <time>2014-08-07T12:14:40Z</time>
      </trkpt>
      <trkpt lat="45.18105" lon="6.33144">
        <ele>1831</ele>
        <time>2014-08-07T12:14:43Z</time>
      </trkpt>
      <trkpt lat="45.1811" lon="6.33133">
        <ele>1831</ele>
        <time>2014-08-07T12:14:45Z</time>
      </trkpt>
      <trkpt lat="45.18117" lon="6.33122">
        <ele>1830</ele>
        <time>2014-08-07T12:14:47Z</time>
      </trkpt>
      <trkpt lat="45.18127" lon="6.33111">
        <ele>1829</ele>
        <time>2014-08-07T12:14:50Z</time>
      </trkpt>
      <trkpt lat="45.18135" lon="6.33102">
        <ele>1828</ele>
        <time>2014-08-07T12:14:53Z</time>
      </trkpt>
      <trkpt lat="45.18144" lon="6.33112">
        <ele>1827</ele>
        <time>2014-08-07T12:14:57Z</time>
      </trkpt>
      <trkpt lat="45.18145" lon="6.33127">
        <ele>1827</ele>
        <time>2014-08-07T12:14:59Z</time>
      </trkpt>
      <trkpt lat="45.18146" lon="6.33147">
        <ele>1826</ele>
        <time>2014-08-07T12:15:01Z</time>
      </trkpt>
      <trkpt lat="45.18149" lon="6.33169">
        <ele>1824</ele>
        <time>2014-08-07T12:15:03Z</time>
      </trkpt>
      <trkpt lat="45.18155" lon="6.33194">
        <ele>1825</ele>
        <time>2014-08-07T12:15:05Z</time>
      </trkpt>
      <trkpt lat="45.18158" lon="6.33206">
        <ele>1826</ele>
        <time>2014-08-07T12:15:06Z</time>
      </trkpt>
      <trkpt lat="45.18163" lon="6.33219">
        <ele>1826</ele>
        <time>2014-08-07T12:15:07Z</time>
      </trkpt>
      <trkpt lat="45.18168" lon="6.33231">
        <ele>1814</ele>
        <time>2014-08-07T12:15:08Z</time>
      </trkpt>
      <trkpt lat="45.18174" lon="6.33243">
        <ele>1816</ele>
        <time>2014-08-07T12:15:09Z</time>
      </trkpt>
      <trkpt lat="45.18179" lon="6.33255">
        <ele>1815</ele>
        <time>2014-08-07T12:15:10Z</time>
      </trkpt>
      <trkpt lat="45.18189" lon="6.33275">
        <ele>1812</ele>
        <time>2014-08-07T12:15:12Z</time>
      </trkpt>
      <trkpt lat="45.18197" lon="6.33289">
        <ele>1811</ele>
        <time>2014-08-07T12:15:14Z</time>
      </trkpt>
      <trkpt lat="45.18205" lon="6.33297">
        <ele>1810</ele>
        <time>2014-08-07T12:15:16Z</time>
      </trkpt>
      <trkpt lat="45.18214" lon="6.33306">
        <ele>1809</ele>
        <time>2014-08-07T12:15:19Z</time>
      </trkpt>
      <trkpt lat="45.18214" lon="6.3332">
        <ele>1809</ele>
        <time>2014-08-07T12:15:24Z</time>
      </trkpt>
      <trkpt lat="45.1822" lon="6.3333">
        <ele>1807</ele>
        <time>2014-08-07T12:15:27Z</time>
      </trkpt>
      <trkpt lat="45.18229" lon="6.33341">
        <ele>1805</ele>
        <time>2014-08-07T12:15:29Z</time>
      </trkpt>
      <trkpt lat="45.18235" lon="6.33353">
        <ele>1805</ele>
        <time>2014-08-07T12:15:31Z</time>
      </trkpt>
      <trkpt lat="45.18238" lon="6.33366">
        <ele>1805</ele>
        <time>2014-08-07T12:15:33Z</time>
      </trkpt>
      <trkpt lat="45.18234" lon="6.33387">
        <ele>1805</ele>
        <time>2014-08-07T12:15:36Z</time>
      </trkpt>
      <trkpt lat="45.18227" lon="6.33413">
        <ele>1805</ele>
        <time>2014-08-07T12:15:40Z</time>
      </trkpt>
      <trkpt lat="45.18229" lon="6.33426">
        <ele>1803</ele>
        <time>2014-08-07T12:15:42Z</time>
      </trkpt>
      <trkpt lat="45.18234" lon="6.33439">
        <ele>1803</ele>
        <time>2014-08-07T12:15:44Z</time>
      </trkpt>
      <trkpt lat="45.18241" lon="6.33455">
        <ele>1803</ele>
        <time>2014-08-07T12:15:46Z</time>
      </trkpt>
      <trkpt lat="45.18248" lon="6.33475">
        <ele>1801</ele>
        <time>2014-08-07T12:15:48Z</time>
      </trkpt>
      <trkpt lat="45.18256" lon="6.33493">
        <ele>1792</ele>
        <time>2014-08-07T12:15:50Z</time>
      </trkpt>
      <trkpt lat="45.18263" lon="6.33509">
        <ele>1790</ele>
        <time>2014-08-07T12:15:52Z</time>
      </trkpt>
      <trkpt lat="45.18266" lon="6.33529">
        <ele>1787</ele>
        <time>2014-08-07T12:15:54Z</time>
      </trkpt>
      <trkpt lat="45.1827" lon="6.33548">
        <ele>1786</ele>
        <time>2014-08-07T12:15:56Z</time>
      </trkpt>
      <trkpt lat="45.18276" lon="6.33567">
        <ele>1786</ele>
        <time>2014-08-07T12:15:58Z</time>
      </trkpt>
      <trkpt lat="45.18282" lon="6.33583">
        <ele>1785</ele>
        <time>2014-08-07T12:16:00Z</time>
      </trkpt>
      <trkpt lat="45.18289" lon="6.33596">
        <ele>1782</ele>
        <time>2014-08-07T12:16:02Z</time>
      </trkpt>
      <trkpt lat="45.18297" lon="6.33608">
        <ele>1780</ele>
        <time>2014-08-07T12:16:04Z</time>
      </trkpt>
      <trkpt lat="45.18308" lon="6.33618">
        <ele>1779</ele>
        <time>2014-08-07T12:16:06Z</time>
      </trkpt>
      <trkpt lat="45.18321" lon="6.33625">
        <ele>1778</ele>
        <time>2014-08-07T12:16:08Z</time>
      </trkpt>
      <trkpt lat="45.18332" lon="6.33629">
        <ele>1777</ele>
        <time>2014-08-07T12:16:10Z</time>
      </trkpt>
      <trkpt lat="45.18345" lon="6.33631">
        <ele>1767</ele>
        <time>2014-08-07T12:16:12Z</time>
      </trkpt>
      <trkpt lat="45.18358" lon="6.33632">
        <ele>1766</ele>
        <time>2014-08-07T12:16:14Z</time>
      </trkpt>
      <trkpt lat="45.18369" lon="6.33641">
        <ele>1765</ele>
        <time>2014-08-07T12:16:17Z</time>
      </trkpt>
      <trkpt lat="45.18372" lon="6.33654">
        <ele>1764</ele>
        <time>2014-08-07T12:16:20Z</time>
      </trkpt>
      <trkpt lat="45.18373" lon="6.33668">
        <ele>1759</ele>
        <time>2014-08-07T12:16:23Z</time>
      </trkpt>
      <trkpt lat="45.18374" lon="6.33684">
        <ele>1758</ele>
        <time>2014-08-07T12:16:27Z</time>
      </trkpt>
      <trkpt lat="45.18372" lon="6.33701">
        <ele>1757</ele>
        <time>2014-08-07T12:16:31Z</time>
      </trkpt>
      <trkpt lat="45.18372" lon="6.33719">
        <ele>1756</ele>
        <time>2014-08-07T12:16:34Z</time>
      </trkpt>
      <trkpt lat="45.18372" lon="6.33734">
        <ele>1755</ele>
        <time>2014-08-07T12:16:38Z</time>
      </trkpt>
      <trkpt lat="45.18362" lon="6.3374">
        <ele>1756</ele>
        <time>2014-08-07T12:16:44Z</time>
      </trkpt>
      <trkpt lat="45.18354" lon="6.33748">
        <ele>1757</ele>
        <time>2014-08-07T12:16:49Z</time>
      </trkpt>
      <trkpt lat="45.1835" lon="6.33761">
        <ele>1747</ele>
        <time>2014-08-07T12:16:57Z</time>
      </trkpt>
      <trkpt lat="45.18341" lon="6.3377">
        <ele>1746</ele>
        <time>2014-08-07T12:17:00Z</time>
      </trkpt>
      <trkpt lat="45.18336" lon="6.33784">
        <ele>1742</ele>
        <time>2014-08-07T12:17:05Z</time>
      </trkpt>
      <trkpt lat="45.1833" lon="6.33796">
        <ele>1752</ele>
        <time>2014-08-07T12:17:09Z</time>
      </trkpt>
      <trkpt lat="45.18324" lon="6.33809">
        <ele>1749</ele>
        <time>2014-08-07T12:17:16Z</time>
      </trkpt>
      <trkpt lat="45.18314" lon="6.33816">
        <ele>1748</ele>
        <time>2014-08-07T12:17:20Z</time>
      </trkpt>
      <trkpt lat="45.18307" lon="6.33825">
        <ele>1749</ele>
        <time>2014-08-07T12:17:38Z</time>
      </trkpt>
      <trkpt lat="45.18303" lon="6.33837">
        <ele>1735</ele>
        <time>2014-08-07T12:17:58Z</time>
      </trkpt>
      <trkpt lat="45.18294" lon="6.33848">
        <ele>1735</ele>
        <time>2014-08-07T12:18:09Z</time>
      </trkpt>
      <trkpt lat="45.18291" lon="6.33861">
        <ele>1734</ele>
        <time>2014-08-07T12:18:29Z</time>
      </trkpt>
      <trkpt lat="45.18282" lon="6.33867">
        <ele>1734</ele>
        <time>2014-08-07T12:18:38Z</time>
      </trkpt>
      <trkpt lat="45.18273" lon="6.33867">
        <ele>1735</ele>
        <time>2014-08-07T12:18:44Z</time>
      </trkpt>
      <trkpt lat="45.18264" lon="6.33876">
        <ele>1734</ele>
        <time>2014-08-07T12:19:10Z</time>
      </trkpt>
      <trkpt lat="45.18255" lon="6.33872">
        <ele>1736</ele>
        <time>2014-08-07T12:19:23Z</time>
      </trkpt>
      <trkpt lat="45.18245" lon="6.33874">
        <ele>1752</ele>
        <time>2014-08-07T12:19:52Z</time>
      </trkpt>
      <trkpt lat="45.18236" lon="6.3388">
        <ele>1751</ele>
        <time>2014-08-07T12:19:58Z</time>
      </trkpt>
      <trkpt lat="45.18227" lon="6.33883">
        <ele>1752</ele>
        <time>2014-08-07T12:20:13Z</time>
      </trkpt>
      <trkpt lat="45.1822" lon="6.33892">
        <ele>1752</ele>
        <time>2014-08-07T12:20:22Z</time>
      </trkpt>
      <trkpt lat="45.18214" lon="6.33903">
        <ele>1752</ele>
        <time>2014-08-07T12:20:38Z</time>
      </trkpt>
      <trkpt lat="45.18209" lon="6.33914">
        <ele>1752</ele>
        <time>2014-08-07T12:20:47Z</time>
      </trkpt>
      <trkpt lat="45.18203" lon="6.33926">
        <ele>1741</ele>
        <time>2014-08-07T12:20:53Z</time>
      </trkpt>
      <trkpt lat="45.18202" lon="6.3394">
        <ele>1741</ele>
        <time>2014-08-07T12:21:03Z</time>
      </trkpt>
      <trkpt lat="45.18202" lon="6.33955">
        <ele>1739</ele>
        <time>2014-08-07T12:21:11Z</time>
      </trkpt>
      <trkpt lat="45.18198" lon="6.33967">
        <ele>1739</ele>
        <time>2014-08-07T12:21:16Z</time>
      </trkpt>
      <trkpt lat="45.18196" lon="6.33981">
        <ele>1738</ele>
        <time>2014-08-07T12:21:21Z</time>
      </trkpt>
      <trkpt lat="45.18191" lon="6.33995">
        <ele>1739</ele>
        <time>2014-08-07T12:21:24Z</time>
      </trkpt>
      <trkpt lat="45.18189" lon="6.34009">
        <ele>1734</ele>
        <time>2014-08-07T12:21:27Z</time>
      </trkpt>
      <trkpt lat="45.18189" lon="6.34023">
        <ele>1733</ele>
        <time>2014-08-07T12:21:33Z</time>
      </trkpt>
      <trkpt lat="45.18189" lon="6.34038">
        <ele>1732</ele>
        <time>2014-08-07T12:21:41Z</time>
      </trkpt>
      <trkpt lat="45.18188" lon="6.34053">
        <ele>1731</ele>
        <time>2014-08-07T12:21:46Z</time>
      </trkpt>
      <trkpt lat="45.1818" lon="6.34062">
        <ele>1732</ele>
        <time>2014-08-07T12:21:55Z</time>
      </trkpt>
      <trkpt lat="45.18172" lon="6.34071">
        <ele>1734</ele>
        <time>2014-08-07T12:22:02Z</time>
      </trkpt>
      <trkpt lat="45.18165" lon="6.3408">
        <ele>1739</ele>
        <time>2014-08-07T12:22:08Z</time>
      </trkpt>
      <trkpt lat="45.18162" lon="6.34094">
        <ele>1739</ele>
        <time>2014-08-07T12:22:15Z</time>
      </trkpt>
      <trkpt lat="45.18154" lon="6.34104">
        <ele>1740</ele>
        <time>2014-08-07T12:22:21Z</time>
      </trkpt>
      <trkpt lat="45.18151" lon="6.34116">
        <ele>1740</ele>
        <time>2014-08-07T12:22:24Z</time>
      </trkpt>
      <trkpt lat="45.18149" lon="6.34129">
        <ele>1739</ele>
        <time>2014-08-07T12:22:28Z</time>
      </trkpt>
      <trkpt lat="45.18149" lon="6.34144">
        <ele>1738</ele>
        <time>2014-08-07T12:22:32Z</time>
      </trkpt>
      <trkpt lat="45.1815" lon="6.34159">
        <ele>1736</ele>
        <time>2014-08-07T12:22:35Z</time>
      </trkpt>
      <trkpt lat="45.18149" lon="6.34174">
        <ele>1736</ele>
        <time>2014-08-07T12:22:40Z</time>
      </trkpt>
      <trkpt lat="45.18146" lon="6.34186">
        <ele>1738</ele>
        <time>2014-08-07T12:22:46Z</time>
      </trkpt>
      <trkpt lat="45.18139" lon="6.34199">
        <ele>1740</ele>
        <time>2014-08-07T12:22:53Z</time>
      </trkpt>
      <trkpt lat="45.18131" lon="6.34206">
        <ele>1741</ele>
        <time>2014-08-07T12:23:01Z</time>
      </trkpt>
      <trkpt lat="45.1814" lon="6.34212">
        <ele>1741</ele>
        <time>2014-08-07T12:23:27Z</time>
      </trkpt>
      <trkpt lat="45.18149" lon="6.34217">
        <ele>1740</ele>
        <time>2014-08-07T12:23:41Z</time>
      </trkpt>
      <trkpt lat="45.18158" lon="6.34213">
        <ele>1739</ele>
        <time>2014-08-07T12:23:49Z</time>
      </trkpt>
      <trkpt lat="45.18167" lon="6.34219">
        <ele>1734</ele>
        <time>2014-08-07T12:23:54Z</time>
      </trkpt>
      <trkpt lat="45.1818" lon="6.34221">
        <ele>1734</ele>
        <time>2014-08-07T12:24:02Z</time>
      </trkpt>
      <trkpt lat="45.18189" lon="6.34212">
        <ele>1734</ele>
        <time>2014-08-07T12:24:08Z</time>
      </trkpt>
      <trkpt lat="45.18196" lon="6.34201">
        <ele>1733</ele>
        <time>2014-08-07T12:24:16Z</time>
      </trkpt>
      <trkpt lat="45.18204" lon="6.34193">
        <ele>1733</ele>
        <time>2014-08-07T12:24:22Z</time>
      </trkpt>
      <trkpt lat="45.18213" lon="6.34188">
        <ele>1732</ele>
        <time>2014-08-07T12:24:29Z</time>
      </trkpt>
      <trkpt lat="45.18222" lon="6.34194">
        <ele>1732</ele>
        <time>2014-08-07T12:24:38Z</time>
      </trkpt>
      <trkpt lat="45.18232" lon="6.34189">
        <ele>1732</ele>
        <time>2014-08-07T12:24:45Z</time>
      </trkpt>
      <trkpt lat="45.18238" lon="6.34178">
        <ele>1730</ele>
        <time>2014-08-07T12:24:51Z</time>
      </trkpt>
      <trkpt lat="45.18247" lon="6.34173">
        <ele>1728</ele>
        <time>2014-08-07T12:25:04Z</time>
      </trkpt>
      <trkpt lat="45.18241" lon="6.34183">
        <ele>1730</ele>
        <time>2014-08-07T12:25:21Z</time>
      </trkpt>
      <trkpt lat="45.18243" lon="6.34196">
        <ele>1732</ele>
        <time>2014-08-07T12:25:48Z</time>
      </trkpt>
      <trkpt lat="45.18252" lon="6.34194">
        <ele>1735</ele>
        <time>2014-08-07T12:26:27Z</time>
      </trkpt>
      <trkpt lat="45.1826" lon="6.34203">
        <ele>1736</ele>
        <time>2014-08-07T12:27:22Z</time>
      </trkpt>
      <trkpt lat="45.18263" lon="6.34215">
        <ele>1738</ele>
        <time>2014-08-07T12:28:00Z</time>
      </trkpt>
      <trkpt lat="45.18271" lon="6.34223">
        <ele>1740</ele>
        <time>2014-08-07T12:28:25Z</time>
      </trkpt>
      <trkpt lat="45.18276" lon="6.34235">
        <ele>1741</ele>
        <time>2014-08-07T12:28:38Z</time>
      </trkpt>
      <trkpt lat="45.18286" lon="6.34233">
        <ele>1741</ele>
        <time>2014-08-07T12:29:01Z</time>
      </trkpt>
      <trkpt lat="45.18296" lon="6.3423">
        <ele>1742</ele>
        <time>2014-08-07T12:29:38Z</time>
      </trkpt>
      <trkpt lat="45.18305" lon="6.34234">
        <ele>1743</ele>
        <time>2014-08-07T12:29:48Z</time>
      </trkpt>
      <trkpt lat="45.18315" lon="6.34236">
        <ele>1746</ele>
        <time>2014-08-07T12:30:04Z</time>
      </trkpt>
      <trkpt lat="45.18325" lon="6.34232">
        <ele>1746</ele>
        <time>2014-08-07T12:30:12Z</time>
      </trkpt>
      <trkpt lat="45.18334" lon="6.34229">
        <ele>1752</ele>
        <time>2014-08-07T12:30:20Z</time>
      </trkpt>
      <trkpt lat="45.18342" lon="6.3422">
        <ele>1750</ele>
        <time>2014-08-07T12:30:37Z</time>
      </trkpt>
      <trkpt lat="45.18353" lon="6.34216">
        <ele>1750</ele>
        <time>2014-08-07T12:30:41Z</time>
      </trkpt>
      <trkpt lat="45.18364" lon="6.34215">
        <ele>1750</ele>
        <time>2014-08-07T12:30:44Z</time>
      </trkpt>
      <trkpt lat="45.18373" lon="6.34219">
        <ele>1751</ele>
        <time>2014-08-07T12:31:01Z</time>
      </trkpt>
      <trkpt lat="45.18383" lon="6.34217">
        <ele>1752</ele>
        <time>2014-08-07T12:31:12Z</time>
      </trkpt>
      <trkpt lat="45.18392" lon="6.34212">
        <ele>1752</ele>
        <time>2014-08-07T12:31:26Z</time>
      </trkpt>
      <trkpt lat="45.18402" lon="6.34211">
        <ele>1753</ele>
        <time>2014-08-07T12:31:44Z</time>
      </trkpt>
      <trkpt lat="45.1841" lon="6.34218">
        <ele>1754</ele>
        <time>2014-08-07T12:32:11Z</time>
      </trkpt>
      <trkpt lat="45.18419" lon="6.34216">
        <ele>1760</ele>
        <time>2014-08-07T12:32:38Z</time>
      </trkpt>
      <trkpt lat="45.18428" lon="6.3421">
        <ele>1759</ele>
        <time>2014-08-07T12:32:46Z</time>
      </trkpt>
      <trkpt lat="45.1844" lon="6.34208">
        <ele>1758</ele>
        <time>2014-08-07T12:32:50Z</time>
      </trkpt>
      <trkpt lat="45.18451" lon="6.34212">
        <ele>1759</ele>
        <time>2014-08-07T12:32:53Z</time>
      </trkpt>
      <trkpt lat="45.18464" lon="6.34217">
        <ele>1759</ele>
        <time>2014-08-07T12:32:56Z</time>
      </trkpt>
      <trkpt lat="45.18475" lon="6.34221">
        <ele>1760</ele>
        <time>2014-08-07T12:32:58Z</time>
      </trkpt>
      <trkpt lat="45.18488" lon="6.34224">
        <ele>1760</ele>
        <time>2014-08-07T12:33:00Z</time>
      </trkpt>
      <trkpt lat="45.18502" lon="6.3423">
        <ele>1760</ele>
        <time>2014-08-07T12:33:02Z</time>
      </trkpt>
      <trkpt lat="45.18515" lon="6.34236">
        <ele>1760</ele>
        <time>2014-08-07T12:33:04Z</time>
      </trkpt>
      <trkpt lat="45.18526" lon="6.3424">
        <ele>1759</ele>
        <time>2014-08-07T12:33:06Z</time>
      </trkpt>
      <trkpt lat="45.18538" lon="6.34243">
        <ele>1758</ele>
        <time>2014-08-07T12:33:08Z</time>
      </trkpt>
      <trkpt lat="45.18548" lon="6.34247">
        <ele>1757</ele>
        <time>2014-08-07T12:33:10Z</time>
      </trkpt>
      <trkpt lat="45.1856" lon="6.34252">
        <ele>1761</ele>
        <time>2014-08-07T12:33:12Z</time>
      </trkpt>
      <trkpt lat="45.18574" lon="6.34259">
        <ele>1759</ele>
        <time>2014-08-07T12:33:14Z</time>
      </trkpt>
      <trkpt lat="45.18587" lon="6.34265">
        <ele>1755</ele>
        <time>2014-08-07T12:33:16Z</time>
      </trkpt>
      <trkpt lat="45.18602" lon="6.34272">
        <ele>1755</ele>
        <time>2014-08-07T12:33:18Z</time>
      </trkpt>
      <trkpt lat="45.18618" lon="6.34282">
        <ele>1754</ele>
        <time>2014-08-07T12:33:20Z</time>
      </trkpt>
      <trkpt lat="45.18627" lon="6.34287">
        <ele>1753</ele>
        <time>2014-08-07T12:33:21Z</time>
      </trkpt>
      <trkpt lat="45.18644" lon="6.34293">
        <ele>1753</ele>
        <time>2014-08-07T12:33:23Z</time>
      </trkpt>
      <trkpt lat="45.18662" lon="6.34302">
        <ele>1752</ele>
        <time>2014-08-07T12:33:25Z</time>
      </trkpt>
      <trkpt lat="45.18672" lon="6.34309">
        <ele>1746</ele>
        <time>2014-08-07T12:33:26Z</time>
      </trkpt>
      <trkpt lat="45.18681" lon="6.34313">
        <ele>1746</ele>
        <time>2014-08-07T12:33:27Z</time>
      </trkpt>
      <trkpt lat="45.1869" lon="6.34318">
        <ele>1746</ele>
        <time>2014-08-07T12:33:28Z</time>
      </trkpt>
      <trkpt lat="45.18699" lon="6.34323">
        <ele>1745</ele>
        <time>2014-08-07T12:33:29Z</time>
      </trkpt>
      <trkpt lat="45.18716" lon="6.34329">
        <ele>1744</ele>
        <time>2014-08-07T12:33:31Z</time>
      </trkpt>
      <trkpt lat="45.18732" lon="6.34341">
        <ele>1745</ele>
        <time>2014-08-07T12:33:33Z</time>
      </trkpt>
      <trkpt lat="45.18742" lon="6.34355">
        <ele>1746</ele>
        <time>2014-08-07T12:33:35Z</time>
      </trkpt>
      <trkpt lat="45.18742" lon="6.34369">
        <ele>1747</ele>
        <time>2014-08-07T12:33:37Z</time>
      </trkpt>
      <trkpt lat="45.18732" lon="6.3438">
        <ele>1748</ele>
        <time>2014-08-07T12:33:39Z</time>
      </trkpt>
      <trkpt lat="45.18722" lon="6.34391">
        <ele>1748</ele>
        <time>2014-08-07T12:33:41Z</time>
      </trkpt>
      <trkpt lat="45.18721" lon="6.3441">
        <ele>1749</ele>
        <time>2014-08-07T12:33:44Z</time>
      </trkpt>
      <trkpt lat="45.18725" lon="6.34422">
        <ele>1754</ele>
        <time>2014-08-07T12:33:46Z</time>
      </trkpt>
      <trkpt lat="45.18739" lon="6.34433">
        <ele>1753</ele>
        <time>2014-08-07T12:33:48Z</time>
      </trkpt>
      <trkpt lat="45.18752" lon="6.34436">
        <ele>1747</ele>
        <time>2014-08-07T12:33:50Z</time>
      </trkpt>
      <trkpt lat="45.18764" lon="6.34436">
        <ele>1746</ele>
        <time>2014-08-07T12:33:52Z</time>
      </trkpt>
      <trkpt lat="45.18778" lon="6.34437">
        <ele>1746</ele>
        <time>2014-08-07T12:33:54Z</time>
      </trkpt>
      <trkpt lat="45.18792" lon="6.34437">
        <ele>1745</ele>
        <time>2014-08-07T12:33:56Z</time>
      </trkpt>
      <trkpt lat="45.18806" lon="6.34437">
        <ele>1743</ele>
        <time>2014-08-07T12:33:58Z</time>
      </trkpt>
      <trkpt lat="45.1882" lon="6.34436">
        <ele>1741</ele>
        <time>2014-08-07T12:34:00Z</time>
      </trkpt>
      <trkpt lat="45.18836" lon="6.34435">
        <ele>1737</ele>
        <time>2014-08-07T12:34:02Z</time>
      </trkpt>
      <trkpt lat="45.18853" lon="6.34433">
        <ele>1738</ele>
        <time>2014-08-07T12:34:04Z</time>
      </trkpt>
      <trkpt lat="45.1887" lon="6.34431">
        <ele>1739</ele>
        <time>2014-08-07T12:34:06Z</time>
      </trkpt>
      <trkpt lat="45.18886" lon="6.34426">
        <ele>1738</ele>
        <time>2014-08-07T12:34:08Z</time>
      </trkpt>
      <trkpt lat="45.189" lon="6.34415">
        <ele>1729</ele>
        <time>2014-08-07T12:34:10Z</time>
      </trkpt>
      <trkpt lat="45.18909" lon="6.34397">
        <ele>1729</ele>
        <time>2014-08-07T12:34:12Z</time>
      </trkpt>
      <trkpt lat="45.18917" lon="6.34382">
        <ele>1720</ele>
        <time>2014-08-07T12:34:14Z</time>
      </trkpt>
      <trkpt lat="45.18928" lon="6.34375">
        <ele>1719</ele>
        <time>2014-08-07T12:34:16Z</time>
      </trkpt>
      <trkpt lat="45.18942" lon="6.34376">
        <ele>1718</ele>
        <time>2014-08-07T12:34:18Z</time>
      </trkpt>
      <trkpt lat="45.18955" lon="6.34381">
        <ele>1717</ele>
        <time>2014-08-07T12:34:20Z</time>
      </trkpt>
      <trkpt lat="45.18968" lon="6.3439">
        <ele>1716</ele>
        <time>2014-08-07T12:34:22Z</time>
      </trkpt>
      <trkpt lat="45.18976" lon="6.34404">
        <ele>1715</ele>
        <time>2014-08-07T12:34:24Z</time>
      </trkpt>
      <trkpt lat="45.18981" lon="6.34418">
        <ele>1722</ele>
        <time>2014-08-07T12:34:26Z</time>
      </trkpt>
      <trkpt lat="45.18985" lon="6.34437">
        <ele>1724</ele>
        <time>2014-08-07T12:34:28Z</time>
      </trkpt>
      <trkpt lat="45.1899" lon="6.34458">
        <ele>1727</ele>
        <time>2014-08-07T12:34:30Z</time>
      </trkpt>
      <trkpt lat="45.18993" lon="6.34478">
        <ele>1729</ele>
        <time>2014-08-07T12:34:32Z</time>
      </trkpt>
      <trkpt lat="45.18996" lon="6.34499">
        <ele>1728</ele>
        <time>2014-08-07T12:34:34Z</time>
      </trkpt>
      <trkpt lat="45.19002" lon="6.34519">
        <ele>1729</ele>
        <time>2014-08-07T12:34:36Z</time>
      </trkpt>
      <trkpt lat="45.19008" lon="6.34538">
        <ele>1730</ele>
        <time>2014-08-07T12:34:38Z</time>
      </trkpt>
      <trkpt lat="45.19013" lon="6.34557">
        <ele>1733</ele>
        <time>2014-08-07T12:34:40Z</time>
      </trkpt>
      <trkpt lat="45.19018" lon="6.34575">
        <ele>1735</ele>
        <time>2014-08-07T12:34:42Z</time>
      </trkpt>
      <trkpt lat="45.19025" lon="6.34589">
        <ele>1741</ele>
        <time>2014-08-07T12:34:44Z</time>
      </trkpt>
      <trkpt lat="45.19036" lon="6.34589">
        <ele>1740</ele>
        <time>2014-08-07T12:34:46Z</time>
      </trkpt>
      <trkpt lat="45.1905" lon="6.3459">
        <ele>1738</ele>
        <time>2014-08-07T12:34:49Z</time>
      </trkpt>
      <trkpt lat="45.1906" lon="6.34595">
        <ele>1736</ele>
        <time>2014-08-07T12:34:51Z</time>
      </trkpt>
      <trkpt lat="45.19072" lon="6.346">
        <ele>1735</ele>
        <time>2014-08-07T12:34:53Z</time>
      </trkpt>
      <trkpt lat="45.19085" lon="6.34596">
        <ele>1733</ele>
        <time>2014-08-07T12:34:55Z</time>
      </trkpt>
      <trkpt lat="45.19089" lon="6.34582">
        <ele>1727</ele>
        <time>2014-08-07T12:34:57Z</time>
      </trkpt>
      <trkpt lat="45.19092" lon="6.34566">
        <ele>1727</ele>
        <time>2014-08-07T12:34:59Z</time>
      </trkpt>
      <trkpt lat="45.19092" lon="6.34551">
        <ele>1727</ele>
        <time>2014-08-07T12:35:01Z</time>
      </trkpt>
      <trkpt lat="45.19092" lon="6.34537">
        <ele>1725</ele>
        <time>2014-08-07T12:35:03Z</time>
      </trkpt>
      <trkpt lat="45.1909" lon="6.34521">
        <ele>1723</ele>
        <time>2014-08-07T12:35:05Z</time>
      </trkpt>
      <trkpt lat="45.19089" lon="6.34506">
        <ele>1719</ele>
        <time>2014-08-07T12:35:07Z</time>
      </trkpt>
      <trkpt lat="45.19087" lon="6.34491">
        <ele>1715</ele>
        <time>2014-08-07T12:35:09Z</time>
      </trkpt>
      <trkpt lat="45.19086" lon="6.34474">
        <ele>1714</ele>
        <time>2014-08-07T12:35:11Z</time>
      </trkpt>
      <trkpt lat="45.19087" lon="6.34457">
        <ele>1712</ele>
        <time>2014-08-07T12:35:13Z</time>
      </trkpt>
      <trkpt lat="45.19091" lon="6.34442">
        <ele>1709</ele>
        <time>2014-08-07T12:35:15Z</time>
      </trkpt>
      <trkpt lat="45.19095" lon="6.3443">
        <ele>1707</ele>
        <time>2014-08-07T12:35:17Z</time>
      </trkpt>
      <trkpt lat="45.19102" lon="6.34415">
        <ele>1701</ele>
        <time>2014-08-07T12:35:19Z</time>
      </trkpt>
      <trkpt lat="45.19109" lon="6.34398">
        <ele>1701</ele>
        <time>2014-08-07T12:35:21Z</time>
      </trkpt>
      <trkpt lat="45.19114" lon="6.3438">
        <ele>1700</ele>
        <time>2014-08-07T12:35:23Z</time>
      </trkpt>
      <trkpt lat="45.1912" lon="6.34362">
        <ele>1699</ele>
        <time>2014-08-07T12:35:25Z</time>
      </trkpt>
      <trkpt lat="45.19128" lon="6.34343">
        <ele>1699</ele>
        <time>2014-08-07T12:35:27Z</time>
      </trkpt>
      <trkpt lat="45.19134" lon="6.34324">
        <ele>1690</ele>
        <time>2014-08-07T12:35:29Z</time>
      </trkpt>
      <trkpt lat="45.1914" lon="6.34308">
        <ele>1690</ele>
        <time>2014-08-07T12:35:31Z</time>
      </trkpt>
      <trkpt lat="45.19145" lon="6.34295">
        <ele>1689</ele>
        <time>2014-08-07T12:35:33Z</time>
      </trkpt>
      <trkpt lat="45.19152" lon="6.34285">
        <ele>1688</ele>
        <time>2014-08-07T12:35:35Z</time>
      </trkpt>
      <trkpt lat="45.19163" lon="6.34282">
        <ele>1689</ele>
        <time>2014-08-07T12:35:37Z</time>
      </trkpt>
      <trkpt lat="45.19173" lon="6.34287">
        <ele>1696</ele>
        <time>2014-08-07T12:35:39Z</time>
      </trkpt>
      <trkpt lat="45.19186" lon="6.34293">
        <ele>1696</ele>
        <time>2014-08-07T12:35:41Z</time>
      </trkpt>
      <trkpt lat="45.19199" lon="6.34298">
        <ele>1697</ele>
        <time>2014-08-07T12:35:43Z</time>
      </trkpt>
      <trkpt lat="45.19213" lon="6.34302">
        <ele>1697</ele>
        <time>2014-08-07T12:35:45Z</time>
      </trkpt>
      <trkpt lat="45.19227" lon="6.34306">
        <ele>1697</ele>
        <time>2014-08-07T12:35:47Z</time>
      </trkpt>
      <trkpt lat="45.19243" lon="6.34309">
        <ele>1697</ele>
        <time>2014-08-07T12:35:49Z</time>
      </trkpt>
      <trkpt lat="45.19259" lon="6.34316">
        <ele>1695</ele>
        <time>2014-08-07T12:35:51Z</time>
      </trkpt>
      <trkpt lat="45.19275" lon="6.34322">
        <ele>1694</ele>
        <time>2014-08-07T12:35:53Z</time>
      </trkpt>
      <trkpt lat="45.1929" lon="6.34327">
        <ele>1693</ele>
        <time>2014-08-07T12:35:55Z</time>
      </trkpt>
      <trkpt lat="45.19306" lon="6.34331">
        <ele>1693</ele>
        <time>2014-08-07T12:35:57Z</time>
      </trkpt>
      <trkpt lat="45.19321" lon="6.34335">
        <ele>1697</ele>
        <time>2014-08-07T12:35:59Z</time>
      </trkpt>
      <trkpt lat="45.19337" lon="6.3434">
        <ele>1694</ele>
        <time>2014-08-07T12:36:01Z</time>
      </trkpt>
      <trkpt lat="45.19353" lon="6.34346">
        <ele>1696</ele>
        <time>2014-08-07T12:36:03Z</time>
      </trkpt>
      <trkpt lat="45.19369" lon="6.34353">
        <ele>1696</ele>
        <time>2014-08-07T12:36:05Z</time>
      </trkpt>
      <trkpt lat="45.19379" lon="6.34357">
        <ele>1696</ele>
        <time>2014-08-07T12:36:06Z</time>
      </trkpt>
      <trkpt lat="45.19396" lon="6.34362">
        <ele>1696</ele>
        <time>2014-08-07T12:36:08Z</time>
      </trkpt>
      <trkpt lat="45.19411" lon="6.34361">
        <ele>1695</ele>
        <time>2014-08-07T12:36:10Z</time>
      </trkpt>
      <trkpt lat="45.19426" lon="6.34356">
        <ele>1693</ele>
        <time>2014-08-07T12:36:12Z</time>
      </trkpt>
      <trkpt lat="45.1944" lon="6.34351">
        <ele>1693</ele>
        <time>2014-08-07T12:36:14Z</time>
      </trkpt>
      <trkpt lat="45.19454" lon="6.34344">
        <ele>1693</ele>
        <time>2014-08-07T12:36:16Z</time>
      </trkpt>
      <trkpt lat="45.19468" lon="6.3434">
        <ele>1692</ele>
        <time>2014-08-07T12:36:18Z</time>
      </trkpt>
      <trkpt lat="45.19479" lon="6.34344">
        <ele>1692</ele>
        <time>2014-08-07T12:36:20Z</time>
      </trkpt>
      <trkpt lat="45.19492" lon="6.34353">
        <ele>1692</ele>
        <time>2014-08-07T12:36:22Z</time>
      </trkpt>
      <trkpt lat="45.19502" lon="6.34351">
        <ele>1692</ele>
        <time>2014-08-07T12:36:24Z</time>
      </trkpt>
      <trkpt lat="45.19509" lon="6.34337">
        <ele>1691</ele>
        <time>2014-08-07T12:36:26Z</time>
      </trkpt>
      <trkpt lat="45.1951" lon="6.34324">
        <ele>1686</ele>
        <time>2014-08-07T12:36:28Z</time>
      </trkpt>
      <trkpt lat="45.19509" lon="6.34307">
        <ele>1685</ele>
        <time>2014-08-07T12:36:31Z</time>
      </trkpt>
      <trkpt lat="45.19514" lon="6.34293">
        <ele>1684</ele>
        <time>2014-08-07T12:36:34Z</time>
      </trkpt>
      <trkpt lat="45.19524" lon="6.34288">
        <ele>1683</ele>
        <time>2014-08-07T12:36:37Z</time>
      </trkpt>
      <trkpt lat="45.19536" lon="6.34288">
        <ele>1684</ele>
        <time>2014-08-07T12:36:40Z</time>
      </trkpt>
      <trkpt lat="45.19549" lon="6.34291">
        <ele>1684</ele>
        <time>2014-08-07T12:36:43Z</time>
      </trkpt>
      <trkpt lat="45.1956" lon="6.3429">
        <ele>1684</ele>
        <time>2014-08-07T12:36:46Z</time>
      </trkpt>
      <trkpt lat="45.1957" lon="6.34288">
        <ele>1684</ele>
        <time>2014-08-07T12:36:49Z</time>
      </trkpt>
      <trkpt lat="45.19581" lon="6.3429">
        <ele>1684</ele>
        <time>2014-08-07T12:36:52Z</time>
      </trkpt>
      <trkpt lat="45.19592" lon="6.34291">
        <ele>1686</ele>
        <time>2014-08-07T12:36:56Z</time>
      </trkpt>
      <trkpt lat="45.19602" lon="6.34293">
        <ele>1686</ele>
        <time>2014-08-07T12:37:00Z</time>
      </trkpt>
      <trkpt lat="45.19614" lon="6.34295">
        <ele>1686</ele>
        <time>2014-08-07T12:37:04Z</time>
      </trkpt>
      <trkpt lat="45.19623" lon="6.34299">
        <ele>1687</ele>
        <time>2014-08-07T12:37:07Z</time>
      </trkpt>
      <trkpt lat="45.19634" lon="6.34298">
        <ele>1687</ele>
        <time>2014-08-07T12:37:11Z</time>
      </trkpt>
      <trkpt lat="45.19645" lon="6.34302">
        <ele>1687</ele>
        <time>2014-08-07T12:37:14Z</time>
      </trkpt>
      <trkpt lat="45.19656" lon="6.34309">
        <ele>1688</ele>
        <time>2014-08-07T12:37:18Z</time>
      </trkpt>
      <trkpt lat="45.19664" lon="6.34316">
        <ele>1690</ele>
        <time>2014-08-07T12:37:22Z</time>
      </trkpt>
      <trkpt lat="45.19674" lon="6.34321">
        <ele>1690</ele>
        <time>2014-08-07T12:37:26Z</time>
      </trkpt>
      <trkpt lat="45.19684" lon="6.34327">
        <ele>1690</ele>
        <time>2014-08-07T12:37:30Z</time>
      </trkpt>
      <trkpt lat="45.19694" lon="6.34331">
        <ele>1689</ele>
        <time>2014-08-07T12:37:35Z</time>
      </trkpt>
      <trkpt lat="45.19703" lon="6.34335">
        <ele>1698</ele>
        <time>2014-08-07T12:37:42Z</time>
      </trkpt>
      <trkpt lat="45.19713" lon="6.34341">
        <ele>1698</ele>
        <time>2014-08-07T12:37:46Z</time>
      </trkpt>
      <trkpt lat="45.19722" lon="6.34346">
        <ele>1698</ele>
        <time>2014-08-07T12:37:49Z</time>
      </trkpt>
      <trkpt lat="45.19731" lon="6.34353">
        <ele>1698</ele>
        <time>2014-08-07T12:37:53Z</time>
      </trkpt>
      <trkpt lat="45.1974" lon="6.34359">
        <ele>1698</ele>
        <time>2014-08-07T12:37:56Z</time>
      </trkpt>
      <trkpt lat="45.19752" lon="6.34362">
        <ele>1697</ele>
        <time>2014-08-07T12:38:00Z</time>
      </trkpt>
      <trkpt lat="45.19761" lon="6.34365">
        <ele>1697</ele>
        <time>2014-08-07T12:38:05Z</time>
      </trkpt>
      <trkpt lat="45.19771" lon="6.34371">
        <ele>1698</ele>
        <time>2014-08-07T12:38:09Z</time>
      </trkpt>
      <trkpt lat="45.19782" lon="6.34378">
        <ele>1698</ele>
        <time>2014-08-07T12:38:13Z</time>
      </trkpt>
      <trkpt lat="45.19791" lon="6.34382">
        <ele>1699</ele>
        <time>2014-08-07T12:38:16Z</time>
      </trkpt>
      <trkpt lat="45.19801" lon="6.34387">
        <ele>1699</ele>
        <time>2014-08-07T12:38:21Z</time>
      </trkpt>
      <trkpt lat="45.19809" lon="6.34393">
        <ele>1699</ele>
        <time>2014-08-07T12:38:25Z</time>
      </trkpt>
      <trkpt lat="45.1982" lon="6.34397">
        <ele>1700</ele>
        <time>2014-08-07T12:38:29Z</time>
      </trkpt>
      <trkpt lat="45.19829" lon="6.34402">
        <ele>1701</ele>
        <time>2014-08-07T12:38:33Z</time>
      </trkpt>
      <trkpt lat="45.19838" lon="6.34406">
        <ele>1701</ele>
        <time>2014-08-07T12:38:38Z</time>
      </trkpt>
      <trkpt lat="45.19847" lon="6.34409">
        <ele>1700</ele>
        <time>2014-08-07T12:38:43Z</time>
      </trkpt>
      <trkpt lat="45.19857" lon="6.34415">
        <ele>1699</ele>
        <time>2014-08-07T12:38:47Z</time>
      </trkpt>
      <trkpt lat="45.19866" lon="6.34417">
        <ele>1709</ele>
        <time>2014-08-07T12:38:51Z</time>
      </trkpt>
      <trkpt lat="45.19878" lon="6.34418">
        <ele>1709</ele>
        <time>2014-08-07T12:38:56Z</time>
      </trkpt>
      <trkpt lat="45.19887" lon="6.34422">
        <ele>1709</ele>
        <time>2014-08-07T12:38:59Z</time>
      </trkpt>
      <trkpt lat="45.19896" lon="6.34424">
        <ele>1708</ele>
        <time>2014-08-07T12:39:02Z</time>
      </trkpt>
      <trkpt lat="45.19908" lon="6.34426">
        <ele>1706</ele>
        <time>2014-08-07T12:39:06Z</time>
      </trkpt>
      <trkpt lat="45.19919" lon="6.34427">
        <ele>1705</ele>
        <time>2014-08-07T12:39:09Z</time>
      </trkpt>
      <trkpt lat="45.1993" lon="6.34431">
        <ele>1706</ele>
        <time>2014-08-07T12:39:13Z</time>
      </trkpt>
      <trkpt lat="45.1994" lon="6.34433">
        <ele>1707</ele>
        <time>2014-08-07T12:39:16Z</time>
      </trkpt>
      <trkpt lat="45.1995" lon="6.34432">
        <ele>1707</ele>
        <time>2014-08-07T12:39:19Z</time>
      </trkpt>
      <trkpt lat="45.19962" lon="6.34436">
        <ele>1707</ele>
        <time>2014-08-07T12:39:22Z</time>
      </trkpt>
      <trkpt lat="45.19972" lon="6.34442">
        <ele>1707</ele>
        <time>2014-08-07T12:39:25Z</time>
      </trkpt>
      <trkpt lat="45.19981" lon="6.3445">
        <ele>1708</ele>
        <time>2014-08-07T12:39:28Z</time>
      </trkpt>
      <trkpt lat="45.19987" lon="6.34462">
        <ele>1710</ele>
        <time>2014-08-07T12:39:31Z</time>
      </trkpt>
      <trkpt lat="45.19993" lon="6.34476">
        <ele>1712</ele>
        <time>2014-08-07T12:39:35Z</time>
      </trkpt>
      <trkpt lat="45.20003" lon="6.34477">
        <ele>1712</ele>
        <time>2014-08-07T12:39:39Z</time>
      </trkpt>
      <trkpt lat="45.20014" lon="6.34477">
        <ele>1711</ele>
        <time>2014-08-07T12:39:43Z</time>
      </trkpt>
      <trkpt lat="45.20023" lon="6.3447">
        <ele>1710</ele>
        <time>2014-08-07T12:39:46Z</time>
      </trkpt>
      <trkpt lat="45.20032" lon="6.34464">
        <ele>1709</ele>
        <time>2014-08-07T12:39:49Z</time>
      </trkpt>
      <trkpt lat="45.20042" lon="6.34459">
        <ele>1709</ele>
        <time>2014-08-07T12:39:52Z</time>
      </trkpt>
      <trkpt lat="45.20052" lon="6.34458">
        <ele>1709</ele>
        <time>2014-08-07T12:39:56Z</time>
      </trkpt>
      <trkpt lat="45.20062" lon="6.34459">
        <ele>1709</ele>
        <time>2014-08-07T12:39:59Z</time>
      </trkpt>
      <trkpt lat="45.20074" lon="6.34463">
        <ele>1710</ele>
        <time>2014-08-07T12:40:03Z</time>
      </trkpt>
      <trkpt lat="45.20086" lon="6.34465">
        <ele>1709</ele>
        <time>2014-08-07T12:40:07Z</time>
      </trkpt>
      <trkpt lat="45.20096" lon="6.34465">
        <ele>1708</ele>
        <time>2014-08-07T12:40:11Z</time>
      </trkpt>
      <trkpt lat="45.20107" lon="6.34467">
        <ele>1708</ele>
        <time>2014-08-07T12:40:15Z</time>
      </trkpt>
      <trkpt lat="45.20118" lon="6.34468">
        <ele>1707</ele>
        <time>2014-08-07T12:40:18Z</time>
      </trkpt>
      <trkpt lat="45.20129" lon="6.34472">
        <ele>1707</ele>
        <time>2014-08-07T12:40:21Z</time>
      </trkpt>
      <trkpt lat="45.20137" lon="6.34482">
        <ele>1708</ele>
        <time>2014-08-07T12:40:24Z</time>
      </trkpt>
      <trkpt lat="45.20143" lon="6.34498">
        <ele>1709</ele>
        <time>2014-08-07T12:40:28Z</time>
      </trkpt>
      <trkpt lat="45.20148" lon="6.34514">
        <ele>1722</ele>
        <time>2014-08-07T12:40:32Z</time>
      </trkpt>
      <trkpt lat="45.20157" lon="6.34521">
        <ele>1723</ele>
        <time>2014-08-07T12:40:36Z</time>
      </trkpt>
      <trkpt lat="45.20168" lon="6.34527">
        <ele>1720</ele>
        <time>2014-08-07T12:40:40Z</time>
      </trkpt>
      <trkpt lat="45.20179" lon="6.34525">
        <ele>1719</ele>
        <time>2014-08-07T12:40:44Z</time>
      </trkpt>
      <trkpt lat="45.20192" lon="6.34527">
        <ele>1720</ele>
        <time>2014-08-07T12:40:48Z</time>
      </trkpt>
      <trkpt lat="45.202" lon="6.3453">
        <ele>1721</ele>
        <time>2014-08-07T12:40:50Z</time>
      </trkpt>
      <trkpt lat="45.20211" lon="6.34534">
        <ele>1721</ele>
        <time>2014-08-07T12:40:53Z</time>
      </trkpt>
      <trkpt lat="45.20221" lon="6.34538">
        <ele>1721</ele>
        <time>2014-08-07T12:40:57Z</time>
      </trkpt>
      <trkpt lat="45.20229" lon="6.3455">
        <ele>1722</ele>
        <time>2014-08-07T12:41:00Z</time>
      </trkpt>
      <trkpt lat="45.20242" lon="6.34555">
        <ele>1723</ele>
        <time>2014-08-07T12:41:03Z</time>
      </trkpt>
      <trkpt lat="45.20253" lon="6.34549">
        <ele>1721</ele>
        <time>2014-08-07T12:41:07Z</time>
      </trkpt>
      <trkpt lat="45.20253" lon="6.34534">
        <ele>1719</ele>
        <time>2014-08-07T12:41:10Z</time>
      </trkpt>
      <trkpt lat="45.20251" lon="6.3452">
        <ele>1716</ele>
        <time>2014-08-07T12:41:13Z</time>
      </trkpt>
      <trkpt lat="45.20247" lon="6.34505">
        <ele>1713</ele>
        <time>2014-08-07T12:41:16Z</time>
      </trkpt>
      <trkpt lat="45.20244" lon="6.34492">
        <ele>1708</ele>
        <time>2014-08-07T12:41:19Z</time>
      </trkpt>
      <trkpt lat="45.2024" lon="6.34477">
        <ele>1706</ele>
        <time>2014-08-07T12:41:22Z</time>
      </trkpt>
      <trkpt lat="45.20237" lon="6.34462">
        <ele>1703</ele>
        <time>2014-08-07T12:41:25Z</time>
      </trkpt>
      <trkpt lat="45.2024" lon="6.3445">
        <ele>1702</ele>
        <time>2014-08-07T12:41:29Z</time>
      </trkpt>
      <trkpt lat="45.20245" lon="6.34438">
        <ele>1700</ele>
        <time>2014-08-07T12:41:37Z</time>
      </trkpt>
      <trkpt lat="45.20254" lon="6.34442">
        <ele>1701</ele>
        <time>2014-08-07T12:41:48Z</time>
      </trkpt>
      <trkpt lat="45.20256" lon="6.34457">
        <ele>1703</ele>
        <time>2014-08-07T12:41:57Z</time>
      </trkpt>
      <trkpt lat="45.20256" lon="6.34471">
        <ele>1705</ele>
        <time>2014-08-07T12:42:07Z</time>
      </trkpt>
      <trkpt lat="45.2026" lon="6.34484">
        <ele>1707</ele>
        <time>2014-08-07T12:42:17Z</time>
      </trkpt>
      <trkpt lat="45.20257" lon="6.34497">
        <ele>1709</ele>
        <time>2014-08-07T12:42:27Z</time>
      </trkpt>
      <trkpt lat="45.20263" lon="6.34507">
        <ele>1715</ele>
        <time>2014-08-07T12:42:35Z</time>
      </trkpt>
      <trkpt lat="45.2027" lon="6.34519">
        <ele>1717</ele>
        <time>2014-08-07T12:42:47Z</time>
      </trkpt>
      <trkpt lat="45.20274" lon="6.34532">
        <ele>1719</ele>
        <time>2014-08-07T12:42:59Z</time>
      </trkpt>
      <trkpt lat="45.2028" lon="6.34545">
        <ele>1720</ele>
        <time>2014-08-07T12:43:08Z</time>
      </trkpt>
      <trkpt lat="45.20284" lon="6.34557">
        <ele>1722</ele>
        <time>2014-08-07T12:43:19Z</time>
      </trkpt>
      <trkpt lat="45.20287" lon="6.3457">
        <ele>1723</ele>
        <time>2014-08-07T12:43:29Z</time>
      </trkpt>
      <trkpt lat="45.20291" lon="6.34583">
        <ele>1733</ele>
        <time>2014-08-07T12:43:40Z</time>
      </trkpt>
      <trkpt lat="45.20295" lon="6.34595">
        <ele>1734</ele>
        <time>2014-08-07T12:43:48Z</time>
      </trkpt>
      <trkpt lat="45.20298" lon="6.34609">
        <ele>1735</ele>
        <time>2014-08-07T12:43:58Z</time>
      </trkpt>
      <trkpt lat="45.20297" lon="6.34623">
        <ele>1736</ele>
        <time>2014-08-07T12:44:07Z</time>
      </trkpt>
      <trkpt lat="45.20293" lon="6.34636">
        <ele>1737</ele>
        <time>2014-08-07T12:44:15Z</time>
      </trkpt>
      <trkpt lat="45.20298" lon="6.34648">
        <ele>1738</ele>
        <time>2014-08-07T12:44:24Z</time>
      </trkpt>
      <trkpt lat="45.203" lon="6.34661">
        <ele>1739</ele>
        <time>2014-08-07T12:44:31Z</time>
      </trkpt>
      <trkpt lat="45.20301" lon="6.34675">
        <ele>1749</ele>
        <time>2014-08-07T12:44:41Z</time>
      </trkpt>
      <trkpt lat="45.20298" lon="6.34688">
        <ele>1749</ele>
        <time>2014-08-07T12:44:49Z</time>
      </trkpt>
      <trkpt lat="45.20299" lon="6.34701">
        <ele>1750</ele>
        <time>2014-08-07T12:44:58Z</time>
      </trkpt>
      <trkpt lat="45.203" lon="6.34715">
        <ele>1751</ele>
        <time>2014-08-07T12:45:07Z</time>
      </trkpt>
      <trkpt lat="45.20299" lon="6.34729">
        <ele>1752</ele>
        <time>2014-08-07T12:45:17Z</time>
      </trkpt>
      <trkpt lat="45.20298" lon="6.34743">
        <ele>1753</ele>
        <time>2014-08-07T12:45:27Z</time>
      </trkpt>
      <trkpt lat="45.20305" lon="6.34754">
        <ele>1763</ele>
        <time>2014-08-07T12:45:43Z</time>
      </trkpt>
      <trkpt lat="45.20315" lon="6.34753">
        <ele>1762</ele>
        <time>2014-08-07T12:45:52Z</time>
      </trkpt>
      <trkpt lat="45.20322" lon="6.34744">
        <ele>1756</ele>
        <time>2014-08-07T12:46:05Z</time>
      </trkpt>
      <trkpt lat="45.20328" lon="6.34732">
        <ele>1755</ele>
        <time>2014-08-07T12:46:12Z</time>
      </trkpt>
      <trkpt lat="45.20336" lon="6.34724">
        <ele>1759</ele>
        <time>2014-08-07T12:46:20Z</time>
      </trkpt>
      <trkpt lat="45.20344" lon="6.34715">
        <ele>1758</ele>
        <time>2014-08-07T12:46:28Z</time>
      </trkpt>
      <trkpt lat="45.20354" lon="6.34722">
        <ele>1759</ele>
        <time>2014-08-07T12:46:38Z</time>
      </trkpt>
      <trkpt lat="45.20359" lon="6.34733">
        <ele>1760</ele>
        <time>2014-08-07T12:46:46Z</time>
      </trkpt>
      <trkpt lat="45.20364" lon="6.34746">
        <ele>1761</ele>
        <time>2014-08-07T12:46:53Z</time>
      </trkpt>
      <trkpt lat="45.20374" lon="6.34752">
        <ele>1772</ele>
        <time>2014-08-07T12:47:03Z</time>
      </trkpt>
      <trkpt lat="45.20384" lon="6.3475">
        <ele>1764</ele>
        <time>2014-08-07T12:47:12Z</time>
      </trkpt>
      <trkpt lat="45.20394" lon="6.34748">
        <ele>1766</ele>
        <time>2014-08-07T12:47:19Z</time>
      </trkpt>
      <trkpt lat="45.20403" lon="6.3474">
        <ele>1767</ele>
        <time>2014-08-07T12:47:27Z</time>
      </trkpt>
      <trkpt lat="45.20411" lon="6.34733">
        <ele>1767</ele>
        <time>2014-08-07T12:47:34Z</time>
      </trkpt>
      <trkpt lat="45.20421" lon="6.34727">
        <ele>1770</ele>
        <time>2014-08-07T12:47:42Z</time>
      </trkpt>
      <trkpt lat="45.2043" lon="6.34726">
        <ele>1769</ele>
        <time>2014-08-07T12:47:48Z</time>
      </trkpt>
      <trkpt lat="45.20439" lon="6.34721">
        <ele>1769</ele>
        <time>2014-08-07T12:47:56Z</time>
      </trkpt>
      <trkpt lat="45.20449" lon="6.34722">
        <ele>1769</ele>
        <time>2014-08-07T12:48:04Z</time>
      </trkpt>
      <trkpt lat="45.20456" lon="6.34732">
        <ele>1770</ele>
        <time>2014-08-07T12:48:12Z</time>
      </trkpt>
      <trkpt lat="45.20461" lon="6.34744">
        <ele>1771</ele>
        <time>2014-08-07T12:48:16Z</time>
      </trkpt>
      <trkpt lat="45.20465" lon="6.34757">
        <ele>1780</ele>
        <time>2014-08-07T12:48:25Z</time>
      </trkpt>
      <trkpt lat="45.20465" lon="6.3477">
        <ele>1781</ele>
        <time>2014-08-07T12:48:32Z</time>
      </trkpt>
      <trkpt lat="45.20464" lon="6.34786">
        <ele>1782</ele>
        <time>2014-08-07T12:48:38Z</time>
      </trkpt>
      <trkpt lat="45.20465" lon="6.34799">
        <ele>1783</ele>
        <time>2014-08-07T12:48:46Z</time>
      </trkpt>
      <trkpt lat="45.20461" lon="6.34811">
        <ele>1784</ele>
        <time>2014-08-07T12:48:54Z</time>
      </trkpt>
      <trkpt lat="45.20458" lon="6.34825">
        <ele>1784</ele>
        <time>2014-08-07T12:49:01Z</time>
      </trkpt>
      <trkpt lat="45.20461" lon="6.34839">
        <ele>1793</ele>
        <time>2014-08-07T12:49:11Z</time>
      </trkpt>
      <trkpt lat="45.20466" lon="6.3485">
        <ele>1793</ele>
        <time>2014-08-07T12:49:17Z</time>
      </trkpt>
      <trkpt lat="45.20471" lon="6.34862">
        <ele>1794</ele>
        <time>2014-08-07T12:49:23Z</time>
      </trkpt>
      <trkpt lat="45.20476" lon="6.34875">
        <ele>1795</ele>
        <time>2014-08-07T12:49:28Z</time>
      </trkpt>
      <trkpt lat="45.20481" lon="6.34891">
        <ele>1796</ele>
        <time>2014-08-07T12:49:33Z</time>
      </trkpt>
      <trkpt lat="45.20491" lon="6.3489">
        <ele>1796</ele>
        <time>2014-08-07T12:49:38Z</time>
      </trkpt>
      <trkpt lat="45.205" lon="6.34886">
        <ele>1796</ele>
        <time>2014-08-07T12:49:41Z</time>
      </trkpt>
      <trkpt lat="45.2051" lon="6.34878">
        <ele>1797</ele>
        <time>2014-08-07T12:49:45Z</time>
      </trkpt>
      <trkpt lat="45.20521" lon="6.34867">
        <ele>1796</ele>
        <time>2014-08-07T12:49:50Z</time>
      </trkpt>
      <trkpt lat="45.20528" lon="6.34857">
        <ele>1796</ele>
        <time>2014-08-07T12:49:53Z</time>
      </trkpt>
      <trkpt lat="45.20536" lon="6.34844">
        <ele>1796</ele>
        <time>2014-08-07T12:49:56Z</time>
      </trkpt>
      <trkpt lat="45.20545" lon="6.34832">
        <ele>1792</ele>
        <time>2014-08-07T12:50:00Z</time>
      </trkpt>
      <trkpt lat="45.2055" lon="6.34821">
        <ele>1792</ele>
        <time>2014-08-07T12:50:04Z</time>
      </trkpt>
      <trkpt lat="45.2055" lon="6.34805">
        <ele>1791</ele>
        <time>2014-08-07T12:50:07Z</time>
      </trkpt>
      <trkpt lat="45.20547" lon="6.34791">
        <ele>1790</ele>
        <time>2014-08-07T12:50:10Z</time>
      </trkpt>
      <trkpt lat="45.20547" lon="6.34775">
        <ele>1790</ele>
        <time>2014-08-07T12:50:12Z</time>
      </trkpt>
      <trkpt lat="45.20547" lon="6.34761">
        <ele>1789</ele>
        <time>2014-08-07T12:50:14Z</time>
      </trkpt>
      <trkpt lat="45.20548" lon="6.34747">
        <ele>1782</ele>
        <time>2014-08-07T12:50:16Z</time>
      </trkpt>
      <trkpt lat="45.20548" lon="6.34733">
        <ele>1781</ele>
        <time>2014-08-07T12:50:18Z</time>
      </trkpt>
      <trkpt lat="45.20552" lon="6.34716">
        <ele>1780</ele>
        <time>2014-08-07T12:50:20Z</time>
      </trkpt>
      <trkpt lat="45.20556" lon="6.34704">
        <ele>1780</ele>
        <time>2014-08-07T12:50:22Z</time>
      </trkpt>
      <trkpt lat="45.20562" lon="6.34693">
        <ele>1779</ele>
        <time>2014-08-07T12:50:25Z</time>
      </trkpt>
      <trkpt lat="45.2057" lon="6.34683">
        <ele>1780</ele>
        <time>2014-08-07T12:50:30Z</time>
      </trkpt>
      <trkpt lat="45.20576" lon="6.34672">
        <ele>1780</ele>
        <time>2014-08-07T12:50:39Z</time>
      </trkpt>
      <trkpt lat="45.20583" lon="6.3466">
        <ele>1776</ele>
        <time>2014-08-07T12:50:43Z</time>
      </trkpt>
      <trkpt lat="45.20588" lon="6.34647">
        <ele>1778</ele>
        <time>2014-08-07T12:50:47Z</time>
      </trkpt>
      <trkpt lat="45.20594" lon="6.34635">
        <ele>1777</ele>
        <time>2014-08-07T12:51:02Z</time>
      </trkpt>
      <trkpt lat="45.20602" lon="6.34622">
        <ele>1775</ele>
        <time>2014-08-07T12:51:06Z</time>
      </trkpt>
      <trkpt lat="45.20608" lon="6.34612">
        <ele>1774</ele>
        <time>2014-08-07T12:51:09Z</time>
      </trkpt>
      <trkpt lat="45.20615" lon="6.34602">
        <ele>1774</ele>
        <time>2014-08-07T12:51:12Z</time>
      </trkpt>
      <trkpt lat="45.20622" lon="6.3459">
        <ele>1773</ele>
        <time>2014-08-07T12:51:15Z</time>
      </trkpt>
      <trkpt lat="45.20627" lon="6.34579">
        <ele>1761</ele>
        <time>2014-08-07T12:51:17Z</time>
      </trkpt>
      <trkpt lat="45.20634" lon="6.34568">
        <ele>1761</ele>
        <time>2014-08-07T12:51:19Z</time>
      </trkpt>
      <trkpt lat="45.20642" lon="6.34556">
        <ele>1760</ele>
        <time>2014-08-07T12:51:22Z</time>
      </trkpt>
      <trkpt lat="45.20649" lon="6.34547">
        <ele>1759</ele>
        <time>2014-08-07T12:51:25Z</time>
      </trkpt>
      <trkpt lat="45.20655" lon="6.34535">
        <ele>1757</ele>
        <time>2014-08-07T12:51:32Z</time>
      </trkpt>
      <trkpt lat="45.2066" lon="6.34523">
        <ele>1755</ele>
        <time>2014-08-07T12:51:36Z</time>
      </trkpt>
      <trkpt lat="45.20669" lon="6.34515">
        <ele>1752</ele>
        <time>2014-08-07T12:51:41Z</time>
      </trkpt>
      <trkpt lat="45.20678" lon="6.34507">
        <ele>1751</ele>
        <time>2014-08-07T12:51:44Z</time>
      </trkpt>
      <trkpt lat="45.20686" lon="6.34497">
        <ele>1740</ele>
        <time>2014-08-07T12:51:46Z</time>
      </trkpt>
      <trkpt lat="45.20698" lon="6.34489">
        <ele>1737</ele>
        <time>2014-08-07T12:51:50Z</time>
      </trkpt>
      <trkpt lat="45.20711" lon="6.34485">
        <ele>1735</ele>
        <time>2014-08-07T12:51:53Z</time>
      </trkpt>
      <trkpt lat="45.20722" lon="6.34477">
        <ele>1734</ele>
        <time>2014-08-07T12:51:56Z</time>
      </trkpt>
      <trkpt lat="45.2073" lon="6.34468">
        <ele>1733</ele>
        <time>2014-08-07T12:51:58Z</time>
      </trkpt>
      <trkpt lat="45.2074" lon="6.34458">
        <ele>1731</ele>
        <time>2014-08-07T12:52:01Z</time>
      </trkpt>
      <trkpt lat="45.2075" lon="6.34452">
        <ele>1729</ele>
        <time>2014-08-07T12:52:04Z</time>
      </trkpt>
      <trkpt lat="45.2076" lon="6.34451">
        <ele>1724</ele>
        <time>2014-08-07T12:52:09Z</time>
      </trkpt>
      <trkpt lat="45.2077" lon="6.34447">
        <ele>1723</ele>
        <time>2014-08-07T12:52:12Z</time>
      </trkpt>
      <trkpt lat="45.2078" lon="6.34442">
        <ele>1723</ele>
        <time>2014-08-07T12:52:15Z</time>
      </trkpt>
      <trkpt lat="45.2079" lon="6.34439">
        <ele>1722</ele>
        <time>2014-08-07T12:52:17Z</time>
      </trkpt>
      <trkpt lat="45.20799" lon="6.34435">
        <ele>1721</ele>
        <time>2014-08-07T12:52:19Z</time>
      </trkpt>
      <trkpt lat="45.20811" lon="6.3443">
        <ele>1719</ele>
        <time>2014-08-07T12:52:22Z</time>
      </trkpt>
      <trkpt lat="45.20822" lon="6.34432">
        <ele>1717</ele>
        <time>2014-08-07T12:52:26Z</time>
      </trkpt>
      <trkpt lat="45.20829" lon="6.34444">
        <ele>1720</ele>
        <time>2014-08-07T12:52:32Z</time>
      </trkpt>
      <trkpt lat="45.20837" lon="6.34452">
        <ele>1715</ele>
        <time>2014-08-07T12:52:39Z</time>
      </trkpt>
      <trkpt lat="45.20846" lon="6.34444">
        <ele>1714</ele>
        <time>2014-08-07T12:52:45Z</time>
      </trkpt>
      <trkpt lat="45.20848" lon="6.34426">
        <ele>1712</ele>
        <time>2014-08-07T12:52:49Z</time>
      </trkpt>
      <trkpt lat="45.20851" lon="6.34409">
        <ele>1704</ele>
        <time>2014-08-07T12:52:52Z</time>
      </trkpt>
      <trkpt lat="45.20853" lon="6.34391">
        <ele>1702</ele>
        <time>2014-08-07T12:52:55Z</time>
      </trkpt>
      <trkpt lat="45.20858" lon="6.34375">
        <ele>1700</ele>
        <time>2014-08-07T12:52:58Z</time>
      </trkpt>
      <trkpt lat="45.20865" lon="6.34359">
        <ele>1699</ele>
        <time>2014-08-07T12:53:01Z</time>
      </trkpt>
      <trkpt lat="45.20871" lon="6.34343">
        <ele>1698</ele>
        <time>2014-08-07T12:53:04Z</time>
      </trkpt>
      <trkpt lat="45.20876" lon="6.34328">
        <ele>1691</ele>
        <time>2014-08-07T12:53:07Z</time>
      </trkpt>
      <trkpt lat="45.2088" lon="6.34316">
        <ele>1690</ele>
        <time>2014-08-07T12:53:10Z</time>
      </trkpt>
      <trkpt lat="45.20887" lon="6.34306">
        <ele>1690</ele>
        <time>2014-08-07T12:53:13Z</time>
      </trkpt>
      <trkpt lat="45.209" lon="6.343">
        <ele>1689</ele>
        <time>2014-08-07T12:53:16Z</time>
      </trkpt>
      <trkpt lat="45.2091" lon="6.343">
        <ele>1689</ele>
        <time>2014-08-07T12:53:18Z</time>
      </trkpt>
      <trkpt lat="45.20921" lon="6.34303">
        <ele>1687</ele>
        <time>2014-08-07T12:53:20Z</time>
      </trkpt>
      <trkpt lat="45.20931" lon="6.34311">
        <ele>1687</ele>
        <time>2014-08-07T12:53:23Z</time>
      </trkpt>
      <trkpt lat="45.2094" lon="6.34316">
        <ele>1687</ele>
        <time>2014-08-07T12:53:26Z</time>
      </trkpt>
      <trkpt lat="45.2095" lon="6.34312">
        <ele>1687</ele>
        <time>2014-08-07T12:53:31Z</time>
      </trkpt>
      <trkpt lat="45.20959" lon="6.34305">
        <ele>1687</ele>
        <time>2014-08-07T12:53:35Z</time>
      </trkpt>
      <trkpt lat="45.2097" lon="6.343">
        <ele>1686</ele>
        <time>2014-08-07T12:53:39Z</time>
      </trkpt>
      <trkpt lat="45.20978" lon="6.34295">
        <ele>1686</ele>
        <time>2014-08-07T12:53:43Z</time>
      </trkpt>
      <trkpt lat="45.20989" lon="6.34291">
        <ele>1686</ele>
        <time>2014-08-07T12:53:48Z</time>
      </trkpt>
      <trkpt lat="45.20998" lon="6.3429">
        <ele>1686</ele>
        <time>2014-08-07T12:53:52Z</time>
      </trkpt>
      <trkpt lat="45.21009" lon="6.34289">
        <ele>1681</ele>
        <time>2014-08-07T12:53:55Z</time>
      </trkpt>
      <trkpt lat="45.21021" lon="6.34288">
        <ele>1680</ele>
        <time>2014-08-07T12:53:58Z</time>
      </trkpt>
      <trkpt lat="45.21034" lon="6.34286">
        <ele>1679</ele>
        <time>2014-08-07T12:54:01Z</time>
      </trkpt>
      <trkpt lat="45.21045" lon="6.34283">
        <ele>1678</ele>
        <time>2014-08-07T12:54:03Z</time>
      </trkpt>
      <trkpt lat="45.21057" lon="6.3428">
        <ele>1677</ele>
        <time>2014-08-07T12:54:05Z</time>
      </trkpt>
      <trkpt lat="45.21069" lon="6.34273">
        <ele>1676</ele>
        <time>2014-08-07T12:54:07Z</time>
      </trkpt>
      <trkpt lat="45.21081" lon="6.34264">
        <ele>1675</ele>
        <time>2014-08-07T12:54:09Z</time>
      </trkpt>
      <trkpt lat="45.2109" lon="6.34255">
        <ele>1670</ele>
        <time>2014-08-07T12:54:11Z</time>
      </trkpt>
      <trkpt lat="45.21097" lon="6.34246">
        <ele>1668</ele>
        <time>2014-08-07T12:54:13Z</time>
      </trkpt>
      <trkpt lat="45.21106" lon="6.34237">
        <ele>1666</ele>
        <time>2014-08-07T12:54:15Z</time>
      </trkpt>
      <trkpt lat="45.21116" lon="6.34228">
        <ele>1664</ele>
        <time>2014-08-07T12:54:17Z</time>
      </trkpt>
      <trkpt lat="45.21122" lon="6.34217">
        <ele>1663</ele>
        <time>2014-08-07T12:54:19Z</time>
      </trkpt>
      <trkpt lat="45.21126" lon="6.34202">
        <ele>1663</ele>
        <time>2014-08-07T12:54:21Z</time>
      </trkpt>
      <trkpt lat="45.21132" lon="6.34184">
        <ele>1662</ele>
        <time>2014-08-07T12:54:23Z</time>
      </trkpt>
      <trkpt lat="45.21138" lon="6.34163">
        <ele>1660</ele>
        <time>2014-08-07T12:54:25Z</time>
      </trkpt>
      <trkpt lat="45.21145" lon="6.34143">
        <ele>1659</ele>
        <time>2014-08-07T12:54:27Z</time>
      </trkpt>
      <trkpt lat="45.21149" lon="6.34125">
        <ele>1659</ele>
        <time>2014-08-07T12:54:29Z</time>
      </trkpt>
      <trkpt lat="45.21151" lon="6.34108">
        <ele>1658</ele>
        <time>2014-08-07T12:54:31Z</time>
      </trkpt>
      <trkpt lat="45.21153" lon="6.3409">
        <ele>1655</ele>
        <time>2014-08-07T12:54:33Z</time>
      </trkpt>
      <trkpt lat="45.2115" lon="6.3407">
        <ele>1652</ele>
        <time>2014-08-07T12:54:35Z</time>
      </trkpt>
      <trkpt lat="45.21143" lon="6.34049">
        <ele>1652</ele>
        <time>2014-08-07T12:54:37Z</time>
      </trkpt>
      <trkpt lat="45.21139" lon="6.34036">
        <ele>1652</ele>
        <time>2014-08-07T12:54:38Z</time>
      </trkpt>
      <trkpt lat="45.21135" lon="6.34023">
        <ele>1651</ele>
        <time>2014-08-07T12:54:39Z</time>
      </trkpt>
      <trkpt lat="45.21131" lon="6.34009">
        <ele>1651</ele>
        <time>2014-08-07T12:54:40Z</time>
      </trkpt>
      <trkpt lat="45.21127" lon="6.33996">
        <ele>1644</ele>
        <time>2014-08-07T12:54:41Z</time>
      </trkpt>
      <trkpt lat="45.21124" lon="6.33982">
        <ele>1644</ele>
        <time>2014-08-07T12:54:42Z</time>
      </trkpt>
      <trkpt lat="45.2112" lon="6.33969">
        <ele>1643</ele>
        <time>2014-08-07T12:54:43Z</time>
      </trkpt>
      <trkpt lat="45.21113" lon="6.33947">
        <ele>1642</ele>
        <time>2014-08-07T12:54:45Z</time>
      </trkpt>
      <trkpt lat="45.21106" lon="6.33932">
        <ele>1641</ele>
        <time>2014-08-07T12:54:47Z</time>
      </trkpt>
      <trkpt lat="45.21096" lon="6.33922">
        <ele>1641</ele>
        <time>2014-08-07T12:54:50Z</time>
      </trkpt>
      <trkpt lat="45.21085" lon="6.33922">
        <ele>1641</ele>
        <time>2014-08-07T12:54:53Z</time>
      </trkpt>
      <trkpt lat="45.21077" lon="6.33931">
        <ele>1645</ele>
        <time>2014-08-07T12:54:56Z</time>
      </trkpt>
      <trkpt lat="45.21069" lon="6.33944">
        <ele>1648</ele>
        <time>2014-08-07T12:54:59Z</time>
      </trkpt>
      <trkpt lat="45.21056" lon="6.33949">
        <ele>1649</ele>
        <time>2014-08-07T12:55:02Z</time>
      </trkpt>
      <trkpt lat="45.21043" lon="6.33949">
        <ele>1649</ele>
        <time>2014-08-07T12:55:05Z</time>
      </trkpt>
      <trkpt lat="45.2103" lon="6.33946">
        <ele>1650</ele>
        <time>2014-08-07T12:55:08Z</time>
      </trkpt>
      <trkpt lat="45.21018" lon="6.33938">
        <ele>1649</ele>
        <time>2014-08-07T12:55:11Z</time>
      </trkpt>
      <trkpt lat="45.21008" lon="6.33934">
        <ele>1648</ele>
        <time>2014-08-07T12:55:13Z</time>
      </trkpt>
      <trkpt lat="45.20999" lon="6.33929">
        <ele>1649</ele>
        <time>2014-08-07T12:55:15Z</time>
      </trkpt>
      <trkpt lat="45.2099" lon="6.33925">
        <ele>1649</ele>
        <time>2014-08-07T12:55:17Z</time>
      </trkpt>
      <trkpt lat="45.20983" lon="6.33917">
        <ele>1649</ele>
        <time>2014-08-07T12:55:19Z</time>
      </trkpt>
      <trkpt lat="45.20974" lon="6.33903">
        <ele>1644</ele>
        <time>2014-08-07T12:55:22Z</time>
      </trkpt>
      <trkpt lat="45.20971" lon="6.33886">
        <ele>1643</ele>
        <time>2014-08-07T12:55:25Z</time>
      </trkpt>
      <trkpt lat="45.2097" lon="6.33868">
        <ele>1642</ele>
        <time>2014-08-07T12:55:28Z</time>
      </trkpt>
      <trkpt lat="45.2097" lon="6.33849">
        <ele>1642</ele>
        <time>2014-08-07T12:55:31Z</time>
      </trkpt>
      <trkpt lat="45.20974" lon="6.33831">
        <ele>1638</ele>
        <time>2014-08-07T12:55:34Z</time>
      </trkpt>
      <trkpt lat="45.20982" lon="6.33815">
        <ele>1638</ele>
        <time>2014-08-07T12:55:37Z</time>
      </trkpt>
      <trkpt lat="45.20993" lon="6.33809">
        <ele>1638</ele>
        <time>2014-08-07T12:55:40Z</time>
      </trkpt>
      <trkpt lat="45.21006" lon="6.33807">
        <ele>1638</ele>
        <time>2014-08-07T12:55:43Z</time>
      </trkpt>
      <trkpt lat="45.21017" lon="6.33806">
        <ele>1638</ele>
        <time>2014-08-07T12:55:46Z</time>
      </trkpt>
      <trkpt lat="45.21027" lon="6.33809">
        <ele>1638</ele>
        <time>2014-08-07T12:55:49Z</time>
      </trkpt>
      <trkpt lat="45.21037" lon="6.3381">
        <ele>1637</ele>
        <time>2014-08-07T12:55:52Z</time>
      </trkpt>
      <trkpt lat="45.21046" lon="6.33814">
        <ele>1637</ele>
        <time>2014-08-07T12:55:56Z</time>
      </trkpt>
      <trkpt lat="45.21053" lon="6.33805">
        <ele>1637</ele>
        <time>2014-08-07T12:56:03Z</time>
      </trkpt>
      <trkpt lat="45.2105" lon="6.33787">
        <ele>1636</ele>
        <time>2014-08-07T12:56:09Z</time>
      </trkpt>
      <trkpt lat="45.21048" lon="6.33773">
        <ele>1636</ele>
        <time>2014-08-07T12:56:11Z</time>
      </trkpt>
      <trkpt lat="45.21048" lon="6.33758">
        <ele>1635</ele>
        <time>2014-08-07T12:56:13Z</time>
      </trkpt>
      <trkpt lat="45.21051" lon="6.33739">
        <ele>1633</ele>
        <time>2014-08-07T12:56:16Z</time>
      </trkpt>
      <trkpt lat="45.21058" lon="6.33728">
        <ele>1632</ele>
        <time>2014-08-07T12:56:18Z</time>
      </trkpt>
      <trkpt lat="45.21068" lon="6.33726">
        <ele>1632</ele>
        <time>2014-08-07T12:56:20Z</time>
      </trkpt>
      <trkpt lat="45.21078" lon="6.33723">
        <ele>1632</ele>
        <time>2014-08-07T12:56:22Z</time>
      </trkpt>
      <trkpt lat="45.21086" lon="6.33706">
        <ele>1626</ele>
        <time>2014-08-07T12:56:25Z</time>
      </trkpt>
      <trkpt lat="45.21094" lon="6.33689">
        <ele>1627</ele>
        <time>2014-08-07T12:56:27Z</time>
      </trkpt>
      <trkpt lat="45.21103" lon="6.3367">
        <ele>1627</ele>
        <time>2014-08-07T12:56:29Z</time>
      </trkpt>
      <trkpt lat="45.21109" lon="6.3366">
        <ele>1630</ele>
        <time>2014-08-07T12:56:30Z</time>
      </trkpt>
      <trkpt lat="45.21122" lon="6.33646">
        <ele>1630</ele>
        <time>2014-08-07T12:56:32Z</time>
      </trkpt>
      <trkpt lat="45.21134" lon="6.33638">
        <ele>1630</ele>
        <time>2014-08-07T12:56:34Z</time>
      </trkpt>
      <trkpt lat="45.21144" lon="6.33631">
        <ele>1630</ele>
        <time>2014-08-07T12:56:36Z</time>
      </trkpt>
      <trkpt lat="45.21155" lon="6.33622">
        <ele>1631</ele>
        <time>2014-08-07T12:56:39Z</time>
      </trkpt>
      <trkpt lat="45.21164" lon="6.33612">
        <ele>1632</ele>
        <time>2014-08-07T12:56:43Z</time>
      </trkpt>
      <trkpt lat="45.21171" lon="6.33603">
        <ele>1627</ele>
        <time>2014-08-07T12:56:48Z</time>
      </trkpt>
      <trkpt lat="45.2118" lon="6.33596">
        <ele>1628</ele>
        <time>2014-08-07T12:56:52Z</time>
      </trkpt>
      <trkpt lat="45.21189" lon="6.33587">
        <ele>1626</ele>
        <time>2014-08-07T12:56:56Z</time>
      </trkpt>
      <trkpt lat="45.21198" lon="6.33576">
        <ele>1634</ele>
        <time>2014-08-07T12:57:00Z</time>
      </trkpt>
      <trkpt lat="45.21204" lon="6.33561">
        <ele>1634</ele>
        <time>2014-08-07T12:57:04Z</time>
      </trkpt>
      <trkpt lat="45.21211" lon="6.33549">
        <ele>1635</ele>
        <time>2014-08-07T12:57:08Z</time>
      </trkpt>
      <trkpt lat="45.21217" lon="6.33535">
        <ele>1635</ele>
        <time>2014-08-07T12:57:12Z</time>
      </trkpt>
      <trkpt lat="45.21222" lon="6.33521">
        <ele>1635</ele>
        <time>2014-08-07T12:57:17Z</time>
      </trkpt>
      <trkpt lat="45.21228" lon="6.33506">
        <ele>1635</ele>
        <time>2014-08-07T12:57:22Z</time>
      </trkpt>
      <trkpt lat="45.21235" lon="6.33493">
        <ele>1642</ele>
        <time>2014-08-07T12:57:26Z</time>
      </trkpt>
      <trkpt lat="45.21242" lon="6.33479">
        <ele>1644</ele>
        <time>2014-08-07T12:57:30Z</time>
      </trkpt>
      <trkpt lat="45.2125" lon="6.33467">
        <ele>1646</ele>
        <time>2014-08-07T12:57:33Z</time>
      </trkpt>
      <trkpt lat="45.21256" lon="6.33457">
        <ele>1622</ele>
        <time>2014-08-07T12:57:36Z</time>
      </trkpt>
      <trkpt lat="45.21263" lon="6.33444">
        <ele>1623</ele>
        <time>2014-08-07T12:57:40Z</time>
      </trkpt>
      <trkpt lat="45.21267" lon="6.3343">
        <ele>1625</ele>
        <time>2014-08-07T12:57:44Z</time>
      </trkpt>
      <trkpt lat="45.2127" lon="6.33417">
        <ele>1626</ele>
        <time>2014-08-07T12:57:48Z</time>
      </trkpt>
      <trkpt lat="45.2127" lon="6.33403">
        <ele>1626</ele>
        <time>2014-08-07T12:57:52Z</time>
      </trkpt>
      <trkpt lat="45.21269" lon="6.3339">
        <ele>1625</ele>
        <time>2014-08-07T12:57:55Z</time>
      </trkpt>
      <trkpt lat="45.21267" lon="6.33374">
        <ele>1624</ele>
        <time>2014-08-07T12:57:58Z</time>
      </trkpt>
      <trkpt lat="45.21264" lon="6.33357">
        <ele>1627</ele>
        <time>2014-08-07T12:58:02Z</time>
      </trkpt>
      <trkpt lat="45.21263" lon="6.33341">
        <ele>1633</ele>
        <time>2014-08-07T12:58:06Z</time>
      </trkpt>
      <trkpt lat="45.21262" lon="6.33328">
        <ele>1631</ele>
        <time>2014-08-07T12:58:11Z</time>
      </trkpt>
      <trkpt lat="45.21253" lon="6.33319">
        <ele>1631</ele>
        <time>2014-08-07T12:58:16Z</time>
      </trkpt>
      <trkpt lat="45.21246" lon="6.33307">
        <ele>1658</ele>
        <time>2014-08-07T12:58:19Z</time>
      </trkpt>
      <trkpt lat="45.21239" lon="6.33296">
        <ele>1659</ele>
        <time>2014-08-07T12:58:22Z</time>
      </trkpt>
      <trkpt lat="45.21228" lon="6.33287">
        <ele>1661</ele>
        <time>2014-08-07T12:58:26Z</time>
      </trkpt>
      <trkpt lat="45.21224" lon="6.33275">
        <ele>1660</ele>
        <time>2014-08-07T12:58:30Z</time>
      </trkpt>
      <trkpt lat="45.21217" lon="6.3326">
        <ele>1661</ele>
        <time>2014-08-07T12:58:34Z</time>
      </trkpt>
      <trkpt lat="45.21214" lon="6.33245">
        <ele>1653</ele>
        <time>2014-08-07T12:58:38Z</time>
      </trkpt>
      <trkpt lat="45.21208" lon="6.33235">
        <ele>1656</ele>
        <time>2014-08-07T12:58:41Z</time>
      </trkpt>
      <trkpt lat="45.21204" lon="6.33222">
        <ele>1655</ele>
        <time>2014-08-07T12:58:45Z</time>
      </trkpt>
      <trkpt lat="45.21204" lon="6.33206">
        <ele>1654</ele>
        <time>2014-08-07T12:58:49Z</time>
      </trkpt>
      <trkpt lat="45.21202" lon="6.33186">
        <ele>1652</ele>
        <time>2014-08-07T12:58:54Z</time>
      </trkpt>
      <trkpt lat="45.21201" lon="6.33172">
        <ele>1652</ele>
        <time>2014-08-07T12:58:56Z</time>
      </trkpt>
      <trkpt lat="45.21201" lon="6.33158">
        <ele>1642</ele>
        <time>2014-08-07T12:58:58Z</time>
      </trkpt>
      <trkpt lat="45.21198" lon="6.33143">
        <ele>1641</ele>
        <time>2014-08-07T12:59:01Z</time>
      </trkpt>
      <trkpt lat="45.21196" lon="6.33127">
        <ele>1640</ele>
        <time>2014-08-07T12:59:04Z</time>
      </trkpt>
      <trkpt lat="45.2119" lon="6.33114">
        <ele>1642</ele>
        <time>2014-08-07T12:59:08Z</time>
      </trkpt>
      <trkpt lat="45.21196" lon="6.33104">
        <ele>1640</ele>
        <time>2014-08-07T12:59:12Z</time>
      </trkpt>
      <trkpt lat="45.212" lon="6.3309">
        <ele>1638</ele>
        <time>2014-08-07T12:59:19Z</time>
      </trkpt>
      <trkpt lat="45.21196" lon="6.33078">
        <ele>1635</ele>
        <time>2014-08-07T12:59:25Z</time>
      </trkpt>
      <trkpt lat="45.21194" lon="6.33063">
        <ele>1634</ele>
        <time>2014-08-07T12:59:32Z</time>
      </trkpt>
      <trkpt lat="45.21197" lon="6.33048">
        <ele>1631</ele>
        <time>2014-08-07T12:59:38Z</time>
      </trkpt>
      <trkpt lat="45.21192" lon="6.33036">
        <ele>1632</ele>
        <time>2014-08-07T12:59:43Z</time>
      </trkpt>
      <trkpt lat="45.21201" lon="6.33028">
        <ele>1629</ele>
        <time>2014-08-07T13:00:08Z</time>
      </trkpt>
      <trkpt lat="45.21209" lon="6.33038">
        <ele>1627</ele>
        <time>2014-08-07T13:00:17Z</time>
      </trkpt>
      <trkpt lat="45.21215" lon="6.33024">
        <ele>1624</ele>
        <time>2014-08-07T13:00:34Z</time>
      </trkpt>
      <trkpt lat="45.21215" lon="6.3301">
        <ele>1623</ele>
        <time>2014-08-07T13:00:42Z</time>
      </trkpt>
      <trkpt lat="45.21222" lon="6.32992">
        <ele>1616</ele>
        <time>2014-08-07T13:00:50Z</time>
      </trkpt>
      <trkpt lat="45.21221" lon="6.32975">
        <ele>1617</ele>
        <time>2014-08-07T13:00:53Z</time>
      </trkpt>
      <trkpt lat="45.21228" lon="6.32986">
        <ele>1614</ele>
        <time>2014-08-07T13:01:08Z</time>
      </trkpt>
      <trkpt lat="45.21235" lon="6.32997">
        <ele>1610</ele>
        <time>2014-08-07T13:01:14Z</time>
      </trkpt>
      <trkpt lat="45.21235" lon="6.32984">
        <ele>1612</ele>
        <time>2014-08-07T13:01:28Z</time>
      </trkpt>
      <trkpt lat="45.21236" lon="6.3297">
        <ele>1614</ele>
        <time>2014-08-07T13:01:39Z</time>
      </trkpt>
      <trkpt lat="45.21239" lon="6.32957">
        <ele>1613</ele>
        <time>2014-08-07T13:01:49Z</time>
      </trkpt>
      <trkpt lat="45.21244" lon="6.32944">
        <ele>1611</ele>
        <time>2014-08-07T13:01:55Z</time>
      </trkpt>
      <trkpt lat="45.21248" lon="6.32931">
        <ele>1607</ele>
        <time>2014-08-07T13:02:00Z</time>
      </trkpt>
      <trkpt lat="45.21257" lon="6.32931">
        <ele>1583</ele>
        <time>2014-08-07T13:02:07Z</time>
      </trkpt>
      <trkpt lat="45.21261" lon="6.32943">
        <ele>1577</ele>
        <time>2014-08-07T13:02:16Z</time>
      </trkpt>
      <trkpt lat="45.21273" lon="6.3295">
        <ele>1572</ele>
        <time>2014-08-07T13:02:23Z</time>
      </trkpt>
      <trkpt lat="45.21283" lon="6.32961">
        <ele>1569</ele>
        <time>2014-08-07T13:02:29Z</time>
      </trkpt>
      <trkpt lat="45.21288" lon="6.32975">
        <ele>1567</ele>
        <time>2014-08-07T13:02:33Z</time>
      </trkpt>
      <trkpt lat="45.21296" lon="6.32983">
        <ele>1564</ele>
        <time>2014-08-07T13:02:43Z</time>
      </trkpt>
      <trkpt lat="45.21295" lon="6.32968">
        <ele>1564</ele>
        <time>2014-08-07T13:02:50Z</time>
      </trkpt>
      <trkpt lat="45.21289" lon="6.32957">
        <ele>1566</ele>
        <time>2014-08-07T13:02:56Z</time>
      </trkpt>
      <trkpt lat="45.21286" lon="6.32945">
        <ele>1567</ele>
        <time>2014-08-07T13:03:02Z</time>
      </trkpt>
      <trkpt lat="45.21288" lon="6.3293">
        <ele>1567</ele>
        <time>2014-08-07T13:03:10Z</time>
      </trkpt>
      <trkpt lat="45.21288" lon="6.32914">
        <ele>1563</ele>
        <time>2014-08-07T13:03:16Z</time>
      </trkpt>
      <trkpt lat="45.21291" lon="6.32898">
        <ele>1560</ele>
        <time>2014-08-07T13:03:23Z</time>
      </trkpt>
      <trkpt lat="45.21298" lon="6.32887">
        <ele>1557</ele>
        <time>2014-08-07T13:03:25Z</time>
      </trkpt>
      <trkpt lat="45.21304" lon="6.32873">
        <ele>1554</ele>
        <time>2014-08-07T13:03:28Z</time>
      </trkpt>
      <trkpt lat="45.21305" lon="6.32858">
        <ele>1552</ele>
        <time>2014-08-07T13:03:35Z</time>
      </trkpt>
      <trkpt lat="45.2131" lon="6.32843">
        <ele>1547</ele>
        <time>2014-08-07T13:03:43Z</time>
      </trkpt>
      <trkpt lat="45.21314" lon="6.3283">
        <ele>1537</ele>
        <time>2014-08-07T13:03:48Z</time>
      </trkpt>
      <trkpt lat="45.21311" lon="6.32817">
        <ele>1539</ele>
        <time>2014-08-07T13:03:54Z</time>
      </trkpt>
      <trkpt lat="45.21312" lon="6.32803">
        <ele>1540</ele>
        <time>2014-08-07T13:04:00Z</time>
      </trkpt>
      <trkpt lat="45.21318" lon="6.32817">
        <ele>1537</ele>
        <time>2014-08-07T13:04:18Z</time>
      </trkpt>
      <trkpt lat="45.21322" lon="6.32833">
        <ele>1532</ele>
        <time>2014-08-07T13:04:23Z</time>
      </trkpt>
      <trkpt lat="45.21324" lon="6.32846">
        <ele>1539</ele>
        <time>2014-08-07T13:04:25Z</time>
      </trkpt>
      <trkpt lat="45.21326" lon="6.32862">
        <ele>1545</ele>
        <time>2014-08-07T13:04:28Z</time>
      </trkpt>
      <trkpt lat="45.2133" lon="6.32884">
        <ele>1547</ele>
        <time>2014-08-07T13:04:32Z</time>
      </trkpt>
      <trkpt lat="45.21331" lon="6.32903">
        <ele>1542</ele>
        <time>2014-08-07T13:04:34Z</time>
      </trkpt>
      <trkpt lat="45.21332" lon="6.32917">
        <ele>1532</ele>
        <time>2014-08-07T13:04:36Z</time>
      </trkpt>
      <trkpt lat="45.21333" lon="6.32933">
        <ele>1546</ele>
        <time>2014-08-07T13:04:38Z</time>
      </trkpt>
      <trkpt lat="45.21335" lon="6.32947">
        <ele>1515</ele>
        <time>2014-08-07T13:04:40Z</time>
      </trkpt>
      <trkpt lat="45.21336" lon="6.32962">
        <ele>1514</ele>
        <time>2014-08-07T13:04:43Z</time>
      </trkpt>
      <trkpt lat="45.21338" lon="6.32976">
        <ele>1517</ele>
        <time>2014-08-07T13:04:45Z</time>
      </trkpt>
      <trkpt lat="45.2134" lon="6.32991">
        <ele>1523</ele>
        <time>2014-08-07T13:04:48Z</time>
      </trkpt>
      <trkpt lat="45.21339" lon="6.33007">
        <ele>1527</ele>
        <time>2014-08-07T13:04:52Z</time>
      </trkpt>
      <trkpt lat="45.21331" lon="6.33021">
        <ele>1552</ele>
        <time>2014-08-07T13:04:56Z</time>
      </trkpt>
      <trkpt lat="45.21341" lon="6.3301">
        <ele>1525</ele>
        <time>2014-08-07T13:05:04Z</time>
      </trkpt>
      <trkpt lat="45.21352" lon="6.33011">
        <ele>1520</ele>
        <time>2014-08-07T13:05:06Z</time>
      </trkpt>
      <trkpt lat="45.21362" lon="6.33019">
        <ele>1515</ele>
        <time>2014-08-07T13:05:09Z</time>
      </trkpt>
      <trkpt lat="45.21361" lon="6.33037">
        <ele>1515</ele>
        <time>2014-08-07T13:05:11Z</time>
      </trkpt>
      <trkpt lat="45.21361" lon="6.33051">
        <ele>1516</ele>
        <time>2014-08-07T13:05:13Z</time>
      </trkpt>
      <trkpt lat="45.21366" lon="6.3307">
        <ele>1517</ele>
        <time>2014-08-07T13:05:15Z</time>
      </trkpt>
      <trkpt lat="45.21369" lon="6.33084">
        <ele>1525</ele>
        <time>2014-08-07T13:05:16Z</time>
      </trkpt>
      <trkpt lat="45.21377" lon="6.33102">
        <ele>1523</ele>
        <time>2014-08-07T13:05:18Z</time>
      </trkpt>
      <trkpt lat="45.21383" lon="6.33135">
        <ele>1525</ele>
        <time>2014-08-07T13:05:22Z</time>
      </trkpt>
      <trkpt lat="45.21389" lon="6.33145">
        <ele>1523</ele>
        <time>2014-08-07T13:05:23Z</time>
      </trkpt>
      <trkpt lat="45.21394" lon="6.33158">
        <ele>1522</ele>
        <time>2014-08-07T13:05:24Z</time>
      </trkpt>
      <trkpt lat="45.214" lon="6.33172">
        <ele>1528</ele>
        <time>2014-08-07T13:05:26Z</time>
      </trkpt>
      <trkpt lat="45.21413" lon="6.33177">
        <ele>1523</ele>
        <time>2014-08-07T13:05:30Z</time>
      </trkpt>
      <trkpt lat="45.21421" lon="6.33186">
        <ele>1510</ele>
        <time>2014-08-07T13:05:32Z</time>
      </trkpt>
      <trkpt lat="45.2143" lon="6.33196">
        <ele>1510</ele>
        <time>2014-08-07T13:05:34Z</time>
      </trkpt>
      <trkpt lat="45.21448" lon="6.33205">
        <ele>1508</ele>
        <time>2014-08-07T13:05:38Z</time>
      </trkpt>
      <trkpt lat="45.21457" lon="6.33211">
        <ele>1507</ele>
        <time>2014-08-07T13:05:40Z</time>
      </trkpt>
      <trkpt lat="45.21462" lon="6.33223">
        <ele>1508</ele>
        <time>2014-08-07T13:05:42Z</time>
      </trkpt>
      <trkpt lat="45.2147" lon="6.33235">
        <ele>1508</ele>
        <time>2014-08-07T13:05:45Z</time>
      </trkpt>
      <trkpt lat="45.21477" lon="6.33245">
        <ele>1507</ele>
        <time>2014-08-07T13:05:48Z</time>
      </trkpt>
      <trkpt lat="45.21491" lon="6.33261">
        <ele>1514</ele>
        <time>2014-08-07T13:05:53Z</time>
      </trkpt>
      <trkpt lat="45.215" lon="6.33274">
        <ele>1517</ele>
        <time>2014-08-07T13:05:56Z</time>
      </trkpt>
      <trkpt lat="45.21506" lon="6.33284">
        <ele>1503</ele>
        <time>2014-08-07T13:05:58Z</time>
      </trkpt>
      <trkpt lat="45.21514" lon="6.33296">
        <ele>1504</ele>
        <time>2014-08-07T13:06:01Z</time>
      </trkpt>
      <trkpt lat="45.21519" lon="6.33308">
        <ele>1505</ele>
        <time>2014-08-07T13:06:03Z</time>
      </trkpt>
      <trkpt lat="45.21526" lon="6.33323">
        <ele>1506</ele>
        <time>2014-08-07T13:06:06Z</time>
      </trkpt>
      <trkpt lat="45.21532" lon="6.33334">
        <ele>1512</ele>
        <time>2014-08-07T13:06:08Z</time>
      </trkpt>
      <trkpt lat="45.2154" lon="6.33347">
        <ele>1510</ele>
        <time>2014-08-07T13:06:11Z</time>
      </trkpt>
      <trkpt lat="45.21547" lon="6.3336">
        <ele>1510</ele>
        <time>2014-08-07T13:06:13Z</time>
      </trkpt>
      <trkpt lat="45.21552" lon="6.33373">
        <ele>1510</ele>
        <time>2014-08-07T13:06:15Z</time>
      </trkpt>
      <trkpt lat="45.21558" lon="6.33383">
        <ele>1509</ele>
        <time>2014-08-07T13:06:17Z</time>
      </trkpt>
      <trkpt lat="45.21565" lon="6.33393">
        <ele>1509</ele>
        <time>2014-08-07T13:06:19Z</time>
      </trkpt>
      <trkpt lat="45.21574" lon="6.33409">
        <ele>1507</ele>
        <time>2014-08-07T13:06:22Z</time>
      </trkpt>
      <trkpt lat="45.21581" lon="6.33421">
        <ele>1507</ele>
        <time>2014-08-07T13:06:24Z</time>
      </trkpt>
      <trkpt lat="45.21587" lon="6.33432">
        <ele>1505</ele>
        <time>2014-08-07T13:06:26Z</time>
      </trkpt>
      <trkpt lat="45.21594" lon="6.33443">
        <ele>1505</ele>
        <time>2014-08-07T13:06:28Z</time>
      </trkpt>
      <trkpt lat="45.21601" lon="6.33452">
        <ele>1505</ele>
        <time>2014-08-07T13:06:30Z</time>
      </trkpt>
      <trkpt lat="45.21608" lon="6.33464">
        <ele>1506</ele>
        <time>2014-08-07T13:06:32Z</time>
      </trkpt>
      <trkpt lat="45.21615" lon="6.33476">
        <ele>1506</ele>
        <time>2014-08-07T13:06:34Z</time>
      </trkpt>
      <trkpt lat="45.21622" lon="6.33487">
        <ele>1506</ele>
        <time>2014-08-07T13:06:36Z</time>
      </trkpt>
      <trkpt lat="45.21629" lon="6.33497">
        <ele>1506</ele>
        <time>2014-08-07T13:06:38Z</time>
      </trkpt>
      <trkpt lat="45.21635" lon="6.33507">
        <ele>1510</ele>
        <time>2014-08-07T13:06:40Z</time>
      </trkpt>
      <trkpt lat="45.21641" lon="6.33519">
        <ele>1510</ele>
        <time>2014-08-07T13:06:42Z</time>
      </trkpt>
      <trkpt lat="45.21648" lon="6.33532">
        <ele>1511</ele>
        <time>2014-08-07T13:06:44Z</time>
      </trkpt>
      <trkpt lat="45.21655" lon="6.33543">
        <ele>1511</ele>
        <time>2014-08-07T13:06:46Z</time>
      </trkpt>
      <trkpt lat="45.21665" lon="6.3355">
        <ele>1511</ele>
        <time>2014-08-07T13:06:48Z</time>
      </trkpt>
      <trkpt lat="45.21675" lon="6.33556">
        <ele>1505</ele>
        <time>2014-08-07T13:06:50Z</time>
      </trkpt>
      <trkpt lat="45.21685" lon="6.33561">
        <ele>1505</ele>
        <time>2014-08-07T13:06:52Z</time>
      </trkpt>
      <trkpt lat="45.21694" lon="6.33567">
        <ele>1505</ele>
        <time>2014-08-07T13:06:54Z</time>
      </trkpt>
      <trkpt lat="45.21705" lon="6.33579">
        <ele>1504</ele>
        <time>2014-08-07T13:06:57Z</time>
      </trkpt>
      <trkpt lat="45.21712" lon="6.3359">
        <ele>1509</ele>
        <time>2014-08-07T13:06:59Z</time>
      </trkpt>
      <trkpt lat="45.21719" lon="6.33602">
        <ele>1508</ele>
        <time>2014-08-07T13:07:01Z</time>
      </trkpt>
      <trkpt lat="45.21724" lon="6.33612">
        <ele>1509</ele>
        <time>2014-08-07T13:07:03Z</time>
      </trkpt>
      <trkpt lat="45.2173" lon="6.33623">
        <ele>1509</ele>
        <time>2014-08-07T13:07:05Z</time>
      </trkpt>
      <trkpt lat="45.21737" lon="6.33634">
        <ele>1510</ele>
        <time>2014-08-07T13:07:07Z</time>
      </trkpt>
      <trkpt lat="45.21742" lon="6.33645">
        <ele>1510</ele>
        <time>2014-08-07T13:07:09Z</time>
      </trkpt>
      <trkpt lat="45.21752" lon="6.33658">
        <ele>1509</ele>
        <time>2014-08-07T13:07:12Z</time>
      </trkpt>
      <trkpt lat="45.21761" lon="6.33673">
        <ele>1511</ele>
        <time>2014-08-07T13:07:15Z</time>
      </trkpt>
      <trkpt lat="45.21768" lon="6.3369">
        <ele>1510</ele>
        <time>2014-08-07T13:07:18Z</time>
      </trkpt>
      <trkpt lat="45.21774" lon="6.33706">
        <ele>1511</ele>
        <time>2014-08-07T13:07:21Z</time>
      </trkpt>
      <trkpt lat="45.21778" lon="6.33718">
        <ele>1511</ele>
        <time>2014-08-07T13:07:23Z</time>
      </trkpt>
      <trkpt lat="45.21781" lon="6.33739">
        <ele>1512</ele>
        <time>2014-08-07T13:07:26Z</time>
      </trkpt>
      <trkpt lat="45.21782" lon="6.33754">
        <ele>1514</ele>
        <time>2014-08-07T13:07:28Z</time>
      </trkpt>
      <trkpt lat="45.21783" lon="6.3377">
        <ele>1514</ele>
        <time>2014-08-07T13:07:30Z</time>
      </trkpt>
      <trkpt lat="45.21783" lon="6.33787">
        <ele>1514</ele>
        <time>2014-08-07T13:07:32Z</time>
      </trkpt>
      <trkpt lat="45.21785" lon="6.33804">
        <ele>1514</ele>
        <time>2014-08-07T13:07:34Z</time>
      </trkpt>
      <trkpt lat="45.21794" lon="6.33817">
        <ele>1514</ele>
        <time>2014-08-07T13:07:36Z</time>
      </trkpt>
      <trkpt lat="45.21806" lon="6.33823">
        <ele>1512</ele>
        <time>2014-08-07T13:07:38Z</time>
      </trkpt>
      <trkpt lat="45.21818" lon="6.33821">
        <ele>1511</ele>
        <time>2014-08-07T13:07:40Z</time>
      </trkpt>
      <trkpt lat="45.21831" lon="6.3383">
        <ele>1510</ele>
        <time>2014-08-07T13:07:43Z</time>
      </trkpt>
      <trkpt lat="45.21834" lon="6.33844">
        <ele>1509</ele>
        <time>2014-08-07T13:07:46Z</time>
      </trkpt>
      <trkpt lat="45.21837" lon="6.3386">
        <ele>1510</ele>
        <time>2014-08-07T13:07:49Z</time>
      </trkpt>
      <trkpt lat="45.21838" lon="6.33874">
        <ele>1510</ele>
        <time>2014-08-07T13:07:52Z</time>
      </trkpt>
      <trkpt lat="45.21839" lon="6.33891">
        <ele>1511</ele>
        <time>2014-08-07T13:07:55Z</time>
      </trkpt>
      <trkpt lat="45.21836" lon="6.33908">
        <ele>1512</ele>
        <time>2014-08-07T13:07:58Z</time>
      </trkpt>
      <trkpt lat="45.21837" lon="6.33923">
        <ele>1513</ele>
        <time>2014-08-07T13:08:01Z</time>
      </trkpt>
      <trkpt lat="45.21837" lon="6.33938">
        <ele>1514</ele>
        <time>2014-08-07T13:08:04Z</time>
      </trkpt>
      <trkpt lat="45.21839" lon="6.33955">
        <ele>1514</ele>
        <time>2014-08-07T13:08:07Z</time>
      </trkpt>
      <trkpt lat="45.21841" lon="6.33971">
        <ele>1515</ele>
        <time>2014-08-07T13:08:10Z</time>
      </trkpt>
      <trkpt lat="45.21843" lon="6.33987">
        <ele>1515</ele>
        <time>2014-08-07T13:08:13Z</time>
      </trkpt>
      <trkpt lat="45.21843" lon="6.34005">
        <ele>1517</ele>
        <time>2014-08-07T13:08:16Z</time>
      </trkpt>
      <trkpt lat="45.21841" lon="6.34022">
        <ele>1518</ele>
        <time>2014-08-07T13:08:19Z</time>
      </trkpt>
      <trkpt lat="45.21837" lon="6.34038">
        <ele>1518</ele>
        <time>2014-08-07T13:08:22Z</time>
      </trkpt>
      <trkpt lat="45.21835" lon="6.34053">
        <ele>1519</ele>
        <time>2014-08-07T13:08:25Z</time>
      </trkpt>
      <trkpt lat="45.21829" lon="6.34064">
        <ele>1521</ele>
        <time>2014-08-07T13:08:28Z</time>
      </trkpt>
      <trkpt lat="45.21823" lon="6.34075">
        <ele>1521</ele>
        <time>2014-08-07T13:08:31Z</time>
      </trkpt>
      <trkpt lat="45.21836" lon="6.34077">
        <ele>1520</ele>
        <time>2014-08-07T13:08:37Z</time>
      </trkpt>
      <trkpt lat="45.2185" lon="6.34079">
        <ele>1519</ele>
        <time>2014-08-07T13:08:40Z</time>
      </trkpt>
      <trkpt lat="45.21862" lon="6.34083">
        <ele>1519</ele>
        <time>2014-08-07T13:08:43Z</time>
      </trkpt>
      <trkpt lat="45.2187" lon="6.34089">
        <ele>1521</ele>
        <time>2014-08-07T13:08:50Z</time>
      </trkpt>
      <trkpt lat="45.21867" lon="6.34102">
        <ele>1521</ele>
        <time>2014-08-07T13:09:26Z</time>
      </trkpt>
    </trkseg>
  </trk>
</gpx>